
Distance (Route):
Temperature : 13.8°C
Humidity : 65.7%
Pressure : 0hPa| Receiver | Frames | First received | Last received |
|---|---|---|---|
| PETON7-10 | 398 | 2026-09-03 11:23:00 | 2026-09-03 13:37:09 |
| PG1ADW-2 | 199 | 2026-09-03 11:42:25 | 2026-09-03 13:24:56 |
| HA6NAB-11 | 193 | 2026-09-03 11:46:46 | 2026-09-03 13:28:29 |
| OE5DRO-10 | 187 | 2026-09-03 11:42:47 | 2026-09-03 13:26:41 |
| DO3MHA-11 | 182 | 2026-09-03 12:01:21 | 2026-09-03 13:18:50 |
| OM5KV | 171 | 2026-09-03 11:32:39 | 2026-09-03 13:38:19 |
| OE3OSB-13 | 150 | 2026-09-03 11:25:26 | 2026-09-03 13:37:04 |
| OE5MMP-10 | 137 | 2026-09-03 12:05:29 | 2026-09-03 13:16:33 |
| OE3JTB-15 | 133 | 2026-09-03 11:18:35 | 2026-09-03 13:38:54 |
| S52SK | 113 | 2026-09-03 11:43:26 | 2026-09-03 13:26:56 |
| OE5DXL-15 | 88 | 2026-09-03 11:45:34 | 2026-09-03 13:23:07 |
| ATIDSZ-14 | 42 | 2026-09-03 12:30:47 | 2026-09-03 12:50:05 |
| GYPAP8-17 | 35 | 2026-09-03 12:27:27 | 2026-09-03 13:25:17 |
| OE5WHR-10 | 23 | 2026-09-03 12:29:35 | 2026-09-03 13:13:21 |
| NBG1-10 | 10 | 2026-09-03 12:27:02 | 2026-09-03 13:12:58 |
| OK1SLM-15 | 5 | 2026-09-03 12:42:31 | 2026-09-03 12:45:18 |
| DB0DAN | 4 | 2026-09-03 12:38:25 | 2026-09-03 12:39:10 |
| SQ9EZE-14 | 3 | 2026-09-03 12:37:09 | 2026-09-03 13:12:45 |
| Receiver | Date | Latitude | Longitude | Direction | Speed | Altitude | Climb | Temperature | Humidity | Pressure | Voltage | Killtimer | Uptime | BKT | XDATA |
|---|---|---|---|---|---|---|---|---|---|---|---|---|---|---|---|
| OE3JTB-15 | 2026-09-03 13:38:54 | 49.05437 | 18.31288 | 91° | 15km/h | 1267m | -10.8m/s | 13.8°C | 65.7% | 0hPa | 2.7V | 00:00:00 | 00:00:00 | 00:00:00 | |
| OE3JTB-15 | 2026-09-03 13:38:52 | 49.05436 | 18.31278 | 83° | 16km/h | 1291m | -12.2m/s | 13.6°C | 66.4% | 0hPa | 2.7V | 00:00:00 | 00:00:00 | 00:00:00 | |
| OE3JTB-15 | 2026-09-03 13:38:50 | 49.05436 | 18.31265 | 88° | 15km/h | 1314m | -11.6m/s | 13.4°C | 66.7% | 0hPa | 2.7V | 07:59:00 | 02:44:39 | 00:00:00 | |
| OE3JTB-15 | 2026-09-03 13:38:48 | 49.05436 | 18.31253 | 91° | 16km/h | 1337m | -11.1m/s | 13.1°C | 67.2% | 0hPa | 2.7V | 00:00:00 | 00:00:00 | 00:00:00 | |
| OE3JTB-15 | 2026-09-03 13:38:46 | 49.05437 | 18.31241 | 90° | 15km/h | 1358m | -11.0m/s | 12.9°C | 68.1% | 0hPa | 2.6V | 00:00:00 | 00:00:00 | 00:00:00 | |
| OE3JTB-15 | 2026-09-03 13:38:44 | 49.05436 | 18.31230 | 87° | 15km/h | 1380m | -11.5m/s | 12.7°C | 68.8% | 0hPa | 2.6V | 00:00:00 | 02:44:33 | 00:00:00 | |
| OE3JTB-15 | 2026-09-03 13:38:42 | 49.05437 | 18.31219 | 94° | 16km/h | 1402m | -9.7m/s | 12.7°C | 66.9% | 0hPa | 2.6V | 00:00:00 | 00:00:00 | 00:00:00 | |
| OE3JTB-15 | 2026-09-03 13:38:40 | 49.05438 | 18.31206 | 97° | 20km/h | 1422m | -11.0m/s | 12.7°C | 64.8% | 0hPa | 2.6V | 00:00:00 | 00:00:00 | 00:00:00 | |
| OE3JTB-15 | 2026-09-03 13:38:38 | 49.05440 | 18.31191 | 98° | 18km/h | 1441m | -8.9m/s | 12.4°C | 66.0% | 0hPa | 2.6V | 00:00:00 | 02:44:27 | 00:00:00 | |
| OE3JTB-15 | 2026-09-03 13:38:36 | 49.05441 | 18.31176 | 96° | 18km/h | 1462m | -11.0m/s | 12.2°C | 66.5% | 0hPa | 2.6V | 00:00:00 | 00:00:00 | 00:00:00 | |
| OE3JTB-15 | 2026-09-03 13:38:34 | 49.05442 | 18.31162 | 99° | 18km/h | 1484m | -10.8m/s | 11.8°C | 71.8% | 0hPa | 2.7V | 07:59:00 | 00:00:00 | 00:00:00 | |
| OE3JTB-15 | 2026-09-03 13:38:32 | 49.05444 | 18.31148 | 101° | 18km/h | 1505m | -11.3m/s | 11.6°C | 73.0% | 0hPa | 2.7V | 00:00:00 | 02:44:21 | 00:00:00 | |
| OE3JTB-15 | 2026-09-03 13:38:30 | 49.05446 | 18.31134 | 109° | 22km/h | 1528m | -10.1m/s | 11.7°C | 68.7% | 0hPa | 2.7V | 00:00:00 | 00:00:00 | 00:00:00 | |
| OE3JTB-15 | 2026-09-03 13:38:28 | 49.05448 | 18.31117 | 101° | 22km/h | 1548m | -10.0m/s | 11.7°C | 64.7% | 0hPa | 2.7V | 00:00:00 | 00:00:00 | 00:00:00 | |
| OE3JTB-15 | 2026-09-03 13:38:26 | 49.05450 | 18.31101 | 100° | 20km/h | 1569m | -10.9m/s | 11.5°C | 65.1% | 0hPa | 2.7V | 00:00:00 | 02:44:15 | 00:00:00 | |
| OE3JTB-15 | 2026-09-03 13:38:24 | 49.05452 | 18.31084 | 98° | 20km/h | 1590m | -10.9m/s | 11.3°C | 65.9% | 0hPa | 2.7V | 00:00:00 | 00:00:00 | 00:00:00 | |
| OE3JTB-15 | 2026-09-03 13:38:22 | 49.05455 | 18.31069 | 107° | 22km/h | 1612m | -10.9m/s | 11.0°C | 67.8% | 0hPa | 2.7V | 00:00:00 | 00:00:00 | 00:00:00 | |
| OE3JTB-15 | 2026-09-03 13:38:20 | 49.05456 | 18.31052 | 101° | 22km/h | 1633m | -10.0m/s | 10.8°C | 70.7% | 0hPa | 2.7V | 00:00:00 | 02:44:09 | 00:00:00 | |
| OM5KV | 2026-09-03 13:38:19 | 49.05456 | 18.31052 | 101° | 22km/h | 1633m | -10.0m/s | 10.8°C | 70.0% | 0hPa | 2.7V | 08:00:00 | 00:00:00 | 00:00:00 | |
| OE3JTB-15 | 2026-09-03 13:38:18 | 49.05459 | 18.31035 | 107° | 22km/h | 1652m | -9.5m/s | 10.6°C | 68.6% | 0hPa | 2.7V | 08:00:00 | 00:00:00 | 00:00:00 | |
| OE3JTB-15 | 2026-09-03 13:38:16 | 49.05461 | 18.31019 | 107° | 22km/h | 1672m | -9.2m/s | 10.4°C | 69.6% | 0hPa | 2.7V | 00:00:00 | 00:00:00 | 00:00:00 | |
| OE3JTB-15 | 2026-09-03 13:38:14 | 49.05464 | 18.31002 | 101° | 26km/h | 1691m | -10.0m/s | 10.1°C | 71.2% | 0hPa | 2.7V | 00:00:00 | 02:44:03 | 00:00:00 | |
| OM5KV | 2026-09-03 13:38:14 | 49.05464 | 18.31002 | 102° | 26km/h | 1691m | -10.0m/s | 10.2°C | 70.5% | 0hPa | 2.7V | 08:00:00 | 00:00:00 | 00:00:00 | |
| OE3JTB-15 | 2026-09-03 13:38:12 | 49.05467 | 18.30984 | 107° | 24km/h | 1711m | -9.3m/s | 9.8°C | 73.4% | 0hPa | 2.7V | 00:00:00 | 00:00:00 | 00:00:00 | |
| OE3JTB-15 | 2026-09-03 13:38:10 | 49.05470 | 18.30966 | 107° | 26km/h | 1730m | -10.2m/s | 9.7°C | 73.6% | 0hPa | 2.6V | 00:00:00 | 00:00:00 | 00:00:00 | |
| OE3JTB-15 | 2026-09-03 13:38:08 | 49.05475 | 18.30947 | 114° | 26km/h | 1750m | -10.3m/s | 9.6°C | 71.7% | 0hPa | 2.6V | 00:00:00 | 02:43:57 | 00:00:00 | |
| OM5KV | 2026-09-03 13:38:07 | 49.05474 | 18.30947 | 114° | 24km/h | 1750m | -10.3m/s | 9.7°C | 71.0% | 0hPa | 2.6V | 08:01:00 | 00:00:00 | 00:00:00 | |
| OE3JTB-15 | 2026-09-03 13:38:06 | 49.05479 | 18.30929 | 110° | 26km/h | 1770m | -10.0m/s | 9.5°C | 72.8% | 0hPa | 2.6V | 00:00:00 | 00:00:00 | 00:00:00 | |
| OE3JTB-15 | 2026-09-03 13:38:04 | 49.05482 | 18.30910 | 104° | 24km/h | 1789m | -9.8m/s | 9.3°C | 73.6% | 0hPa | 2.7V | 00:00:00 | 00:00:00 | 00:00:00 | |
| OM5KV | 2026-09-03 13:38:01 | 49.05486 | 18.30892 | 110° | 27km/h | 1809m | -9.6m/s | 9.2°C | 73.7% | 0hPa | 2.7V | 08:01:00 | 00:00:00 | 00:00:00 | |
| OE3JTB-15 | 2026-09-03 13:37:58 | 49.05495 | 18.30856 | 114° | 24km/h | 1849m | -9.2m/s | 8.9°C | 75.0% | 0hPa | 2.7V | 00:00:00 | 02:43:47 | 00:00:00 | |
| OM5KV | 2026-09-03 13:37:50 | 49.05510 | 18.30795 | 109° | 22km/h | 1920m | -10.8m/s | 8.3°C | 77.7% | 0hPa | 2.7V | 08:01:00 | 00:00:00 | 00:00:00 | |
| OE3JTB-15 | 2026-09-03 13:37:49 | 49.05514 | 18.30777 | 106° | 26km/h | 1940m | -9.6m/s | 8.0°C | 79.5% | 0hPa | 2.7V | 08:00:00 | 00:00:00 | 00:00:00 | |
| OE3JTB-15 | 2026-09-03 13:37:40 | 49.05533 | 18.30695 | 117° | 26km/h | 2028m | -10.0m/s | 7.3°C | 81.9% | 0hPa | 2.7V | 00:00:00 | 00:00:00 | 00:00:00 | |
| OM5KV | 2026-09-03 13:37:39 | 49.05533 | 18.30695 | 117° | 26km/h | 2028m | -10.0m/s | 7.4°C | 81.0% | 0hPa | 2.7V | 08:01:00 | 00:00:00 | 00:00:00 | |
| OE3JTB-15 | 2026-09-03 13:37:31 | 49.05556 | 18.30612 | 111° | 26km/h | 2122m | -10.2m/s | 6.6°C | 82.4% | 0hPa | 2.7V | 00:00:00 | 02:43:20 | 00:00:00 | |
| OM5KV | 2026-09-03 13:37:27 | 49.05563 | 18.30585 | 115° | 24km/h | 2152m | -9.4m/s | 6.4°C | 83.9% | 0hPa | 2.7V | 08:01:00 | 00:00:00 | 00:00:00 | |
| OE3JTB-15 | 2026-09-03 13:37:22 | 49.05582 | 18.30529 | 113° | 29km/h | 2210m | -9.7m/s | 5.8°C | 83.2% | 0hPa | 2.7V | 00:00:00 | 00:00:00 | 00:00:00 | |
| OM5KV | 2026-09-03 13:37:17 | 49.05594 | 18.30489 | 115° | 27km/h | 2250m | -11.7m/s | 5.6°C | 81.0% | 0hPa | 2.6V | 08:02:00 | 00:00:00 | 00:00:00 | |
| OE3JTB-15 | 2026-09-03 13:37:13 | 49.05612 | 18.30437 | 112° | 33km/h | 2302m | -10.6m/s | 5.1°C | 83.2% | 0hPa | 2.6V | 00:00:00 | 00:00:00 | 00:00:00 | |
| OM5KV | 2026-09-03 13:37:12 | 49.05611 | 18.30437 | 113° | 33km/h | 2302m | -10.6m/s | 5.1°C | 82.2% | 0hPa | 2.6V | 08:02:00 | 00:00:00 | 00:00:00 | |
| PETON7-10 | 2026-09-03 13:37:09 | 49.05624 | 18.30394 | 115° | 35km/h | 2343m | -10.5m/s | 5.1°C | 80.1% | 0hPa | 2.6V | 00:00:00 | 02:42:58 | 00:00:00 | |
| OM5KV | 2026-09-03 13:37:06 | 49.05632 | 18.30371 | 121° | 33km/h | 2362m | -10.0m/s | 5.1°C | 79.5% | 0hPa | 2.6V | 08:02:00 | 00:00:00 | 00:00:00 | |
| OE3OSB-13 | 2026-09-03 13:37:04 | 49.05646 | 18.30324 | 118° | 33km/h | 2401m | -8.8m/s | 4.8°C | 82.8% | -1.0hPa | 2.6V | 00:00:00 | 00:00:00 | 00:00:00 | |
| OM5KV | 2026-09-03 13:37:01 | 49.05650 | 18.30312 | 114° | 31km/h | 2410m | -10.3m/s | 4.7°C | 83.1% | 0hPa | 2.6V | 08:02:00 | 00:00:00 | 00:00:00 | |
| OE3JTB-15 | 2026-09-03 13:36:54 | 49.05679 | 18.30212 | 116° | 38km/h | 2492m | -10.3m/s | 4.2°C | 83.5% | 0hPa | 2.6V | 00:00:00 | 02:42:43 | 00:00:00 | |
| OM5KV | 2026-09-03 13:36:42 | 49.05735 | 18.30072 | 127° | 40km/h | 2608m | -9.8m/s | 3.4°C | 78.8% | 0hPa | 2.6V | 08:02:00 | 00:00:00 | 00:00:00 | |
| PETON7-10 | 2026-09-03 13:36:37 | 49.05770 | 18.29997 | 131° | 38km/h | 2674m | -9.9m/s | 3.4°C | 80.5% | 0hPa | 2.6V | 00:00:00 | 00:00:00 | 00:00:00 | |
| OE3JTB-15 | 2026-09-03 13:36:35 | 49.05783 | 18.29974 | 133° | 37km/h | 2696m | -11.0m/s | 3.3°C | 81.8% | 0hPa | 2.6V | 00:00:00 | 00:00:00 | 00:00:00 | |
| OM5KV | 2026-09-03 13:36:32 | 49.05796 | 18.29951 | 127° | 40km/h | 2716m | -11.2m/s | 3.3°C | 80.8% | 0hPa | 2.7V | 08:02:00 | 00:00:00 | 00:00:00 | |
| OM5KV | 2026-09-03 13:36:25 | 49.05840 | 18.29872 | 132° | 33km/h | 2791m | -9.8m/s | 2.7°C | 83.2% | 0hPa | 2.7V | 08:02:00 | 00:00:00 | 00:00:00 | |
| PETON7-10 | 2026-09-03 13:36:22 | 49.05863 | 18.29828 | 128° | 40km/h | 2834m | -10.4m/s | 2.4°C | 84.4% | 0hPa | 2.7V | 00:00:00 | 02:42:11 | 00:00:00 | |
| OM5KV | 2026-09-03 13:36:19 | 49.05875 | 18.29806 | 130° | 37km/h | 2855m | -10.9m/s | 2.2°C | 84.0% | 0hPa | 2.7V | 08:02:00 | 00:00:00 | 00:00:00 | |
| OE3JTB-15 | 2026-09-03 13:36:16 | 49.05899 | 18.29762 | 129° | 47km/h | 2897m | -10.6m/s | 1.9°C | 86.0% | 0hPa | 2.7V | 00:00:00 | 00:00:00 | 00:00:00 | |
| OM5KV | 2026-09-03 13:36:08 | 49.05947 | 18.29671 | 132° | 47km/h | 2971m | -11.2m/s | 2.9°C | 66.8% | 0hPa | 2.7V | 08:02:00 | 00:00:00 | 00:00:00 | |
| PETON7-10 | 2026-09-03 13:36:07 | 49.05962 | 18.29642 | 128° | 51km/h | 2992m | -11.2m/s | 3.0°C | 66.9% | 0hPa | 2.7V | 08:02:00 | 00:00:00 | 00:00:00 | |
| OE3OSB-13 | 2026-09-03 13:36:01 | 49.06009 | 18.29551 | 128° | 49km/h | 3058m | -9.9m/s | 2.7°C | 68.5% | -1.0hPa | 2.6V | 00:00:00 | 00:00:00 | 00:00:00 | |
| OE3JTB-15 | 2026-09-03 13:35:57 | 49.06042 | 18.29486 | 127° | 55km/h | 3100m | -11.1m/s | 2.4°C | 70.4% | 0hPa | 2.6V | 00:00:00 | 02:41:46 | 00:00:00 | |
| OM5KV | 2026-09-03 13:35:56 | 49.06042 | 18.29486 | 127° | 57km/h | 3100m | -11.2m/s | 2.5°C | 69.3% | 0hPa | 2.6V | 08:02:00 | 00:00:00 | 00:00:00 | |
| PETON7-10 | 2026-09-03 13:35:52 | 49.06084 | 18.29404 | 127° | 57km/h | 3156m | -11.1m/s | 2.1°C | 70.9% | 0hPa | 2.6V | 00:00:00 | 00:00:00 | 00:00:00 | |
| OM5KV | 2026-09-03 13:35:51 | 49.06084 | 18.29404 | 127° | 57km/h | 3156m | -11.1m/s | 2.1°C | 69.9% | 0hPa | 2.6V | 08:02:00 | 00:00:00 | 00:00:00 | |
| OE3JTB-15 | 2026-09-03 13:35:38 | 49.06207 | 18.29169 | 129° | 60km/h | 3310m | -10.6m/s | 1.0°C | 69.0% | 0hPa | 2.6V | 08:02:00 | 00:00:00 | 00:00:00 | |
| PETON7-10 | 2026-09-03 13:35:37 | 49.06216 | 18.29152 | 128° | 57km/h | 3320m | -9.7m/s | 0.9°C | 70.3% | 0hPa | 2.6V | 00:00:00 | 02:41:26 | 00:00:00 | |
| OM5KV | 2026-09-03 13:35:35 | 49.06224 | 18.29134 | 127° | 58km/h | 3331m | -10.7m/s | 0.9°C | 69.8% | 0hPa | 2.6V | 08:03:00 | 00:00:00 | 00:00:00 | |
| OE3OSB-13 | 2026-09-03 13:35:30 | 49.06275 | 18.29025 | 123° | 57km/h | 3396m | -11.0m/s | 0.6°C | 67.6% | -1.0hPa | 2.6V | 00:00:00 | 00:00:00 | 00:00:00 | |
| OM5KV | 2026-09-03 13:35:29 | 49.06275 | 18.29025 | 125° | 57km/h | 3396m | -11.0m/s | 0.6°C | 67.6% | 0hPa | 2.6V | 08:03:00 | 00:00:00 | 00:00:00 | |
| OM5KV | 2026-09-03 13:35:23 | 49.06332 | 18.28898 | 126° | 57km/h | 3473m | -12.4m/s | 0.1°C | 67.9% | 0hPa | 2.6V | 08:03:00 | 00:00:00 | 00:00:00 | |
| PETON7-10 | 2026-09-03 13:35:22 | 49.06340 | 18.28881 | 127° | 60km/h | 3485m | -11.7m/s | 0.1°C | 68.8% | 0hPa | 2.6V | 00:00:00 | 00:00:00 | 00:00:00 | |
| OM5KV | 2026-09-03 13:35:17 | 49.06377 | 18.28808 | 128° | 60km/h | 3533m | -11.9m/s | -0.2°C | 69.0% | 0hPa | 2.6V | 08:03:00 | 00:00:00 | 00:00:00 | |
| OM5KV | 2026-09-03 13:35:12 | 49.06425 | 18.28715 | 128° | 64km/h | 3591m | -11.6m/s | -0.6°C | 71.7% | 0hPa | 2.6V | 08:03:00 | 00:00:00 | 00:00:00 | |
| OE3JTB-15 | 2026-09-03 13:35:09 | 49.06464 | 18.28642 | 129° | 58km/h | 3640m | -11.3m/s | -0.5°C | 68.7% | 0hPa | 2.6V | 00:00:00 | 00:00:00 | 00:00:00 | |
| PETON7-10 | 2026-09-03 13:35:07 | 49.06483 | 18.28603 | 126° | 58km/h | 3662m | -11.2m/s | -0.7°C | 67.3% | 0hPa | 2.6V | 00:00:00 | 00:00:00 | 00:00:00 | |
| OE3OSB-13 | 2026-09-03 13:34:59 | 49.06553 | 18.28456 | 123° | 58km/h | 3753m | -12.3m/s | -1.1°C | 59.6% | -1.0hPa | 2.6V | 00:00:00 | 00:00:00 | 00:00:00 | |
| PETON7-10 | 2026-09-03 13:34:52 | 49.06613 | 18.28330 | 128° | 53km/h | 3831m | -10.9m/s | -1.5°C | 63.1% | 0hPa | 2.6V | 00:00:00 | 02:40:41 | 00:00:00 | |
| OM5KV | 2026-09-03 13:34:50 | 49.06622 | 18.28313 | 128° | 57km/h | 3842m | -11.2m/s | -1.6°C | 61.7% | 0hPa | 2.6V | 08:03:00 | 00:00:00 | 00:00:00 | |
| OM5KV | 2026-09-03 13:34:45 | 49.06664 | 18.28230 | 129° | 51km/h | 3898m | -11.8m/s | -2.0°C | 61.3% | 0hPa | 2.6V | 08:04:00 | 00:00:00 | 00:00:00 | |
| OE3JTB-15 | 2026-09-03 13:34:40 | 49.06714 | 18.28135 | 128° | 55km/h | 3967m | -10.8m/s | -2.5°C | 62.4% | 0hPa | 2.6V | 00:00:00 | 02:40:29 | 00:00:00 | |
| OM5KV | 2026-09-03 13:34:39 | 49.06714 | 18.28135 | 129° | 53km/h | 3967m | -10.8m/s | -2.5°C | 61.2% | 0hPa | 2.6V | 08:04:00 | 00:00:00 | 00:00:00 | |
| PETON7-10 | 2026-09-03 13:34:37 | 49.06740 | 18.28089 | 129° | 53km/h | 4001m | -11.7m/s | -2.8°C | 63.4% | 0hPa | 2.6V | 00:00:00 | 00:00:00 | 00:00:00 | |
| OM5KV | 2026-09-03 13:34:34 | 49.06756 | 18.28059 | 131° | 49km/h | 4024m | -10.2m/s | -3.0°C | 63.2% | 0hPa | 2.6V | 08:04:00 | 00:00:00 | 00:00:00 | |
| OM5KV | 2026-09-03 13:34:29 | 49.06799 | 18.27984 | 133° | 51km/h | 4075m | -12.4m/s | -3.5°C | 62.1% | 0hPa | 2.6V | 08:04:00 | 00:00:00 | 00:00:00 | |
| OE3OSB-13 | 2026-09-03 13:34:28 | 49.06816 | 18.27952 | 127° | 51km/h | 4098m | -12.0m/s | -3.7°C | 62.3% | -1.0hPa | 2.6V | 00:00:00 | 00:00:00 | 00:00:00 | |
| PETON7-10 | 2026-09-03 13:34:22 | 49.06866 | 18.27855 | 127° | 58km/h | 4165m | -11.8m/s | -4.2°C | 67.2% | 0hPa | 2.6V | 00:00:00 | 00:00:00 | 00:00:00 | |
| OM5KV | 2026-09-03 13:34:19 | 49.06892 | 18.27803 | 126° | 58km/h | 4200m | -11.3m/s | -4.6°C | 67.9% | 0hPa | 2.6V | 08:04:00 | 00:00:00 | 00:00:00 | |
| OM5KV | 2026-09-03 13:34:11 | 49.06950 | 18.27674 | 123° | 58km/h | 4279m | -11.8m/s | -5.3°C | 72.5% | 0hPa | 2.6V | 08:04:00 | 00:00:00 | 00:00:00 | |
| OE3JTB-15 | 2026-09-03 13:34:10 | 49.06966 | 18.27637 | 123° | 57km/h | 4302m | -11.2m/s | -5.5°C | 74.9% | 0hPa | 2.6V | 00:00:00 | 00:00:00 | 00:00:00 | |
| PETON7-10 | 2026-09-03 13:34:07 | 49.06990 | 18.27578 | 121° | 58km/h | 4337m | -13.5m/s | -5.8°C | 76.2% | 0hPa | 2.6V | 00:00:00 | 02:39:56 | 00:00:00 | |
| OM5KV | 2026-09-03 13:34:04 | 49.07006 | 18.27539 | 124° | 60km/h | 4362m | -11.5m/s | -6.1°C | 75.3% | 0hPa | 2.6V | 08:04:00 | 00:00:00 | 00:00:00 | |
| OE3OSB-13 | 2026-09-03 13:33:57 | 49.07070 | 18.27382 | 123° | 58km/h | 4457m | -11.7m/s | -6.9°C | 76.9% | -1.0hPa | 2.6V | 00:00:00 | 00:00:00 | 00:00:00 | |
| OM5KV | 2026-09-03 13:33:53 | 49.07093 | 18.27325 | 124° | 57km/h | 4491m | -10.7m/s | -7.2°C | 77.8% | 0hPa | 2.6V | 08:05:00 | 00:00:00 | 00:00:00 | |
| PETON7-10 | 2026-09-03 13:33:52 | 49.07109 | 18.27287 | 121° | 53km/h | 4512m | -11.5m/s | -7.3°C | 80.5% | 0hPa | 2.6V | 08:04:00 | 00:00:00 | 00:00:00 | |
| OM5KV | 2026-09-03 13:33:42 | 49.07179 | 18.27108 | 124° | 53km/h | 4628m | -11.1m/s | -8.0°C | 74.1% | 0hPa | 2.6V | 08:05:00 | 00:00:00 | 00:00:00 | |
| OE3JTB-15 | 2026-09-03 13:33:41 | 49.07186 | 18.27091 | 119° | 44km/h | 4639m | -11.4m/s | -8.1°C | 76.6% | 0hPa | 2.6V | 00:00:00 | 00:00:00 | 00:00:00 | |
| PETON7-10 | 2026-09-03 13:33:37 | 49.07211 | 18.27025 | 121° | 46km/h | 4684m | -10.6m/s | -8.3°C | 77.0% | 0hPa | 2.6V | 00:00:00 | 00:00:00 | 00:00:00 | |
| OM5KV | 2026-09-03 13:33:30 | 49.07246 | 18.26929 | 121° | 44km/h | 4752m | -10.9m/s | -8.8°C | 80.5% | 0hPa | 2.6V | 08:05:00 | 00:00:00 | 00:00:00 | |
| OE3OSB-13 | 2026-09-03 13:33:26 | 49.07275 | 18.26856 | 121° | 46km/h | 4808m | -10.5m/s | -9.3°C | 81.3% | -1.0hPa | 2.6V | 00:00:00 | 00:00:00 | 00:00:00 | |
| OM5KV | 2026-09-03 13:33:25 | 49.07275 | 18.26856 | 122° | 46km/h | 4809m | -10.5m/s | -9.3°C | 81.3% | 0hPa | 2.6V | 08:05:00 | 00:00:00 | 00:00:00 | |
| PETON7-10 | 2026-09-03 13:33:22 | 49.07297 | 18.26799 | 120° | 40km/h | 4851m | -11.8m/s | -9.6°C | 84.0% | 0hPa | 2.6V | 00:00:00 | 02:39:11 | 00:00:00 | |
| OM5KV | 2026-09-03 13:33:19 | 49.07308 | 18.26771 | 120° | 42km/h | 4873m | -10.9m/s | -9.8°C | 80.9% | 0hPa | 2.6V | 08:05:00 | 00:00:00 | 00:00:00 | |
| OM5KV | 2026-09-03 13:33:13 | 49.07341 | 18.26690 | 123° | 38km/h | 4939m | -10.9m/s | -10.5°C | 84.2% | 0hPa | 2.6V | 08:05:00 | 00:00:00 | 00:00:00 | |
| OE3JTB-15 | 2026-09-03 13:33:12 | 49.07351 | 18.26664 | 124° | 37km/h | 4962m | -11.4m/s | -10.7°C | 87.6% | 0hPa | 2.6V | 00:00:00 | 02:39:01 | 00:00:00 | |
| PETON7-10 | 2026-09-03 13:33:07 | 49.07377 | 18.26601 | 125° | 37km/h | 5016m | -9.7m/s | -11.3°C | 92.2% | 0hPa | 2.6V | 00:00:00 | 00:00:00 | 00:00:00 | |
| OM5KV | 2026-09-03 13:33:06 | 49.07377 | 18.26601 | 126° | 38km/h | 5016m | -9.7m/s | -11.3°C | 89.8% | 0hPa | 2.6V | 08:06:00 | 00:00:00 | 00:00:00 | |
| OE3OSB-13 | 2026-09-03 13:32:55 | 49.07437 | 18.26456 | 120° | 35km/h | 5144m | -11.5m/s | -12.3°C | 96.2% | -1.0hPa | 2.6V | 00:00:00 | 00:00:00 | 00:00:00 | |
| OM5KV | 2026-09-03 13:32:53 | 49.07442 | 18.26444 | 127° | 35km/h | 5155m | -10.4m/s | -12.4°C | 96.8% | 0hPa | 2.6V | 08:06:00 | 00:00:00 | 00:00:00 | |
| OM5KV | 2026-09-03 13:32:47 | 49.07471 | 18.26376 | 123° | 37km/h | 5222m | -11.6m/s | -12.8°C | 0% | 0hPa | 2.6V | 08:06:00 | 00:00:00 | 00:00:00 | |
| OE3JTB-15 | 2026-09-03 13:32:43 | 49.07494 | 18.26318 | 125° | 42km/h | 5281m | -11.6m/s | -13.2°C | 99.6% | 0hPa | 2.6V | 00:00:00 | 00:00:00 | 00:00:00 | |
| OM5KV | 2026-09-03 13:32:40 | 49.07503 | 18.26295 | 121° | 33km/h | 5305m | -12.0m/s | -13.4°C | 96.0% | 0hPa | 2.5V | 08:06:00 | 00:00:00 | 00:00:00 | |
| PETON7-10 | 2026-09-03 13:32:37 | 49.07520 | 18.26247 | 120° | 40km/h | 5350m | -12.1m/s | -13.7°C | 0% | 0hPa | 2.5V | 00:00:00 | 02:38:26 | 00:00:00 | |
| OM5KV | 2026-09-03 13:32:34 | 49.07529 | 18.26221 | 120° | 38km/h | 5372m | -10.4m/s | -13.9°C | 0% | 0hPa | 2.5V | 08:06:00 | 00:00:00 | 00:00:00 | |
| OM5KV | 2026-09-03 13:32:29 | 49.07553 | 18.26155 | 122° | 40km/h | 5427m | -10.5m/s | -14.5°C | 94.5% | 0hPa | 2.5V | 08:06:00 | 00:00:00 | 00:00:00 | |
| OE3OSB-13 | 2026-09-03 13:32:24 | 49.07585 | 18.26070 | 117° | 46km/h | 5489m | -9.8m/s | -14.5°C | 68.9% | -1.0hPa | 2.5V | 00:00:00 | 00:00:00 | 00:00:00 | |
| PETON7-10 | 2026-09-03 13:32:22 | 49.07596 | 18.26037 | 118° | 51km/h | 5509m | -9.7m/s | -14.5°C | 60.3% | 0hPa | 2.5V | 00:00:00 | 00:00:00 | 00:00:00 | |
| OM5KV | 2026-09-03 13:32:17 | 49.07619 | 18.25972 | 120° | 47km/h | 5553m | -10.5m/s | -14.5°C | 35.8% | 0hPa | 2.6V | 08:06:00 | 00:00:00 | 00:00:00 | |
| OE3JTB-15 | 2026-09-03 13:32:14 | 49.07644 | 18.25904 | 120° | 51km/h | 5595m | -10.9m/s | -14.5°C | 22.8% | 0hPa | 2.6V | 00:00:00 | 00:00:00 | 00:00:00 | |
| OM5KV | 2026-09-03 13:32:10 | 49.07662 | 18.25850 | 120° | 53km/h | 5628m | -10.1m/s | -14.3°C | 16.9% | 0hPa | 2.6V | 08:07:00 | 00:00:00 | 00:00:00 | |
| PETON7-10 | 2026-09-03 13:32:07 | 49.07686 | 18.25777 | 115° | 51km/h | 5670m | -10.9m/s | -14.3°C | 18.3% | 0hPa | 2.6V | 00:00:00 | 00:00:00 | 00:00:00 | |
| OM5KV | 2026-09-03 13:32:04 | 49.07697 | 18.25738 | 112° | 53km/h | 5693m | -11.9m/s | -14.4°C | 17.3% | 0hPa | 2.6V | 08:07:00 | 00:00:00 | 00:00:00 | |
| OE3OSB-13 | 2026-09-03 13:31:53 | 49.07751 | 18.25518 | 109° | 49km/h | 5827m | -9.8m/s | -15.3°C | 27.6% | -1.0hPa | 2.6V | 00:00:00 | 00:00:00 | 00:00:00 | |
| PETON7-10 | 2026-09-03 13:31:52 | 49.07755 | 18.25500 | 109° | 47km/h | 5838m | -11.5m/s | -15.3°C | 31.9% | 0hPa | 2.6V | 00:00:00 | 02:37:41 | 00:00:00 | |
| OM5KV | 2026-09-03 13:31:51 | 49.07755 | 18.25500 | 109° | 49km/h | 5838m | -11.5m/s | -15.4°C | 30.6% | 0hPa | 2.6V | 08:07:00 | 00:00:00 | 00:00:00 | |
| OM5KV | 2026-09-03 13:31:46 | 49.07775 | 18.25414 | 110° | 46km/h | 5895m | -11.5m/s | -15.8°C | 47.3% | 0hPa | 2.6V | 08:07:00 | 00:00:00 | 00:00:00 | |
| OE3JTB-15 | 2026-09-03 13:31:45 | 49.07784 | 18.25380 | 110° | 49km/h | 5917m | -11.6m/s | -16.0°C | 51.6% | 0hPa | 2.6V | 00:00:00 | 02:37:34 | 00:00:00 | |
| OM5KV | 2026-09-03 13:31:40 | 49.07801 | 18.25313 | 115° | 47km/h | 5962m | -10.3m/s | -16.3°C | 61.0% | 0hPa | 2.6V | 08:07:00 | 00:00:00 | 00:00:00 | |
| PETON7-10 | 2026-09-03 13:31:37 | 49.07820 | 18.25243 | 113° | 51km/h | 6005m | -11.4m/s | -16.6°C | 65.9% | 0hPa | 2.6V | 08:06:00 | 00:00:00 | 00:00:00 | |
| OM5KV | 2026-09-03 13:31:33 | 49.07834 | 18.25190 | 115° | 49km/h | 6038m | -10.3m/s | -16.9°C | 61.6% | 0hPa | 2.5V | 08:07:00 | 00:00:00 | 00:00:00 | |
| OM5KV | 2026-09-03 13:31:28 | 49.07859 | 18.25099 | 113° | 49km/h | 6093m | -11.8m/s | -17.4°C | 56.1% | 0hPa | 2.5V | 08:07:00 | 00:00:00 | 00:00:00 | |
| PETON7-10 | 2026-09-03 13:31:22 | 49.07897 | 18.24974 | 116° | 53km/h | 6169m | -11.0m/s | -17.7°C | 13.2% | 0hPa | 2.5V | 00:00:00 | 00:00:00 | 00:00:00 | |
| OM5KV | 2026-09-03 13:31:17 | 49.07920 | 18.24902 | 118° | 49km/h | 6213m | -11.4m/s | -17.8°C | 13.3% | 0hPa | 2.5V | 08:07:00 | 00:00:00 | 00:00:00 | |
| OE3JTB-15 | 2026-09-03 13:31:16 | 49.07932 | 18.24866 | 116° | 53km/h | 6236m | -11.5m/s | -18.0°C | 9.9% | 0hPa | 2.5V | 08:07:00 | 00:00:00 | 00:00:00 | |
| OM5KV | 2026-09-03 13:31:12 | 49.07949 | 18.24811 | 117° | 51km/h | 6269m | -11.5m/s | -18.2°C | 19.0% | 0hPa | 2.5V | 08:07:00 | 00:00:00 | 00:00:00 | |
| PETON7-10 | 2026-09-03 13:31:07 | 49.07986 | 18.24699 | 116° | 55km/h | 6336m | -11.2m/s | -18.7°C | 12.0% | 0hPa | 2.5V | 00:00:00 | 02:36:56 | 00:00:00 | |
| OM5KV | 2026-09-03 13:31:05 | 49.07992 | 18.24680 | 116° | 55km/h | 6347m | -11.8m/s | -18.7°C | 17.7% | 0hPa | 2.5V | 08:07:00 | 00:00:00 | 00:00:00 | |
| OE3OSB-13 | 2026-09-03 13:30:51 | 49.08094 | 18.24408 | 127° | 49km/h | 6522m | -11.9m/s | -19.7°C | 7.9% | -1.0hPa | 2.5V | 00:00:00 | 00:00:00 | 00:00:00 | |
| OM5KV | 2026-09-03 13:30:48 | 49.08110 | 18.24377 | 127° | 53km/h | 6546m | -11.9m/s | -19.7°C | 9.3% | 0hPa | 2.5V | 08:07:00 | 00:00:00 | 00:00:00 | |
| OE3JTB-15 | 2026-09-03 13:30:47 | 49.08125 | 18.24346 | 130° | 55km/h | 6570m | -11.7m/s | -19.8°C | 10.5% | 0hPa | 2.5V | 00:00:00 | 00:00:00 | 00:00:00 | |
| OM5KV | 2026-09-03 13:30:41 | 49.08167 | 18.24272 | 131° | 53km/h | 6627m | -11.4m/s | -20.2°C | 9.7% | 0hPa | 2.5V | 08:07:00 | 00:00:00 | 00:00:00 | |
| PETON7-10 | 2026-09-03 13:30:37 | 49.08209 | 18.24197 | 134° | 57km/h | 6685m | -12.1m/s | -20.6°C | 10.5% | 0hPa | 2.5V | 00:00:00 | 00:00:00 | 00:00:00 | |
| OM5KV | 2026-09-03 13:30:35 | 49.08218 | 18.24181 | 131° | 55km/h | 6698m | -12.2m/s | -20.7°C | 10.0% | 0hPa | 2.5V | 08:07:00 | 00:00:00 | 00:00:00 | |
| OM5KV | 2026-09-03 13:30:30 | 49.08262 | 18.24101 | 130° | 58km/h | 6757m | -11.0m/s | -20.9°C | 19.7% | 0hPa | 2.5V | 08:08:00 | 00:00:00 | 00:00:00 | |
| OM5KV | 2026-09-03 13:30:25 | 49.08308 | 18.24014 | 130° | 58km/h | 6811m | -10.7m/s | -21.4°C | 21.2% | 0hPa | 2.5V | 08:08:00 | 00:00:00 | 00:00:00 | |
| PETON7-10 | 2026-09-03 13:30:22 | 49.08345 | 18.23943 | 130° | 62km/h | 6855m | -10.6m/s | -21.7°C | 27.6% | 0hPa | 2.5V | 00:00:00 | 02:36:11 | 00:00:00 | |
| OM5KV | 2026-09-03 13:30:19 | 49.08363 | 18.23907 | 129° | 60km/h | 6877m | -11.1m/s | -21.9°C | 29.9% | 0hPa | 2.5V | 08:08:00 | 00:00:00 | 00:00:00 | |
| OE3JTB-15 | 2026-09-03 13:30:18 | 49.08382 | 18.23868 | 125° | 64km/h | 6898m | -10.3m/s | -22.0°C | 34.5% | 0hPa | 2.5V | 00:00:00 | 02:36:07 | 00:00:00 | |
| PETON7-10 | 2026-09-03 13:30:07 | 49.08476 | 18.23640 | 118° | 64km/h | 7016m | -11.4m/s | -23.3°C | 30.1% | 0hPa | 2.5V | 00:00:00 | 00:00:00 | 00:00:00 | |
| OE3OSB-13 | 2026-09-03 13:29:49 | 49.08614 | 18.23227 | 115° | 62km/h | 7243m | -12.9m/s | -25.3°C | 50.4% | -1.0hPa | 2.6V | 00:00:00 | 00:00:00 | 00:00:00 | |
| OM5KV | 2026-09-03 13:29:44 | 49.08635 | 18.23162 | 119° | 64km/h | 7278m | -11.7m/s | -25.7°C | 52.4% | 0hPa | 2.6V | 08:08:00 | 00:00:00 | 00:00:00 | |
| PETON7-10 | 2026-09-03 13:29:37 | 49.08690 | 18.22990 | 115° | 60km/h | 7375m | -12.5m/s | -26.5°C | 57.5% | 0hPa | 2.6V | 00:00:00 | 02:35:26 | 00:00:00 | |
| OM5KV | 2026-09-03 13:29:31 | 49.08722 | 18.22885 | 117° | 60km/h | 7437m | -11.5m/s | -27.2°C | 56.4% | 0hPa | 2.6V | 08:09:00 | 00:00:00 | 00:00:00 | |
| OM5KV | 2026-09-03 13:29:26 | 49.08756 | 18.22779 | 115° | 62km/h | 7495m | -11.3m/s | -27.7°C | 59.5% | 0hPa | 2.6V | 08:09:00 | 00:00:00 | 00:00:00 | |
| PETON7-10 | 2026-09-03 13:29:22 | 49.08788 | 18.22669 | 115° | 68km/h | 7552m | -11.4m/s | -28.0°C | 71.9% | 0hPa | 2.6V | 08:09:00 | 00:00:00 | 00:00:00 | |
| OE3JTB-15 | 2026-09-03 13:29:20 | 49.08801 | 18.22624 | 115° | 69km/h | 7575m | -11.6m/s | -27.8°C | 77.2% | 0hPa | 2.5V | 00:00:00 | 00:00:00 | 00:00:00 | |
| OE3OSB-13 | 2026-09-03 13:29:18 | 49.08820 | 18.22554 | 114° | 66km/h | 7610m | -11.1m/s | -28.0°C | 75.6% | -1.0hPa | 2.5V | 00:00:00 | 00:00:00 | 00:00:00 | |
| OM5KV | 2026-09-03 13:29:08 | 49.08872 | 18.22360 | 114° | 69km/h | 7704m | -11.2m/s | -28.5°C | 73.8% | 0hPa | 2.5V | 08:09:00 | 00:00:00 | 00:00:00 | |
| PETON7-10 | 2026-09-03 13:29:07 | 49.08885 | 18.22308 | 110° | 71km/h | 7727m | -12.7m/s | -28.6°C | 76.9% | 0hPa | 2.5V | 00:00:00 | 00:00:00 | 00:00:00 | |
| OM5KV | 2026-09-03 13:29:03 | 49.08905 | 18.22232 | 112° | 73km/h | 7763m | -11.7m/s | -28.9°C | 72.1% | 0hPa | 2.5V | 08:09:00 | 00:00:00 | 00:00:00 | |
| OE3OSB-13 | 2026-09-03 13:28:46 | 49.09029 | 18.21769 | 112° | 69km/h | 7972m | -12.5m/s | -30.2°C | 65.0% | -1.0hPa | 2.5V | 00:00:00 | 00:00:00 | 00:00:00 | |
| OM5KV | 2026-09-03 13:28:42 | 49.09050 | 18.21692 | 115° | 71km/h | 8007m | -11.8m/s | -30.5°C | 66.7% | 0hPa | 2.5V | 08:10:00 | 00:00:00 | 00:00:00 | |
| PETON7-10 | 2026-09-03 13:28:37 | 49.09095 | 18.21537 | 113° | 77km/h | 8076m | -12.0m/s | -31.1°C | 70.3% | 0hPa | 2.5V | 00:00:00 | 00:00:00 | 00:00:00 | |
| OM5KV | 2026-09-03 13:28:36 | 49.09095 | 18.21537 | 114° | 75km/h | 8076m | -12.0m/s | -31.1°C | 66.4% | 0hPa | 2.5V | 08:10:00 | 00:00:00 | 00:00:00 | |
| OM5KV | 2026-09-03 13:28:30 | 49.09142 | 18.21381 | 115° | 77km/h | 8149m | -11.7m/s | -31.7°C | 67.6% | 0hPa | 2.5V | 08:10:00 | 00:00:00 | 00:00:00 | |
| HA6NAB-11 | 2026-09-03 13:28:29 | 49.09150 | 18.21354 | 116° | 78km/h | 8161m | -11.9m/s | -31.8°C | 67.3% | 0hPa | 2.5V | 00:00:00 | 00:00:00 | 00:00:00 | |
| PETON7-10 | 2026-09-03 13:28:22 | 49.09218 | 18.21133 | 115° | 84km/h | 8254m | -10.9m/s | -32.4°C | 72.9% | 0hPa | 2.5V | 00:00:00 | 00:00:00 | 00:00:00 | |
| OM5KV | 2026-09-03 13:28:18 | 49.09243 | 18.21048 | 114° | 80km/h | 8288m | -12.9m/s | -32.7°C | 69.2% | 0hPa | 2.5V | 08:10:00 | 00:00:00 | 00:00:00 | |
| OE3OSB-13 | 2026-09-03 13:28:15 | 49.09277 | 18.20929 | 112° | 82km/h | 8334m | -12.2m/s | -33.0°C | 71.5% | -1.0hPa | 2.5V | 00:00:00 | 00:00:00 | 00:00:00 | |
| PETON7-10 | 2026-09-03 13:28:07 | 49.09343 | 18.20689 | 115° | 86km/h | 8427m | -11.6m/s | -33.6°C | 75.2% | 0hPa | 2.5V | 00:00:00 | 02:33:56 | 00:00:00 | |
| OM5KV | 2026-09-03 13:28:06 | 49.09343 | 18.20689 | 115° | 86km/h | 8427m | -11.6m/s | -33.7°C | 70.9% | 0hPa | 2.5V | 08:10:00 | 00:00:00 | 00:00:00 | |
| OE3OSB-13 | 2026-09-03 13:27:44 | 49.09560 | 18.19983 | 117° | 89km/h | 8713m | -12.3m/s | -35.8°C | 67.2% | -1.0hPa | 2.5V | 00:00:00 | 00:00:00 | 00:00:00 | |
| OM5KV | 2026-09-03 13:27:42 | 49.09571 | 18.19952 | 120° | 93km/h | 8726m | -12.1m/s | -35.9°C | 67.5% | 0hPa | 2.5V | 08:11:00 | 00:00:00 | 00:00:00 | |
| PETON7-10 | 2026-09-03 13:27:37 | 49.09640 | 18.19759 | 118° | 99km/h | 8796m | -12.2m/s | 0°C | 0% | 0hPa | 2.5V | 00:00:00 | 00:00:00 | 00:00:00 | |
| OM5KV | 2026-09-03 13:27:36 | 49.09639 | 18.19759 | 119° | 97km/h | 8796m | -12.3m/s | -36.4°C | 69.4% | 0hPa | 2.5V | 08:11:00 | 00:00:00 | 00:00:00 | |
| OM5KV | 2026-09-03 13:27:30 | 49.09711 | 18.19562 | 120° | 97km/h | 8874m | -14.1m/s | -37.0°C | 71.7% | 0hPa | 2.5V | 08:11:00 | 00:00:00 | 00:00:00 | |
| OM5KV | 2026-09-03 13:27:25 | 49.09771 | 18.19395 | 120° | 100km/h | 8936m | -11.7m/s | -37.4°C | 74.0% | 0hPa | 2.5V | 08:11:00 | 00:00:00 | 00:00:00 | |
| OE3JTB-15 | 2026-09-03 13:27:24 | 49.09796 | 18.19327 | 119° | 104km/h | 8960m | -12.0m/s | -37.6°C | 79.7% | 0hPa | 2.5V | 00:00:00 | 02:33:13 | 00:00:00 | |
| PETON7-10 | 2026-09-03 13:27:22 | 49.09820 | 18.19258 | 118° | 100km/h | 8984m | -11.4m/s | 0°C | 0% | 0hPa | 2.5V | 00:00:00 | 02:33:11 | 00:00:00 | |
| OE3OSB-13 | 2026-09-03 13:27:13 | 49.09929 | 18.18950 | 118° | 97km/h | 9090m | -13.4m/s | -38.8°C | 73.7% | -1.0hPa | 2.5V | 00:00:00 | 00:00:00 | 00:00:00 | |
| OM5KV | 2026-09-03 13:27:09 | 49.09965 | 18.18847 | 119° | 100km/h | 9128m | -12.2m/s | -39.1°C | 72.1% | 0hPa | 2.5V | 08:12:00 | 00:00:00 | 00:00:00 | |
| PETON7-10 | 2026-09-03 13:27:08 | 49.09989 | 18.18779 | 119° | 104km/h | 9153m | -12.2m/s | 0°C | 0% | 0hPa | 2.5V | 00:00:00 | 00:00:00 | 00:00:00 | |
| OM5KV | 2026-09-03 13:27:02 | 49.10052 | 18.18603 | 120° | 106km/h | 9208m | -10.0m/s | -39.8°C | 71.9% | 0hPa | 2.5V | 08:12:00 | 00:00:00 | 00:00:00 | |
| OM5KV | 2026-09-03 13:26:57 | 49.10117 | 18.18421 | 120° | 110km/h | 9261m | -11.6m/s | -40.3°C | 72.6% | 0hPa | 2.5V | 08:12:00 | 00:00:00 | 00:00:00 | |
| S52SK | 2026-09-03 13:26:56 | 49.10130 | 18.18384 | 121° | 108km/h | 9273m | -11.5m/s | -40.4°C | 72.6% | 0hPa | 2.5V | 00:00:00 | 00:00:00 | 00:00:00 | |
| OE3JTB-15 | 2026-09-03 13:26:55 | 49.10156 | 18.18311 | 119° | 110km/h | 9297m | -12.3m/s | -40.6°C | 77.1% | 0hPa | 2.5V | 08:11:00 | 00:00:00 | 00:00:00 | |
| OM5KV | 2026-09-03 13:26:51 | 49.10196 | 18.18199 | 120° | 111km/h | 9332m | -11.9m/s | -40.9°C | 70.5% | 0hPa | 2.6V | 08:12:00 | 00:00:00 | 00:00:00 | |
| S52SK | 2026-09-03 13:26:50 | 49.10210 | 18.18161 | 120° | 110km/h | 9344m | -12.4m/s | -41.0°C | 70.3% | 0hPa | 2.6V | 00:00:00 | 00:00:00 | 00:00:00 | |
| OM5KV | 2026-09-03 13:26:46 | 49.10262 | 18.18011 | 119° | 111km/h | 9394m | -12.9m/s | -41.4°C | 72.0% | 0hPa | 2.6V | 08:12:00 | 00:00:00 | 00:00:00 | |
| OE3OSB-13 | 2026-09-03 13:26:42 | 49.10328 | 18.17823 | 119° | 110km/h | 9454m | -12.6m/s | -42.0°C | 72.4% | -1.0hPa | 2.6V | 00:00:00 | 00:00:00 | 00:00:00 | |
| OE5DRO-10 | 2026-09-03 13:26:41 | 49.10341 | 18.17786 | 119° | 102km/h | 9466m | -12.4m/s | -42.1°C | 77.8% | 0hPa | 2.6V | 00:00:00 | 00:00:00 | 00:00:00 | |
| OM5KV | 2026-09-03 13:26:36 | 49.10394 | 18.17638 | 119° | 111km/h | 9516m | -12.2m/s | -42.6°C | 71.0% | 0hPa | 2.6V | 08:12:00 | 00:00:00 | 00:00:00 | |
| OE3JTB-15 | 2026-09-03 13:26:26 | 49.10542 | 18.17237 | 120° | 100km/h | 9651m | -12.4m/s | -43.8°C | 72.7% | 0hPa | 2.6V | 00:00:00 | 00:00:00 | 00:00:00 | |
| OM5KV | 2026-09-03 13:26:24 | 49.10555 | 18.17202 | 122° | 106km/h | 9663m | -12.5m/s | -44.0°C | 66.4% | 0hPa | 2.6V | 08:12:00 | 00:00:00 | 00:00:00 | |
| OM5KV | 2026-09-03 13:26:19 | 49.10624 | 18.17030 | 123° | 104km/h | 9722m | -11.7m/s | -44.5°C | 58.4% | 0hPa | 2.6V | 08:12:00 | 00:00:00 | 00:00:00 | |
| OM5KV | 2026-09-03 13:26:14 | 49.10693 | 18.16864 | 123° | 102km/h | 9783m | -13.3m/s | -45.1°C | 59.0% | 0hPa | 2.6V | 08:13:00 | 00:00:00 | 00:00:00 | |
| OE3OSB-13 | 2026-09-03 13:26:11 | 49.10749 | 18.16733 | 123° | 100km/h | 9835m | -12.4m/s | -45.6°C | 57.2% | -1.0hPa | 2.6V | 00:00:00 | 00:00:00 | 00:00:00 | |
| PETON7-10 | 2026-09-03 13:26:08 | 49.10790 | 18.16636 | 123° | 99km/h | 9874m | -13.5m/s | -45.8°C | 61.3% | 0hPa | 2.6V | 00:00:00 | 00:00:00 | 00:00:00 | |
| OM5KV | 2026-09-03 13:26:03 | 49.10845 | 18.16506 | 123° | 99km/h | 9928m | -13.4m/s | -46.4°C | 56.6% | 0hPa | 2.6V | 08:13:00 | 00:00:00 | 00:00:00 | |
| OE5DRO-10 | 2026-09-03 13:26:02 | 49.10871 | 18.16443 | 122° | 95km/h | 9955m | -12.6m/s | -46.6°C | 62.4% | 0hPa | 2.6V | 08:12:00 | 00:00:00 | 00:00:00 | |
| OE3JTB-15 | 2026-09-03 13:25:57 | 49.10937 | 18.16282 | 122° | 97km/h | 10021m | -14.3m/s | -47.2°C | 62.2% | 0hPa | 2.6V | 00:00:00 | 02:31:46 | 00:00:00 | |
| PETON7-10 | 2026-09-03 13:25:53 | 49.10989 | 18.16152 | 122° | 97km/h | 10075m | -12.7m/s | -47.7°C | 63.6% | 0hPa | 2.6V | 00:00:00 | 00:00:00 | 00:00:00 | |
| OM5KV | 2026-09-03 13:25:51 | 49.11002 | 18.16120 | 123° | 97km/h | 10087m | -12.3m/s | -47.9°C | 58.2% | 0hPa | 2.6V | 08:13:00 | 00:00:00 | 00:00:00 | |
| OM5KV | 2026-09-03 13:25:45 | 49.11080 | 18.15929 | 123° | 95km/h | 10163m | -12.8m/s | -48.6°C | 57.6% | 0hPa | 2.6V | 08:13:00 | 00:00:00 | 00:00:00 | |
| OE3OSB-13 | 2026-09-03 13:25:40 | 49.11160 | 18.15743 | 122° | 95km/h | 10238m | -13.3m/s | -49.3°C | 55.4% | -1.0hPa | 2.6V | 00:00:00 | 00:00:00 | 00:00:00 | |
| OM5KV | 2026-09-03 13:25:39 | 49.11160 | 18.15743 | 124° | 95km/h | 10238m | -13.3m/s | -49.3°C | 55.6% | 0hPa | 2.6V | 08:13:00 | 00:00:00 | 00:00:00 | |
| PETON7-10 | 2026-09-03 13:25:38 | 49.11187 | 18.15681 | 124° | 95km/h | 10264m | -13.1m/s | -49.5°C | 60.5% | 0hPa | 2.6V | 00:00:00 | 02:31:27 | 00:00:00 | |
| S52SK | 2026-09-03 13:25:36 | 49.11200 | 18.15650 | 124° | 97km/h | 10277m | -12.9m/s | -49.6°C | 53.8% | 0hPa | 2.6V | 00:00:00 | 00:00:00 | 00:00:00 | |
| S52SK | 2026-09-03 13:25:30 | 49.11281 | 18.15465 | 126° | 95km/h | 10360m | -14.5m/s | -50.4°C | 53.2% | 0hPa | 2.6V | 00:00:00 | 00:00:00 | 00:00:00 | |
| OE3JTB-15 | 2026-09-03 13:25:28 | 49.11320 | 18.15375 | 123° | 93km/h | 10402m | -13.9m/s | -50.7°C | 59.2% | 0hPa | 2.6V | 00:00:00 | 00:00:00 | 00:00:00 | |
| PETON7-10 | 2026-09-03 13:25:23 | 49.11386 | 18.15223 | 124° | 91km/h | 10475m | -15.2m/s | -51.4°C | 59.0% | 0hPa | 2.6V | 08:13:00 | 00:00:00 | 00:00:00 | |
| OM5KV | 2026-09-03 13:25:22 | 49.11386 | 18.15223 | 125° | 93km/h | 10475m | -15.2m/s | -51.4°C | 52.8% | 0hPa | 2.5V | 08:13:00 | 00:00:00 | 00:00:00 | |
| GYPAP8-17 | 2026-09-03 13:25:17 | 49.11452 | 18.15077 | 125° | 91km/h | 10547m | -14.2m/s | -52.0°C | 52.6% | 0hPa | 2.5V | 00:00:00 | 00:00:00 | 00:00:00 | |
| OE5DRO-10 | 2026-09-03 13:25:16 | 49.11478 | 18.15019 | 125° | 93km/h | 10575m | -13.7m/s | -52.2°C | 59.7% | 0hPa | 2.5V | 00:00:00 | 00:00:00 | 00:00:00 | |
| OE3OSB-13 | 2026-09-03 13:25:09 | 49.11569 | 18.14818 | 123° | 89km/h | 10672m | -13.6m/s | -53.2°C | 51.5% | -1.0hPa | 2.5V | 00:00:00 | 00:00:00 | 00:00:00 | |
| PETON7-10 | 2026-09-03 13:25:08 | 49.11581 | 18.14790 | 125° | 89km/h | 10687m | -14.8m/s | -53.2°C | 57.9% | 0hPa | 2.5V | 00:00:00 | 00:00:00 | 00:00:00 | |
| OE3JTB-15 | 2026-09-03 13:24:59 | 49.11697 | 18.14532 | 125° | 40km/h | 10814m | -14.5m/s | -54.0°C | 53.9% | 0hPa | 2.5V | 00:00:00 | 00:00:00 | 00:00:00 | |
| PG1ADW-2 | 2026-09-03 13:24:56 | 49.11736 | 18.14449 | 126° | 91km/h | 10857m | -14.4m/s | -54.4°C | 53.7% | 0hPa | 2.5V | 00:00:00 | 02:30:45 | 00:00:00 | |
| OM5KV | 2026-09-03 13:24:54 | 49.11749 | 18.14420 | 126° | 91km/h | 10871m | -13.9m/s | -54.6°C | 46.9% | 0hPa | 2.5V | 08:13:00 | 00:00:00 | 00:00:00 | |
| PETON7-10 | 2026-09-03 13:24:53 | 49.11777 | 18.14364 | 127° | 89km/h | 10900m | -14.3m/s | -54.8°C | 53.4% | 0hPa | 2.5V | 00:00:00 | 02:30:42 | 00:00:00 | |
| OM5KV | 2026-09-03 13:24:49 | 49.11817 | 18.14281 | 129° | 89km/h | 10944m | -14.4m/s | -55.2°C | 45.7% | 0hPa | 2.5V | 08:13:00 | 00:00:00 | 00:00:00 | |
| OM5KV | 2026-09-03 13:24:44 | 49.11887 | 18.14145 | 131° | 89km/h | 11016m | -14.4m/s | -55.8°C | 42.2% | 0hPa | 2.5V | 08:13:00 | 00:00:00 | 00:00:00 | |
| PETON7-10 | 2026-09-03 13:24:38 | 49.11990 | 18.13959 | 131° | 95km/h | 11116m | -14.9m/s | -56.3°C | 40.0% | 0hPa | 2.5V | 00:00:00 | 00:00:00 | 00:00:00 | |
| PG1ADW-2 | 2026-09-03 13:24:35 | 49.12036 | 18.13879 | 131° | 99km/h | 11159m | -14.3m/s | -56.4°C | 34.5% | 0hPa | 2.6V | 00:00:00 | 00:00:00 | 00:00:00 | |
| OM5KV | 2026-09-03 13:24:32 | 49.12067 | 18.13824 | 133° | 95km/h | 11188m | -13.9m/s | -56.3°C | 25.5% | 0hPa | 2.5V | 08:14:00 | 00:00:00 | 00:00:00 | |
| OM5KV | 2026-09-03 13:24:27 | 49.12145 | 18.13686 | 132° | 97km/h | 11259m | -14.7m/s | -56.3°C | 21.9% | 0hPa | 2.5V | 08:14:00 | 00:00:00 | 00:00:00 | |
| GYPAP8-17 | 2026-09-03 13:24:26 | 49.12162 | 18.13658 | 131° | 97km/h | 11274m | -15.1m/s | -56.3°C | 21.4% | 0hPa | 2.5V | 00:00:00 | 00:00:00 | 00:00:00 | |
| PETON7-10 | 2026-09-03 13:24:23 | 49.12226 | 18.13540 | 130° | 102km/h | 11332m | -14.0m/s | -56.5°C | 25.1% | 0hPa | 2.5V | 00:00:00 | 00:00:00 | 00:00:00 | |
| OE5DRO-10 | 2026-09-03 13:24:21 | 49.12259 | 18.13480 | 130° | 104km/h | 11361m | -14.6m/s | -56.6°C | 24.7% | 0hPa | 2.5V | 00:00:00 | 00:00:00 | 00:00:00 | |
| PG1ADW-2 | 2026-09-03 13:24:15 | 49.12356 | 18.13297 | 131° | 104km/h | 11450m | -14.6m/s | -56.9°C | 22.2% | 0hPa | 2.5V | 00:00:00 | 00:00:00 | 00:00:00 | |
| OM5KV | 2026-09-03 13:24:14 | 49.12356 | 18.13297 | 132° | 102km/h | 11450m | -14.6m/s | -56.9°C | 17.4% | 0hPa | 2.5V | 08:14:00 | 00:00:00 | 00:00:00 | |
| HA6NAB-11 | 2026-09-03 13:24:10 | 49.12424 | 18.13177 | 131° | 104km/h | 11507m | -14.2m/s | -57.1°C | 15.7% | 0hPa | 2.5V | 00:00:00 | 00:00:00 | 00:00:00 | |
| OM5KV | 2026-09-03 13:24:09 | 49.12440 | 18.13146 | 131° | 104km/h | 11521m | -14.5m/s | -57.1°C | 15.2% | 0hPa | 2.5V | 08:14:00 | 00:00:00 | 00:00:00 | |
| PETON7-10 | 2026-09-03 13:24:08 | 49.12475 | 18.13085 | 132° | 106km/h | 11549m | -14.5m/s | -56.9°C | 18.2% | 0hPa | 2.5V | 00:00:00 | 02:29:57 | 00:00:00 | |
| OE3OSB-13 | 2026-09-03 13:24:07 | 49.12493 | 18.13055 | 131° | 104km/h | 11564m | -15.0m/s | -57.0°C | 13.0% | -1.0hPa | 2.5V | 00:00:00 | 00:00:00 | 00:00:00 | |
| HA6NAB-11 | 2026-09-03 13:24:05 | 49.12510 | 18.13025 | 133° | 104km/h | 11579m | -15.1m/s | -57.1°C | 12.8% | 0hPa | 2.5V | 00:00:00 | 00:00:00 | 00:00:00 | |
| OM5KV | 2026-09-03 13:24:03 | 49.12547 | 18.12966 | 135° | 106km/h | 11609m | -14.1m/s | -57.1°C | 11.9% | 0hPa | 2.5V | 08:14:00 | 00:00:00 | 00:00:00 | |
| HA6NAB-11 | 2026-09-03 13:23:59 | 49.12620 | 18.12847 | 135° | 104km/h | 11664m | -14.8m/s | -56.9°C | 9.2% | 0hPa | 2.5V | 00:00:00 | 00:00:00 | 00:00:00 | |
| OE5DRO-10 | 2026-09-03 13:23:56 | 49.12693 | 18.12730 | 135° | 108km/h | 11725m | -14.7m/s | -56.4°C | 10.9% | 0hPa | 2.5V | 00:00:00 | 00:00:00 | 00:00:00 | |
| PG1ADW-2 | 2026-09-03 13:23:55 | 49.12712 | 18.12700 | 134° | 108km/h | 11740m | -14.1m/s | -56.3°C | 10.3% | 0hPa | 2.6V | 00:00:00 | 00:00:00 | 00:00:00 | |
| PETON7-10 | 2026-09-03 13:23:53 | 49.12749 | 18.12640 | 134° | 108km/h | 11768m | -14.8m/s | -56.2°C | 9.4% | 0hPa | 2.6V | 00:00:00 | 00:00:00 | 00:00:00 | |
| OM5KV | 2026-09-03 13:23:47 | 49.12842 | 18.12490 | 134° | 108km/h | 11840m | -15.2m/s | -55.4°C | 4.5% | 0hPa | 2.5V | 08:14:00 | 00:00:00 | 00:00:00 | |
| S52SK | 2026-09-03 13:23:44 | 49.12897 | 18.12397 | 132° | 110km/h | 11885m | -14.0m/s | -55.1°C | 4.1% | 0hPa | 2.5V | 00:00:00 | 00:00:00 | 00:00:00 | |
| S52SK | 2026-09-03 13:23:39 | 49.12987 | 18.12239 | 131° | 108km/h | 11957m | -14.9m/s | -54.3°C | 3.4% | 0hPa | 2.5V | 00:00:00 | 00:00:00 | 00:00:00 | |
| PETON7-10 | 2026-09-03 13:23:38 | 49.13022 | 18.12174 | 130° | 108km/h | 11987m | -14.4m/s | -53.9°C | 6.0% | 0hPa | 2.5V | 00:00:00 | 00:00:00 | 00:00:00 | |
| OE5DRO-10 | 2026-09-03 13:23:37 | 49.13040 | 18.12142 | 131° | 108km/h | 12001m | -14.4m/s | -53.8°C | 5.9% | 0hPa | 2.5V | 00:00:00 | 00:00:00 | 00:00:00 | |
| OE3OSB-13 | 2026-09-03 13:23:36 | 49.13074 | 18.12076 | 128° | 108km/h | 12030m | -15.0m/s | -53.6°C | 2.9% | -1.0hPa | 2.5V | 00:00:00 | 00:00:00 | 00:00:00 | |
| PG1ADW-2 | 2026-09-03 13:23:35 | 49.13074 | 18.12076 | 129° | 106km/h | 12030m | -15.0m/s | -53.5°C | 5.6% | 0hPa | 2.5V | 08:14:00 | 02:29:24 | 00:00:00 | |
| GYPAP8-17 | 2026-09-03 13:23:31 | 49.13125 | 18.11977 | 127° | 106km/h | 12074m | -13.7m/s | -53.4°C | 2.9% | 0hPa | 2.6V | 00:00:00 | 00:00:00 | 00:00:00 | |
| OM5KV | 2026-09-03 13:23:30 | 49.13140 | 18.11943 | 127° | 108km/h | 12087m | -13.3m/s | -53.3°C | 2.8% | 0hPa | 2.6V | 08:15:00 | 00:00:00 | 00:00:00 | |
| PETON7-10 | 2026-09-03 13:23:23 | 49.13263 | 18.11674 | 124° | 106km/h | 12202m | -13.5m/s | -52.3°C | 4.7% | 0hPa | 2.6V | 00:00:00 | 02:29:12 | 00:00:00 | |
| OE5DRO-10 | 2026-09-03 13:23:18 | 49.13338 | 18.11506 | 125° | 102km/h | 12265m | -14.1m/s | -52.7°C | 4.5% | 0hPa | 2.6V | 00:00:00 | 00:00:00 | 00:00:00 | |
| PG1ADW-2 | 2026-09-03 13:23:15 | 49.13386 | 18.11406 | 128° | 100km/h | 12307m | -14.8m/s | -52.6°C | 4.4% | 0hPa | 2.6V | 00:00:00 | 00:00:00 | 00:00:00 | |
| OM5KV | 2026-09-03 13:23:13 | 49.13420 | 18.11341 | 130° | 106km/h | 12335m | -13.6m/s | -52.6°C | 2.1% | 0hPa | 2.6V | 08:15:00 | 00:00:00 | 00:00:00 | |
| PETON7-10 | 2026-09-03 13:23:08 | 49.13505 | 18.11186 | 131° | 97km/h | 12405m | -14.3m/s | -52.4°C | 4.2% | 0hPa | 2.6V | 08:15:00 | 00:00:00 | 00:00:00 | |
| OE5DXL-15 | 2026-09-03 13:23:07 | 49.13522 | 18.11156 | 132° | 95km/h | 12419m | -13.7m/s | -52.3°C | 4.2% | 0hPa | 2.6V | 00:00:00 | 00:00:00 | 00:00:00 | |
| OM5KV | 2026-09-03 13:23:06 | 49.13522 | 18.11156 | 132° | 102km/h | 12419m | -13.8m/s | -52.3°C | 2.0% | 0hPa | 2.6V | 08:15:00 | 00:00:00 | 00:00:00 | |
| OE3OSB-13 | 2026-09-03 13:23:05 | 49.13571 | 18.11069 | 129° | 97km/h | 12461m | -13.1m/s | -52.3°C | 1.9% | -1.0hPa | 2.6V | 00:00:00 | 00:00:00 | 00:00:00 | |
| OM5KV | 2026-09-03 13:23:00 | 49.13619 | 18.10984 | 131° | 95km/h | 12502m | -15.3m/s | -52.2°C | 2.0% | 0hPa | 2.6V | 08:15:00 | 00:00:00 | 00:00:00 | |
| OE5DRO-10 | 2026-09-03 13:22:59 | 49.13649 | 18.10927 | 129° | 93km/h | 12531m | -15.1m/s | -52.4°C | 4.4% | 0hPa | 2.6V | 00:00:00 | 00:00:00 | 00:00:00 | |
| PG1ADW-2 | 2026-09-03 13:22:55 | 49.13708 | 18.10813 | 127° | 93km/h | 12590m | -14.8m/s | -52.7°C | 4.5% | 0hPa | 2.6V | 00:00:00 | 00:00:00 | 00:00:00 | |
| OM5KV | 2026-09-03 13:22:54 | 49.13708 | 18.10813 | 128° | 93km/h | 12590m | -14.9m/s | -52.7°C | 2.1% | 0hPa | 2.6V | 08:16:00 | 00:00:00 | 00:00:00 | |
| PETON7-10 | 2026-09-03 13:22:53 | 49.13735 | 18.10756 | 127° | 93km/h | 12621m | -16.0m/s | -52.6°C | 4.6% | 0hPa | 2.6V | 00:00:00 | 00:00:00 | 00:00:00 | |
| OM5KV | 2026-09-03 13:22:48 | 49.13789 | 18.10639 | 124° | 93km/h | 12681m | -14.0m/s | -51.7°C | 2.0% | 0hPa | 2.6V | 08:16:00 | 00:00:00 | 00:00:00 | |
| OM5KV | 2026-09-03 13:22:41 | 49.13873 | 18.10423 | 119° | 93km/h | 12782m | -13.9m/s | -50.9°C | 1.9% | 0hPa | 2.6V | 08:16:00 | 00:00:00 | 00:00:00 | |
| OE5DRO-10 | 2026-09-03 13:22:40 | 49.13894 | 18.10359 | 118° | 100km/h | 12810m | -13.5m/s | -51.0°C | 4.0% | 0hPa | 2.6V | 00:00:00 | 00:00:00 | 00:00:00 | |
| PETON7-10 | 2026-09-03 13:22:38 | 49.13916 | 18.10293 | 116° | 100km/h | 12837m | -12.9m/s | -51.2°C | 4.1% | 0hPa | 2.6V | 00:00:00 | 02:28:27 | 00:00:00 | |
| OE5DXL-15 | 2026-09-03 13:22:37 | 49.13927 | 18.10259 | 116° | 97km/h | 12851m | -14.4m/s | -51.3°C | 4.1% | 0hPa | 2.6V | 00:00:00 | 00:00:00 | 00:00:00 | |
| GYPAP8-17 | 2026-09-03 13:22:36 | 49.13927 | 18.10259 | 117° | 97km/h | 12851m | -14.4m/s | -51.3°C | 1.8% | 0hPa | 2.6V | 00:00:00 | 00:00:00 | 00:00:00 | |
| PG1ADW-2 | 2026-09-03 13:22:35 | 49.13949 | 18.10191 | 116° | 100km/h | 12879m | -14.9m/s | -50.8°C | 3.9% | 0hPa | 2.6V | 00:00:00 | 00:00:00 | 00:00:00 | |
| OE3OSB-13 | 2026-09-03 13:22:34 | 49.13970 | 18.10123 | 116° | 99km/h | 12909m | -15.6m/s | -50.8°C | 1.6% | -1.0hPa | 2.5V | 00:00:00 | 00:00:00 | 00:00:00 | |
| PETON7-10 | 2026-09-03 13:22:23 | 49.14093 | 18.09781 | 123° | 97km/h | 13061m | -15.6m/s | -50.5°C | 3.6% | 0hPa | 2.5V | 00:00:00 | 00:00:00 | 00:00:00 | |
| HA6NAB-11 | 2026-09-03 13:22:22 | 49.14108 | 18.09748 | 124° | 102km/h | 13076m | -14.8m/s | -50.6°C | 1.6% | 0hPa | 2.7V | 08:16:00 | 00:00:00 | 00:00:00 | |
| OE5DRO-10 | 2026-09-03 13:22:21 | 49.14122 | 18.09715 | 124° | 88km/h | 13091m | -15.5m/s | -50.6°C | 3.7% | 0hPa | 2.7V | 00:00:00 | 00:00:00 | 00:00:00 | |
| OM5KV | 2026-09-03 13:22:17 | 49.14167 | 18.09619 | 127° | 100km/h | 13139m | -17.0m/s | -50.3°C | 1.5% | 0hPa | 2.7V | 08:16:00 | 00:00:00 | 00:00:00 | |
| HA6NAB-11 | 2026-09-03 13:22:16 | 49.14182 | 18.09588 | 127° | 99km/h | 13155m | -15.7m/s | -50.1°C | 1.5% | 0hPa | 2.7V | 08:16:00 | 00:00:00 | 00:00:00 | |
| PG1ADW-2 | 2026-09-03 13:22:15 | 49.14211 | 18.09529 | 128° | 84km/h | 13186m | -16.3m/s | 0°C | 0% | 0hPa | 2.7V | 00:00:00 | 02:28:04 | 00:00:00 | |
| HA6NAB-11 | 2026-09-03 13:22:10 | 49.14268 | 18.09415 | 128° | 91km/h | 13247m | -15.5m/s | -49.9°C | 1.5% | 0hPa | 2.7V | 08:16:00 | 00:00:00 | 00:00:00 | |
| PETON7-10 | 2026-09-03 13:22:08 | 49.14310 | 18.09335 | 130° | 80km/h | 13294m | -15.4m/s | -49.9°C | 3.4% | 0hPa | 2.7V | 00:00:00 | 00:00:00 | 00:00:00 | |
| OE5DXL-15 | 2026-09-03 13:22:06 | 49.14338 | 18.09284 | 131° | 71km/h | 13325m | -15.4m/s | -49.9°C | 3.4% | 0hPa | 2.7V | 08:16:00 | 00:00:00 | 00:00:00 | |
| S52SK | 2026-09-03 13:22:04 | 49.14352 | 18.09259 | 131° | 82km/h | 13340m | -15.3m/s | -50.0°C | 1.4% | 0hPa | 2.7V | 08:16:00 | 00:00:00 | 00:00:00 | |
| OE3OSB-13 | 2026-09-03 13:22:03 | 49.14393 | 18.09187 | 131° | 80km/h | 13384m | -14.8m/s | -49.8°C | 1.2% | -1.0hPa | 2.7V | 00:00:00 | 00:00:00 | 00:00:00 | |
| OM5KV | 2026-09-03 13:22:00 | 49.14407 | 18.09164 | 133° | 78km/h | 13398m | -14.4m/s | -49.9°C | 1.4% | 0hPa | 2.7V | 08:17:00 | 00:00:00 | 00:00:00 | |
| OE5DRO-10 | 2026-09-03 13:21:59 | 49.14434 | 18.09119 | 133° | 69km/h | 13430m | -16.8m/s | -50.1°C | 3.4% | 0hPa | 2.7V | 08:16:00 | 00:00:00 | 00:00:00 | |
| HA6NAB-11 | 2026-09-03 13:21:58 | 49.14434 | 18.09119 | 134° | 77km/h | 13430m | -16.8m/s | -50.1°C | 1.4% | 0hPa | 2.7V | 00:00:00 | 00:00:00 | 00:00:00 | |
| PG1ADW-2 | 2026-09-03 13:21:55 | 49.14488 | 18.09035 | 136° | 66km/h | 13496m | -15.4m/s | -49.9°C | 3.3% | 0hPa | 2.7V | 00:00:00 | 00:00:00 | 00:00:00 | |
| PETON7-10 | 2026-09-03 13:21:53 | 49.14514 | 18.08995 | 134° | 68km/h | 13528m | -15.9m/s | -50.1°C | 3.3% | 0hPa | 2.7V | 00:00:00 | 02:27:42 | 00:00:00 | |
| HA6NAB-11 | 2026-09-03 13:21:52 | 49.14514 | 18.08995 | 135° | 73km/h | 13528m | -16.0m/s | -50.2°C | 1.4% | 0hPa | 2.7V | 00:00:00 | 00:00:00 | 00:00:00 | |
| GYPAP8-17 | 2026-09-03 13:21:43 | 49.14625 | 18.08829 | 137° | 66km/h | 13673m | -17.1m/s | -51.2°C | 1.4% | 0hPa | 2.7V | 00:00:00 | 00:00:00 | 00:00:00 | |
| OE5DRO-10 | 2026-09-03 13:21:40 | 49.14673 | 18.08763 | 141° | 60km/h | 13738m | -15.3m/s | -51.5°C | 3.5% | 0hPa | 2.7V | 00:00:00 | 00:00:00 | 00:00:00 | |
| PETON7-10 | 2026-09-03 13:21:38 | 49.14697 | 18.08730 | 138° | 60km/h | 13770m | -16.5m/s | -51.7°C | 3.5% | 0hPa | 2.7V | 00:00:00 | 00:00:00 | 00:00:00 | |
| OE5DXL-15 | 2026-09-03 13:21:36 | 49.14720 | 18.08697 | 136° | 60km/h | 13803m | -17.7m/s | -51.9°C | 3.5% | 0hPa | 2.6V | 00:00:00 | 00:00:00 | 00:00:00 | |
| PG1ADW-2 | 2026-09-03 13:21:35 | 49.14731 | 18.08680 | 136° | 60km/h | 13821m | -17.1m/s | -52.0°C | 3.6% | 0hPa | 2.6V | 00:00:00 | 00:00:00 | 00:00:00 | |
| OM5KV | 2026-09-03 13:21:31 | 49.14764 | 18.08629 | 133° | 62km/h | 13869m | -16.1m/s | -52.3°C | 1.5% | 0hPa | 2.6V | 08:17:00 | 00:00:00 | 00:00:00 | |
| OM5KV | 2026-09-03 13:21:25 | 49.14820 | 18.08517 | 126° | 60km/h | 13972m | -16.0m/s | -52.7°C | 1.5% | 0hPa | 2.6V | 08:17:00 | 00:00:00 | 00:00:00 | |
| PETON7-10 | 2026-09-03 13:21:23 | 49.14845 | 18.08460 | 125° | 60km/h | 14022m | -17.1m/s | -52.9°C | 3.7% | 0hPa | 2.6V | 00:00:00 | 00:00:00 | 00:00:00 | |
| OE5DRO-10 | 2026-09-03 13:21:21 | 49.14861 | 18.08422 | 123° | 62km/h | 14057m | -18.1m/s | -53.3°C | 3.8% | 0hPa | 2.6V | 00:00:00 | 00:00:00 | 00:00:00 | |
| OM5KV | 2026-09-03 13:21:19 | 49.14869 | 18.08403 | 123° | 60km/h | 14075m | -17.9m/s | -53.5°C | 1.5% | 0hPa | 2.6V | 08:17:00 | 00:00:00 | 00:00:00 | |
| PG1ADW-2 | 2026-09-03 13:21:15 | 49.14905 | 18.08305 | 117° | 66km/h | 14163m | -17.1m/s | -54.2°C | 4.0% | 0hPa | 2.6V | 00:00:00 | 00:00:00 | 00:00:00 | |
| OM5KV | 2026-09-03 13:21:14 | 49.14905 | 18.08305 | 117° | 58km/h | 14163m | -17.1m/s | -54.2°C | 1.6% | 0hPa | 2.6V | 08:17:00 | 00:00:00 | 00:00:00 | |
| PETON7-10 | 2026-09-03 13:21:08 | 49.14947 | 18.08154 | 112° | 69km/h | 14279m | -16.9m/s | -54.8°C | 4.2% | 0hPa | 2.6V | 00:00:00 | 02:26:57 | 00:00:00 | |
| OE5DXL-15 | 2026-09-03 13:21:06 | 49.14958 | 18.08107 | 113° | 66km/h | 14313m | -17.2m/s | -54.7°C | 4.2% | 0hPa | 2.6V | 00:00:00 | 02:26:55 | 00:00:00 | |
| OE5DRO-10 | 2026-09-03 13:21:02 | 49.14984 | 18.08012 | 116° | 69km/h | 14381m | -16.5m/s | -54.6°C | 4.2% | 0hPa | 2.6V | 00:00:00 | 00:00:00 | 00:00:00 | |
| OE3OSB-13 | 2026-09-03 13:21:00 | 49.15001 | 18.07963 | 119° | 71km/h | 14414m | -16.8m/s | -54.6°C | 1.4% | -1.0hPa | 2.7V | 00:00:00 | 00:00:00 | 00:00:00 | |
| OM5KV | 2026-09-03 13:20:58 | 49.15010 | 18.07940 | 121° | 71km/h | 14430m | -16.8m/s | -54.5°C | 1.5% | 0hPa | 2.7V | 08:18:00 | 00:00:00 | 00:00:00 | |
| S52SK | 2026-09-03 13:20:56 | 49.15040 | 18.07868 | 124° | 75km/h | 14479m | -17.4m/s | -54.4°C | 1.5% | 0hPa | 2.7V | 00:00:00 | 00:00:00 | 00:00:00 | |
| PG1ADW-2 | 2026-09-03 13:20:55 | 49.15050 | 18.07844 | 125° | 64km/h | 14497m | -17.9m/s | -54.2°C | 3.9% | 0hPa | 2.7V | 00:00:00 | 02:26:44 | 00:00:00 | |
| PETON7-10 | 2026-09-03 13:20:53 | 49.15073 | 18.07799 | 128° | 62km/h | 14532m | -17.9m/s | -54.0°C | 3.8% | 0hPa | 2.7V | 08:17:00 | 00:00:00 | 00:00:00 | |
| GYPAP8-17 | 2026-09-03 13:20:50 | 49.15095 | 18.07756 | 129° | 68km/h | 14566m | -17.2m/s | -53.7°C | 1.2% | 0hPa | 2.7V | 00:00:00 | 00:00:00 | 00:00:00 | |
| S52SK | 2026-09-03 13:20:49 | 49.15105 | 18.07736 | 130° | 66km/h | 14583m | -17.4m/s | -53.6°C | 1.2% | 0hPa | 2.7V | 00:00:00 | 00:00:00 | 00:00:00 | |
| OM5KV | 2026-09-03 13:20:46 | 49.15137 | 18.07678 | 128° | 64km/h | 14635m | -17.4m/s | -53.1°C | 1.2% | 0hPa | 2.7V | 08:18:00 | 00:00:00 | 00:00:00 | |
| OE5DRO-10 | 2026-09-03 13:20:43 | 49.15172 | 18.07601 | 122° | 60km/h | 14703m | -17.4m/s | -53.1°C | 3.4% | 0hPa | 2.7V | 00:00:00 | 00:00:00 | 00:00:00 | |
| OM5KV | 2026-09-03 13:20:40 | 49.15187 | 18.07563 | 120° | 57km/h | 14738m | -16.7m/s | -53.4°C | 1.2% | 0hPa | 2.7V | 08:18:00 | 00:00:00 | 00:00:00 | |
| PETON7-10 | 2026-09-03 13:20:38 | 49.15207 | 18.07503 | 115° | 62km/h | 14787m | -16.1m/s | -53.7°C | 3.6% | 0hPa | 2.7V | 00:00:00 | 00:00:00 | 00:00:00 | |
| OE5DXL-15 | 2026-09-03 13:20:36 | 49.15219 | 18.07462 | 114° | 64km/h | 14820m | -16.9m/s | -53.8°C | 3.6% | 0hPa | 2.7V | 00:00:00 | 00:00:00 | 00:00:00 | |
| PG1ADW-2 | 2026-09-03 13:20:35 | 49.15225 | 18.07440 | 114° | 64km/h | 14837m | -15.4m/s | -53.9°C | 3.6% | 0hPa | 2.7V | 08:17:00 | 00:00:00 | 00:00:00 | |
| OM5KV | 2026-09-03 13:20:34 | 49.15225 | 18.07440 | 114° | 60km/h | 14837m | -15.5m/s | -53.9°C | 1.2% | 0hPa | 2.7V | 08:18:00 | 00:00:00 | 00:00:00 | |
| OE5DRO-10 | 2026-09-03 13:20:24 | 49.15296 | 18.07194 | 116° | 64km/h | 15017m | -16.5m/s | -54.4°C | 3.6% | 0hPa | 2.7V | 00:00:00 | 00:00:00 | 00:00:00 | |
| PETON7-10 | 2026-09-03 13:20:23 | 49.15303 | 18.07172 | 117° | 66km/h | 15033m | -15.3m/s | -54.4°C | 3.6% | 0hPa | 2.7V | 00:00:00 | 02:26:12 | 00:00:00 | |
| OM5KV | 2026-09-03 13:20:22 | 49.15303 | 18.07172 | 117° | 66km/h | 15033m | -15.4m/s | -54.4°C | 1.2% | 0hPa | 2.7V | 08:18:00 | 00:00:00 | 00:00:00 | |
| PG1ADW-2 | 2026-09-03 13:20:15 | 49.15373 | 18.06995 | 125° | 57km/h | 15156m | -14.7m/s | -54.7°C | 3.8% | 0hPa | 2.7V | 00:00:00 | 00:00:00 | 00:00:00 | |
| OM5KV | 2026-09-03 13:20:11 | 49.15402 | 18.06934 | 128° | 64km/h | 15200m | -14.9m/s | -54.6°C | 1.1% | 0hPa | 2.7V | 08:19:00 | 00:00:00 | 00:00:00 | |
| PETON7-10 | 2026-09-03 13:20:08 | 49.15441 | 18.06860 | 130° | 53km/h | 15258m | -14.7m/s | -54.4°C | 3.6% | 0hPa | 2.7V | 00:00:00 | 00:00:00 | 00:00:00 | |
| OE5DXL-15 | 2026-09-03 13:20:06 | 49.15460 | 18.06824 | 129° | 55km/h | 15286m | -15.0m/s | -54.3°C | 3.5% | 0hPa | 2.6V | 00:00:00 | 00:00:00 | 00:00:00 | |
| OE5DRO-10 | 2026-09-03 13:20:05 | 49.15469 | 18.06806 | 130° | 51km/h | 15301m | -13.9m/s | -54.2°C | 3.4% | 0hPa | 2.6V | 00:00:00 | 00:00:00 | 00:00:00 | |
| OE3OSB-13 | 2026-09-03 13:19:58 | 49.15529 | 18.06694 | 128° | 49km/h | 15398m | -13.4m/s | -53.8°C | 0.8% | -1.0hPa | 2.6V | 00:00:00 | 00:00:00 | 00:00:00 | |
| GYPAP8-17 | 2026-09-03 13:19:56 | 49.15536 | 18.06679 | 127° | 49km/h | 15411m | -13.3m/s | -53.9°C | 1.0% | 0hPa | 2.6V | 00:00:00 | 00:00:00 | 00:00:00 | |
| PG1ADW-2 | 2026-09-03 13:19:55 | 49.15550 | 18.06648 | 123° | 57km/h | 15439m | -14.2m/s | -54.1°C | 3.4% | 0hPa | 2.6V | 00:00:00 | 00:00:00 | 00:00:00 | |
| PETON7-10 | 2026-09-03 13:19:53 | 49.15563 | 18.06618 | 121° | 57km/h | 15466m | -12.8m/s | -54.3°C | 3.5% | 0hPa | 2.6V | 00:00:00 | 00:00:00 | 00:00:00 | |
| OM5KV | 2026-09-03 13:19:49 | 49.15580 | 18.06570 | 118° | 47km/h | 15510m | -16.7m/s | -54.6°C | 1.0% | 0hPa | 2.6V | 08:19:00 | 00:00:00 | 00:00:00 | |
| OE5DRO-10 | 2026-09-03 13:19:46 | 49.15602 | 18.06497 | 114° | 66km/h | 15586m | -19.2m/s | -54.7°C | 3.6% | 0hPa | 2.6V | 00:00:00 | 00:00:00 | 00:00:00 | |
| S52SK | 2026-09-03 13:19:44 | 49.15608 | 18.06477 | 114° | 57km/h | 15605m | -18.4m/s | -54.7°C | 1.0% | 0hPa | 2.6V | 00:00:00 | 00:00:00 | 00:00:00 | |
| HA6NAB-11 | 2026-09-03 13:19:43 | 49.15614 | 18.06456 | 114° | 58km/h | 15622m | -16.7m/s | -54.6°C | 1.0% | 0hPa | 2.6V | 08:19:00 | 00:00:00 | 00:00:00 | |
| PETON7-10 | 2026-09-03 13:19:38 | 49.15651 | 18.06320 | 113° | 68km/h | 15733m | -18.3m/s | -55.0°C | 3.6% | 0hPa | 2.6V | 00:00:00 | 02:25:27 | 00:00:00 | |
| HA6NAB-11 | 2026-09-03 13:19:37 | 49.15651 | 18.06320 | 114° | 68km/h | 15733m | -18.4m/s | -55.0°C | 1.0% | 0hPa | 2.6V | 08:19:00 | 00:00:00 | 00:00:00 | |
| OE5DXL-15 | 2026-09-03 13:19:36 | 49.15665 | 18.06273 | 115° | 55km/h | 15771m | -18.4m/s | -55.1°C | 3.7% | 0hPa | 2.6V | 00:00:00 | 00:00:00 | 00:00:00 | |
| PG1ADW-2 | 2026-09-03 13:19:35 | 49.15672 | 18.06249 | 117° | 60km/h | 15789m | -18.1m/s | -55.0°C | 3.7% | 0hPa | 2.6V | 00:00:00 | 02:25:24 | 00:00:00 | |
| OM5KV | 2026-09-03 13:19:31 | 49.15697 | 18.06180 | 122° | 69km/h | 15844m | -19.4m/s | -54.8°C | 1.0% | 0hPa | 2.6V | 08:19:00 | 00:00:00 | 00:00:00 | |
| HA6NAB-11 | 2026-09-03 13:19:30 | 49.15706 | 18.06157 | 123° | 69km/h | 15863m | -18.4m/s | -54.7°C | 1.0% | 0hPa | 2.6V | 08:19:00 | 00:00:00 | 00:00:00 | |
| OE5DRO-10 | 2026-09-03 13:19:27 | 49.15745 | 18.06070 | 127° | 47km/h | 15938m | -18.8m/s | -54.3°C | 3.5% | 0hPa | 2.6V | 00:00:00 | 00:00:00 | 00:00:00 | |
| HA6NAB-11 | 2026-09-03 13:19:24 | 49.15765 | 18.06032 | 130° | 60km/h | 15975m | -19.0m/s | -54.0°C | 0.9% | 0hPa | 2.6V | 08:19:00 | 00:00:00 | 00:00:00 | |
| PETON7-10 | 2026-09-03 13:19:23 | 49.15784 | 18.05997 | 132° | 44km/h | 16013m | -18.5m/s | -53.8°C | 3.3% | 0hPa | 2.6V | 00:00:00 | 00:00:00 | 00:00:00 | |
| OM5KV | 2026-09-03 13:19:20 | 49.15811 | 18.05951 | 132° | 51km/h | 16069m | -19.4m/s | -53.9°C | 0.8% | 0hPa | 2.6V | 08:19:00 | 00:00:00 | 00:00:00 | |
| HA6NAB-11 | 2026-09-03 13:19:19 | 49.15811 | 18.05951 | 132° | 51km/h | 16069m | -19.4m/s | -53.9°C | 0.8% | 0hPa | 2.6V | 08:19:00 | 00:00:00 | 00:00:00 | |
| PG1ADW-2 | 2026-09-03 13:19:15 | 49.15849 | 18.05885 | 130° | 44km/h | 16164m | -19.6m/s | -53.7°C | 3.3% | 0hPa | 2.6V | 00:00:00 | 00:00:00 | 00:00:00 | |
| OM5KV | 2026-09-03 13:19:14 | 49.15855 | 18.05873 | 129° | 40km/h | 16183m | -18.2m/s | -53.8°C | 0.9% | 0hPa | 2.6V | 08:19:00 | 00:00:00 | 00:00:00 | |
| PETON7-10 | 2026-09-03 13:19:08 | 49.15886 | 18.05797 | 113° | 47km/h | 16292m | -18.8m/s | -53.5°C | 3.3% | 0hPa | 2.6V | 00:00:00 | 00:00:00 | 00:00:00 | |
| OM5KV | 2026-09-03 13:19:07 | 49.15886 | 18.05797 | 113° | 42km/h | 16292m | -18.8m/s | -53.6°C | 0.8% | 0hPa | 2.6V | 08:19:00 | 00:00:00 | 00:00:00 | |
| OE5DXL-15 | 2026-09-03 13:19:06 | 49.15894 | 18.05766 | 113° | 47km/h | 16330m | -19.0m/s | -53.2°C | 3.1% | 0hPa | 2.6V | 00:00:00 | 00:00:00 | 00:00:00 | |
| GYPAP8-17 | 2026-09-03 13:19:04 | 49.15899 | 18.05750 | 112° | 46km/h | 16349m | -18.7m/s | -53.3°C | 0.8% | 0hPa | 2.7V | 00:00:00 | 00:00:00 | 00:00:00 | |
| HA6NAB-11 | 2026-09-03 13:19:03 | 49.15903 | 18.05733 | 110° | 49km/h | 16368m | -20.2m/s | -53.4°C | 0.8% | 0hPa | 2.7V | 08:19:00 | 00:00:00 | 00:00:00 | |
| OE3OSB-13 | 2026-09-03 13:18:56 | 49.15942 | 18.05593 | 114° | 47km/h | 16524m | -19.1m/s | -53.0°C | 0.6% | -1.0hPa | 2.7V | 00:00:00 | 00:00:00 | 00:00:00 | |
| PG1ADW-2 | 2026-09-03 13:18:55 | 49.15947 | 18.05576 | 114° | 49km/h | 16543m | -17.8m/s | -53.0°C | 3.0% | 0hPa | 2.7V | 00:00:00 | 00:00:00 | 00:00:00 | |
| PETON7-10 | 2026-09-03 13:18:53 | 49.15956 | 18.05540 | 111° | 47km/h | 16581m | -20.3m/s | -53.1°C | 3.0% | 0hPa | 2.7V | 00:00:00 | 02:24:42 | 00:00:00 | |
| DO3MHA-11 | 2026-09-03 13:18:50 | 49.15968 | 18.05487 | 109° | 47km/h | 16641m | -20.0m/s | -53.3°C | 3.1% | 0hPa | 2.7V | 00:00:00 | 02:24:39 | 00:00:00 | |
| OE5DRO-10 | 2026-09-03 13:18:49 | 49.15972 | 18.05469 | 108° | 47km/h | 16661m | -19.6m/s | -53.4°C | 3.1% | 0hPa | 2.7V | 00:00:00 | 00:00:00 | 00:00:00 | |
| OM5KV | 2026-09-03 13:18:45 | 49.15988 | 18.05398 | 116° | 49km/h | 16739m | -19.8m/s | -54.0°C | 0.8% | 0hPa | 2.7V | 08:19:00 | 00:00:00 | 00:00:00 | |
| S52SK | 2026-09-03 13:18:43 | 49.15993 | 18.05381 | 114° | 49km/h | 16759m | -20.5m/s | -54.0°C | 0.8% | 0hPa | 2.7V | 08:19:00 | 00:00:00 | 00:00:00 | |
| HA6NAB-11 | 2026-09-03 13:18:42 | 49.15998 | 18.05364 | 117° | 47km/h | 16780m | -21.3m/s | -54.0°C | 0.8% | 0hPa | 2.7V | 08:19:00 | 00:00:00 | 00:00:00 | |
| DO3MHA-11 | 2026-09-03 13:18:40 | 49.16017 | 18.05317 | 121° | 42km/h | 16841m | -18.9m/s | -53.9°C | 3.3% | 0hPa | 2.7V | 00:00:00 | 02:24:29 | 00:00:00 | |
| OM5KV | 2026-09-03 13:18:39 | 49.16017 | 18.05317 | 121° | 49km/h | 16841m | -19.0m/s | -54.0°C | 0.8% | 0hPa | 2.7V | 08:20:00 | 00:00:00 | 00:00:00 | |
| PETON7-10 | 2026-09-03 13:18:38 | 49.16029 | 18.05286 | 125° | 40km/h | 16881m | -19.9m/s | -54.1°C | 3.3% | 0hPa | 2.7V | 08:19:00 | 00:00:00 | 00:00:00 | |
| HA6NAB-11 | 2026-09-03 13:18:37 | 49.16029 | 18.05286 | 125° | 47km/h | 16881m | -19.9m/s | -54.1°C | 0.8% | 0hPa | 2.6V | 00:00:00 | 00:00:00 | 00:00:00 | |
| OE5DXL-15 | 2026-09-03 13:18:36 | 49.16043 | 18.05256 | 128° | 35km/h | 16920m | -19.0m/s | -54.2°C | 3.4% | 0hPa | 2.6V | 00:00:00 | 00:00:00 | 00:00:00 | |
| PG1ADW-2 | 2026-09-03 13:18:35 | 49.16051 | 18.05241 | 129° | 35km/h | 16939m | -19.2m/s | -54.2°C | 3.3% | 0hPa | 2.6V | 00:00:00 | 00:00:00 | 00:00:00 | |
| HA6NAB-11 | 2026-09-03 13:18:31 | 49.16073 | 18.05199 | 132° | 44km/h | 16999m | -20.5m/s | -54.5°C | 0.7% | 0hPa | 2.7V | 00:00:00 | 00:00:00 | 00:00:00 | |
| OE5DRO-10 | 2026-09-03 13:18:30 | 49.16087 | 18.05173 | 128° | 33km/h | 17039m | -19.5m/s | -54.2°C | 3.3% | 0hPa | 2.7V | 00:00:00 | 00:00:00 | 00:00:00 | |
| OM5KV | 2026-09-03 13:18:29 | 49.16087 | 18.05174 | 129° | 42km/h | 17039m | -19.5m/s | -54.3°C | 0% | 0hPa | 2.7V | 08:20:00 | 00:00:00 | 00:00:00 | |
| OE3OSB-13 | 2026-09-03 13:18:25 | 49.16117 | 18.05121 | 126° | 29km/h | 17139m | -19.6m/s | -54.0°C | 0.6% | -1.0hPa | 2.7V | 00:00:00 | 00:00:00 | 00:00:00 | |
| PETON7-10 | 2026-09-03 13:18:23 | 49.16125 | 18.05103 | 121° | 31km/h | 17178m | -19.7m/s | -53.7°C | 3.2% | 0hPa | 2.7V | 00:00:00 | 00:00:00 | 00:00:00 | |
| OM5KV | 2026-09-03 13:18:17 | 49.16138 | 18.05053 | 105° | 27km/h | 17275m | -18.3m/s | -54.1°C | 0% | 0hPa | 2.7V | 08:20:00 | 00:00:00 | 00:00:00 | |
| PG1ADW-2 | 2026-09-03 13:18:15 | 49.16145 | 18.05018 | 113° | 35km/h | 17333m | -20.0m/s | -54.5°C | 3.3% | 0hPa | 2.7V | 00:00:00 | 02:24:04 | 00:00:00 | |
| OM5KV | 2026-09-03 13:18:12 | 49.16151 | 18.04994 | 113° | 37km/h | 17373m | -19.3m/s | -54.7°C | 0% | 0hPa | 2.7V | 08:20:00 | 00:00:00 | 00:00:00 | |
| OE5DRO-10 | 2026-09-03 13:18:11 | 49.16158 | 18.04969 | 117° | 35km/h | 17411m | -19.7m/s | -54.7°C | 3.4% | 0hPa | 2.7V | 00:00:00 | 00:00:00 | 00:00:00 | |
| PETON7-10 | 2026-09-03 13:18:08 | 49.16170 | 18.04933 | 119° | 33km/h | 17470m | -19.3m/s | 0°C | 0% | 0hPa | 2.6V | 00:00:00 | 02:23:57 | 00:00:00 | |
| OE5DXL-15 | 2026-09-03 13:18:06 | 49.16178 | 18.04911 | 121° | 33km/h | 17507m | -18.6m/s | -54.1°C | 3.3% | 0hPa | 2.6V | 00:00:00 | 00:00:00 | 00:00:00 | |
| DO3MHA-11 | 2026-09-03 13:18:04 | 49.16186 | 18.04890 | 124° | 35km/h | 17546m | -19.9m/s | -54.0°C | 3.2% | 0hPa | 2.6V | 00:00:00 | 02:23:53 | 00:00:00 | |
| OM5KV | 2026-09-03 13:18:00 | 49.16200 | 18.04858 | 122° | 35km/h | 17603m | -18.2m/s | -53.9°C | 0% | 0hPa | 2.6V | 08:20:00 | 00:00:00 | 00:00:00 | |
| PG1ADW-2 | 2026-09-03 13:17:55 | 49.16232 | 18.04794 | 127° | 33km/h | 17721m | -20.2m/s | -53.9°C | 3.2% | 0hPa | 2.6V | 00:00:00 | 00:00:00 | 00:00:00 | |
| DO3MHA-11 | 2026-09-03 13:17:54 | 49.16237 | 18.04783 | 131° | 33km/h | 17741m | -19.9m/s | -53.9°C | 3.1% | 0hPa | 2.6V | 00:00:00 | 02:23:43 | 00:00:00 | |
| PETON7-10 | 2026-09-03 13:17:53 | 49.16243 | 18.04773 | 133° | 31km/h | 17761m | -20.7m/s | -53.9°C | 3.2% | 0hPa | 2.6V | 00:00:00 | 00:00:00 | 00:00:00 | |
| OE5DRO-10 | 2026-09-03 13:17:52 | 49.16249 | 18.04763 | 129° | 33km/h | 17782m | -20.6m/s | -54.0°C | 3.2% | 0hPa | 2.7V | 00:00:00 | 00:00:00 | 00:00:00 | |
| OM5KV | 2026-09-03 13:17:47 | 49.16271 | 18.04725 | 135° | 29km/h | 17864m | -22.0m/s | 0°C | 0% | 0hPa | 2.7V | 00:00:00 | 00:00:00 | 00:00:00 | |
| S52SK | 2026-09-03 13:17:46 | 49.16276 | 18.04717 | 136° | 29km/h | 17886m | -22.0m/s | -54.2°C | 0.7% | 0hPa | 2.7V | 00:00:00 | 00:00:00 | 00:00:00 | |
| DO3MHA-11 | 2026-09-03 13:17:43 | 49.16294 | 18.04682 | 124° | 35km/h | 17969m | -19.9m/s | -54.5°C | 3.4% | 0hPa | 2.7V | 08:20:00 | 02:23:32 | 00:00:00 | |
| S52SK | 2026-09-03 13:17:41 | 49.16298 | 18.04673 | 123° | 29km/h | 17989m | -18.2m/s | -54.6°C | 0.7% | 0hPa | 2.6V | 00:00:00 | 00:00:00 | 00:00:00 | |
| OM5KV | 2026-09-03 13:17:40 | 49.16302 | 18.04662 | 117° | 31km/h | 18007m | -19.3m/s | 0°C | 0% | 0hPa | 2.6V | 00:00:00 | 00:00:00 | 00:00:00 | |
| PETON7-10 | 2026-09-03 13:17:38 | 49.16310 | 18.04628 | 108° | 38km/h | 18062m | -17.9m/s | -54.5°C | 3.5% | 0hPa | 2.6V | 00:00:00 | 00:00:00 | 00:00:00 | |
| OE5DXL-15 | 2026-09-03 13:17:36 | 49.16315 | 18.04602 | 105° | 44km/h | 18097m | -18.1m/s | -54.1°C | 3.3% | 0hPa | 2.6V | 08:20:00 | 00:00:00 | 00:00:00 | |
| PG1ADW-2 | 2026-09-03 13:17:35 | 49.16317 | 18.04588 | 105° | 44km/h | 18116m | -18.8m/s | -54.1°C | 3.3% | 0hPa | 2.6V | 08:20:00 | 00:00:00 | 00:00:00 | |
| OE5DRO-10 | 2026-09-03 13:17:33 | 49.16323 | 18.04562 | 108° | 44km/h | 18154m | -19.3m/s | -54.1°C | 3.4% | 0hPa | 2.6V | 00:00:00 | 00:00:00 | 00:00:00 | |
| DO3MHA-11 | 2026-09-03 13:17:31 | 49.16329 | 18.04534 | 108° | 42km/h | 18193m | -19.3m/s | -54.0°C | 3.3% | 0hPa | 2.6V | 00:00:00 | 02:23:20 | 00:00:00 | |
| OM5KV | 2026-09-03 13:17:24 | 49.16343 | 18.04446 | 100° | 44km/h | 18309m | -18.9m/s | 0°C | 0% | 0hPa | 2.6V | 00:00:00 | 00:00:00 | 00:00:00 | |
| PETON7-10 | 2026-09-03 13:17:23 | 49.16346 | 18.04412 | 97° | 47km/h | 18345m | -17.3m/s | -53.7°C | 3.3% | 0hPa | 2.6V | 00:00:00 | 02:23:12 | 00:00:00 | |
| DO3MHA-11 | 2026-09-03 13:17:21 | 49.16349 | 18.04374 | 97° | 44km/h | 18381m | -19.5m/s | -53.8°C | 3.3% | 0hPa | 2.6V | 00:00:00 | 02:23:10 | 00:00:00 | |
| OM5KV | 2026-09-03 13:17:18 | 49.16352 | 18.04336 | 99° | 51km/h | 18424m | -21.1m/s | 0°C | 0% | 0hPa | 2.6V | 00:00:00 | 00:00:00 | 00:00:00 | |
| PG1ADW-2 | 2026-09-03 13:17:15 | 49.16361 | 18.04261 | 104° | 44km/h | 18496m | -17.4m/s | -52.7°C | 3.1% | 0hPa | 2.6V | 00:00:00 | 00:00:00 | 00:00:00 | |
| OE5DRO-10 | 2026-09-03 13:17:14 | 49.16364 | 18.04243 | 106° | 44km/h | 18514m | -17.4m/s | -52.7°C | 3.1% | 0hPa | 2.6V | 00:00:00 | 00:00:00 | 00:00:00 | |
| PETON7-10 | 2026-09-03 13:17:08 | 49.16393 | 18.04149 | 119° | 42km/h | 18630m | -18.2m/s | 0°C | 0% | 0hPa | 2.6V | 00:00:00 | 00:00:00 | 00:00:00 | |
| OE5DXL-15 | 2026-09-03 13:17:06 | 49.16403 | 18.04119 | 117° | 29km/h | 18666m | -18.3m/s | -52.3°C | 3.1% | 0hPa | 2.6V | 00:00:00 | 00:00:00 | 00:00:00 | |
| OE3OSB-13 | 2026-09-03 13:16:52 | 49.16467 | 18.03923 | 120° | 29km/h | 18936m | -18.9m/s | -50.9°C | 0.4% | -1.0hPa | 2.6V | 00:00:00 | 00:00:00 | 00:00:00 | |
| DO3MHA-11 | 2026-09-03 13:16:51 | 49.16470 | 18.03914 | 119° | 18km/h | 18955m | -19.1m/s | -50.8°C | 2.7% | 0hPa | 2.6V | 00:00:00 | 02:22:40 | 00:00:00 | |
| DO3MHA-11 | 2026-09-03 13:16:41 | 49.16479 | 18.03851 | 79° | 24km/h | 19147m | -19.9m/s | -50.8°C | 2.6% | 0hPa | 2.6V | 00:00:00 | 02:22:30 | 00:00:00 | |
| PETON7-10 | 2026-09-03 13:16:38 | 49.16478 | 18.03831 | 92° | 27km/h | 19208m | -20.4m/s | 0°C | 0% | 0hPa | 2.6V | 00:00:00 | 02:22:27 | 00:00:00 | |
| OE5DXL-15 | 2026-09-03 13:16:36 | 49.16479 | 18.03815 | 105° | 22km/h | 19248m | -18.8m/s | -51.3°C | 2.8% | 0hPa | 2.6V | 00:00:00 | 00:00:00 | 00:00:00 | |
| PG1ADW-2 | 2026-09-03 13:16:35 | 49.16480 | 18.03806 | 105° | 24km/h | 19267m | -19.3m/s | -51.3°C | 2.7% | 0hPa | 2.6V | 00:00:00 | 00:00:00 | 00:00:00 | |
| S52SK | 2026-09-03 13:16:34 | 49.16480 | 18.03806 | 105° | 26km/h | 19267m | -19.3m/s | -51.3°C | 0.5% | 0hPa | 2.6V | 00:00:00 | 00:00:00 | 00:00:00 | |
| OE5MMP-10 | 2026-09-03 13:16:33 | 49.16484 | 18.03785 | 109° | 26km/h | 19306m | -20.4m/s | -51.5°C | 2.8% | 0hPa | 2.6V | 00:00:00 | 02:22:22 | 00:00:00 | |
| S52SK | 2026-09-03 13:16:28 | 49.16497 | 18.03745 | 123° | 29km/h | 19390m | -20.8m/s | -51.7°C | 0.5% | 0hPa | 2.6V | 00:00:00 | 00:00:00 | 00:00:00 | |
| HA6NAB-11 | 2026-09-03 13:16:26 | 49.16505 | 18.03727 | 133° | 29km/h | 19431m | -20.1m/s | -51.7°C | 0.3% | 0hPa | 2.6V | 00:00:00 | 00:00:00 | 00:00:00 | |
| GYPAP8-17 | 2026-09-03 13:16:25 | 49.16510 | 18.03718 | 130° | 29km/h | 19451m | -20.1m/s | -51.6°C | 0.5% | 0hPa | 2.6V | 00:00:00 | 00:00:00 | 00:00:00 | |
| PETON7-10 | 2026-09-03 13:16:24 | 49.16519 | 18.03702 | 133° | 24km/h | 19492m | -21.5m/s | 0°C | 0% | 0hPa | 2.6V | 00:00:00 | 00:00:00 | 00:00:00 | |
| OE3OSB-13 | 2026-09-03 13:16:21 | 49.16533 | 18.03684 | 141° | 18km/h | 19563m | -24.3m/s | -51.9°C | 0.4% | -1.0hPa | 2.6V | 00:00:00 | 00:00:00 | 00:00:00 | |
| OE5MMP-10 | 2026-09-03 13:16:20 | 49.16536 | 18.03679 | 145° | 15km/h | 19587m | -23.5m/s | -51.8°C | 2.8% | 0hPa | 2.6V | 00:00:00 | 02:22:09 | 00:00:00 | |
| OE5DRO-10 | 2026-09-03 13:16:17 | 49.16545 | 18.03666 | 135° | 18km/h | 19651m | -19.9m/s | -51.7°C | 2.8% | 0hPa | 2.6V | 08:22:00 | 00:00:00 | 00:00:00 | |
| PG1ADW-2 | 2026-09-03 13:16:15 | 49.16549 | 18.03658 | 112° | 20km/h | 19689m | -18.8m/s | -51.9°C | 2.8% | 0hPa | 2.6V | 00:00:00 | 00:00:00 | 00:00:00 | |
| OE5MMP-10 | 2026-09-03 13:16:10 | 49.16550 | 18.03631 | 86° | 20km/h | 19796m | -21.6m/s | -52.4°C | 2.9% | 0hPa | 2.6V | 00:00:00 | 02:21:59 | 00:00:00 | |
| OE5DXL-15 | 2026-09-03 13:16:06 | 49.16550 | 18.03599 | 101° | 20km/h | 19878m | -19.6m/s | -52.4°C | 2.9% | 0hPa | 2.7V | 00:00:00 | 00:00:00 | 00:00:00 | |
| DO3MHA-11 | 2026-09-03 13:16:00 | 49.16564 | 18.03553 | 122° | 26km/h | 19999m | -19.2m/s | -52.8°C | 3.1% | 0hPa | 2.7V | 00:00:00 | 02:21:49 | 00:00:00 | |
| OE5DRO-10 | 2026-09-03 13:15:58 | 49.16569 | 18.03538 | 114° | 22km/h | 20037m | -18.1m/s | -52.8°C | 3.0% | 0hPa | 2.7V | 00:00:00 | 00:00:00 | 00:00:00 | |
| PG1ADW-2 | 2026-09-03 13:15:55 | 49.16575 | 18.03510 | 103° | 18km/h | 20092m | -18.3m/s | -52.8°C | 3.1% | 0hPa | 2.7V | 00:00:00 | 00:00:00 | 00:00:00 | |
| DO3MHA-11 | 2026-09-03 13:15:50 | 49.16582 | 18.03456 | 109° | 20km/h | 20181m | -17.3m/s | -52.6°C | 3.0% | 0hPa | 2.7V | 08:22:00 | 02:21:39 | 00:00:00 | |
| OE5MMP-10 | 2026-09-03 13:15:41 | 49.16603 | 18.03398 | 138° | 9km/h | 20343m | -17.2m/s | -52.0°C | 2.8% | 0hPa | 2.7V | 00:00:00 | 02:21:30 | 00:00:00 | |
| DO3MHA-11 | 2026-09-03 13:15:40 | 49.16605 | 18.03395 | 124° | 7km/h | 20361m | -17.4m/s | -51.9°C | 2.8% | 0hPa | 2.7V | 00:00:00 | 02:21:29 | 00:00:00 | |
| OE5DRO-10 | 2026-09-03 13:15:39 | 49.16606 | 18.03392 | 140° | 13km/h | 20378m | -18.0m/s | 0°C | 0% | 0hPa | 2.7V | 00:00:00 | 00:00:00 | 00:00:00 | |
| OE5DXL-15 | 2026-09-03 13:15:36 | 49.16608 | 18.03386 | 88° | 20km/h | 20433m | -18.0m/s | -52.0°C | 2.7% | 0hPa | 2.7V | 00:00:00 | 00:00:00 | 00:00:00 | |
| PG1ADW-2 | 2026-09-03 13:15:35 | 49.16607 | 18.03384 | 50° | 18km/h | 20451m | -18.0m/s | -52.1°C | 2.8% | 0hPa | 2.7V | 00:00:00 | 02:21:24 | 00:00:00 | |
| DO3MHA-11 | 2026-09-03 13:15:30 | 49.16600 | 18.03372 | 54° | 18km/h | 20544m | -19.7m/s | -52.6°C | 2.9% | 0hPa | 2.6V | 00:00:00 | 02:21:19 | 00:00:00 | |
| OE5MMP-10 | 2026-09-03 13:15:28 | 49.16595 | 18.03364 | 51° | 22km/h | 20583m | -19.5m/s | -52.8°C | 2.9% | 0hPa | 2.6V | 00:00:00 | 02:21:17 | 00:00:00 | |
| S52SK | 2026-09-03 13:15:26 | 49.16590 | 18.03354 | 54° | 16km/h | 20623m | -20.2m/s | -53.1°C | 0.5% | 0hPa | 2.6V | 00:00:00 | 00:00:00 | 00:00:00 | |
| S52SK | 2026-09-03 13:15:21 | 49.16575 | 18.03320 | 63° | 29km/h | 20729m | -21.8m/s | -53.8°C | 0.5% | 0hPa | 2.6V | 00:00:00 | 00:00:00 | 00:00:00 | |
| OE3OSB-13 | 2026-09-03 13:15:20 | 49.16567 | 18.03289 | 71° | 31km/h | 20795m | -21.8m/s | -54.2°C | 0.4% | -1.0hPa | 2.6V | 00:00:00 | 00:00:00 | 00:00:00 | |
| OE5MMP-10 | 2026-09-03 13:15:18 | 49.16567 | 18.03289 | 72° | 27km/h | 20796m | -21.8m/s | -54.1°C | 3.4% | 0hPa | 2.6V | 08:23:00 | 02:21:07 | 00:00:00 | |
| PG1ADW-2 | 2026-09-03 13:15:15 | 49.16563 | 18.03255 | 86° | 20km/h | 20861m | -20.8m/s | -54.2°C | 3.5% | 0hPa | 2.6V | 00:00:00 | 00:00:00 | 00:00:00 | |
| DO3MHA-11 | 2026-09-03 13:15:10 | 49.16565 | 18.03204 | 103° | 22km/h | 20978m | -24.1m/s | -53.6°C | 3.3% | 0hPa | 2.6V | 00:00:00 | 02:20:59 | 00:00:00 | |
| OE5MMP-10 | 2026-09-03 13:15:08 | 49.16568 | 18.03186 | 111° | 18km/h | 21026m | -24.5m/s | -53.2°C | 3.2% | 0hPa | 2.6V | 00:00:00 | 02:20:57 | 00:00:00 | |
| PETON7-10 | 2026-09-03 13:15:06 | 49.16573 | 18.03170 | 117° | 16km/h | 21075m | -25.4m/s | -52.7°C | 3.1% | 0hPa | 2.6V | 00:00:00 | 00:00:00 | 00:00:00 | |
| OE3OSB-13 | 2026-09-03 13:14:48 | 49.16582 | 18.03053 | 98° | 16km/h | 21498m | -22.5m/s | -51.7°C | 0.3% | -1.0hPa | 2.7V | 00:00:00 | 00:00:00 | 00:00:00 | |
| OE5MMP-10 | 2026-09-03 13:14:47 | 49.16582 | 18.03053 | 99° | 16km/h | 21498m | -22.4m/s | -51.7°C | 2.8% | 0hPa | 2.7V | 00:00:00 | 02:20:36 | 00:00:00 | |
| OE5DRO-10 | 2026-09-03 13:14:42 | 49.16583 | 18.03021 | 94° | 18km/h | 21611m | -24.2m/s | -51.3°C | 2.7% | 0hPa | 2.7V | 00:00:00 | 00:00:00 | 00:00:00 | |
| DO3MHA-11 | 2026-09-03 13:14:40 | 49.16585 | 18.03009 | 107° | 20km/h | 21661m | -24.9m/s | -51.2°C | 2.7% | 0hPa | 2.7V | 00:00:00 | 02:20:29 | 00:00:00 | |
| OE5MMP-10 | 2026-09-03 13:14:37 | 49.16590 | 18.02989 | 125° | 20km/h | 21737m | -24.9m/s | -51.3°C | 2.7% | 0hPa | 2.7V | 00:00:00 | 02:20:26 | 00:00:00 | |
| PETON7-10 | 2026-09-03 13:14:36 | 49.16593 | 18.02982 | 125° | 18km/h | 21761m | -23.9m/s | -51.3°C | 2.7% | 0hPa | 2.7V | 00:00:00 | 02:20:25 | 00:00:00 | |
| PG1ADW-2 | 2026-09-03 13:14:35 | 49.16597 | 18.02975 | 124° | 13km/h | 21785m | -23.4m/s | -51.4°C | 2.7% | 0hPa | 2.7V | 08:23:00 | 00:00:00 | 00:00:00 | |
| GYPAP8-17 | 2026-09-03 13:14:32 | 49.16603 | 18.02963 | 135° | 22km/h | 21829m | -22.5m/s | -51.6°C | 0.4% | 0hPa | 2.7V | 00:00:00 | 00:00:00 | 00:00:00 | |
| DO3MHA-11 | 2026-09-03 13:14:30 | 49.16615 | 18.02949 | 142° | 15km/h | 21896m | -22.9m/s | -51.7°C | 2.7% | 0hPa | 2.7V | 00:00:00 | 02:20:19 | 00:00:00 | |
| OE5MMP-10 | 2026-09-03 13:14:27 | 49.16628 | 18.02940 | 163° | 11km/h | 21966m | -23.7m/s | -51.8°C | 2.8% | 0hPa | 2.7V | 00:00:00 | 02:20:16 | 00:00:00 | |
| OE5DRO-10 | 2026-09-03 13:14:23 | 49.16644 | 18.02937 | 182° | 5km/h | 22058m | -23.8m/s | -52.2°C | 2.9% | 0hPa | 2.7V | 00:00:00 | 00:00:00 | 00:00:00 | |
| PETON7-10 | 2026-09-03 13:14:21 | 49.16649 | 18.02938 | 186° | 4km/h | 22105m | -23.9m/s | -52.4°C | 2.9% | 0hPa | 2.6V | 00:00:00 | 00:00:00 | 00:00:00 | |
| DO3MHA-11 | 2026-09-03 13:14:20 | 49.16651 | 18.02938 | 182° | 4km/h | 22129m | -23.5m/s | -52.5°C | 3.0% | 0hPa | 2.7V | 08:24:00 | 02:20:09 | 00:00:00 | |
| OE5MMP-10 | 2026-09-03 13:14:17 | 49.16654 | 18.02938 | 89° | 4km/h | 22197m | -22.0m/s | -52.7°C | 3.0% | 0hPa | 2.6V | 00:00:00 | 02:20:06 | 00:00:00 | |
| PG1ADW-2 | 2026-09-03 13:14:15 | 49.16654 | 18.02937 | 12° | 7km/h | 22240m | -21.8m/s | -52.7°C | 3.0% | 0hPa | 2.7V | 00:00:00 | 02:20:04 | 00:00:00 | |
| DO3MHA-11 | 2026-09-03 13:14:10 | 49.16647 | 18.02938 | 17° | 5km/h | 22355m | -23.0m/s | -52.2°C | 2.9% | 0hPa | 2.7V | 00:00:00 | 02:19:59 | 00:00:00 | |
| OE5MMP-10 | 2026-09-03 13:14:07 | 49.16645 | 18.02936 | 91° | 9km/h | 22422m | -21.6m/s | -52.7°C | 3.0% | 0hPa | 2.7V | 00:00:00 | 02:19:56 | 00:00:00 | |
| PETON7-10 | 2026-09-03 13:14:06 | 49.16645 | 18.02935 | 93° | 15km/h | 22445m | -24.1m/s | -52.7°C | 3.0% | 0hPa | 2.7V | 00:00:00 | 00:00:00 | 00:00:00 | |
| OE5DRO-10 | 2026-09-03 13:14:04 | 49.16647 | 18.02931 | 99° | 16km/h | 22491m | -21.0m/s | -52.7°C | 3.0% | 0hPa | 2.7V | 00:00:00 | 00:00:00 | 00:00:00 | |
| OE3OSB-13 | 2026-09-03 13:13:46 | 49.16693 | 18.02841 | 148° | 11km/h | 22920m | -22.1m/s | -52.0°C | 0.3% | -1.0hPa | 2.7V | 00:00:00 | 00:00:00 | 00:00:00 | |
| OE5DRO-10 | 2026-09-03 13:13:45 | 49.16693 | 18.02841 | 149° | 11km/h | 22920m | -22.1m/s | -52.0°C | 2.9% | 0hPa | 2.7V | 00:00:00 | 00:00:00 | 00:00:00 | |
| OE5MMP-10 | 2026-09-03 13:13:37 | 49.16718 | 18.02826 | 180° | 7km/h | 23101m | -24.4m/s | -52.0°C | 2.9% | 0hPa | 2.7V | 00:00:00 | 02:19:26 | 00:00:00 | |
| PETON7-10 | 2026-09-03 13:13:36 | 49.16721 | 18.02827 | 194° | 7km/h | 23125m | -24.4m/s | -51.9°C | 2.9% | 0hPa | 2.7V | 08:24:00 | 00:00:00 | 00:00:00 | |
| PG1ADW-2 | 2026-09-03 13:13:35 | 49.16724 | 18.02827 | 189° | 7km/h | 23150m | -24.8m/s | -51.9°C | 2.9% | 0hPa | 2.7V | 00:00:00 | 00:00:00 | 00:00:00 | |
| DO3MHA-11 | 2026-09-03 13:13:27 | 49.16733 | 18.02824 | 101° | 9km/h | 23349m | -24.5m/s | -51.2°C | 2.8% | 0hPa | 2.6V | 00:00:00 | 02:19:16 | 00:00:00 | |
| OE5DRO-10 | 2026-09-03 13:13:26 | 49.16733 | 18.02821 | 83° | 7km/h | 23373m | -23.8m/s | -51.1°C | 2.7% | 0hPa | 2.6V | 08:25:00 | 00:00:00 | 00:00:00 | |
| OE5WHR-10 | 2026-09-03 13:13:21 | 49.16731 | 18.02810 | 13° | 9km/h | 23496m | -24.1m/s | -51.2°C | 2.8% | 0hPa | 2.6V | 08:25:00 | 00:00:00 | 00:00:00 | |
| OE5MMP-10 | 2026-09-03 13:13:17 | 49.16728 | 18.02819 | 294° | 9km/h | 23590m | -23.6m/s | -51.0°C | 2.7% | 0hPa | 2.7V | 00:00:00 | 02:19:06 | 00:00:00 | |
| PG1ADW-2 | 2026-09-03 13:13:15 | 49.16726 | 18.02825 | 311° | 9km/h | 23638m | -24.3m/s | -50.9°C | 2.7% | 0hPa | 2.7V | 00:00:00 | 00:00:00 | 00:00:00 | |
| OE3OSB-13 | 2026-09-03 13:13:14 | 49.16724 | 18.02828 | 306° | 9km/h | 23662m | -24.1m/s | -51.0°C | 0.2% | -1.0hPa | 2.7V | 00:00:00 | 00:00:00 | 00:00:00 | |
| DO3MHA-11 | 2026-09-03 13:13:10 | 49.16717 | 18.02832 | 7° | 9km/h | 23758m | -22.1m/s | -51.0°C | 2.7% | 0hPa | 2.7V | 00:00:00 | 02:18:59 | 00:00:00 | |
| OE5MMP-10 | 2026-09-03 13:13:07 | 49.16709 | 18.02829 | 32° | 11km/h | 23827m | -24.3m/s | -50.9°C | 2.7% | 0hPa | 2.7V | 00:00:00 | 02:18:56 | 00:00:00 | |
| PETON7-10 | 2026-09-03 13:13:06 | 49.16707 | 18.02827 | 26° | 9km/h | 23852m | -24.7m/s | -50.8°C | 2.7% | 0hPa | 2.7V | 00:00:00 | 02:18:55 | 00:00:00 | |
| DO3MHA-11 | 2026-09-03 13:13:00 | 49.16701 | 18.02810 | 105° | 9km/h | 23994m | -22.8m/s | -50.5°C | 2.7% | 0hPa | 2.7V | 00:00:00 | 02:18:49 | 00:00:00 | |
| NBG1-10 | 2026-09-03 13:12:58 | 49.16704 | 18.02802 | 113° | 15km/h | 24038m | -22.1m/s | -50.4°C | 2.6% | 0hPa | 2.6V | 00:00:00 | 02:18:47 | 00:00:00 | |
| OE5MMP-10 | 2026-09-03 13:12:57 | 49.16706 | 18.02797 | 119° | 7km/h | 24060m | -21.7m/s | -50.4°C | 2.6% | 0hPa | 2.6V | 00:00:00 | 02:18:46 | 00:00:00 | |
| PG1ADW-2 | 2026-09-03 13:12:55 | 49.16709 | 18.02790 | 124° | 7km/h | 24102m | -21.4m/s | -50.5°C | 2.6% | 0hPa | 2.6V | 00:00:00 | 02:18:44 | 00:00:00 | |
| PETON7-10 | 2026-09-03 13:12:51 | 49.16714 | 18.02784 | 178° | 7km/h | 24190m | -20.9m/s | -50.6°C | 2.6% | 0hPa | 2.6V | 00:00:00 | 00:00:00 | 00:00:00 | |
| DO3MHA-11 | 2026-09-03 13:12:50 | 49.16714 | 18.02784 | 212° | 5km/h | 24213m | -23.4m/s | -50.6°C | 2.6% | 0hPa | 2.7V | 00:00:00 | 02:18:39 | 00:00:00 | |
| OE5DRO-10 | 2026-09-03 13:12:48 | 49.16716 | 18.02786 | 262° | 11km/h | 24257m | -24.0m/s | -50.8°C | 2.7% | 0hPa | 2.7V | 00:00:00 | 00:00:00 | 00:00:00 | |
| OE5MMP-10 | 2026-09-03 13:12:47 | 49.16716 | 18.02788 | 249° | 7km/h | 24282m | -24.7m/s | -50.8°C | 2.7% | 0hPa | 2.7V | 00:00:00 | 02:18:36 | 00:00:00 | |
| SQ9EZE-14 | 2026-09-03 13:12:45 | 49.16716 | 18.02789 | 257° | 7km/h | 24307m | -26.3m/s | 0°C | 0% | 0hPa | 2.7V | 00:00:00 | 00:00:00 | 00:00:00 | |
| OE3OSB-13 | 2026-09-03 13:12:43 | 49.16717 | 18.02796 | 271° | 5km/h | 24381m | -24.3m/s | -50.6°C | 0.2% | -1.0hPa | 2.7V | 00:00:00 | 00:00:00 | 00:00:00 | |
| DO3MHA-11 | 2026-09-03 13:12:40 | 49.16714 | 18.02803 | 315° | 15km/h | 24455m | -25.0m/s | -50.7°C | 2.7% | 0hPa | 2.7V | 00:00:00 | 02:18:29 | 00:00:00 | |
| GYPAP8-17 | 2026-09-03 13:12:39 | 49.16714 | 18.02802 | 316° | 7km/h | 24455m | -25.0m/s | -50.7°C | 0.3% | 0hPa | 2.7V | 08:26:00 | 00:00:00 | 00:00:00 | |
| OE5MMP-10 | 2026-09-03 13:12:37 | 49.16707 | 18.02810 | 331° | 16km/h | 24532m | -26.1m/s | -50.8°C | 2.7% | 0hPa | 2.7V | 00:00:00 | 02:18:26 | 00:00:00 | |
| PETON7-10 | 2026-09-03 13:12:36 | 49.16704 | 18.02813 | 335° | 16km/h | 24557m | -23.5m/s | -50.8°C | 2.7% | 0hPa | 2.7V | 00:00:00 | 00:00:00 | 00:00:00 | |
| PG1ADW-2 | 2026-09-03 13:12:35 | 49.16701 | 18.02814 | 352° | 16km/h | 24581m | -23.9m/s | -50.8°C | 2.7% | 0hPa | 2.7V | 00:00:00 | 00:00:00 | 00:00:00 | |
| DO3MHA-11 | 2026-09-03 13:12:30 | 49.16678 | 18.02811 | 16° | 15km/h | 24696m | -22.0m/s | -51.0°C | 2.8% | 0hPa | 2.7V | 08:26:00 | 02:18:19 | 00:00:00 | |
| OE5DRO-10 | 2026-09-03 13:12:29 | 49.16674 | 18.02809 | 22° | 15km/h | 24719m | -22.7m/s | -50.8°C | 2.8% | 0hPa | 2.7V | 00:00:00 | 00:00:00 | 00:00:00 | |
| OE5MMP-10 | 2026-09-03 13:12:27 | 49.16668 | 18.02803 | 43° | 13km/h | 24765m | -25.2m/s | -50.4°C | 2.7% | 0hPa | 2.6V | 00:00:00 | 02:18:16 | 00:00:00 | |
| OE5WHR-10 | 2026-09-03 13:12:24 | 49.16661 | 18.02791 | 52° | 15km/h | 24839m | -24.2m/s | -50.4°C | 2.7% | 0hPa | 2.6V | 00:00:00 | 02:18:13 | 00:00:00 | |
| PETON7-10 | 2026-09-03 13:12:21 | 49.16655 | 18.02775 | 64° | 13km/h | 24910m | -22.9m/s | -50.3°C | 2.6% | 0hPa | 2.6V | 00:00:00 | 02:18:10 | 00:00:00 | |
| DO3MHA-11 | 2026-09-03 13:12:20 | 49.16653 | 18.02770 | 64° | 13km/h | 24933m | -23.2m/s | -50.2°C | 2.6% | 0hPa | 2.6V | 00:00:00 | 02:18:09 | 00:00:00 | |
| PG1ADW-2 | 2026-09-03 13:12:15 | 49.16649 | 18.02744 | 97° | 16km/h | 25052m | -24.4m/s | -50.1°C | 2.6% | 0hPa | 2.6V | 00:00:00 | 00:00:00 | 00:00:00 | |
| OE5MMP-10 | 2026-09-03 13:12:13 | 49.16650 | 18.02735 | 99° | 20km/h | 25100m | -24.2m/s | -50.1°C | 2.6% | 0hPa | 2.6V | 08:26:00 | 02:18:02 | 00:00:00 | |
| OE3OSB-13 | 2026-09-03 13:12:12 | 49.16651 | 18.02730 | 113° | 11km/h | 25124m | -24.2m/s | -50.1°C | 0.2% | -1.0hPa | 2.6V | 00:00:00 | 00:00:00 | 00:00:00 | |
| DO3MHA-11 | 2026-09-03 13:12:10 | 49.16652 | 18.02722 | 92° | 18km/h | 25172m | -23.1m/s | -50.0°C | 2.6% | 0hPa | 2.6V | 00:00:00 | 02:17:59 | 00:00:00 | |
| S52SK | 2026-09-03 13:12:09 | 49.16652 | 18.02722 | 92° | 13km/h | 25172m | -23.1m/s | -50.0°C | 0.2% | 0hPa | 2.6V | 00:00:00 | 00:00:00 | 00:00:00 | |
| PETON7-10 | 2026-09-03 13:12:06 | 49.16648 | 18.02703 | 55° | 18km/h | 25264m | -23.0m/s | -49.9°C | 2.6% | 0hPa | 2.6V | 00:00:00 | 00:00:00 | 00:00:00 | |
| OE5WHR-10 | 2026-09-03 13:12:03 | 49.16639 | 18.02684 | 53° | 16km/h | 25330m | -21.8m/s | -49.9°C | 2.7% | 0hPa | 2.7V | 00:00:00 | 00:00:00 | 00:00:00 | |
| DO3MHA-11 | 2026-09-03 13:12:00 | 49.16630 | 18.02661 | 67° | 16km/h | 25397m | -21.9m/s | -49.7°C | 2.6% | 0hPa | 2.6V | 00:00:00 | 02:17:49 | 00:00:00 | |
| OE5MMP-10 | 2026-09-03 13:11:58 | 49.16628 | 18.02646 | 89° | 15km/h | 25443m | -22.6m/s | -49.8°C | 2.6% | 0hPa | 2.7V | 00:00:00 | 02:17:47 | 00:00:00 | |
| PG1ADW-2 | 2026-09-03 13:11:55 | 49.16630 | 18.02628 | 106° | 15km/h | 25514m | -23.6m/s | -49.6°C | 2.6% | 0hPa | 2.7V | 00:00:00 | 00:00:00 | 00:00:00 | |
| PETON7-10 | 2026-09-03 13:11:51 | 49.16636 | 18.02609 | 117° | 15km/h | 25609m | -23.2m/s | -49.2°C | 2.6% | 0hPa | 2.7V | 00:00:00 | 00:00:00 | 00:00:00 | |
| DO3MHA-11 | 2026-09-03 13:11:50 | 49.16638 | 18.02605 | 132° | 11km/h | 25632m | -22.5m/s | -49.1°C | 2.6% | 0hPa | 2.7V | 00:00:00 | 02:17:39 | 00:00:00 | |
| OE5MMP-10 | 2026-09-03 13:11:48 | 49.16642 | 18.02597 | 126° | 13km/h | 25679m | -25.2m/s | -48.8°C | 2.5% | 0hPa | 2.7V | 00:00:00 | 02:17:37 | 00:00:00 | |
| OE3OSB-13 | 2026-09-03 13:11:41 | 49.16638 | 18.02572 | 60° | 15km/h | 25846m | -23.2m/s | -47.9°C | 0.1% | -1.0hPa | 2.7V | 00:00:00 | 00:00:00 | 00:00:00 | |
| DO3MHA-11 | 2026-09-03 13:11:40 | 49.16635 | 18.02566 | 60° | 20km/h | 25869m | -22.7m/s | -47.9°C | 2.3% | 0hPa | 2.7V | 00:00:00 | 02:17:29 | 00:00:00 | |
| OE5MMP-10 | 2026-09-03 13:11:38 | 49.16630 | 18.02552 | 64° | 18km/h | 25917m | -24.1m/s | -47.7°C | 2.3% | 0hPa | 2.7V | 00:00:00 | 02:17:27 | 00:00:00 | |
| PETON7-10 | 2026-09-03 13:11:36 | 49.16626 | 18.02537 | 78° | 15km/h | 25964m | -23.9m/s | -47.5°C | 2.3% | 0hPa | 2.6V | 00:00:00 | 02:17:25 | 00:00:00 | |
| PG1ADW-2 | 2026-09-03 13:11:35 | 49.16625 | 18.02529 | 81° | 15km/h | 25988m | -23.9m/s | -47.6°C | 2.3% | 0hPa | 2.6V | 00:00:00 | 02:17:24 | 08:30:00 | |
| OE5DRO-10 | 2026-09-03 13:11:32 | 49.16624 | 18.02506 | 85° | 13km/h | 26061m | -24.1m/s | -47.5°C | 2.3% | 0hPa | 2.7V | 00:00:00 | 00:00:00 | 00:00:00 | |
| DO3MHA-11 | 2026-09-03 13:11:30 | 49.16623 | 18.02493 | 87° | 9km/h | 26110m | -25.8m/s | -47.6°C | 2.2% | 0hPa | 2.6V | 00:00:00 | 02:17:19 | 00:00:00 | |
| OE5MMP-10 | 2026-09-03 13:11:28 | 49.16622 | 18.02482 | 80° | 7km/h | 26160m | -24.5m/s | -47.6°C | 2.2% | 0hPa | 2.7V | 00:00:00 | 02:17:17 | 00:00:00 | |
| HA6NAB-11 | 2026-09-03 13:11:23 | 49.16622 | 18.02468 | 112° | 7km/h | 26260m | -24.4m/s | -47.4°C | 0.1% | 0hPa | 2.7V | 08:27:00 | 00:00:00 | 00:00:00 | |
| PETON7-10 | 2026-09-03 13:11:21 | 49.16623 | 18.02462 | 89° | 13km/h | 26334m | -25.4m/s | -47.3°C | 2.2% | 0hPa | 2.7V | 08:27:00 | 00:00:00 | 00:00:00 | |
| DO3MHA-11 | 2026-09-03 13:11:20 | 49.16623 | 18.02460 | 82° | 13km/h | 26359m | -26.1m/s | -47.3°C | 2.2% | 0hPa | 2.7V | 00:00:00 | 02:17:09 | 00:00:00 | |
| OE5MMP-10 | 2026-09-03 13:11:18 | 49.16621 | 18.02456 | 75° | 15km/h | 26413m | -27.0m/s | -47.1°C | 2.2% | 0hPa | 2.7V | 00:00:00 | 02:17:07 | 00:00:00 | |
| OE5WHR-10 | 2026-09-03 13:11:17 | 49.16620 | 18.02453 | 60° | 16km/h | 26440m | -27.4m/s | -47.1°C | 2.2% | 0hPa | 2.7V | 00:00:00 | 00:00:00 | 00:00:00 | |
| PG1ADW-2 | 2026-09-03 13:11:13 | 49.16616 | 18.02432 | 80° | 13km/h | 26545m | -26.9m/s | -47.0°C | 2.1% | 0hPa | 2.7V | 00:00:00 | 00:00:00 | 00:00:00 | |
| DO3MHA-11 | 2026-09-03 13:11:10 | 49.16613 | 18.02412 | 72° | 11km/h | 26627m | -27.0m/s | -47.4°C | 2.2% | 0hPa | 2.7V | 00:00:00 | 02:16:59 | 00:00:00 | |
| OE5MMP-10 | 2026-09-03 13:11:08 | 49.16610 | 18.02402 | 67° | 13km/h | 26683m | -28.0m/s | -47.6°C | 2.3% | 0hPa | 2.7V | 00:00:00 | 02:16:57 | 00:00:00 | |
| PETON7-10 | 2026-09-03 13:11:06 | 49.16608 | 18.02395 | 63° | 18km/h | 26739m | -27.6m/s | -47.8°C | 2.3% | 0hPa | 2.6V | 00:00:00 | 00:00:00 | 00:00:00 | |
| HA6NAB-11 | 2026-09-03 13:11:04 | 49.16607 | 18.02392 | 55° | 7km/h | 26767m | -27.8m/s | -48.0°C | 0.1% | 0hPa | 2.6V | 08:27:00 | 00:00:00 | 00:00:00 | |
| NBG1-10 | 2026-09-03 13:11:03 | 49.16606 | 18.02386 | 71° | 15km/h | 26823m | -28.1m/s | -47.9°C | 2.4% | 0hPa | 2.6V | 00:00:00 | 02:16:52 | 00:00:00 | |
| GYPAP8-17 | 2026-09-03 13:11:01 | 49.16605 | 18.02382 | 83° | 9km/h | 26851m | -28.0m/s | -47.9°C | 0.1% | 0hPa | 2.6V | 08:27:00 | 00:00:00 | 00:00:00 | |
| DO3MHA-11 | 2026-09-03 13:11:00 | 49.16605 | 18.02370 | 88° | 24km/h | 26906m | -27.6m/s | -47.7°C | 2.4% | 0hPa | 2.6V | 08:27:00 | 02:16:49 | 00:00:00 | |
| OE5MMP-10 | 2026-09-03 13:10:58 | 49.16605 | 18.02354 | 92° | 26km/h | 26963m | -29.6m/s | -47.2°C | 2.2% | 0hPa | 2.7V | 00:00:00 | 02:16:47 | 00:00:00 | |
| HA6NAB-11 | 2026-09-03 13:10:52 | 49.16611 | 18.02307 | 116° | 24km/h | 27111m | -29.6m/s | -46.9°C | 0.1% | 0hPa | 2.7V | 00:00:00 | 00:00:00 | 00:00:00 | |
| PETON7-10 | 2026-09-03 13:10:51 | 49.16617 | 18.02291 | 132° | 15km/h | 27170m | -29.0m/s | -46.6°C | 2.1% | 0hPa | 2.7V | 00:00:00 | 02:16:40 | 00:00:00 | |
| DO3MHA-11 | 2026-09-03 13:10:50 | 49.16622 | 18.02286 | 148° | 22km/h | 27199m | -28.4m/s | -46.6°C | 2.2% | 0hPa | 2.7V | 00:00:00 | 02:16:39 | 00:00:00 | |
| OE5MMP-10 | 2026-09-03 13:10:48 | 49.16632 | 18.02279 | 160° | 20km/h | 27255m | -27.0m/s | -46.6°C | 2.1% | 0hPa | 2.7V | 00:00:00 | 02:16:37 | 00:00:00 | |
| HA6NAB-11 | 2026-09-03 13:10:47 | 49.16632 | 18.02279 | 161° | 20km/h | 27255m | -27.0m/s | -46.6°C | 0.1% | 0hPa | 2.7V | 00:00:00 | 00:00:00 | 00:00:00 | |
| OE5DRO-10 | 2026-09-03 13:10:46 | 49.16641 | 18.02275 | 176° | 15km/h | 27309m | -27.3m/s | -46.6°C | 2.2% | 0hPa | 2.7V | 00:00:00 | 00:00:00 | 00:00:00 | |
| S52SK | 2026-09-03 13:10:44 | 49.16645 | 18.02275 | 167° | 15km/h | 27337m | -26.9m/s | -46.6°C | 0.1% | 0hPa | 2.7V | 00:00:00 | 00:00:00 | 00:00:00 | |
| OE5WHR-10 | 2026-09-03 13:10:42 | 49.16653 | 18.02271 | 137° | 13km/h | 27426m | -29.7m/s | -46.7°C | 2.2% | 0hPa | 2.7V | 00:00:00 | 02:16:31 | 00:00:00 | |
| HA6NAB-11 | 2026-09-03 13:10:40 | 49.16653 | 18.02268 | 110° | 9km/h | 27455m | -29.2m/s | -46.7°C | 0.1% | 0hPa | 2.7V | 00:00:00 | 00:00:00 | 00:00:00 | |
| DO3MHA-11 | 2026-09-03 13:10:39 | 49.16655 | 18.02262 | 91° | 16km/h | 27513m | -29.0m/s | -46.1°C | 2.1% | 0hPa | 2.7V | 00:00:00 | 02:16:28 | 00:00:00 | |
| PG1ADW-2 | 2026-09-03 13:10:37 | 49.16655 | 18.02252 | 90° | 18km/h | 27574m | -30.9m/s | -45.9°C | 2.1% | 0hPa | 2.7V | 00:00:00 | 00:00:00 | 00:00:00 | |
| PETON7-10 | 2026-09-03 13:10:36 | 49.16656 | 18.02246 | 97° | 15km/h | 27605m | -31.1m/s | -45.8°C | 2.1% | 0hPa | 2.7V | 00:00:00 | 00:00:00 | 00:00:00 | |
| HA6NAB-11 | 2026-09-03 13:10:34 | 49.16656 | 18.02240 | 98° | 16km/h | 27637m | -31.1m/s | -45.7°C | 0.1% | 0hPa | 2.6V | 00:00:00 | 00:00:00 | 00:00:00 | |
| DO3MHA-11 | 2026-09-03 13:10:29 | 49.16666 | 18.02197 | 114° | 11km/h | 27809m | -28.6m/s | -46.2°C | 2.2% | 0hPa | 2.6V | 00:00:00 | 02:16:18 | 00:00:00 | |
| HA6NAB-11 | 2026-09-03 13:10:28 | 49.16666 | 18.02197 | 114° | 18km/h | 27809m | -28.7m/s | -46.2°C | 0.1% | 0hPa | 2.7V | 00:00:00 | 00:00:00 | 00:00:00 | |
| OE5MMP-10 | 2026-09-03 13:10:27 | 49.16669 | 18.02186 | 143° | 11km/h | 27869m | -30.0m/s | -46.0°C | 2.1% | 0hPa | 2.7V | 08:28:00 | 02:16:16 | 00:00:00 | |
| OE5DRO-10 | 2026-09-03 13:10:26 | 49.16671 | 18.02184 | 136° | 13km/h | 27899m | -31.0m/s | -45.8°C | 2.1% | 0hPa | 2.7V | 08:28:00 | 00:00:00 | 00:00:00 | |
| HA6NAB-11 | 2026-09-03 13:10:22 | 49.16677 | 18.02180 | 180° | 7km/h | 27989m | -29.4m/s | -45.2°C | 0.0% | 0hPa | 2.7V | 00:00:00 | 00:00:00 | 00:00:00 | |
| PETON7-10 | 2026-09-03 13:10:21 | 49.16680 | 18.02177 | 143° | 16km/h | 28048m | -30.5m/s | -44.9°C | 1.9% | 0hPa | 2.7V | 00:00:00 | 00:00:00 | 00:00:00 | |
| DO3MHA-11 | 2026-09-03 13:10:18 | 49.16683 | 18.02164 | 89° | 16km/h | 28142m | -31.4m/s | -44.7°C | 1.9% | 0hPa | 2.7V | 00:00:00 | 02:16:07 | 00:00:00 | |
| OE5MMP-10 | 2026-09-03 13:10:17 | 49.16683 | 18.02158 | 92° | 16km/h | 28173m | -30.4m/s | -44.8°C | 1.9% | 0hPa | 2.7V | 00:00:00 | 02:16:06 | 00:00:00 | |
| OE5WHR-10 | 2026-09-03 13:10:15 | 49.16682 | 18.02145 | 79° | 15km/h | 28235m | -32.4m/s | -45.0°C | 2.0% | 0hPa | 2.7V | 00:00:00 | 00:00:00 | 00:00:00 | |
| GYPAP8-17 | 2026-09-03 13:10:12 | 49.16680 | 18.02134 | 81° | 16km/h | 28298m | -31.3m/s | -45.2°C | 2.1% | 0hPa | 2.6V | 00:00:00 | 00:00:00 | 00:00:00 | |
| OE3OSB-13 | 2026-09-03 13:10:09 | 49.16680 | 18.02100 | 105° | 20km/h | 28447m | -29.5m/s | 0°C | -1.0% | -1.0hPa | 2.6V | 00:00:00 | 00:00:00 | 00:00:00 | |
| DO3MHA-11 | 2026-09-03 13:10:08 | 49.16680 | 18.02100 | 106° | 20km/h | 28447m | -29.4m/s | -44.6°C | 1.9% | 0hPa | 2.6V | 00:00:00 | 02:15:57 | 00:00:00 | |
| OE5MMP-10 | 2026-09-03 13:10:07 | 49.16681 | 18.02091 | 108° | 20km/h | 28477m | -29.9m/s | -44.6°C | 1.9% | 0hPa | 2.6V | 00:00:00 | 02:15:56 | 00:00:00 | |
| PETON7-10 | 2026-09-03 13:10:06 | 49.16683 | 18.02082 | 113° | 18km/h | 28508m | -31.2m/s | -44.6°C | 1.9% | 0hPa | 2.6V | 00:00:00 | 02:15:55 | 00:00:00 | |
| NBG1-10 | 2026-09-03 13:10:05 | 49.16686 | 18.02074 | 113° | 22km/h | 28538m | -30.1m/s | -44.8°C | 1.9% | 0hPa | 2.6V | 00:00:00 | 02:15:54 | 00:00:00 | |
| OE3JTB-15 | 2026-09-03 13:10:03 | 49.16691 | 18.02057 | 119° | 16km/h | 28598m | -29.1m/s | -45.0°C | 1.9% | 0hPa | 2.6V | 00:00:00 | 00:00:00 | 00:00:00 | |
| DO3MHA-11 | 2026-09-03 13:09:58 | 49.16696 | 18.02027 | 80° | 16km/h | 28744m | -27.5m/s | -44.9°C | 2.0% | 0hPa | 2.7V | 00:00:00 | 02:15:47 | 00:00:00 | |
| OE5MMP-10 | 2026-09-03 13:09:57 | 49.16695 | 18.02022 | 72° | 16km/h | 28772m | -28.5m/s | -44.8°C | 1.9% | 0hPa | 2.6V | 00:00:00 | 02:15:46 | 00:00:00 | |
| PETON7-10 | 2026-09-03 13:09:51 | 49.16692 | 18.01984 | 92° | 16km/h | 28954m | -31.8m/s | -44.7°C | 1.9% | 0hPa | 2.6V | 00:00:00 | 00:00:00 | 00:00:00 | |
| DO3MHA-11 | 2026-09-03 13:09:48 | 49.16693 | 18.01964 | 100° | 15km/h | 29053m | -33.8m/s | -44.8°C | 2.0% | 0hPa | 2.7V | 00:00:00 | 02:15:37 | 00:00:00 | |
| OE5MMP-10 | 2026-09-03 13:09:47 | 49.16693 | 18.01960 | 83° | 16km/h | 29086m | -33.0m/s | -44.8°C | 1.9% | 0hPa | 2.7V | 00:00:00 | 02:15:36 | 00:00:00 | |
| DO3MHA-11 | 2026-09-03 13:09:38 | 49.16680 | 18.01908 | 86° | 20km/h | 29379m | -33.1m/s | -45.3°C | 2.2% | 0hPa | 2.7V | 00:00:00 | 02:15:27 | 00:00:00 | |
| OE5MMP-10 | 2026-09-03 13:09:37 | 49.16680 | 18.01901 | 95° | 20km/h | 29411m | -31.3m/s | -45.3°C | 2.1% | 0hPa | 2.7V | 00:00:00 | 02:15:26 | 00:00:00 | |
| PETON7-10 | 2026-09-03 13:09:36 | 49.16681 | 18.01893 | 103° | 20km/h | 29442m | -31.4m/s | -45.2°C | 2.1% | 0hPa | 2.7V | 00:00:00 | 00:00:00 | 00:00:00 | |
| OE3JTB-15 | 2026-09-03 13:09:34 | 49.16684 | 18.01878 | 108° | 24km/h | 29510m | -35.5m/s | -44.9°C | 2.1% | 0hPa | 2.7V | 00:00:00 | 00:00:00 | 00:00:00 | |
| OE5WHR-10 | 2026-09-03 13:09:30 | 49.16687 | 18.01847 | 87° | 20km/h | 29651m | -37.4m/s | -44.3°C | 2.0% | 0hPa | 2.7V | 00:00:00 | 02:15:19 | 00:00:00 | |
| DO3MHA-11 | 2026-09-03 13:09:28 | 49.16686 | 18.01832 | 84° | 20km/h | 29722m | -31.6m/s | -44.1°C | 2.0% | 0hPa | 2.7V | 08:29:00 | 02:15:17 | 00:00:00 | |
| OE5MMP-10 | 2026-09-03 13:09:27 | 49.16685 | 18.01824 | 74° | 20km/h | 29754m | -32.9m/s | -44.0°C | 2.0% | 0hPa | 2.7V | 00:00:00 | 02:15:16 | 00:00:00 | |
| OE5DRO-10 | 2026-09-03 13:09:25 | 49.16683 | 18.01809 | 77° | 26km/h | 29822m | -34.0m/s | -43.6°C | 1.9% | 0hPa | 2.6V | 00:00:00 | 00:00:00 | 00:00:00 | |
| PETON7-10 | 2026-09-03 13:09:21 | 49.16681 | 18.01777 | 88° | 24km/h | 29961m | -33.4m/s | -42.6°C | 1.8% | 0hPa | 2.6V | 00:00:00 | 02:15:10 | 00:00:00 | |
| DO3MHA-11 | 2026-09-03 13:09:18 | 49.16681 | 18.01755 | 93° | 24km/h | 30067m | -35.6m/s | -42.3°C | 1.8% | 0hPa | 2.6V | 00:00:00 | 02:15:07 | 00:00:00 | |
| OE5MMP-10 | 2026-09-03 13:09:17 | 49.16681 | 18.01748 | 83° | 26km/h | 30101m | -33.9m/s | -42.3°C | 1.8% | 0hPa | 2.6V | 00:00:00 | 02:15:06 | 00:00:00 | |
| OE5WHR-10 | 2026-09-03 13:09:09 | 49.16676 | 18.01677 | 103° | 18km/h | 30375m | -34.7m/s | -41.7°C | 1.7% | 0hPa | 2.6V | 00:00:00 | 00:00:00 | 08:30:00 | |
| DO3MHA-11 | 2026-09-03 13:09:08 | 49.16679 | 18.01664 | 113° | 31km/h | 30409m | -35.2m/s | -41.7°C | 1.7% | 0hPa | 2.6V | 00:00:00 | 02:14:57 | 00:00:00 | |
| OE5MMP-10 | 2026-09-03 13:09:07 | 49.16682 | 18.01651 | 114° | 29km/h | 30445m | -35.2m/s | -41.6°C | 1.7% | 0hPa | 2.6V | 00:00:00 | 02:14:56 | 00:00:00 | |
| OE3JTB-15 | 2026-09-03 13:09:05 | 49.16692 | 18.01625 | 120° | 15km/h | 30514m | -34.9m/s | -41.5°C | 1.7% | 0hPa | 2.6V | 00:00:00 | 02:14:54 | 00:00:00 | |
| DO3MHA-11 | 2026-09-03 13:08:58 | 49.16719 | 18.01565 | 120° | 5km/h | 30764m | -34.6m/s | -41.0°C | 1.6% | 0hPa | 2.6V | 00:00:00 | 02:14:47 | 00:00:00 | |
| OE5MMP-10 | 2026-09-03 13:08:57 | 49.16721 | 18.01562 | 123° | 4km/h | 30800m | -36.2m/s | -40.9°C | 1.5% | 0hPa | 2.6V | 00:00:00 | 02:14:46 | 08:30:00 | |
| PG1ADW-2 | 2026-09-03 13:08:53 | 49.16725 | 18.01558 | 193° | 9km/h | 30947m | -38.9m/s | -40.6°C | 1.5% | 0hPa | 2.6V | 00:00:00 | 02:14:42 | 00:00:00 | |
| PETON7-10 | 2026-09-03 13:08:51 | 49.16727 | 18.01558 | 203° | 11km/h | 31023m | -35.9m/s | -40.8°C | 1.6% | 0hPa | 2.6V | 00:00:00 | 00:00:00 | 00:00:00 | |
| OE5WHR-10 | 2026-09-03 13:08:48 | 49.16726 | 18.01560 | 326° | 15km/h | 31127m | -35.4m/s | -41.0°C | 1.6% | 0hPa | 2.6V | 00:00:00 | 00:00:00 | 00:00:00 | |
| OE5MMP-10 | 2026-09-03 13:08:47 | 49.16725 | 18.01562 | 344° | 15km/h | 31162m | -33.8m/s | -41.1°C | 1.6% | 0hPa | 2.6V | 00:00:00 | 02:14:36 | 00:00:00 | |
| OE5DRO-10 | 2026-09-03 13:08:46 | 49.16723 | 18.01563 | 343° | 15km/h | 31196m | -33.3m/s | -41.0°C | 1.7% | 0hPa | 2.6V | 00:00:00 | 00:00:00 | 00:00:00 | |
| DO3MHA-11 | 2026-09-03 13:08:38 | 49.16697 | 18.01543 | 58° | 13km/h | 31480m | -36.5m/s | -40.8°C | 1.7% | 0hPa | 2.6V | 00:00:00 | 02:14:27 | 00:00:00 | |
| OE3JTB-15 | 2026-09-03 13:08:36 | 49.16694 | 18.01533 | 77° | 18km/h | 31554m | -37.8m/s | -40.6°C | 1.7% | 0hPa | 2.6V | 00:00:00 | 00:00:00 | 08:30:00 | |
| PG1ADW-2 | 2026-09-03 13:08:33 | 49.16693 | 18.01520 | 74° | 18km/h | 31673m | -36.1m/s | -40.4°C | 1.6% | 0hPa | 2.7V | 00:00:00 | 00:00:00 | 00:00:00 | |
| DO3MHA-11 | 2026-09-03 13:08:28 | 49.16680 | 18.01508 | 8° | 26km/h | 31859m | -37.5m/s | -39.5°C | 1.5% | 0hPa | 2.7V | 00:00:00 | 02:14:17 | 00:00:00 | |
| OE5MMP-10 | 2026-09-03 13:08:27 | 49.16674 | 18.01507 | 13° | 24km/h | 31897m | -39.0m/s | -39.3°C | 1.5% | 0hPa | 2.7V | 00:00:00 | 02:14:16 | 00:00:00 | |
| NBG1-10 | 2026-09-03 13:08:22 | 49.16644 | 18.01489 | 39° | 80km/h | 32095m | -41.0m/s | -39.5°C | 1.6% | 0hPa | 2.7V | 00:00:00 | 02:14:11 | 00:00:00 | |
| PETON7-10 | 2026-09-03 13:08:21 | 49.16639 | 18.01482 | 52° | 16km/h | 32136m | -39.3m/s | -39.5°C | 1.6% | 0hPa | 2.7V | 00:00:00 | 00:00:00 | 00:00:00 | |
| DO3MHA-11 | 2026-09-03 13:08:18 | 49.16631 | 18.01460 | 78° | 15km/h | 32248m | -36.0m/s | -38.9°C | 1.5% | 0hPa | 2.6V | 00:00:00 | 02:14:07 | 00:00:00 | |
| OE5MMP-10 | 2026-09-03 13:08:17 | 49.16630 | 18.01454 | 81° | 15km/h | 32285m | -37.1m/s | -38.6°C | 1.5% | 0hPa | 2.6V | 00:00:00 | 02:14:06 | 00:00:00 | |
| PG1ADW-2 | 2026-09-03 13:08:13 | 49.16625 | 18.01440 | 18° | 84km/h | 32445m | -40.3m/s | -37.5°C | 1.4% | 0hPa | 2.6V | 00:00:00 | 00:00:00 | 00:00:00 | |
| OE5DRO-10 | 2026-09-03 13:08:08 | 49.16608 | 18.01424 | 46° | 86km/h | 32653m | -43.1m/s | -36.8°C | 1.3% | 0hPa | 2.6V | 00:00:00 | 00:00:00 | 00:00:00 | |
| OE5MMP-10 | 2026-09-03 13:08:07 | 49.16604 | 18.01417 | 56° | 117km/h | 32695m | -42.6m/s | -36.6°C | 1.3% | 0hPa | 2.6V | 00:00:00 | 02:13:56 | 00:00:00 | |
| DO3MHA-11 | 2026-09-03 13:08:06 | 49.16601 | 18.01410 | 57° | 82km/h | 32737m | -41.7m/s | -36.4°C | 1.3% | 0hPa | 2.6V | 00:00:00 | 02:13:55 | 00:00:00 | |
| GYPAP8-17 | 2026-09-03 13:07:55 | -12.03102 | -77.05331 | 0° | 0km/h | 988m | 0.0m/s | -35.9°C | 1.4% | 0hPa | 2.6V | 00:00:00 | 00:00:00 | 00:00:00 | |
| S52SK | 2026-09-03 13:07:55 | -12.03102 | -77.05331 | 0° | 0km/h | 988m | 0.0m/s | -35.9°C | 1.4% | 0hPa | 2.6V | 00:00:00 | 00:00:00 | 00:00:00 | |
| HA6NAB-11 | 2026-09-03 13:07:53 | -12.03102 | -77.05331 | 0° | 0km/h | 988m | 0.0m/s | -35.6°C | 1.3% | 0hPa | 2.6V | 00:00:00 | 00:00:00 | 00:00:00 | |
| S52SK | 2026-09-03 13:07:50 | -12.03102 | -77.05331 | 0° | 0km/h | 988m | 0.0m/s | -35.2°C | 1.3% | 0hPa | 2.6V | 00:00:00 | 00:00:00 | 00:00:00 | |
| HA6NAB-11 | 2026-09-03 13:07:47 | -12.03102 | -77.05331 | 0° | 0km/h | 988m | 0.0m/s | -35.0°C | 1.3% | 0hPa | 2.6V | 00:00:00 | 00:00:00 | 00:00:00 | |
| S52SK | 2026-09-03 13:07:45 | -12.03102 | -77.05331 | 0° | 0km/h | 988m | 0.0m/s | -34.8°C | 1.3% | 0hPa | 2.6V | 00:00:00 | 00:00:00 | 00:00:00 | |
| PETON7-10 | 2026-09-03 13:07:06 | -12.03152 | -77.05419 | 60° | 199km/h | 988m | -1.4m/s | -32.2°C | 1.0% | 0hPa | 2.6V | 00:00:00 | 02:12:56 | 00:00:00 | |
| OE3JTB-15 | 2026-09-03 13:07:05 | -12.03179 | -77.05463 | 57° | 199km/h | 990m | -0.9m/s | -32.2°C | 1.0% | 0hPa | 2.6V | 00:00:00 | 02:12:55 | 00:00:00 | |
| OE5DRO-10 | 2026-09-03 13:07:05 | -12.03179 | -77.05463 | 57° | 199km/h | 990m | -0.9m/s | -32.2°C | 1.0% | 0hPa | 2.6V | 00:00:00 | 00:00:00 | 00:00:00 | |
| PG1ADW-2 | 2026-09-03 13:07:05 | -12.03179 | -77.05463 | 57° | 199km/h | 990m | -0.9m/s | -32.2°C | 1.0% | 0hPa | 2.6V | 00:00:00 | 00:00:00 | 00:00:00 | |
| PETON7-10 | 2026-09-03 13:07:05 | -12.03179 | -77.05463 | 57° | 199km/h | 990m | -0.9m/s | -32.2°C | 1.0% | 0hPa | 2.6V | 00:00:00 | 00:00:00 | 00:00:00 | |
| OE3JTB-15 | 2026-09-03 13:06:54 | -12.03606 | -77.05813 | 22° | 199km/h | 992m | -0.4m/s | -32.5°C | 1.1% | 0hPa | 2.7V | 00:00:00 | 00:00:00 | 00:00:00 | |
| OE5DRO-10 | 2026-09-03 13:06:54 | -12.03606 | -77.05813 | 22° | 199km/h | 992m | -0.4m/s | -32.5°C | 1.1% | 0hPa | 2.7V | 00:00:00 | 00:00:00 | 00:00:00 | |
| PETON7-10 | 2026-09-03 13:06:54 | -12.03606 | -77.05813 | 22° | 199km/h | 992m | -0.4m/s | -32.5°C | 1.1% | 0hPa | 2.7V | 00:00:00 | 02:12:44 | 00:00:00 | |
| PG1ADW-2 | 2026-09-03 13:06:51 | -12.03751 | -77.05857 | 12° | 199km/h | 992m | -0.0m/s | -31.7°C | 1.0% | 0hPa | 2.7V | 00:00:00 | 00:00:00 | 08:30:00 | |
| PETON7-10 | 2026-09-03 13:06:42 | -12.04201 | -77.05835 | 343° | 201km/h | 991m | -0.5m/s | -29.1°C | 0.8% | 0hPa | 2.6V | 00:00:00 | 00:00:00 | 08:30:00 | |
| OE3JTB-15 | 2026-09-03 13:06:41 | -12.04249 | -77.05818 | 340° | 199km/h | 990m | -0.4m/s | -28.9°C | 0.8% | 0hPa | 2.7V | 00:00:00 | 02:12:31 | 00:00:00 | |
| OE5DRO-10 | 2026-09-03 13:06:41 | -12.04249 | -77.05818 | 340° | 199km/h | 990m | -0.4m/s | -28.9°C | 0.8% | 0hPa | 2.7V | 00:00:00 | 00:00:00 | 00:00:00 | |
| PETON7-10 | 2026-09-03 13:06:41 | -12.04249 | -77.05818 | 340° | 199km/h | 990m | -0.4m/s | -28.9°C | 0.8% | 0hPa | 2.7V | 00:00:00 | 00:00:00 | 00:00:00 | |
| GYPAP8-17 | 2026-09-03 13:06:33 | -12.04585 | -77.05594 | 315° | 199km/h | 990m | -0.2m/s | -29.3°C | 1.0% | 0hPa | 2.7V | 00:00:00 | 00:00:00 | 00:00:00 | |
| PG1ADW-2 | 2026-09-03 13:06:31 | -12.04651 | -77.05516 | 308° | 199km/h | 991m | 0.1m/s | -29.5°C | 0.9% | 0hPa | 2.7V | 00:00:00 | 00:00:00 | 00:00:00 | |
| OE5DRO-10 | 2026-09-03 13:06:30 | -12.04680 | -77.05474 | 305° | 199km/h | 991m | 0.6m/s | -29.5°C | 0.9% | 0hPa | 2.7V | 00:00:00 | 00:00:00 | 00:00:00 | |
| PETON7-10 | 2026-09-03 13:06:26 | -12.04775 | -77.05293 | 292° | 199km/h | 991m | -0.0m/s | -29.5°C | 0.9% | 0hPa | 2.6V | 00:00:00 | 02:12:16 | 00:00:00 | |
| S52SK | 2026-09-03 13:06:23 | -12.04819 | -77.05145 | 283° | 199km/h | 992m | -0.1m/s | -29.6°C | 1.0% | 0hPa | 2.6V | 00:00:00 | 00:00:00 | 00:00:00 | |
| NBG1-10 | 2026-09-03 13:06:21 | -12.04834 | -77.05043 | 276° | 197km/h | 991m | 0.0m/s | -29.6°C | 0.9% | 0hPa | 2.6V | 00:00:00 | 02:12:11 | 00:00:00 | |
| S52SK | 2026-09-03 13:06:18 | -12.04836 | -77.04890 | 267° | 199km/h | 991m | 0.0m/s | -29.9°C | 1.2% | 0hPa | 2.6V | 00:00:00 | 00:00:00 | 00:00:00 | |
| OE3JTB-15 | 2026-09-03 13:06:11 | -12.04742 | -77.04544 | 244° | 199km/h | 993m | -0.6m/s | -29.8°C | 0.9% | 0hPa | 2.6V | 00:00:00 | 00:00:00 | 00:00:00 | |
| OE5DRO-10 | 2026-09-03 13:06:11 | -12.04742 | -77.04544 | 244° | 199km/h | 993m | -0.6m/s | -29.8°C | 0.9% | 0hPa | 2.6V | 00:00:00 | 00:00:00 | 00:00:00 | |
| PG1ADW-2 | 2026-09-03 13:06:11 | -12.04742 | -77.04544 | 244° | 199km/h | 993m | -0.6m/s | -29.8°C | 0.9% | 0hPa | 2.6V | 00:00:00 | 00:00:00 | 00:00:00 | |
| PETON7-10 | 2026-09-03 13:06:11 | -12.04742 | -77.04544 | 244° | 199km/h | 993m | -0.6m/s | -29.8°C | 0.9% | 0hPa | 2.6V | 00:00:00 | 00:00:00 | 00:00:00 | |
| OE3JTB-15 | 2026-09-03 13:05:58 | -12.04268 | -77.04103 | 202° | 199km/h | 992m | -0.5m/s | -30.0°C | 0.9% | 0hPa | 2.7V | 00:00:00 | 00:00:00 | 00:00:00 | |
| OE5DRO-10 | 2026-09-03 13:05:58 | -12.04268 | -77.04103 | 202° | 199km/h | 992m | -0.5m/s | -30.0°C | 0.9% | 0hPa | 2.7V | 00:00:00 | 00:00:00 | 00:00:00 | |
| PETON7-10 | 2026-09-03 13:05:58 | -12.04268 | -77.04103 | 202° | 199km/h | 992m | -0.5m/s | -30.0°C | 0.9% | 0hPa | 2.7V | 00:00:00 | 00:00:00 | 00:00:00 | |
| OE5MMP-10 | 2026-09-03 13:05:57 | -12.04221 | -77.04086 | 199° | 199km/h | 992m | 0.0m/s | -30.1°C | 0.9% | 0hPa | 2.7V | 00:00:00 | 02:11:47 | 00:00:00 | |
| OE5DRO-10 | 2026-09-03 13:05:55 | -12.04123 | -77.04059 | 192° | 199km/h | 992m | 0.1m/s | -30.2°C | 0.9% | 0hPa | 2.6V | 00:00:00 | 00:00:00 | 00:00:00 | |
| PG1ADW-2 | 2026-09-03 13:05:54 | -12.04073 | -77.04049 | 189° | 199km/h | 992m | 0.0m/s | -30.2°C | 0.9% | 0hPa | 2.7V | 00:00:00 | 02:11:44 | 00:00:00 | |
| PETON7-10 | 2026-09-03 13:05:51 | -12.03922 | -77.04039 | 180° | 199km/h | 992m | 0.0m/s | -30.7°C | 0.9% | 0hPa | 2.6V | 00:00:00 | 02:11:41 | 00:00:00 | |
| S52SK | 2026-09-03 13:05:05 | -12.03695 | -77.06045 | 0° | 0km/h | 998m | 0.0m/s | -32.6°C | 1.1% | 0hPa | 2.6V | 00:00:00 | 00:00:00 | 00:00:00 | |
| OE3JTB-15 | 2026-09-03 13:04:47 | -12.04386 | -77.05754 | 330° | 199km/h | 995m | -0.1m/s | -32.6°C | 1.1% | 0hPa | 2.6V | 00:00:00 | 00:00:00 | 00:00:00 | |
| PETON7-10 | 2026-09-03 13:04:47 | -12.04386 | -77.05754 | 330° | 199km/h | 995m | -0.1m/s | -32.6°C | 1.1% | 0hPa | 2.6V | 00:00:00 | 00:00:00 | 08:30:00 | |
| OE5MMP-10 | 2026-09-03 13:04:39 | -12.04680 | -77.05477 | 305° | 195km/h | 995m | 0.1m/s | -33.0°C | 1.1% | 0hPa | 2.7V | 00:00:00 | 02:10:31 | 00:00:00 | |
| PG1ADW-2 | 2026-09-03 13:04:34 | -12.04793 | -77.05247 | 289° | 199km/h | 995m | 0.0m/s | -32.9°C | 1.1% | 0hPa | 2.7V | 00:00:00 | 00:00:00 | 00:00:00 | |
| OE5DRO-10 | 2026-09-03 13:04:33 | -12.04807 | -77.05197 | 286° | 199km/h | 995m | -0.0m/s | -32.9°C | 1.1% | 0hPa | 2.7V | 00:00:00 | 00:00:00 | 08:30:00 | |
| OE3JTB-15 | 2026-09-03 13:04:14 | -12.04581 | -77.04282 | 225° | 199km/h | 1074m | -0.9m/s | -32.9°C | 1.1% | 0hPa | 2.6V | 00:00:00 | 00:00:00 | 00:00:00 | |
| PG1ADW-2 | 2026-09-03 13:04:14 | -12.04581 | -77.04282 | 225° | 199km/h | 1074m | -0.9m/s | -32.9°C | 1.1% | 0hPa | 2.6V | 00:00:00 | 00:00:00 | 00:00:00 | |
| OE5DRO-10 | 2026-09-03 13:04:14 | -12.04581 | -77.04282 | 225° | 199km/h | 1074m | -0.9m/s | -32.9°C | 1.1% | 0hPa | 2.7V | 00:00:00 | 00:00:00 | 00:00:00 | |
| PETON7-10 | 2026-09-03 13:04:14 | -12.04581 | -77.04282 | 225° | 199km/h | 1074m | -0.9m/s | -32.9°C | 1.1% | 0hPa | 2.7V | 00:00:00 | 02:10:06 | 00:00:00 | |
| OE3JTB-15 | 2026-09-03 13:04:07 | -12.04256 | -77.04062 | 199° | 197km/h | 1124m | -1.4m/s | -32.4°C | 1.1% | 0hPa | 2.7V | 00:00:00 | 00:00:00 | 00:00:00 | |
| GYPAP8-17 | 2026-09-03 13:04:06 | -12.04256 | -77.04062 | 200° | 199km/h | 1124m | -1.4m/s | -32.5°C | 1.1% | 0hPa | 2.7V | 00:00:00 | 00:00:00 | 00:00:00 | |
| PETON7-10 | 2026-09-03 13:04:05 | -12.04211 | -77.04047 | 192° | 195km/h | 1133m | -0.5m/s | -32.4°C | 1.1% | 0hPa | 2.7V | 00:00:00 | 00:00:00 | 00:00:00 | |
| OE3JTB-15 | 2026-09-03 13:04:05 | -12.04174 | -77.04043 | 192° | 197km/h | 1148m | -2.7m/s | -32.5°C | 1.1% | 0hPa | 2.6V | 00:00:00 | 02:09:56 | 00:00:00 | |
| HA6NAB-11 | 2026-09-03 13:04:04 | -12.04174 | -77.04043 | 193° | 197km/h | 1148m | -2.7m/s | -32.5°C | 1.2% | 0hPa | 2.6V | 00:00:00 | 00:00:00 | 00:00:00 | |
| OE3JTB-15 | 2026-09-03 13:04:03 | -12.04133 | -77.04030 | 189° | 195km/h | 1155m | -4.6m/s | -32.4°C | 1.1% | 0hPa | 2.6V | 00:00:00 | 00:00:00 | 00:00:00 | |
| OE5DRO-10 | 2026-09-03 13:04:03 | -12.04133 | -77.04030 | 189° | 188km/h | 1155m | -4.6m/s | -32.4°C | 1.1% | 0hPa | 2.6V | 00:00:00 | 00:00:00 | 00:00:00 | |
| S52SK | 2026-09-03 13:04:03 | -12.04133 | -77.04030 | 190° | 195km/h | 1155m | -4.7m/s | -32.5°C | 1.2% | 0hPa | 2.6V | 00:00:00 | 00:00:00 | 00:00:00 | |
| OE3JTB-15 | 2026-09-03 13:04:01 | -12.04064 | -77.04008 | 179° | 192km/h | 1167m | -6.3m/s | -32.4°C | 1.1% | 0hPa | 2.6V | 00:00:00 | 00:00:00 | 00:00:00 | |
| PG1ADW-2 | 2026-09-03 13:04:01 | -12.04064 | -77.04008 | 179° | 186km/h | 1167m | -6.3m/s | -32.4°C | 1.1% | 0hPa | 2.6V | 00:00:00 | 02:09:53 | 00:00:00 | |
| PETON7-10 | 2026-09-03 13:04:00 | -12.04030 | -77.04017 | 176° | 184km/h | 1196m | -6.6m/s | -32.4°C | 1.1% | 0hPa | 2.6V | 00:00:00 | 00:00:00 | 00:00:00 | |
| OE3JTB-15 | 2026-09-03 13:03:59 | -12.04003 | -77.04032 | 175° | 186km/h | 1235m | -7.5m/s | -32.5°C | 1.1% | 0hPa | 2.6V | 00:00:00 | 02:09:51 | 00:00:00 | |
| HA6NAB-11 | 2026-09-03 13:03:59 | -12.04003 | -77.04032 | 176° | 190km/h | 1235m | -7.5m/s | -32.5°C | 1.2% | 0hPa | 2.6V | 00:00:00 | 00:00:00 | 00:00:00 | |
| S52SK | 2026-09-03 13:03:58 | -12.03976 | -77.04045 | 169° | 181km/h | 1260m | -9.2m/s | -32.5°C | 1.2% | 0hPa | 2.6V | 00:00:00 | 00:00:00 | 00:00:00 | |
| OE3JTB-15 | 2026-09-03 13:03:57 | -12.03954 | -77.04068 | 163° | 181km/h | 1288m | -8.8m/s | -32.5°C | 1.1% | 0hPa | 2.6V | 00:00:00 | 00:00:00 | 08:30:00 | |
| OE3JTB-15 | 2026-09-03 13:03:55 | -12.03934 | -77.04156 | 159° | 175km/h | 1289m | -1.9m/s | -32.2°C | 1.0% | 0hPa | 2.7V | 00:00:00 | 00:00:00 | 00:00:00 | |
| OE5DRO-10 | 2026-09-03 13:03:55 | -12.03934 | -77.04156 | 159° | 175km/h | 1289m | -1.9m/s | -32.2°C | 1.0% | 0hPa | 2.7V | 00:00:00 | 00:00:00 | 00:00:00 | |
| PETON7-10 | 2026-09-03 13:03:55 | -12.03934 | -77.04156 | 159° | 175km/h | 1289m | -1.9m/s | -32.2°C | 1.0% | 0hPa | 2.6V | 00:00:00 | 02:09:47 | 00:00:00 | |
| PG1ADW-2 | 2026-09-03 13:03:55 | -12.03934 | -77.04156 | 159° | 177km/h | 1289m | -1.9m/s | -32.2°C | 1.0% | 0hPa | 2.6V | 00:00:00 | 00:00:00 | 00:00:00 | |
| HA6NAB-11 | 2026-09-03 13:03:54 | -12.03932 | -77.04235 | 155° | 173km/h | 1246m | 6.2m/s | -32.2°C | 1.2% | 0hPa | 2.6V | 00:00:00 | 00:00:00 | 00:00:00 | |
| HA6NAB-11 | 2026-09-03 13:03:48 | -12.04393 | -77.05144 | 130° | 193km/h | 602m | 8.2m/s | -32.2°C | 1.2% | 0hPa | 2.6V | 00:00:00 | 00:00:00 | 00:00:00 | |
| OE3JTB-15 | 2026-09-03 13:03:47 | -12.04400 | -77.05210 | 134° | 195km/h | 585m | -2.6m/s | -32.1°C | 1.1% | 0hPa | 2.6V | 00:00:00 | 02:09:39 | 00:00:00 | |
| OE5DRO-10 | 2026-09-03 13:03:47 | -12.04400 | -77.05210 | 134° | 195km/h | 585m | -2.6m/s | -32.1°C | 1.1% | 0hPa | 2.6V | 00:00:00 | 00:00:00 | 00:00:00 | |
| PETON7-10 | 2026-09-03 13:03:47 | -12.04400 | -77.05210 | 134° | 195km/h | 585m | -2.6m/s | -32.1°C | 1.1% | 0hPa | 2.6V | 00:00:00 | 00:00:00 | 00:00:00 | |
| OE3JTB-15 | 2026-09-03 13:03:45 | -12.04378 | -77.05315 | 138° | 206km/h | 602m | -12.1m/s | -32.1°C | 1.0% | 0hPa | 2.7V | 00:00:00 | 00:00:00 | 00:00:00 | |
| OE5DRO-10 | 2026-09-03 13:03:45 | -12.04378 | -77.05315 | 138° | 203km/h | 602m | -12.1m/s | -32.1°C | 1.0% | 0hPa | 2.7V | 00:00:00 | 00:00:00 | 00:00:00 | |
| PG1ADW-2 | 2026-09-03 13:03:45 | -12.04378 | -77.05315 | 138° | 206km/h | 602m | -12.1m/s | -32.1°C | 1.0% | 0hPa | 2.7V | 00:00:00 | 00:00:00 | 08:30:00 | |
| PETON7-10 | 2026-09-03 13:03:45 | -12.04378 | -77.05315 | 138° | 201km/h | 602m | -12.1m/s | -32.1°C | 1.0% | 0hPa | 2.7V | 00:00:00 | 00:00:00 | 00:00:00 | |
| HA6NAB-11 | 2026-09-03 13:03:43 | -12.04383 | -77.05473 | 143° | 212km/h | 740m | -17.2m/s | -32.3°C | 1.2% | 0hPa | 2.7V | 00:00:00 | 00:00:00 | 00:00:00 | |
| HA6NAB-11 | 2026-09-03 13:03:38 | -12.03965 | -77.05951 | 337° | 201km/h | 987m | -1.1m/s | -32.1°C | 1.1% | 0hPa | 2.7V | 00:00:00 | 00:00:00 | 00:00:00 | |
| HA6NAB-11 | 2026-09-03 13:03:26 | -20.37742 | -74.54221 | 0° | 0km/h | 2574m | 0.0m/s | -32.2°C | 0.9% | 0hPa | 2.7V | 00:00:00 | 00:00:00 | 00:00:00 | |
| HA6NAB-11 | 2026-09-03 13:03:20 | -20.37742 | -74.54221 | 0° | 0km/h | 2574m | 0.0m/s | -32.3°C | 0.9% | 0hPa | 2.7V | 00:00:00 | 00:00:00 | 00:00:00 | |
| HA6NAB-11 | 2026-09-03 13:03:15 | -20.37742 | -74.54221 | 0° | 0km/h | 2574m | 0.0m/s | -32.5°C | 0.9% | 0hPa | 2.7V | 00:00:00 | 00:00:00 | 00:00:00 | |
| HA6NAB-11 | 2026-09-03 13:03:09 | -20.37742 | -74.54221 | 0° | 0km/h | 2574m | 0.0m/s | -33.0°C | 1.0% | 0hPa | 2.7V | 00:00:00 | 00:00:00 | 00:00:00 | |
| GYPAP8-17 | 2026-09-03 13:03:01 | -17.80734 | -84.90388 | 0° | 0km/h | 1985m | 0.0m/s | -33.1°C | 1.1% | 0hPa | 2.7V | 00:00:00 | 00:00:00 | 00:00:00 | |
| S52SK | 2026-09-03 13:02:52 | -13.30037 | -84.54224 | 0° | 0km/h | 1123m | 0.0m/s | -33.1°C | 1.2% | 0hPa | 2.7V | 00:00:00 | 00:00:00 | 00:00:00 | |
| S52SK | 2026-09-03 13:02:47 | -15.30476 | -72.50655 | 0° | 0km/h | 1478m | 0.0m/s | -33.5°C | 1.2% | 0hPa | 2.7V | 00:00:00 | 00:00:00 | 00:00:00 | |
| HA6NAB-11 | 2026-09-03 13:02:22 | -20.37742 | -74.54221 | 0° | 0km/h | 2574m | 0.0m/s | -32.8°C | 1.0% | 0hPa | 2.7V | 00:00:00 | 00:00:00 | 00:00:00 | |
| HA6NAB-11 | 2026-09-03 13:02:17 | -20.37742 | -74.54221 | 0° | 0km/h | 2574m | 0.0m/s | -32.9°C | 1.0% | 0hPa | 2.7V | 00:00:00 | 00:00:00 | 00:00:00 | |
| HA6NAB-11 | 2026-09-03 13:02:12 | -20.37742 | -74.54221 | 0° | 0km/h | 2574m | 0.0m/s | -32.6°C | 1.0% | 0hPa | 2.7V | 00:00:00 | 00:00:00 | 00:00:00 | |
| HA6NAB-11 | 2026-09-03 13:02:06 | -20.37742 | -74.54221 | 0° | 0km/h | 2574m | 0.0m/s | -32.4°C | 0.9% | 0hPa | 2.7V | 00:00:00 | 00:00:00 | 00:00:00 | |
| S52SK | 2026-09-03 13:01:39 | -15.30476 | -72.50655 | 0° | 0km/h | 1478m | 0.0m/s | -33.1°C | 1.1% | 0hPa | 2.7V | 00:00:00 | 00:00:00 | 00:00:00 | |
| S52SK | 2026-09-03 13:01:33 | -15.30476 | -72.50655 | 0° | 0km/h | 1478m | 0.0m/s | -33.7°C | 1.1% | 0hPa | 2.7V | 00:00:00 | 00:00:00 | 00:00:00 | |
| GYPAP8-17 | 2026-09-03 13:00:54 | -17.80734 | -84.90388 | 0° | 0km/h | 1985m | 0.0m/s | -34.5°C | 1.1% | 0hPa | 2.7V | 00:00:00 | 00:00:00 | 00:00:00 | |
| S52SK | 2026-09-03 13:00:16 | -15.30476 | -72.50655 | 0° | 0km/h | 1478m | 0.0m/s | -35.1°C | 1.2% | 0hPa | 2.7V | 00:00:00 | 00:00:00 | 00:00:00 | |
| S52SK | 2026-09-03 13:00:11 | -15.30476 | -72.50655 | 0° | 0km/h | 1478m | 0.0m/s | -35.6°C | 1.3% | 0hPa | 2.7V | 00:00:00 | 00:00:00 | 00:00:00 | |
| GYPAP8-17 | 2026-09-03 12:59:45 | -17.80734 | -84.90388 | 0° | 0km/h | 1985m | 0.0m/s | -35.3°C | 1.2% | 0hPa | 2.7V | 00:00:00 | 00:00:00 | 00:00:00 | |
| HA6NAB-11 | 2026-09-03 12:59:27 | -20.37742 | -74.54221 | 0° | 0km/h | 2574m | 0.0m/s | -35.0°C | 1.1% | 0hPa | 2.7V | 00:00:00 | 00:00:00 | 00:00:00 | |
| HA6NAB-11 | 2026-09-03 12:59:22 | -20.37742 | -74.54221 | 0° | 0km/h | 2574m | 0.0m/s | -34.9°C | 1.1% | 0hPa | 2.7V | 00:00:00 | 00:00:00 | 00:00:00 | |
| HA6NAB-11 | 2026-09-03 12:59:18 | -21.13902 | -77.73035 | 0° | 0km/h | 2761m | 0.0m/s | -35.0°C | 1.0% | 0hPa | 2.7V | 00:00:00 | 00:00:00 | 00:00:00 | |
| HA6NAB-11 | 2026-09-03 12:59:11 | -21.13902 | -77.73035 | 0° | 0km/h | 2761m | 0.0m/s | -35.0°C | 1.1% | 0hPa | 2.7V | 00:00:00 | 00:00:00 | 00:00:00 | |
| HA6NAB-11 | 2026-09-03 12:59:06 | -23.37003 | -81.61917 | 0° | 0km/h | 3341m | 0.0m/s | -34.8°C | 1.0% | 0hPa | 2.7V | 00:00:00 | 00:00:00 | 00:00:00 | |
| HA6NAB-11 | 2026-09-03 12:59:00 | -20.86753 | -79.10362 | 0° | 0km/h | 2694m | 0.0m/s | -35.0°C | 1.1% | 0hPa | 2.7V | 00:00:00 | 00:00:00 | 00:00:00 | |
| S52SK | 2026-09-03 12:58:26 | -15.30476 | -72.50655 | 0° | 0km/h | 1478m | 0.0m/s | -35.2°C | 1.3% | 0hPa | 2.7V | 00:00:00 | 00:00:00 | 00:00:00 | |
| S52SK | 2026-09-03 12:58:20 | -15.30476 | -72.50655 | 0° | 0km/h | 1478m | 0.0m/s | -34.9°C | 1.2% | 0hPa | 2.7V | 00:00:00 | 00:00:00 | 00:00:00 | |
| GYPAP8-17 | 2026-09-03 12:57:58 | -17.80734 | -84.90388 | 0° | 0km/h | 1985m | 0.0m/s | -35.1°C | 1.2% | 0hPa | 2.7V | 00:00:00 | 00:00:00 | 00:00:00 | |
| S52SK | 2026-09-03 12:57:06 | -15.30476 | -72.50655 | 0° | 0km/h | 1478m | 0.0m/s | -36.1°C | 1.3% | 0hPa | 2.7V | 00:00:00 | 00:00:00 | 00:00:00 | |
| S52SK | 2026-09-03 12:57:00 | -14.84369 | -84.24483 | 0° | 0km/h | 1393m | 0.0m/s | -36.1°C | 1.4% | 0hPa | 2.7V | 00:00:00 | 00:00:00 | 00:00:00 | |
| GYPAP8-17 | 2026-09-03 12:56:56 | -17.80734 | -84.90388 | 0° | 0km/h | 1985m | 0.0m/s | -36.2°C | 1.3% | 0hPa | 2.7V | 00:00:00 | 00:00:00 | 00:00:00 | |
| S52SK | 2026-09-03 12:55:15 | -14.84369 | -84.24483 | 0° | 0km/h | 1393m | 0.0m/s | -38.1°C | 1.4% | 0hPa | 2.7V | 00:00:00 | 00:00:00 | 00:00:00 | |
| S52SK | 2026-09-03 12:55:09 | -14.84369 | -84.24483 | 0° | 0km/h | 1393m | 0.0m/s | -38.8°C | 1.5% | 0hPa | 2.7V | 00:00:00 | 00:00:00 | 00:00:00 | |
| GYPAP8-17 | 2026-09-03 12:54:48 | -17.80734 | -84.90388 | 0° | 0km/h | 1985m | 0.0m/s | -39.2°C | 1.4% | 0hPa | 2.7V | 00:00:00 | 00:00:00 | 00:00:00 | |
| GYPAP8-17 | 2026-09-03 12:54:27 | -14.79728 | -88.78158 | 0° | 0km/h | 1384m | 0.0m/s | -38.8°C | 1.5% | 0hPa | 2.7V | 00:00:00 | 00:00:00 | 00:00:00 | |
| S52SK | 2026-09-03 12:53:33 | -14.84369 | -84.24483 | 0° | 0km/h | 1393m | 0.0m/s | -40.1°C | 1.4% | 0hPa | 2.7V | 00:00:00 | 00:00:00 | 00:00:00 | |
| S52SK | 2026-09-03 12:53:28 | -20.86753 | -79.10362 | 0° | 0km/h | 2694m | 0.0m/s | -40.2°C | 1.4% | 0hPa | 2.7V | 00:00:00 | 00:00:00 | 00:00:00 | |
| S52SK | 2026-09-03 12:53:23 | -20.86753 | -79.10362 | 0° | 0km/h | 2694m | 0.0m/s | -39.9°C | 1.4% | 0hPa | 2.7V | 00:00:00 | 00:00:00 | 00:00:00 | |
| GYPAP8-17 | 2026-09-03 12:53:15 | -14.79728 | -88.78158 | 0° | 0km/h | 1384m | 0.0m/s | -40.2°C | 1.1% | 0hPa | 2.7V | 00:00:00 | 00:00:00 | 00:00:00 | |
| HA6NAB-11 | 2026-09-03 12:52:34 | -20.86753 | -79.10362 | 0° | 0km/h | 2694m | 0.0m/s | -40.7°C | 1.4% | 0hPa | 2.7V | 00:00:00 | 00:00:00 | 00:00:00 | |
| HA6NAB-11 | 2026-09-03 12:52:22 | -20.86753 | -79.10362 | 0° | 0km/h | 2694m | 0.0m/s | -40.7°C | 1.5% | 0hPa | 2.7V | 00:00:00 | 00:00:00 | 00:00:00 | |
| HA6NAB-11 | 2026-09-03 12:52:15 | -20.86753 | -79.10362 | 0° | 0km/h | 2694m | 0.0m/s | -40.6°C | 1.5% | 0hPa | 2.7V | 00:00:00 | 00:00:00 | 00:00:00 | |
| GYPAP8-17 | 2026-09-03 12:52:00 | -26.97248 | -77.63143 | 0° | 0km/h | 4370m | 0.0m/s | -40.6°C | 1.2% | 0hPa | 2.7V | 00:00:00 | 00:00:00 | 00:00:00 | |
| HA6NAB-11 | 2026-09-03 12:51:59 | -20.86753 | -79.10362 | 0° | 0km/h | 2694m | 0.0m/s | -40.6°C | 1.4% | 0hPa | 2.7V | 00:00:00 | 00:00:00 | 00:00:00 | |
| HA6NAB-11 | 2026-09-03 12:51:53 | -20.86753 | -79.10362 | 0° | 0km/h | 2694m | 0.0m/s | -40.7°C | 1.4% | 0hPa | 2.7V | 00:00:00 | 00:00:00 | 00:00:00 | |
| S52SK | 2026-09-03 12:51:48 | -20.86753 | -79.10362 | 0° | 0km/h | 2694m | 0.0m/s | -40.5°C | 1.4% | 0hPa | 2.7V | 00:00:00 | 00:00:00 | 00:00:00 | |
| HA6NAB-11 | 2026-09-03 12:51:47 | -20.86753 | -79.10362 | 0° | 0km/h | 2694m | 0.0m/s | -40.5°C | 1.4% | 0hPa | 2.7V | 00:00:00 | 00:00:00 | 00:00:00 | |
| S52SK | 2026-09-03 12:51:43 | -19.96840 | -83.02002 | 0° | 0km/h | 2476m | 0.0m/s | -40.7°C | 1.4% | 0hPa | 2.7V | 00:00:00 | 00:00:00 | 00:00:00 | |
| HA6NAB-11 | 2026-09-03 12:51:42 | -23.99170 | -78.57487 | 0° | 0km/h | 3511m | 0.0m/s | -40.8°C | 1.3% | 0hPa | 2.7V | 00:00:00 | 00:00:00 | 00:00:00 | |
| GYPAP8-17 | 2026-09-03 12:50:49 | -26.97248 | -77.63143 | 0° | 0km/h | 4370m | 0.0m/s | -41.0°C | 1.2% | 0hPa | 2.7V | 00:00:00 | 00:00:00 | 00:00:00 | |
| HA6NAB-11 | 2026-09-03 12:50:32 | -23.77612 | -78.68907 | 0° | 0km/h | 3452m | 0.0m/s | -41.3°C | 1.3% | 0hPa | 2.7V | 00:00:00 | 00:00:00 | 00:00:00 | |
| S52SK | 2026-09-03 12:50:22 | -19.96840 | -83.02002 | 0° | 0km/h | 2476m | 0.0m/s | -41.4°C | 1.5% | 0hPa | 2.7V | 00:00:00 | 00:00:00 | 00:00:00 | |
| HA6NAB-11 | 2026-09-03 12:50:21 | -19.96840 | -83.02002 | 0° | 0km/h | 2476m | 0.0m/s | -41.4°C | 1.5% | 0hPa | 2.7V | 00:00:00 | 00:00:00 | 00:00:00 | |
| S52SK | 2026-09-03 12:50:16 | -19.96840 | -83.02002 | 0° | 0km/h | 2476m | 0.0m/s | -41.5°C | 1.5% | 0hPa | 2.7V | 00:00:00 | 00:00:00 | 00:00:00 | |
| HA6NAB-11 | 2026-09-03 12:50:15 | -19.96840 | -83.02002 | 0° | 0km/h | 2476m | 0.0m/s | -41.5°C | 1.5% | 0hPa | 2.7V | 00:00:00 | 00:00:00 | 00:00:00 | |
| HA6NAB-11 | 2026-09-03 12:50:10 | -22.51811 | -78.41846 | 0° | 0km/h | 3114m | 0.0m/s | -41.4°C | 1.4% | 0hPa | 2.7V | 00:00:00 | 00:00:00 | 00:00:00 | |
| ATIDSZ-14 | 2026-09-03 12:50:05 | -21.03767 | -82.50242 | 0° | 0km/h | 2736m | 0.0m/s | -41.4°C | 1.5% | 0hPa | 2.7V | 00:00:00 | 00:00:00 | 00:00:00 | |
| ATIDSZ-14 | 2026-09-03 12:49:44 | -21.03767 | -82.50242 | 0° | 0km/h | 2736m | 0.0m/s | -41.7°C | 1.5% | 0hPa | 2.7V | 00:00:00 | 00:00:00 | 00:00:00 | |
| GYPAP8-17 | 2026-09-03 12:49:34 | -24.41923 | -77.71140 | 0° | 0km/h | 3630m | 0.0m/s | -42.0°C | 1.4% | 0hPa | 2.7V | 00:00:00 | 00:00:00 | 00:00:00 | |
| ATIDSZ-14 | 2026-09-03 12:49:24 | -21.27021 | -76.84600 | 0° | 0km/h | 2794m | 0.0m/s | -42.2°C | 1.5% | 0hPa | 2.7V | 00:00:00 | 00:00:00 | 00:00:00 | |
| ATIDSZ-14 | 2026-09-03 12:49:04 | -21.51066 | -76.93925 | 0° | 0km/h | 2854m | 0.0m/s | -42.6°C | 1.5% | 0hPa | 2.7V | 00:00:00 | 00:00:00 | 00:00:00 | |
| S52SK | 2026-09-03 12:48:54 | -21.33650 | -80.57790 | 0° | 0km/h | 2811m | 0.0m/s | -42.9°C | 1.5% | 0hPa | 2.7V | 00:00:00 | 00:00:00 | 00:00:00 | |
| S52SK | 2026-09-03 12:48:49 | -21.33650 | -80.57790 | 0° | 0km/h | 2811m | 0.0m/s | -43.3°C | 1.6% | 0hPa | 2.7V | 00:00:00 | 00:00:00 | 00:00:00 | |
| S52SK | 2026-09-03 12:48:44 | -21.33650 | -80.57790 | 0° | 0km/h | 2811m | 0.0m/s | -43.6°C | 1.6% | 0hPa | 2.7V | 00:00:00 | 00:00:00 | 00:00:00 | |
| ATIDSZ-14 | 2026-09-03 12:48:43 | -22.51811 | -78.41846 | 0° | 0km/h | 3114m | 0.0m/s | -43.6°C | 1.5% | 0hPa | 2.7V | 00:00:00 | 00:00:00 | 00:00:00 | |
| GYPAP8-17 | 2026-09-03 12:48:28 | -22.51811 | -78.41846 | 0° | 0km/h | 3114m | 0.0m/s | -44.2°C | 0% | 0hPa | 2.7V | 00:00:00 | 00:00:00 | 00:00:00 | |
| HA6NAB-11 | 2026-09-03 12:48:22 | -22.51811 | -78.41846 | 0° | 0km/h | 3114m | 0.0m/s | -44.2°C | 1.6% | 0hPa | 2.7V | 00:00:00 | 00:00:00 | 00:00:00 | |
| ATIDSZ-14 | 2026-09-03 12:48:18 | -26.47526 | -79.60712 | 0° | 0km/h | 4222m | 0.0m/s | -44.5°C | 1.7% | 0hPa | 2.7V | 00:00:00 | 00:00:00 | 00:00:00 | |
| HA6NAB-11 | 2026-09-03 12:48:16 | -26.09127 | -81.80605 | 0° | 0km/h | 4108m | 0.0m/s | -44.4°C | 1.4% | 0hPa | 2.7V | 00:00:00 | 00:00:00 | 00:00:00 | |
| HA6NAB-11 | 2026-09-03 12:48:11 | -26.09127 | -81.80605 | 0° | 0km/h | 4108m | 0.0m/s | -44.9°C | 1.4% | 0hPa | 2.7V | 00:00:00 | 00:00:00 | 00:00:00 | |
| GYPAP8-17 | 2026-09-03 12:48:06 | -15.93636 | -82.25712 | 0° | 0km/h | 1600m | 0.0m/s | -45.0°C | 0% | 0hPa | 2.7V | 00:00:00 | 00:00:00 | 00:00:00 | |
| HA6NAB-11 | 2026-09-03 12:48:05 | -26.09127 | -81.80605 | 0° | 0km/h | 4108m | 0.0m/s | -44.9°C | 1.8% | 0hPa | 2.7V | 00:00:00 | 00:00:00 | 00:00:00 | |
| HA6NAB-11 | 2026-09-03 12:47:59 | -20.02186 | -80.53869 | 0° | 0km/h | 2488m | 0.0m/s | -45.1°C | 1.8% | 0hPa | 2.7V | 00:00:00 | 00:00:00 | 00:00:00 | |
| ATIDSZ-14 | 2026-09-03 12:47:52 | -21.32591 | -79.44025 | 0° | 0km/h | 2808m | 0.0m/s | -45.3°C | 1.8% | 0hPa | 2.7V | 00:00:00 | 00:00:00 | 00:00:00 | |
| ATIDSZ-14 | 2026-09-03 12:47:29 | -21.33650 | -80.57790 | 0° | 0km/h | 2811m | 0.0m/s | -45.4°C | 1.8% | 0hPa | 2.7V | 00:00:00 | 00:00:00 | 00:00:00 | |
| S52SK | 2026-09-03 12:47:26 | -21.33650 | -80.57790 | 0° | 0km/h | 2811m | 0.0m/s | -45.3°C | 1.8% | 0hPa | 2.7V | 00:00:00 | 00:00:00 | 00:00:00 | |
| S52SK | 2026-09-03 12:47:21 | -12.03848 | -77.04145 | 211° | 181km/h | 805m | -44.8m/s | -45.6°C | 2.3% | 0hPa | 2.7V | 00:00:00 | 00:00:00 | 00:00:00 | |
| S52SK | 2026-09-03 12:47:16 | -12.03848 | -77.04145 | 211° | 181km/h | 805m | -44.8m/s | -45.5°C | 2.3% | 0hPa | 2.7V | 00:00:00 | 00:00:00 | 00:00:00 | |
| ATIDSZ-14 | 2026-09-03 12:47:08 | -17.19765 | -80.78690 | 0° | 0km/h | 1855m | 0.0m/s | -45.6°C | 2.0% | 0hPa | 2.7V | 00:00:00 | 00:00:00 | 00:00:00 | |
| GYPAP8-17 | 2026-09-03 12:46:49 | -16.76830 | -80.41280 | 0° | 0km/h | 1766m | 0.0m/s | 0°C | 0% | 0hPa | 2.7V | 00:00:00 | 00:00:00 | 00:00:00 | |
| ATIDSZ-14 | 2026-09-03 12:46:48 | -17.23434 | -80.45637 | 0° | 0km/h | 1863m | 0.0m/s | -45.1°C | 1.9% | 0hPa | 2.7V | 00:00:00 | 00:00:00 | 00:00:00 | |
| ATIDSZ-14 | 2026-09-03 12:46:28 | -20.02186 | -80.53869 | 0° | 0km/h | 2488m | 0.0m/s | -45.0°C | 1.8% | 0hPa | 2.7V | 00:00:00 | 00:00:00 | 00:00:00 | |
| ATIDSZ-14 | 2026-09-03 12:46:07 | -20.02186 | -80.53869 | 0° | 0km/h | 2488m | 0.0m/s | -45.2°C | 1.8% | 0hPa | 2.7V | 00:00:00 | 00:00:00 | 00:00:00 | |
| HA6NAB-11 | 2026-09-03 12:46:00 | -20.02186 | -80.53869 | 0° | 0km/h | 2488m | 0.0m/s | -45.3°C | 1.9% | 0hPa | 2.7V | 00:00:00 | 00:00:00 | 00:00:00 | |
| HA6NAB-11 | 2026-09-03 12:45:49 | 63.05677 | -63.37664 | 0° | 0km/h | 16965m | 0.0m/s | -45.2°C | 0.4% | 0hPa | 2.7V | 00:00:00 | 00:00:00 | 00:00:00 | |
| S52SK | 2026-09-03 12:45:48 | -12.03848 | -77.04145 | 211° | 181km/h | 805m | -44.8m/s | -45.2°C | 2.2% | 0hPa | 2.7V | 00:00:00 | 00:00:00 | 00:00:00 | |
| ATIDSZ-14 | 2026-09-03 12:45:47 | 63.05677 | -63.37664 | 0° | 0km/h | 16965m | 0.0m/s | -45.3°C | 0.4% | 0hPa | 2.7V | 00:00:00 | 00:00:00 | 00:00:00 | |
| S52SK | 2026-09-03 12:45:42 | -12.03848 | -77.04145 | 211° | 181km/h | 805m | -44.8m/s | -45.3°C | 2.2% | 0hPa | 2.7V | 00:00:00 | 00:00:00 | 00:00:00 | |
| GYPAP8-17 | 2026-09-03 12:45:41 | 63.05677 | -63.37664 | 0° | 0km/h | 16965m | 0.0m/s | 0°C | 0% | 0hPa | 2.7V | 00:00:00 | 00:00:00 | 00:00:00 | |
| HA6NAB-11 | 2026-09-03 12:45:37 | 63.05677 | -63.37664 | 0° | 0km/h | 16965m | 0.0m/s | -45.3°C | 0.4% | 0hPa | 2.7V | 00:00:00 | 00:00:00 | 00:00:00 | |
| HA6NAB-11 | 2026-09-03 12:45:32 | 49.15216 | 17.94388 | 130° | 16km/h | 26660m | 13.3m/s | -45.4°C | 0.2% | 0hPa | 2.7V | 00:00:00 | 00:00:00 | 00:00:00 | |
| ATIDSZ-14 | 2026-09-03 12:45:26 | -6.99158 | -73.88338 | 0° | 0km/h | 314m | 0.0m/s | -45.5°C | 2.4% | 0hPa | 2.7V | 00:00:00 | 00:00:00 | 00:00:00 | |
| OK1SLM-15 | 2026-09-03 12:45:18 | -6.39396 | -72.59982 | 0° | 0km/h | 263m | 0.0m/s | 0°C | 0% | 0hPa | 2.7V | 00:00:00 | 00:00:00 | 00:00:00 | |
| OK1SLM-15 | 2026-09-03 12:45:09 | -8.55333 | -72.45167 | 0° | 0km/h | 469m | 0.0m/s | 0°C | 0% | 0hPa | 2.7V | 00:00:00 | 00:00:00 | 00:00:00 | |
| ATIDSZ-14 | 2026-09-03 12:45:05 | -6.72409 | -73.29290 | 0° | 0km/h | 291m | 0.0m/s | -45.5°C | 2.0% | 0hPa | 2.7V | 00:00:00 | 00:00:00 | 00:00:00 | |
| ATIDSZ-14 | 2026-09-03 12:44:45 | -32.40693 | -71.85797 | 0° | 0km/h | 6105m | 0.0m/s | -46.1°C | 1.3% | 0hPa | 2.7V | 00:00:00 | 00:00:00 | 00:00:00 | |
| GYPAP8-17 | 2026-09-03 12:44:36 | -12.03079 | -77.05052 | 122° | 190km/h | 399m | -23.1m/s | 0°C | 0% | 0hPa | 2.7V | 00:00:00 | 00:00:00 | 00:00:00 | |
| ATIDSZ-14 | 2026-09-03 12:44:23 | -32.40693 | -71.85797 | 0° | 0km/h | 6105m | 0.0m/s | -45.4°C | 1.3% | 0hPa | 2.7V | 00:00:00 | 00:00:00 | 00:00:00 | |
| S52SK | 2026-09-03 12:44:18 | -12.03848 | -77.04145 | 211° | 181km/h | 805m | -44.8m/s | -45.4°C | 2.3% | 0hPa | 2.7V | 00:00:00 | 00:00:00 | 00:00:00 | |
| OK1SLM-15 | 2026-09-03 12:44:16 | -12.03399 | -77.04279 | 166° | 184km/h | 309m | -27.9m/s | 0°C | 0% | 0hPa | 2.7V | 00:00:00 | 00:00:00 | 00:00:00 | |
| ATIDSZ-14 | 2026-09-03 12:44:01 | -32.01018 | -71.36618 | 0° | 0km/h | 5972m | 0.0m/s | -45.1°C | 1.8% | 0hPa | 2.7V | 00:00:00 | 00:00:00 | 00:00:00 | |
| ATIDSZ-14 | 2026-09-03 12:43:39 | -21.65960 | -57.55050 | 0° | 0km/h | 2892m | 0.0m/s | -45.7°C | 1.8% | 0hPa | 2.7V | 00:00:00 | 00:00:00 | 00:00:00 | |
| GYPAP8-17 | 2026-09-03 12:43:30 | -12.03079 | -77.05052 | 122° | 190km/h | 399m | -23.1m/s | 0°C | 0% | 0hPa | 2.7V | 00:00:00 | 00:00:00 | 00:00:00 | |
| S52SK | 2026-09-03 12:42:58 | -12.03848 | -77.04145 | 211° | 181km/h | 805m | -44.8m/s | -45.8°C | 2.3% | 0hPa | 2.7V | 00:00:00 | 00:00:00 | 00:00:00 | |
| S52SK | 2026-09-03 12:42:53 | -12.03848 | -77.04145 | 211° | 181km/h | 805m | -44.8m/s | -45.7°C | 2.3% | 0hPa | 2.7V | 00:00:00 | 00:00:00 | 00:00:00 | |
| ATIDSZ-14 | 2026-09-03 12:42:51 | -12.03848 | -77.04145 | 211° | 181km/h | 805m | -44.8m/s | -45.6°C | 2.3% | 0hPa | 2.7V | 00:00:00 | 00:00:00 | 00:00:00 | |
| OE5WHR-10 | 2026-09-03 12:42:38 | -12.03399 | -77.04280 | 166° | 183km/h | 309m | -27.8m/s | -45.1°C | 2.1% | 0hPa | 2.7V | 00:00:00 | 01:48:48 | 00:00:00 | |
| OE5DRO-10 | 2026-09-03 12:42:38 | -12.03399 | -77.04280 | 166° | 183km/h | 309m | -27.8m/s | -45.1°C | 2.1% | 0hPa | 2.7V | 00:00:00 | 00:00:00 | 00:00:00 | |
| DO3MHA-11 | 2026-09-03 12:42:38 | -12.03399 | -77.04280 | 166° | 183km/h | 309m | -27.8m/s | -45.1°C | 2.1% | 0hPa | 2.7V | 00:00:00 | 01:48:48 | 00:00:00 | |
| PETON7-10 | 2026-09-03 12:42:38 | -12.03399 | -77.04280 | 166° | 184km/h | 309m | -27.8m/s | -45.1°C | 2.1% | 0hPa | 2.7V | 00:00:00 | 00:00:00 | 00:00:00 | |
| OE5MMP-10 | 2026-09-03 12:42:38 | -12.03399 | -77.04280 | 166° | 184km/h | 309m | -27.8m/s | -45.1°C | 2.1% | 0hPa | 2.7V | 00:00:00 | 01:48:48 | 00:00:00 | |
| PETON7-10 | 2026-09-03 12:42:37 | -12.03364 | -77.04307 | 163° | 183km/h | 327m | -29.2m/s | -45.1°C | 2.1% | 0hPa | 2.7V | 00:00:00 | 01:48:47 | 00:00:00 | |
| OE5DRO-10 | 2026-09-03 12:42:36 | -12.03345 | -77.04325 | 159° | 183km/h | 323m | -28.4m/s | -45.1°C | 2.1% | 0hPa | 2.7V | 00:00:00 | 00:00:00 | 00:00:00 | |
| DO3MHA-11 | 2026-09-03 12:42:36 | -12.03345 | -77.04325 | 159° | 183km/h | 323m | -28.4m/s | -45.1°C | 2.1% | 0hPa | 2.7V | 00:00:00 | 01:48:46 | 00:00:00 | |
| OE5MMP-10 | 2026-09-03 12:42:36 | -12.03345 | -77.04325 | 159° | 183km/h | 323m | -28.4m/s | -45.1°C | 2.1% | 0hPa | 2.7V | 00:00:00 | 01:48:46 | 08:30:00 | |
| PETON7-10 | 2026-09-03 12:42:36 | -12.03345 | -77.04325 | 159° | 183km/h | 323m | -28.4m/s | -45.1°C | 2.1% | 0hPa | 2.7V | 00:00:00 | 00:00:00 | 00:00:00 | |
| OK1SLM-15 | 2026-09-03 12:42:36 | -12.03345 | -77.04325 | 160° | 183km/h | 323m | -28.5m/s | 0°C | 0% | 0hPa | 2.7V | 00:00:00 | 00:00:00 | 00:00:00 | |
| PETON7-10 | 2026-09-03 12:42:35 | -12.03299 | -77.04380 | 156° | 183km/h | 323m | -27.9m/s | -45.1°C | 2.1% | 0hPa | 2.7V | 00:00:00 | 00:00:00 | 00:00:00 | |
| OE5WHR-10 | 2026-09-03 12:42:35 | -12.03299 | -77.04380 | 156° | 183km/h | 323m | -27.9m/s | -45.1°C | 2.1% | 0hPa | 2.7V | 00:00:00 | 00:00:00 | 00:00:00 | |
| OE5DRO-10 | 2026-09-03 12:42:34 | -12.03252 | -77.04451 | 152° | 197km/h | 340m | -27.0m/s | -45.0°C | 2.1% | 0hPa | 2.7V | 00:00:00 | 00:00:00 | 08:30:00 | |
| DO3MHA-11 | 2026-09-03 12:42:34 | -12.03252 | -77.04451 | 152° | 186km/h | 340m | -27.0m/s | -45.0°C | 2.1% | 0hPa | 2.6V | 00:00:00 | 01:48:44 | 00:00:00 | |
| PETON7-10 | 2026-09-03 12:42:34 | -12.03252 | -77.04451 | 152° | 184km/h | 340m | -27.0m/s | -45.0°C | 2.1% | 0hPa | 2.6V | 00:00:00 | 01:48:44 | 00:00:00 | |
| OE5MMP-10 | 2026-09-03 12:42:34 | -12.03252 | -77.04451 | 152° | 186km/h | 340m | -27.0m/s | -45.0°C | 2.1% | 0hPa | 2.6V | 00:00:00 | 01:48:44 | 00:00:00 | |
| OE5WHR-10 | 2026-09-03 12:42:32 | -12.03157 | -77.04623 | 146° | 188km/h | 333m | -20.4m/s | -45.2°C | 2.1% | 0hPa | 2.6V | 00:00:00 | 00:00:00 | 00:00:00 | |
| PETON7-10 | 2026-09-03 12:42:32 | -12.03157 | -77.04623 | 146° | 188km/h | 333m | -20.4m/s | -45.2°C | 2.1% | 0hPa | 2.6V | 00:00:00 | 00:00:00 | 00:00:00 | |
| DO3MHA-11 | 2026-09-03 12:42:31 | -12.03122 | -77.04753 | 142° | 192km/h | 290m | -21.3m/s | -45.1°C | 2.1% | 0hPa | 2.7V | 00:00:00 | 01:48:41 | 00:00:00 | |
| PETON7-10 | 2026-09-03 12:42:31 | -12.03122 | -77.04753 | 142° | 192km/h | 290m | -21.3m/s | -45.1°C | 2.1% | 0hPa | 2.7V | 00:00:00 | 00:00:00 | 00:00:00 | |
| OE5MMP-10 | 2026-09-03 12:42:31 | -12.03122 | -77.04753 | 142° | 190km/h | 290m | -21.3m/s | -45.1°C | 2.1% | 0hPa | 2.7V | 00:00:00 | 01:48:41 | 00:00:00 | |
| OK1SLM-15 | 2026-09-03 12:42:31 | -12.03122 | -77.04753 | 142° | 192km/h | 290m | -21.4m/s | 0°C | 0% | 0hPa | 2.7V | 00:00:00 | 00:00:00 | 00:00:00 | |
| DO3MHA-11 | 2026-09-03 12:42:29 | -12.03103 | -77.04916 | 135° | 188km/h | 342m | -23.2m/s | -45.3°C | 2.1% | 0hPa | 2.7V | 00:00:00 | 01:48:39 | 00:00:00 | |
| PETON7-10 | 2026-09-03 12:42:29 | -12.03103 | -77.04916 | 135° | 188km/h | 342m | -23.2m/s | -45.3°C | 2.1% | 0hPa | 2.6V | 00:00:00 | 01:48:39 | 00:00:00 | |
| OE5MMP-10 | 2026-09-03 12:42:28 | -12.03098 | -77.04951 | 131° | 188km/h | 371m | -25.4m/s | -45.4°C | 2.2% | 0hPa | 2.6V | 00:00:00 | 01:48:38 | 00:00:00 | |
| OE5MMP-10 | 2026-09-03 12:42:26 | -12.03078 | -77.05018 | 125° | 190km/h | 350m | -25.3m/s | -45.4°C | 2.2% | 0hPa | 2.6V | 00:00:00 | 01:48:36 | 00:00:00 | |
| DO3MHA-11 | 2026-09-03 12:42:24 | -12.03072 | -77.05093 | 119° | 190km/h | 376m | -17.0m/s | -45.4°C | 2.2% | 0hPa | 2.6V | 00:00:00 | 01:48:34 | 00:00:00 | |
| OE5MMP-10 | 2026-09-03 12:42:24 | -12.03072 | -77.05093 | 119° | 190km/h | 376m | -17.0m/s | -45.4°C | 2.2% | 0hPa | 2.6V | 00:00:00 | 01:48:34 | 00:00:00 | |
| PETON7-10 | 2026-09-03 12:42:24 | -12.03072 | -77.05093 | 119° | 192km/h | 376m | -17.0m/s | -45.4°C | 2.2% | 0hPa | 2.6V | 00:00:00 | 00:00:00 | 08:30:00 | |
| OE5WHR-10 | 2026-09-03 12:42:24 | -12.03072 | -77.05093 | 119° | 89km/h | 376m | -17.0m/s | 0°C | 0% | 0hPa | 2.6V | 00:00:00 | 01:48:34 | 00:00:00 | |
| PETON7-10 | 2026-09-03 12:42:23 | -12.03070 | -77.05129 | 115° | 186km/h | 406m | -17.7m/s | -45.4°C | 2.2% | 0hPa | 2.6V | 00:00:00 | 00:00:00 | 00:00:00 | |
| OE5MMP-10 | 2026-09-03 12:42:22 | -12.03118 | -77.05131 | 113° | 197km/h | 689m | -11.0m/s | -45.4°C | 2.1% | 0hPa | 2.6V | 00:00:00 | 01:48:32 | 00:00:00 | |
| PETON7-10 | 2026-09-03 12:42:22 | -12.03118 | -77.05131 | 113° | 195km/h | 689m | -11.0m/s | -45.4°C | 2.1% | 0hPa | 2.7V | 00:00:00 | 01:48:32 | 00:00:00 | |
| DO3MHA-11 | 2026-09-03 12:42:22 | -12.03118 | -77.05131 | 113° | 197km/h | 689m | -11.0m/s | -45.4°C | 2.1% | 0hPa | 2.7V | 00:00:00 | 01:48:32 | 00:00:00 | |
| PETON7-10 | 2026-09-03 12:42:21 | -12.03123 | -77.05169 | 110° | 197km/h | 718m | -9.9m/s | -45.5°C | 2.2% | 0hPa | 2.7V | 00:00:00 | 00:00:00 | 00:00:00 | |
| OE5MMP-10 | 2026-09-03 12:42:20 | -12.03144 | -77.05204 | 107° | 199km/h | 848m | -5.2m/s | -45.4°C | 2.2% | 0hPa | 2.7V | 00:00:00 | 01:48:30 | 00:00:00 | |
| PETON7-10 | 2026-09-03 12:42:20 | -12.03144 | -77.05204 | 107° | 201km/h | 848m | -5.2m/s | -45.4°C | 2.2% | 0hPa | 2.7V | 00:00:00 | 00:00:00 | 00:00:00 | |
| DO3MHA-11 | 2026-09-03 12:42:20 | -12.03144 | -77.05204 | 107° | 199km/h | 848m | -5.2m/s | -45.4°C | 2.2% | 0hPa | 2.7V | 00:00:00 | 01:48:30 | 08:30:00 | |
| OE5MMP-10 | 2026-09-03 12:42:17 | -12.03231 | -77.05276 | 100° | 201km/h | 1268m | 13.7m/s | -45.4°C | 2.2% | 0hPa | 2.7V | 00:00:00 | 01:48:27 | 00:00:00 | |
| DO3MHA-11 | 2026-09-03 12:42:17 | -12.03231 | -77.05276 | 100° | 201km/h | 1268m | 13.7m/s | -45.4°C | 2.2% | 0hPa | 2.7V | 00:00:00 | 01:48:27 | 00:00:00 | |
| ATIDSZ-14 | 2026-09-03 12:42:10 | -12.03339 | -77.05457 | 79° | 201km/h | 1561m | 14.6m/s | -45.6°C | 2.1% | 0hPa | 2.7V | 00:00:00 | 00:00:00 | 00:00:00 | |
| NBG1-10 | 2026-09-03 12:42:00 | -12.03538 | -77.05631 | 46° | 106km/h | 1631m | 13.7m/s | 0°C | 0% | 0hPa | 2.7V | 00:00:00 | 01:48:10 | 00:00:00 | |
| SQ9EZE-14 | 2026-09-03 12:42:00 | -12.03538 | -77.05631 | 47° | 193km/h | 1631m | 13.7m/s | 0°C | 0% | 0hPa | 2.7V | 00:00:00 | 00:00:00 | 00:00:00 | |
| DO3MHA-11 | 2026-09-03 12:41:34 | -12.04518 | -77.05658 | 322° | 201km/h | 998m | -11.2m/s | -46.2°C | 2.2% | 0hPa | 2.7V | 00:00:00 | 01:47:44 | 00:00:00 | |
| OE5MMP-10 | 2026-09-03 12:41:34 | -12.04518 | -77.05658 | 322° | 201km/h | 998m | -11.2m/s | -46.2°C | 2.2% | 0hPa | 2.7V | 00:00:00 | 01:47:44 | 00:00:00 | |
| PETON7-10 | 2026-09-03 12:41:34 | -12.04518 | -77.05658 | 322° | 201km/h | 998m | -11.2m/s | -46.2°C | 2.2% | 0hPa | 2.7V | 00:00:00 | 00:00:00 | 00:00:00 | |
| ATIDSZ-14 | 2026-09-03 12:41:27 | -12.04740 | -77.05382 | 296° | 199km/h | 1004m | 2.3m/s | -46.3°C | 2.3% | 0hPa | 2.7V | 00:00:00 | 00:00:00 | 00:00:00 | |
| S52SK | 2026-09-03 12:41:23 | -12.04811 | -77.05191 | 286° | 197km/h | 985m | 1.4m/s | -46.2°C | 2.3% | 0hPa | 2.7V | 00:00:00 | 00:00:00 | 00:00:00 | |
| PETON7-10 | 2026-09-03 12:41:19 | -12.04842 | -77.04988 | 274° | 199km/h | 987m | -7.7m/s | -46.3°C | 2.2% | 0hPa | 2.7V | 00:00:00 | 01:47:29 | 00:00:00 | |
| OE5DRO-10 | 2026-09-03 12:41:18 | -12.04843 | -77.04936 | 271° | 199km/h | 994m | -6.7m/s | -46.3°C | 2.3% | 0hPa | 2.7V | 00:00:00 | 00:00:00 | 00:00:00 | |
| DO3MHA-11 | 2026-09-03 12:41:18 | -12.04843 | -77.04936 | 271° | 199km/h | 994m | -6.7m/s | -46.3°C | 2.3% | 0hPa | 2.7V | 00:00:00 | 01:47:28 | 00:00:00 | |
| PETON7-10 | 2026-09-03 12:41:18 | -12.04843 | -77.04936 | 271° | 199km/h | 994m | -6.7m/s | -46.3°C | 2.3% | 0hPa | 2.7V | 00:00:00 | 00:00:00 | 08:30:00 | |
| OE5MMP-10 | 2026-09-03 12:41:18 | -12.04843 | -77.04936 | 271° | 199km/h | 994m | -6.7m/s | -46.3°C | 2.3% | 0hPa | 2.7V | 00:00:00 | 01:47:28 | 00:00:00 | |
| S52SK | 2026-09-03 12:41:17 | -12.04842 | -77.04885 | 268° | 199km/h | 998m | -5.3m/s | -46.5°C | 2.3% | 0hPa | 2.7V | 00:00:00 | 00:00:00 | 00:00:00 | |
| OE5MMP-10 | 2026-09-03 12:41:11 | -12.04767 | -77.04588 | 247° | 162km/h | 976m | 3.1m/s | -46.6°C | 2.3% | 0hPa | 2.7V | 00:00:00 | 01:47:21 | 00:00:00 | |
| ATIDSZ-14 | 2026-09-03 12:41:06 | -12.04667 | -77.04409 | 235° | 199km/h | 982m | 0.9m/s | -46.8°C | 2.4% | 0hPa | 2.7V | 00:00:00 | 00:00:00 | 00:00:00 | |
| PETON7-10 | 2026-09-03 12:41:01 | -12.04486 | -77.04213 | 217° | 108km/h | 1071m | -2.6m/s | -46.9°C | 2.3% | 0hPa | 2.7V | 00:00:00 | 00:00:00 | 00:00:00 | |
| OE5DRO-10 | 2026-09-03 12:41:01 | -12.04486 | -77.04213 | 217° | 38km/h | 1071m | -2.6m/s | -46.9°C | 2.3% | 0hPa | 2.7V | 00:00:00 | 00:00:00 | 00:00:00 | |
| DO3MHA-11 | 2026-09-03 12:41:01 | -12.04486 | -77.04213 | 217° | 110km/h | 1071m | -2.6m/s | -46.9°C | 2.3% | 0hPa | 2.7V | 00:00:00 | 01:47:11 | 00:00:00 | |
| ATIDSZ-14 | 2026-09-03 12:40:05 | 49.14986 | 17.94198 | 0° | 0km/h | 26387m | 0.0m/s | -48.1°C | 0.3% | 0hPa | 2.7V | 00:00:00 | 00:00:00 | 00:00:00 | |
| S52SK | 2026-09-03 12:39:55 | 49.14986 | 17.94198 | 0° | 0km/h | 26387m | 0.0m/s | -47.8°C | 0.3% | 0hPa | 2.7V | 00:00:00 | 00:00:00 | 00:00:00 | |
| ATIDSZ-14 | 2026-09-03 12:39:44 | 49.14986 | 17.94198 | 0° | 0km/h | 26387m | 0.0m/s | -47.5°C | 0.3% | 0hPa | 2.7V | 00:00:00 | 00:00:00 | 00:00:00 | |
| ATIDSZ-14 | 2026-09-03 12:39:24 | 49.14986 | 17.94198 | 0° | 0km/h | 26387m | 0.0m/s | -47.8°C | 0.3% | 0hPa | 2.7V | 00:00:00 | 00:00:00 | 00:00:00 | |
| HA6NAB-11 | 2026-09-03 12:39:15 | 49.15216 | 17.94388 | 130° | 16km/h | 26660m | 13.3m/s | -48.1°C | 0.3% | 0hPa | 2.7V | 00:00:00 | 00:00:00 | 00:00:00 | |
| DB0DAN | 2026-09-03 12:39:10 | 49.15239 | 17.94370 | 15° | 128km/h | 26578m | 13.8m/s | 0°C | 0% | 0hPa | 2.7V | 00:00:00 | 00:00:00 | 00:00:00 | |
| DO3MHA-11 | 2026-09-03 12:39:08 | 49.14986 | 17.94198 | 133° | 9km/h | 26387m | 7.2m/s | -48.1°C | 2.4% | 0hPa | 2.6V | 00:00:00 | 01:45:19 | 00:00:00 | |
| ATIDSZ-14 | 2026-09-03 12:39:03 | 49.14996 | 17.94188 | 161° | 5km/h | 26366m | 5.0m/s | -48.0°C | 0.3% | 0hPa | 2.6V | 00:00:00 | 00:00:00 | 00:00:00 | |
| OE5MMP-10 | 2026-09-03 12:39:01 | 49.14997 | 17.94186 | 22° | 13km/h | 26351m | 4.0m/s | -48.0°C | 2.5% | 0hPa | 2.6V | 00:00:00 | 01:45:12 | 00:00:00 | |
| DO3MHA-11 | 2026-09-03 12:38:58 | 49.14997 | 17.94175 | 80° | 15km/h | 26337m | 4.6m/s | -48.1°C | 2.5% | 0hPa | 2.7V | 00:00:00 | 01:45:09 | 08:30:00 | |
| PETON7-10 | 2026-09-03 12:38:56 | 49.14998 | 17.94167 | 100° | 15km/h | 26326m | 6.8m/s | -48.2°C | 2.6% | 0hPa | 2.6V | 00:00:00 | 00:00:00 | 00:00:00 | |
| DB0DAN | 2026-09-03 12:38:55 | 49.14999 | 17.94163 | 114° | 13km/h | 26319m | 5.7m/s | 0°C | 0% | 0hPa | 2.6V | 00:00:00 | 00:00:00 | 00:00:00 | |
| OE5MMP-10 | 2026-09-03 12:38:51 | 49.14999 | 17.94138 | 41° | 15km/h | 26299m | 2.7m/s | -48.3°C | 2.4% | 0hPa | 2.7V | 00:00:00 | 01:45:02 | 00:00:00 | |
| DO3MHA-11 | 2026-09-03 12:38:48 | 49.14998 | 17.94131 | 190° | 15km/h | 26282m | 5.5m/s | -48.5°C | 2.5% | 0hPa | 2.7V | 00:00:00 | 01:44:59 | 00:00:00 | |
| ATIDSZ-14 | 2026-09-03 12:38:42 | 49.15006 | 17.94125 | 107° | 7km/h | 26251m | 6.4m/s | -48.4°C | 0.3% | 0hPa | 2.7V | 00:00:00 | 00:00:00 | 00:00:00 | |
| DB0DAN | 2026-09-03 12:38:40 | 49.15011 | 17.94114 | 87° | 15km/h | 26232m | 3.9m/s | 0°C | 0% | 0hPa | 2.7V | 00:00:00 | 00:00:00 | 00:00:00 | |
| OE5MMP-10 | 2026-09-03 12:38:38 | 49.15014 | 17.94101 | 108° | 18km/h | 26223m | 6.0m/s | -48.5°C | 2.5% | 0hPa | 2.7V | 00:00:00 | 01:44:49 | 00:00:00 | |
| OE5DRO-10 | 2026-09-03 12:38:36 | 49.15014 | 17.94084 | 73° | 18km/h | 26212m | 4.5m/s | -48.5°C | 2.5% | 0hPa | 2.7V | 00:00:00 | 00:00:00 | 00:00:00 | |
| DO3MHA-11 | 2026-09-03 12:38:35 | 49.15012 | 17.94075 | 78° | 15km/h | 26207m | 3.5m/s | -48.4°C | 2.5% | 0hPa | 2.7V | 00:00:00 | 01:44:46 | 00:00:00 | |
| OE5MMP-10 | 2026-09-03 12:38:28 | 49.15003 | 17.94046 | 101° | 20km/h | 26167m | 5.2m/s | -48.5°C | 2.6% | 0hPa | 2.7V | 00:00:00 | 01:44:39 | 08:30:00 | |
| DB0DAN | 2026-09-03 12:38:25 | 49.15004 | 17.94027 | 81° | 16km/h | 26149m | 5.6m/s | 0°C | 0% | 0hPa | 2.6V | 00:00:00 | 00:00:00 | 00:00:00 | |
| DO3MHA-11 | 2026-09-03 12:38:25 | 49.15004 | 17.94027 | 81° | 18km/h | 26150m | 5.6m/s | -48.7°C | 2.6% | 0hPa | 2.6V | 00:00:00 | 01:44:36 | 00:00:00 | |
| ATIDSZ-14 | 2026-09-03 12:38:20 | 49.14998 | 17.93994 | 70° | 26km/h | 26126m | 5.1m/s | -48.8°C | 0.3% | 0hPa | 2.6V | 00:00:00 | 00:00:00 | 00:00:00 | |
| S52SK | 2026-09-03 12:38:19 | 49.14995 | 17.93986 | 61° | 22km/h | 26121m | 5.4m/s | -48.8°C | 0.4% | 0hPa | 2.6V | 00:00:00 | 00:00:00 | 00:00:00 | |
| OE5MMP-10 | 2026-09-03 12:38:18 | 49.14989 | 17.93975 | 32° | 11km/h | 26108m | 5.3m/s | -48.6°C | 2.6% | 0hPa | 2.6V | 00:00:00 | 01:44:29 | 00:00:00 | |
| OE5DRO-10 | 2026-09-03 12:38:17 | 49.14986 | 17.93972 | 23° | 13km/h | 26103m | 4.2m/s | -48.4°C | 2.6% | 0hPa | 2.6V | 00:00:00 | 00:00:00 | 00:00:00 | |
| DO3MHA-11 | 2026-09-03 12:38:15 | 49.14982 | 17.93969 | 65° | 13km/h | 26091m | 6.6m/s | -48.5°C | 2.5% | 0hPa | 2.6V | 00:00:00 | 01:44:26 | 00:00:00 | |
| PETON7-10 | 2026-09-03 12:38:11 | 49.14980 | 17.93955 | 51° | 15km/h | 26068m | 6.5m/s | -48.3°C | 2.5% | 0hPa | 2.6V | 00:00:00 | 00:00:00 | 00:00:00 | |
| OE5MMP-10 | 2026-09-03 12:38:08 | 49.14971 | 17.93942 | 48° | 15km/h | 26050m | 6.7m/s | -48.4°C | 2.5% | 0hPa | 2.7V | 00:00:00 | 01:44:19 | 00:00:00 | |
| DO3MHA-11 | 2026-09-03 12:38:05 | 49.14962 | 17.93927 | 32° | 11km/h | 26032m | 6.2m/s | -48.7°C | 2.6% | 0hPa | 2.7V | 00:00:00 | 01:44:16 | 00:00:00 | |
| OE3OSB-13 | 2026-09-03 12:37:57 | 49.14937 | 17.93915 | 11° | 11km/h | 25978m | 5.4m/s | -48.9°C | 0.3% | -1.0hPa | 2.7V | 00:00:00 | 00:00:00 | 00:00:00 | |
| PETON7-10 | 2026-09-03 12:37:56 | 49.14937 | 17.93915 | 12° | 7km/h | 25978m | 5.3m/s | -48.9°C | 2.6% | 0hPa | 2.7V | 00:00:00 | 00:00:00 | 00:00:00 | |
| DO3MHA-11 | 2026-09-03 12:37:55 | 49.14934 | 17.93914 | 18° | 5km/h | 25973m | 4.9m/s | 0°C | 0% | 0hPa | 2.7V | 00:00:00 | 01:44:06 | 00:00:00 | |
| PG1ADW-2 | 2026-09-03 12:37:50 | 49.14930 | 17.93903 | 72° | 7km/h | 25943m | 6.9m/s | -48.6°C | 2.6% | 0hPa | 2.7V | 00:00:00 | 00:00:00 | 00:00:00 | |
| OE5MMP-10 | 2026-09-03 12:37:48 | 49.14929 | 17.93901 | 31° | 7km/h | 25932m | 4.5m/s | -48.5°C | 2.6% | 0hPa | 2.7V | 00:00:00 | 01:43:59 | 00:00:00 | |
| DO3MHA-11 | 2026-09-03 12:37:45 | 49.14929 | 17.93897 | 113° | 9km/h | 25914m | 5.8m/s | -48.6°C | 2.5% | 0hPa | 2.7V | 00:00:00 | 01:43:56 | 00:00:00 | |
| PETON7-10 | 2026-09-03 12:37:41 | 49.14925 | 17.93887 | 20° | 9km/h | 25891m | 6.1m/s | -48.5°C | 2.5% | 0hPa | 2.7V | 00:00:00 | 01:43:52 | 00:00:00 | |
| ATIDSZ-14 | 2026-09-03 12:37:40 | 49.14923 | 17.93886 | 22° | 11km/h | 25885m | 5.4m/s | -48.5°C | 0.3% | 0hPa | 2.7V | 00:00:00 | 00:00:00 | 00:00:00 | |
| OE5DRO-10 | 2026-09-03 12:37:39 | 49.14921 | 17.93884 | 35° | 7km/h | 25880m | 5.8m/s | -48.5°C | 2.5% | 0hPa | 2.7V | 00:00:00 | 00:00:00 | 00:00:00 | |
| OE5MMP-10 | 2026-09-03 12:37:38 | 49.14919 | 17.93882 | 72° | 9km/h | 25874m | 6.8m/s | 0°C | 0% | 0hPa | 2.7V | 00:00:00 | 01:43:49 | 00:00:00 | |
| DO3MHA-11 | 2026-09-03 12:37:35 | 49.14923 | 17.93874 | 154° | 7km/h | 25856m | 6.4m/s | -48.6°C | 2.5% | 0hPa | 2.7V | 00:00:00 | 01:43:46 | 00:00:00 | |
| OE5MMP-10 | 2026-09-03 12:37:28 | 49.14931 | 17.93859 | 71° | 5km/h | 25814m | 6.7m/s | -48.9°C | 2.6% | 0hPa | 2.7V | 00:00:00 | 01:43:39 | 00:00:00 | |
| PETON7-10 | 2026-09-03 12:37:26 | 49.14929 | 17.93856 | 21° | 7km/h | 25802m | 4.5m/s | -48.9°C | 2.6% | 0hPa | 2.7V | 00:00:00 | 00:00:00 | 08:30:00 | |
| DO3MHA-11 | 2026-09-03 12:37:25 | 49.14927 | 17.93855 | 30° | 5km/h | 25797m | 5.0m/s | -48.9°C | 2.6% | 0hPa | 2.6V | 00:00:00 | 01:43:36 | 08:30:00 | |
| OE5DRO-10 | 2026-09-03 12:37:20 | 49.14925 | 17.93846 | 192° | 9km/h | 25767m | 6.1m/s | -49.1°C | 2.6% | 0hPa | 2.7V | 00:00:00 | 00:00:00 | 00:00:00 | |
| ATIDSZ-14 | 2026-09-03 12:37:19 | 49.14925 | 17.93847 | 0° | 0km/h | 25767m | 6.2m/s | -49.2°C | 0.4% | 0hPa | 2.7V | 00:00:00 | 00:00:00 | 00:00:00 | |
| OE5MMP-10 | 2026-09-03 12:37:18 | 49.14926 | 17.93846 | 150° | 7km/h | 25757m | 5.2m/s | -49.2°C | 2.6% | 0hPa | 2.7V | 00:00:00 | 01:43:29 | 00:00:00 | |
| DO3MHA-11 | 2026-09-03 12:37:15 | 49.14928 | 17.93838 | 84° | 9km/h | 25739m | 5.0m/s | -49.2°C | 2.6% | 0hPa | 2.7V | 00:00:00 | 01:43:26 | 00:00:00 | |
| PETON7-10 | 2026-09-03 12:37:11 | 49.14924 | 17.93829 | 2° | 13km/h | 25716m | 5.2m/s | -49.5°C | 2.7% | 0hPa | 2.7V | 00:00:00 | 00:00:00 | 00:00:00 | |
| SQ9EZE-14 | 2026-09-03 12:37:09 | 49.14924 | 17.93829 | 171° | 4km/h | 25711m | 5.6m/s | 0°C | 0% | 0hPa | 2.7V | 00:00:00 | 00:00:00 | 00:00:00 | |
| OE5MMP-10 | 2026-09-03 12:37:08 | 49.14928 | 17.93826 | 146° | 15km/h | 25699m | 5.8m/s | -49.4°C | 2.6% | 0hPa | 2.7V | 00:00:00 | 01:43:19 | 00:00:00 | |
| DO3MHA-11 | 2026-09-03 12:37:05 | 49.14939 | 17.93814 | 149° | 15km/h | 25684m | 5.7m/s | -49.5°C | 2.6% | 0hPa | 2.7V | 00:00:00 | 01:43:16 | 00:00:00 | |
| OE3OSB-13 | 2026-09-03 12:36:54 | 49.14955 | 17.93767 | 85° | 16km/h | 25618m | 6.7m/s | -49.7°C | 0.3% | -1.0hPa | 2.7V | 00:00:00 | 00:00:00 | 00:00:00 | |
| S52SK | 2026-09-03 12:36:53 | 49.14956 | 17.93767 | 87° | 16km/h | 25618m | 6.7m/s | -49.7°C | 0.4% | 0hPa | 2.7V | 00:00:00 | 00:00:00 | 00:00:00 | |
| HA6NAB-11 | 2026-09-03 12:36:49 | 49.14959 | 17.93747 | 144° | 9km/h | 25595m | 6.3m/s | -49.8°C | 0.4% | 0hPa | 2.7V | 00:00:00 | 00:00:00 | 00:00:00 | |
| OE5MMP-10 | 2026-09-03 12:36:48 | 49.14963 | 17.93743 | 142° | 18km/h | 25584m | 5.1m/s | -49.7°C | 2.7% | 0hPa | 2.7V | 00:00:00 | 01:42:59 | 00:00:00 | |
| DO3MHA-11 | 2026-09-03 12:36:45 | 49.14968 | 17.93727 | 94° | 20km/h | 25567m | 5.0m/s | -49.8°C | 2.7% | 0hPa | 2.7V | 00:00:00 | 01:42:56 | 00:00:00 | |
| HA6NAB-11 | 2026-09-03 12:36:43 | 49.14968 | 17.93719 | 79° | 20km/h | 25562m | 4.9m/s | -50.0°C | 0.4% | 0hPa | 2.7V | 00:00:00 | 00:00:00 | 00:00:00 | |
| OE5DRO-10 | 2026-09-03 12:36:42 | 49.14963 | 17.93706 | 44° | 20km/h | 25550m | 6.5m/s | -50.2°C | 2.8% | 0hPa | 2.7V | 00:00:00 | 00:00:00 | 00:00:00 | |
| OE5DXL-15 | 2026-09-03 12:36:41 | 49.14959 | 17.93701 | 30° | 20km/h | 25544m | 5.1m/s | -50.1°C | 2.8% | 0hPa | 2.7V | 00:00:00 | 00:00:00 | 00:00:00 | |
| OE5MMP-10 | 2026-09-03 12:36:38 | 49.14945 | 17.93689 | 43° | 16km/h | 25528m | 6.5m/s | -50.3°C | 2.8% | 0hPa | 2.7V | 00:00:00 | 01:42:49 | 00:00:00 | |
| ATIDSZ-14 | 2026-09-03 12:36:37 | 49.14945 | 17.93689 | 43° | 22km/h | 25528m | 6.5m/s | -50.4°C | 0.4% | 0hPa | 2.7V | 00:00:00 | 00:00:00 | 00:00:00 | |
| PG1ADW-2 | 2026-09-03 12:36:36 | 49.14939 | 17.93677 | 60° | 22km/h | 25517m | 5.6m/s | -50.3°C | 2.9% | 0hPa | 2.7V | 00:00:00 | 00:00:00 | 00:00:00 | |
| HA6NAB-11 | 2026-09-03 12:36:30 | 49.14930 | 17.93654 | 60° | 18km/h | 25486m | 6.4m/s | -50.2°C | 0.4% | 0hPa | 2.7V | 00:00:00 | 00:00:00 | 00:00:00 | |
| OE5MMP-10 | 2026-09-03 12:36:28 | 49.14920 | 17.93636 | 41° | 22km/h | 25469m | 6.6m/s | -50.0°C | 2.8% | 0hPa | 2.7V | 00:00:00 | 01:42:39 | 00:00:00 | |
| PETON7-10 | 2026-09-03 12:36:26 | 49.14911 | 17.93626 | 34° | 22km/h | 25458m | 4.8m/s | -50.0°C | 2.8% | 0hPa | 2.6V | 00:00:00 | 00:00:00 | 00:00:00 | |
| DO3MHA-11 | 2026-09-03 12:36:25 | 49.14907 | 17.93621 | 39° | 22km/h | 25452m | 6.4m/s | -49.9°C | 2.8% | 0hPa | 2.6V | 00:00:00 | 01:42:36 | 00:00:00 | |
| HA6NAB-11 | 2026-09-03 12:36:24 | 49.14907 | 17.93621 | 39° | 24km/h | 25452m | 6.4m/s | -50.0°C | 0.4% | 0hPa | 2.6V | 00:00:00 | 00:00:00 | 00:00:00 | |
| OE5DRO-10 | 2026-09-03 12:36:23 | 49.14898 | 17.93609 | 45° | 22km/h | 25440m | 4.7m/s | -50.0°C | 2.8% | 0hPa | 2.6V | 00:00:00 | 00:00:00 | 00:00:00 | |
| NBG1-10 | 2026-09-03 12:36:22 | 49.14894 | 17.93603 | 39° | 18km/h | 25436m | 4.8m/s | 0°C | 0% | 0hPa | 2.6V | 00:00:00 | 01:42:33 | 00:00:00 | |
| HA6NAB-11 | 2026-09-03 12:36:19 | 49.14884 | 17.93595 | 20° | 22km/h | 25424m | 6.1m/s | -50.0°C | 0.4% | 0hPa | 2.6V | 00:00:00 | 00:00:00 | 00:00:00 | |
| OE5MMP-10 | 2026-09-03 12:36:18 | 49.14873 | 17.93589 | 21° | 20km/h | 25413m | 5.2m/s | -49.8°C | 2.8% | 0hPa | 2.6V | 00:00:00 | 01:42:29 | 00:00:00 | |
| PG1ADW-2 | 2026-09-03 12:36:16 | 49.14864 | 17.93581 | 40° | 20km/h | 25401m | 5.5m/s | -49.8°C | 2.7% | 0hPa | 2.6V | 00:00:00 | 00:00:00 | 00:00:00 | |
| DO3MHA-11 | 2026-09-03 12:36:15 | 49.14859 | 17.93575 | 43° | 20km/h | 25396m | 4.9m/s | -49.7°C | 2.7% | 0hPa | 2.6V | 00:00:00 | 01:42:26 | 00:00:00 | |
| HA6NAB-11 | 2026-09-03 12:36:14 | 49.14856 | 17.93571 | 38° | 20km/h | 25390m | 5.8m/s | -49.8°C | 0.4% | 0hPa | 2.6V | 00:00:00 | 00:00:00 | 00:00:00 | |
| PETON7-10 | 2026-09-03 12:36:11 | 49.14842 | 17.93562 | 16° | 20km/h | 25373m | 5.4m/s | -49.7°C | 2.7% | 0hPa | 2.6V | 00:00:00 | 01:42:22 | 00:00:00 | |
| OE5MMP-10 | 2026-09-03 12:36:08 | 49.14827 | 17.93552 | 28° | 22km/h | 25356m | 4.4m/s | -49.6°C | 2.7% | 0hPa | 2.6V | 00:00:00 | 01:42:19 | 00:00:00 | |
| DO3MHA-11 | 2026-09-03 12:36:05 | 49.14811 | 17.93543 | 14° | 18km/h | 25339m | 5.6m/s | -49.6°C | 2.7% | 0hPa | 2.6V | 00:00:00 | 01:42:16 | 00:00:00 | |
| OE5DRO-10 | 2026-09-03 12:36:04 | 49.14805 | 17.93541 | 18° | 15km/h | 25334m | 4.6m/s | -49.7°C | 2.7% | 0hPa | 2.6V | 00:00:00 | 00:00:00 | 00:00:00 | |
| OE3OSB-13 | 2026-09-03 12:35:52 | 49.14768 | 17.93495 | 10° | 9km/h | 25265m | 6.7m/s | -49.7°C | 0.3% | -1.0hPa | 2.6V | 00:00:00 | 00:00:00 | 00:00:00 | |
| HA6NAB-11 | 2026-09-03 12:35:50 | 49.14766 | 17.93495 | 1° | 11km/h | 25259m | 6.2m/s | -49.7°C | 0.4% | 0hPa | 2.6V | 00:00:00 | 00:00:00 | 00:00:00 | |
| OE5MMP-10 | 2026-09-03 12:35:48 | 49.14758 | 17.93490 | 50° | 13km/h | 25243m | 7.0m/s | -49.7°C | 2.8% | 0hPa | 2.6V | 00:00:00 | 01:41:59 | 00:00:00 | |
| OE5DRO-10 | 2026-09-03 12:35:45 | 49.14751 | 17.93473 | 59° | 11km/h | 25226m | 6.5m/s | -49.6°C | 2.7% | 0hPa | 2.6V | 00:00:00 | 00:00:00 | 00:00:00 | |
| HA6NAB-11 | 2026-09-03 12:35:43 | 49.14749 | 17.93468 | 53° | 15km/h | 25219m | 5.9m/s | -49.7°C | 0.4% | 0hPa | 2.6V | 00:00:00 | 00:00:00 | 00:00:00 | |
| PETON7-10 | 2026-09-03 12:35:41 | 49.14744 | 17.93458 | 58° | 9km/h | 25202m | 6.6m/s | -49.6°C | 2.7% | 0hPa | 2.6V | 00:00:00 | 00:00:00 | 00:00:00 | |
| OE5MMP-10 | 2026-09-03 12:35:38 | 49.14739 | 17.93450 | 26° | 11km/h | 25186m | 5.9m/s | -49.6°C | 2.7% | 0hPa | 2.6V | 00:00:00 | 01:41:49 | 00:00:00 | |
| HA6NAB-11 | 2026-09-03 12:35:37 | 49.14739 | 17.93450 | 26° | 11km/h | 25186m | 5.9m/s | -49.6°C | 0.4% | 0hPa | 2.6V | 00:00:00 | 00:00:00 | 00:00:00 | |
| DO3MHA-11 | 2026-09-03 12:35:35 | 49.14730 | 17.93449 | 9° | 11km/h | 25168m | 4.5m/s | -49.7°C | 2.8% | 0hPa | 2.6V | 00:00:00 | 01:41:46 | 00:00:00 | |
| HA6NAB-11 | 2026-09-03 12:35:32 | 49.14724 | 17.93444 | 54° | 13km/h | 25156m | 6.1m/s | -49.7°C | 0.4% | 0hPa | 2.6V | 00:00:00 | 00:00:00 | 00:00:00 | |
| S52SK | 2026-09-03 12:35:31 | 49.14723 | 17.93440 | 82° | 11km/h | 25151m | 4.4m/s | -49.8°C | 0.4% | 0hPa | 2.6V | 00:00:00 | 00:00:00 | 00:00:00 | |
| PG1ADW-2 | 2026-09-03 12:35:30 | 49.14724 | 17.93434 | 134° | 7km/h | 25140m | 6.8m/s | -49.7°C | 2.7% | 0hPa | 2.6V | 00:00:00 | 01:41:41 | 00:00:00 | |
| OE5MMP-10 | 2026-09-03 12:35:28 | 49.14727 | 17.93432 | 160° | 5km/h | 25129m | 5.2m/s | -49.6°C | 2.8% | 0hPa | 2.6V | 00:00:00 | 01:41:39 | 08:30:00 | |
| PETON7-10 | 2026-09-03 12:35:26 | 49.14729 | 17.93429 | 107° | 7km/h | 25116m | 5.1m/s | -49.7°C | 2.7% | 0hPa | 2.7V | 00:00:00 | 01:41:37 | 00:00:00 | |
| DO3MHA-11 | 2026-09-03 12:35:25 | 49.14729 | 17.93427 | 73° | 7km/h | 25112m | 4.8m/s | -49.6°C | 2.7% | 0hPa | 2.7V | 00:00:00 | 01:41:36 | 00:00:00 | |
| HA6NAB-11 | 2026-09-03 12:35:20 | 49.14726 | 17.93427 | 41° | 5km/h | 25088m | 6.2m/s | -49.7°C | 0.4% | 0hPa | 2.6V | 00:00:00 | 00:00:00 | 00:00:00 | |
| OE5MMP-10 | 2026-09-03 12:35:18 | 49.14723 | 17.93416 | 77° | 9km/h | 25071m | 5.4m/s | -49.7°C | 2.7% | 0hPa | 2.6V | 00:00:00 | 01:41:29 | 00:00:00 | |
| DO3MHA-11 | 2026-09-03 12:35:15 | 49.14722 | 17.93405 | 87° | 11km/h | 25054m | 5.2m/s | -49.7°C | 2.7% | 0hPa | 2.6V | 00:00:00 | 01:41:26 | 00:00:00 | |
| ATIDSZ-14 | 2026-09-03 12:35:14 | 49.14722 | 17.93405 | 87° | 9km/h | 25054m | 5.2m/s | -49.8°C | 0.4% | 0hPa | 2.6V | 00:00:00 | 00:00:00 | 00:00:00 | |
| OE5DXL-15 | 2026-09-03 12:35:11 | 49.14720 | 17.93390 | 49° | 11km/h | 25030m | 6.5m/s | -49.7°C | 2.8% | 0hPa | 2.6V | 00:00:00 | 00:00:00 | 08:30:00 | |
| PG1ADW-2 | 2026-09-03 12:35:10 | 49.14718 | 17.93389 | 12° | 11km/h | 25023m | 6.2m/s | -49.6°C | 2.8% | 0hPa | 2.7V | 00:00:00 | 00:00:00 | 00:00:00 | |
| NBG1-10 | 2026-09-03 12:35:09 | 49.14716 | 17.93388 | 2° | 13km/h | 25018m | 4.1m/s | 0°C | 0% | 0hPa | 2.7V | 00:00:00 | 01:41:20 | 00:00:00 | |
| OE5DRO-10 | 2026-09-03 12:35:07 | 49.14711 | 17.93386 | 29° | 11km/h | 25008m | 6.4m/s | -49.6°C | 2.7% | 0hPa | 2.7V | 00:00:00 | 00:00:00 | 00:00:00 | |
| DO3MHA-11 | 2026-09-03 12:35:04 | 49.14703 | 17.93374 | 54° | 15km/h | 24991m | 5.7m/s | -49.6°C | 2.7% | 0hPa | 2.6V | 00:00:00 | 01:41:15 | 00:00:00 | |
| OE5MMP-10 | 2026-09-03 12:34:58 | 49.14693 | 17.93347 | 60° | 9km/h | 24957m | 5.0m/s | -49.7°C | 2.7% | 0hPa | 2.6V | 00:00:00 | 01:41:09 | 00:00:00 | |
| PETON7-10 | 2026-09-03 12:34:56 | 49.14690 | 17.93342 | 33° | 9km/h | 24944m | 6.2m/s | -49.7°C | 2.7% | 0hPa | 2.7V | 00:00:00 | 00:00:00 | 00:00:00 | |
| ATIDSZ-14 | 2026-09-03 12:34:54 | 49.14688 | 17.93341 | 20° | 7km/h | 24938m | 5.3m/s | -49.7°C | 0.4% | 0hPa | 2.7V | 00:00:00 | 00:00:00 | 00:00:00 | |
| PG1ADW-2 | 2026-09-03 12:34:50 | 49.14678 | 17.93330 | 33° | 11km/h | 24911m | 6.4m/s | -49.8°C | 2.7% | 0hPa | 2.7V | 00:00:00 | 00:00:00 | 00:00:00 | |
| OE5MMP-10 | 2026-09-03 12:34:48 | 49.14675 | 17.93327 | 41° | 9km/h | 24899m | 5.4m/s | -49.9°C | 2.8% | 0hPa | 2.7V | 00:00:00 | 01:40:59 | 00:00:00 | |
| PETON7-10 | 2026-09-03 12:34:41 | 49.14662 | 17.93308 | 359° | 11km/h | 24859m | 4.8m/s | -50.0°C | 2.7% | 0hPa | 2.7V | 00:00:00 | 01:40:52 | 00:00:00 | |
| OE5MMP-10 | 2026-09-03 12:34:38 | 49.14656 | 17.93306 | 31° | 11km/h | 24843m | 5.7m/s | -50.1°C | 2.7% | 0hPa | 2.7V | 00:00:00 | 01:40:49 | 00:00:00 | |
| ATIDSZ-14 | 2026-09-03 12:34:34 | 49.14649 | 17.93302 | 6° | 7km/h | 24826m | 6.5m/s | -50.3°C | 0.4% | 0hPa | 2.7V | 00:00:00 | 00:00:00 | 00:00:00 | |
| OE5DRO-10 | 2026-09-03 12:34:29 | 49.14635 | 17.93295 | 21° | 15km/h | 24794m | 4.4m/s | -50.3°C | 2.8% | 0hPa | 2.7V | 00:00:00 | 00:00:00 | 00:00:00 | |
| PG1ADW-2 | 2026-09-03 12:34:28 | 49.14630 | 17.93293 | 12° | 15km/h | 24788m | 6.6m/s | -50.4°C | 2.8% | 0hPa | 2.7V | 00:00:00 | 00:00:00 | 00:00:00 | |
| PETON7-10 | 2026-09-03 12:34:26 | 49.14619 | 17.93292 | 355° | 13km/h | 24777m | 4.9m/s | -50.2°C | 2.8% | 0hPa | 2.7V | 00:00:00 | 00:00:00 | 00:00:00 | |
| OE5MMP-10 | 2026-09-03 12:34:18 | 49.14603 | 17.93290 | 335° | 18km/h | 24731m | 4.5m/s | -50.2°C | 2.9% | 0hPa | 2.6V | 00:00:00 | 01:40:29 | 00:00:00 | |
| OE5WHR-10 | 2026-09-03 12:34:15 | 49.14596 | 17.93291 | 354° | 18km/h | 24714m | 4.5m/s | 0°C | 0% | 0hPa | 2.6V | 00:00:00 | 00:00:00 | 00:00:00 | |
| ATIDSZ-14 | 2026-09-03 12:34:14 | 49.14596 | 17.93291 | 354° | 16km/h | 24714m | 4.6m/s | -50.2°C | 0.4% | 0hPa | 2.6V | 00:00:00 | 00:00:00 | 00:00:00 | |
| PETON7-10 | 2026-09-03 12:34:11 | 49.14575 | 17.93306 | 323° | 20km/h | 24690m | 5.2m/s | -50.2°C | 2.8% | 0hPa | 2.6V | 00:00:00 | 00:00:00 | 00:00:00 | |
| OE5DRO-10 | 2026-09-03 12:34:10 | 49.14570 | 17.93313 | 323° | 22km/h | 24685m | 5.9m/s | -50.3°C | 2.8% | 0hPa | 2.6V | 00:00:00 | 00:00:00 | 08:30:00 | |
| PG1ADW-2 | 2026-09-03 12:34:08 | 49.14562 | 17.93322 | 323° | 20km/h | 24673m | 5.0m/s | -50.4°C | 2.8% | 0hPa | 2.7V | 00:00:00 | 01:40:19 | 00:00:00 | |
| OE5MMP-10 | 2026-09-03 12:33:58 | 49.14532 | 17.93368 | 309° | 24km/h | 24617m | 6.5m/s | -50.1°C | 2.9% | 0hPa | 2.7V | 00:00:00 | 01:40:09 | 08:30:00 | |
| PETON7-10 | 2026-09-03 12:33:56 | 49.14523 | 17.93386 | 313° | 22km/h | 24607m | 5.5m/s | -50.1°C | 2.9% | 0hPa | 2.6V | 00:00:00 | 01:40:07 | 00:00:00 | |
| ATIDSZ-14 | 2026-09-03 12:33:53 | 49.14511 | 17.93402 | 321° | 27km/h | 24595m | 4.7m/s | -50.0°C | 0.4% | 0hPa | 2.6V | 00:00:00 | 00:00:00 | 00:00:00 | |
| OE5DRO-10 | 2026-09-03 12:33:51 | 49.14499 | 17.93423 | 305° | 18km/h | 24578m | 5.4m/s | -49.9°C | 2.8% | 0hPa | 2.6V | 00:00:00 | 00:00:00 | 00:00:00 | |
| PG1ADW-2 | 2026-09-03 12:33:48 | 49.14490 | 17.93440 | 316° | 18km/h | 24561m | 6.2m/s | -49.7°C | 2.7% | 0hPa | 2.6V | 00:00:00 | 00:00:00 | 08:30:00 | |
| OE5MMP-10 | 2026-09-03 12:33:47 | 49.14487 | 17.93444 | 314° | 20km/h | 24555m | 5.4m/s | -49.7°C | 2.7% | 0hPa | 2.6V | 00:00:00 | 01:39:58 | 00:00:00 | |
| OE5WHR-10 | 2026-09-03 12:33:44 | 49.14480 | 17.93462 | 294° | 15km/h | 24538m | 4.6m/s | 0°C | 0% | 0hPa | 2.6V | 00:00:00 | 00:00:00 | 00:00:00 | |
| PETON7-10 | 2026-09-03 12:33:41 | 49.14471 | 17.93485 | 313° | 16km/h | 24521m | 6.3m/s | -49.5°C | 2.6% | 0hPa | 2.6V | 00:00:00 | 00:00:00 | 00:00:00 | |
| OE5MMP-10 | 2026-09-03 12:33:37 | 49.14458 | 17.93510 | 295° | 13km/h | 24498m | 4.9m/s | -49.5°C | 2.7% | 0hPa | 2.7V | 00:00:00 | 01:39:48 | 00:00:00 | |
| HA6NAB-11 | 2026-09-03 12:33:36 | 49.14458 | 17.93510 | 296° | 18km/h | 24498m | 5.0m/s | -49.6°C | 0.4% | 0hPa | 2.7V | 00:00:00 | 00:00:00 | 00:00:00 | |
| DO3MHA-11 | 2026-09-03 12:33:33 | 49.14452 | 17.93527 | 303° | 13km/h | 24476m | 4.9m/s | -49.8°C | 2.7% | 0hPa | 2.7V | 00:00:00 | 01:39:44 | 00:00:00 | |
| OE5DRO-10 | 2026-09-03 12:33:32 | 49.14451 | 17.93531 | 292° | 13km/h | 24471m | 5.2m/s | -49.9°C | 2.7% | 0hPa | 2.6V | 00:00:00 | 00:00:00 | 00:00:00 | |
| HA6NAB-11 | 2026-09-03 12:33:30 | 49.14450 | 17.93536 | 284° | 16km/h | 24465m | 6.8m/s | -50.0°C | 0.4% | 0hPa | 2.6V | 00:00:00 | 00:00:00 | 00:00:00 | |
| PG1ADW-2 | 2026-09-03 12:33:28 | 49.14448 | 17.93558 | 281° | 11km/h | 24446m | 5.9m/s | -50.1°C | 2.8% | 0hPa | 2.6V | 00:00:00 | 00:00:00 | 00:00:00 | |
| PETON7-10 | 2026-09-03 12:33:26 | 49.14446 | 17.93571 | 290° | 11km/h | 24433m | 5.4m/s | -50.0°C | 2.8% | 0hPa | 2.6V | 00:00:00 | 00:00:00 | 00:00:00 | |
| HA6NAB-11 | 2026-09-03 12:33:24 | 49.14445 | 17.93574 | 286° | 7km/h | 24428m | 5.4m/s | -50.2°C | 0.5% | 0hPa | 2.6V | 00:00:00 | 00:00:00 | 00:00:00 | |
| OE5WHR-10 | 2026-09-03 12:33:23 | 49.14446 | 17.93578 | 225° | 9km/h | 24416m | 6.2m/s | 0°C | 0% | 0hPa | 2.6V | 00:00:00 | 01:39:34 | 00:00:00 | |
| OE5MMP-10 | 2026-09-03 12:33:19 | 49.14452 | 17.93578 | 144° | 7km/h | 24394m | 5.5m/s | -50.2°C | 2.8% | 0hPa | 2.6V | 00:00:00 | 01:39:30 | 00:00:00 | |
| HA6NAB-11 | 2026-09-03 12:33:18 | 49.14451 | 17.93578 | 144° | 4km/h | 24394m | 5.5m/s | -50.2°C | 0.5% | 0hPa | 2.6V | 00:00:00 | 00:00:00 | 00:00:00 | |
| OE3OSB-13 | 2026-09-03 12:33:17 | 49.14452 | 17.93583 | 281° | 15km/h | 24377m | 7.4m/s | -50.2°C | 0.4% | -1.0hPa | 2.6V | 00:00:00 | 00:00:00 | 00:00:00 | |
| OE5DRO-10 | 2026-09-03 12:33:13 | 49.14448 | 17.93608 | 285° | 13km/h | 24360m | 5.0m/s | -50.2°C | 2.8% | 0hPa | 2.6V | 00:00:00 | 00:00:00 | 00:00:00 | |
| ATIDSZ-14 | 2026-09-03 12:33:12 | 49.14448 | 17.93608 | 286° | 24km/h | 24360m | 5.1m/s | -50.3°C | 0.5% | 0hPa | 2.6V | 00:00:00 | 00:00:00 | 00:00:00 | |
| PG1ADW-2 | 2026-09-03 12:33:08 | 49.14449 | 17.93624 | 174° | 11km/h | 24332m | 6.5m/s | -50.3°C | 2.8% | 0hPa | 2.6V | 00:00:00 | 00:00:00 | 00:00:00 | |
| OE5MMP-10 | 2026-09-03 12:33:07 | 49.14452 | 17.93624 | 173° | 11km/h | 24327m | 5.4m/s | -50.2°C | 2.8% | 0hPa | 2.6V | 00:00:00 | 01:39:18 | 00:00:00 | |
| DO3MHA-11 | 2026-09-03 12:33:04 | 49.14464 | 17.93620 | 162° | 11km/h | 24310m | 6.5m/s | -50.6°C | 2.8% | 0hPa | 2.6V | 00:00:00 | 01:39:15 | 00:00:00 | |
| HA6NAB-11 | 2026-09-03 12:33:02 | 49.14466 | 17.93619 | 170° | 5km/h | 24304m | 5.0m/s | -50.7°C | 0.5% | 0hPa | 2.6V | 00:00:00 | 00:00:00 | 00:00:00 | |
| OE3OSB-13 | 2026-09-03 12:32:46 | 49.14487 | 17.93651 | 227° | 11km/h | 24208m | 4.1m/s | -50.7°C | 0.4% | -1.0hPa | 2.6V | 00:00:00 | 00:00:00 | 00:00:00 | |
| DO3MHA-11 | 2026-09-03 12:32:44 | 49.14489 | 17.93654 | 225° | 15km/h | 24203m | 5.4m/s | -50.7°C | 2.8% | 0hPa | 2.6V | 00:00:00 | 01:38:55 | 00:00:00 | |
| OE5DXL-15 | 2026-09-03 12:32:41 | 49.14495 | 17.93655 | 150° | 13km/h | 24186m | 5.1m/s | -50.7°C | 2.9% | 0hPa | 2.6V | 00:00:00 | 00:00:00 | 00:00:00 | |
| OE5WHR-10 | 2026-09-03 12:32:40 | 49.14498 | 17.93653 | 148° | 16km/h | 24181m | 5.0m/s | 0°C | 0% | 0hPa | 2.6V | 00:00:00 | 00:00:00 | 00:00:00 | |
| OE5MMP-10 | 2026-09-03 12:32:39 | 49.14502 | 17.93649 | 151° | 16km/h | 24175m | 6.4m/s | -50.8°C | 3.0% | 0hPa | 2.6V | 00:00:00 | 01:38:50 | 00:00:00 | |
| OE5DRO-10 | 2026-09-03 12:32:35 | 49.14518 | 17.93634 | 131° | 13km/h | 24153m | 6.3m/s | -50.7°C | 2.9% | 0hPa | 2.7V | 00:00:00 | 00:00:00 | 00:00:00 | |
| DO3MHA-11 | 2026-09-03 12:32:34 | 49.14520 | 17.93629 | 123° | 13km/h | 24147m | 5.1m/s | -50.7°C | 2.9% | 0hPa | 2.7V | 00:00:00 | 01:38:45 | 00:00:00 | |
| OE5MMP-10 | 2026-09-03 12:32:29 | 49.14530 | 17.93615 | 145° | 15km/h | 24120m | 5.8m/s | -50.5°C | 2.9% | 0hPa | 2.7V | 00:00:00 | 01:38:40 | 00:00:00 | |
| PG1ADW-2 | 2026-09-03 12:32:28 | 49.14532 | 17.93612 | 128° | 13km/h | 24114m | 6.6m/s | -50.4°C | 2.9% | 0hPa | 2.7V | 00:00:00 | 00:00:00 | 00:00:00 | |
| PETON7-10 | 2026-09-03 12:32:26 | 49.14536 | 17.93603 | 124° | 13km/h | 24103m | 4.6m/s | -50.4°C | 2.9% | 0hPa | 2.7V | 00:00:00 | 01:38:37 | 00:00:00 | |
| DO3MHA-11 | 2026-09-03 12:32:24 | 49.14541 | 17.93594 | 134° | 15km/h | 24092m | 4.7m/s | -50.5°C | 2.9% | 0hPa | 2.7V | 00:00:00 | 01:38:35 | 00:00:00 | |
| OE5WHR-10 | 2026-09-03 12:32:19 | 49.14547 | 17.93568 | 98° | 9km/h | 24067m | 4.6m/s | 0°C | 0% | 0hPa | 2.7V | 00:00:00 | 01:38:30 | 00:00:00 | |
| OE3OSB-13 | 2026-09-03 12:32:15 | 49.14557 | 17.93553 | 174° | 7km/h | 24039m | 6.6m/s | -50.5°C | 0.4% | -1.0hPa | 2.7V | 00:00:00 | 00:00:00 | 00:00:00 | |
| DO3MHA-11 | 2026-09-03 12:32:14 | 49.14557 | 17.93553 | 175° | 5km/h | 24039m | 6.6m/s | -50.5°C | 2.8% | 0hPa | 2.7V | 00:00:00 | 01:38:25 | 00:00:00 | |
| PETON7-10 | 2026-09-03 12:32:11 | 49.14561 | 17.93553 | 190° | 9km/h | 24022m | 6.1m/s | -50.6°C | 2.8% | 0hPa | 2.7V | 00:00:00 | 00:00:00 | 00:00:00 | |
| OE5MMP-10 | 2026-09-03 12:32:09 | 49.14563 | 17.93553 | 144° | 9km/h | 24011m | 3.9m/s | -50.6°C | 2.8% | 0hPa | 2.6V | 00:00:00 | 01:38:20 | 08:30:00 | |
| PG1ADW-2 | 2026-09-03 12:32:08 | 49.14564 | 17.93551 | 99° | 9km/h | 24006m | 5.7m/s | -50.6°C | 2.9% | 0hPa | 2.7V | 00:00:00 | 00:00:00 | 00:00:00 | |
| DO3MHA-11 | 2026-09-03 12:32:04 | 49.14563 | 17.93539 | 108° | 11km/h | 23983m | 6.1m/s | -50.7°C | 2.9% | 0hPa | 2.7V | 00:00:00 | 01:38:15 | 00:00:00 | |
| OE5MMP-10 | 2026-09-03 12:31:59 | 49.14567 | 17.93519 | 92° | 11km/h | 23958m | 4.9m/s | -51.0°C | 2.9% | 0hPa | 2.7V | 00:00:00 | 01:38:10 | 00:00:00 | |
| S52SK | 2026-09-03 12:31:58 | 49.14567 | 17.93519 | 93° | 13km/h | 23958m | 4.9m/s | -51.0°C | 0.5% | 0hPa | 2.7V | 00:00:00 | 00:00:00 | 00:00:00 | |
| OE5DRO-10 | 2026-09-03 12:31:57 | 49.14567 | 17.93510 | 94° | 7km/h | 23946m | 5.3m/s | -50.9°C | 2.8% | 0hPa | 2.7V | 00:00:00 | 00:00:00 | 00:00:00 | |
| PETON7-10 | 2026-09-03 12:31:56 | 49.14567 | 17.93506 | 73° | 5km/h | 23941m | 4.1m/s | -50.9°C | 2.8% | 0hPa | 2.7V | 00:00:00 | 00:00:00 | 00:00:00 | |
| DO3MHA-11 | 2026-09-03 12:31:54 | 49.14563 | 17.93501 | 27° | 5km/h | 23930m | 6.3m/s | -50.9°C | 2.8% | 0hPa | 2.7V | 00:00:00 | 01:38:05 | 00:00:00 | |
| S52SK | 2026-09-03 12:31:53 | 49.14563 | 17.93501 | 28° | 13km/h | 23930m | 6.3m/s | -51.0°C | 0.5% | 0hPa | 2.7V | 00:00:00 | 00:00:00 | 00:00:00 | |
| OE5WHR-10 | 2026-09-03 12:31:51 | 49.14554 | 17.93497 | 4° | 5km/h | 23915m | 5.8m/s | 0°C | 0% | 0hPa | 2.7V | 00:00:00 | 00:00:00 | 00:00:00 | |
| ATIDSZ-14 | 2026-09-03 12:31:50 | 49.14554 | 17.93497 | 4° | 9km/h | 23915m | 5.9m/s | -51.2°C | 0.5% | 0hPa | 2.7V | 00:00:00 | 00:00:00 | 00:00:00 | |
| OE5MMP-10 | 2026-09-03 12:31:49 | 49.14553 | 17.93498 | 245° | 4km/h | 23905m | 4.2m/s | -51.1°C | 2.9% | 0hPa | 2.7V | 00:00:00 | 01:38:00 | 00:00:00 | |
| PG1ADW-2 | 2026-09-03 12:31:48 | 49.14553 | 17.93499 | 231° | 9km/h | 23900m | 4.7m/s | -51.1°C | 2.9% | 0hPa | 2.7V | 00:00:00 | 00:00:00 | 00:00:00 | |
| S52SK | 2026-09-03 12:31:47 | 49.14553 | 17.93499 | 231° | 4km/h | 23900m | 4.8m/s | -51.2°C | 0.5% | 0hPa | 2.6V | 00:00:00 | 00:00:00 | 00:00:00 | |
| OE3OSB-13 | 2026-09-03 12:31:44 | 49.14555 | 17.93501 | 161° | 2km/h | 23873m | 6.1m/s | -51.5°C | 0.4% | -1.0hPa | 2.6V | 00:00:00 | 00:00:00 | 00:00:00 | |
| PETON7-10 | 2026-09-03 12:31:41 | 49.14556 | 17.93499 | 91° | 7km/h | 23863m | 4.8m/s | -51.6°C | 3.1% | 0hPa | 2.6V | 00:00:00 | 01:37:52 | 00:00:00 | |
| OE5MMP-10 | 2026-09-03 12:31:39 | 49.14554 | 17.93492 | 51° | 11km/h | 23851m | 5.6m/s | -51.5°C | 3.0% | 0hPa | 2.6V | 00:00:00 | 01:37:50 | 00:00:00 | |
| OE5DRO-10 | 2026-09-03 12:31:38 | 49.14552 | 17.93488 | 48° | 9km/h | 23846m | 4.6m/s | -51.6°C | 3.0% | 0hPa | 2.7V | 00:00:00 | 00:00:00 | 00:00:00 | |
| DO3MHA-11 | 2026-09-03 12:31:34 | 49.14549 | 17.93482 | 226° | 7km/h | 23825m | 4.3m/s | -51.3°C | 2.8% | 0hPa | 2.7V | 00:00:00 | 01:37:45 | 00:00:00 | |
| GYPAP8-17 | 2026-09-03 12:31:31 | 49.14551 | 17.93488 | 260° | 9km/h | 23815m | 6.4m/s | 0°C | 0% | 0hPa | 2.7V | 00:00:00 | 00:00:00 | 00:00:00 | |
| OE5WHR-10 | 2026-09-03 12:31:30 | 49.14551 | 17.93495 | 269° | 9km/h | 23804m | 5.0m/s | 0°C | 0% | 0hPa | 2.7V | 00:00:00 | 00:00:00 | 00:00:00 | |
| OE5MMP-10 | 2026-09-03 12:31:29 | 49.14551 | 17.93499 | 265° | 9km/h | 23798m | 6.1m/s | -51.6°C | 3.0% | 0hPa | 2.7V | 00:00:00 | 01:37:40 | 00:00:00 | |
| ATIDSZ-14 | 2026-09-03 12:31:28 | 49.14551 | 17.93499 | 265° | 9km/h | 23798m | 6.2m/s | 0°C | 0% | 0hPa | 2.7V | 00:00:00 | 00:00:00 | 00:00:00 | |
| PETON7-10 | 2026-09-03 12:31:26 | 49.14550 | 17.93503 | 12° | 13km/h | 23783m | 5.6m/s | -51.7°C | 3.0% | 0hPa | 2.7V | 00:00:00 | 00:00:00 | 00:00:00 | |
| DO3MHA-11 | 2026-09-03 12:31:24 | 49.14545 | 17.93501 | 20° | 16km/h | 23771m | 4.7m/s | -51.6°C | 3.0% | 0hPa | 2.7V | 00:00:00 | 01:37:35 | 08:30:00 | |
| OE5MMP-10 | 2026-09-03 12:31:19 | 49.14543 | 17.93512 | 245° | 15km/h | 23747m | 4.6m/s | -52.0°C | 3.0% | 0hPa | 2.6V | 00:00:00 | 01:37:30 | 00:00:00 | |
| DO3MHA-11 | 2026-09-03 12:31:14 | 49.14551 | 17.93549 | 250° | 7km/h | 23721m | 5.3m/s | -52.2°C | 3.1% | 0hPa | 2.6V | 00:00:00 | 01:37:25 | 00:00:00 | |
| OE3OSB-13 | 2026-09-03 12:31:12 | 49.14553 | 17.93556 | 285° | 5km/h | 23711m | 5.2m/s | -52.4°C | 0.5% | -1.0hPa | 2.6V | 00:00:00 | 00:00:00 | 00:00:00 | |
| PETON7-10 | 2026-09-03 12:31:11 | 49.14552 | 17.93558 | 336° | 7km/h | 23706m | 6.6m/s | -52.3°C | 3.2% | 0hPa | 2.6V | 00:00:00 | 00:00:00 | 00:00:00 | |
| OE5MMP-10 | 2026-09-03 12:31:09 | 49.14547 | 17.93558 | 10° | 7km/h | 23695m | 4.0m/s | -52.3°C | 3.1% | 0hPa | 2.6V | 00:00:00 | 01:37:20 | 00:00:00 | |
| ATIDSZ-14 | 2026-09-03 12:31:07 | 49.14544 | 17.93557 | 13° | 9km/h | 23689m | 5.8m/s | 0°C | 0% | 0hPa | 2.7V | 00:00:00 | 00:00:00 | 00:00:00 | |
| OE5WHR-10 | 2026-09-03 12:31:06 | 49.14542 | 17.93557 | 277° | 7km/h | 23679m | 4.9m/s | 0°C | 0% | 0hPa | 2.7V | 00:00:00 | 01:37:17 | 00:00:00 | |
| PG1ADW-2 | 2026-09-03 12:31:05 | 49.14542 | 17.93559 | 253° | 7km/h | 23674m | 5.4m/s | -52.3°C | 3.1% | 0hPa | 2.7V | 00:00:00 | 01:37:16 | 00:00:00 | |
| DO3MHA-11 | 2026-09-03 12:31:04 | 49.14542 | 17.93561 | 263° | 7km/h | 23667m | 6.3m/s | -52.3°C | 3.1% | 0hPa | 2.7V | 00:00:00 | 01:37:15 | 00:00:00 | |
| OE5DRO-10 | 2026-09-03 12:31:00 | 49.14546 | 17.93568 | 184° | 5km/h | 23646m | 5.5m/s | -52.4°C | 3.2% | 0hPa | 2.7V | 00:00:00 | 00:00:00 | 00:00:00 | |
| OE5MMP-10 | 2026-09-03 12:30:59 | 49.14548 | 17.93567 | 160° | 5km/h | 23642m | 4.6m/s | -52.4°C | 3.2% | 0hPa | 2.7V | 00:00:00 | 01:37:10 | 00:00:00 | |
| PETON7-10 | 2026-09-03 12:30:56 | 49.14547 | 17.93563 | 38° | 7km/h | 23625m | 4.8m/s | -52.2°C | 3.2% | 0hPa | 2.7V | 00:00:00 | 01:37:07 | 00:00:00 | |
| DO3MHA-11 | 2026-09-03 12:30:54 | 49.14543 | 17.93558 | 52° | 7km/h | 23614m | 5.9m/s | -52.3°C | 3.2% | 0hPa | 2.7V | 00:00:00 | 01:37:05 | 00:00:00 | |
| OE5MMP-10 | 2026-09-03 12:30:49 | 49.14540 | 17.93551 | 110° | 5km/h | 23587m | 4.2m/s | -52.2°C | 3.1% | 0hPa | 2.6V | 00:00:00 | 01:37:00 | 00:00:00 | |
| HA6NAB-11 | 2026-09-03 12:30:48 | 49.14540 | 17.93551 | 110° | 4km/h | 23587m | 4.3m/s | -52.2°C | 0.6% | 0hPa | 2.6V | 00:00:00 | 00:00:00 | 00:00:00 | |
| ATIDSZ-14 | 2026-09-03 12:30:47 | 49.14541 | 17.93549 | 140° | 5km/h | 23582m | 6.1m/s | 0°C | 0% | 0hPa | 2.6V | 00:00:00 | 00:00:00 | 00:00:00 | |
| PG1ADW-2 | 2026-09-03 12:30:45 | 49.14546 | 17.93543 | 140° | 5km/h | 23566m | 5.1m/s | -52.2°C | 3.1% | 0hPa | 2.6V | 00:00:00 | 00:00:00 | 00:00:00 | |
| DO3MHA-11 | 2026-09-03 12:30:44 | 49.14547 | 17.93541 | 122° | 5km/h | 23560m | 6.3m/s | -52.2°C | 3.2% | 0hPa | 2.6V | 00:00:00 | 01:36:55 | 00:00:00 | |
| OE5DXL-15 | 2026-09-03 12:30:41 | 49.14546 | 17.93536 | 62° | 7km/h | 23544m | 6.1m/s | -51.9°C | 3.2% | 0hPa | 2.6V | 00:00:00 | 00:00:00 | 08:30:00 | |
| OE5MMP-10 | 2026-09-03 12:30:39 | 49.14545 | 17.93532 | 54° | 7km/h | 23534m | 4.6m/s | -51.9°C | 3.0% | 0hPa | 2.7V | 00:00:00 | 01:36:50 | 08:30:00 | |
| HA6NAB-11 | 2026-09-03 12:30:35 | 49.14542 | 17.93530 | 344° | 4km/h | 23518m | 4.7m/s | -52.2°C | 0.6% | 0hPa | 2.7V | 00:00:00 | 00:00:00 | 00:00:00 | |
| DO3MHA-11 | 2026-09-03 12:30:34 | 49.14542 | 17.93530 | 157° | 9km/h | 23507m | 6.4m/s | -52.2°C | 3.1% | 0hPa | 2.7V | 00:00:00 | 01:36:45 | 00:00:00 | |
| OE5MMP-10 | 2026-09-03 12:30:29 | 49.14551 | 17.93521 | 122° | 5km/h | 23481m | 4.6m/s | -51.8°C | 3.1% | 0hPa | 2.7V | 00:00:00 | 01:36:40 | 00:00:00 | |
| PETON7-10 | 2026-09-03 12:30:26 | 49.14553 | 17.93516 | 108° | 7km/h | 23465m | 5.3m/s | -51.9°C | 3.1% | 0hPa | 2.7V | 00:00:00 | 00:00:00 | 00:00:00 | |
| PG1ADW-2 | 2026-09-03 12:30:25 | 49.14553 | 17.93514 | 96° | 7km/h | 23460m | 4.9m/s | -52.0°C | 3.0% | 0hPa | 2.7V | 00:00:00 | 00:00:00 | 08:30:00 | |
| OE5DRO-10 | 2026-09-03 12:30:22 | 49.14552 | 17.93514 | 240° | 7km/h | 23443m | 4.3m/s | -52.1°C | 3.0% | 0hPa | 2.6V | 00:00:00 | 00:00:00 | 00:00:00 | |
| OE5MMP-10 | 2026-09-03 12:30:18 | 49.14562 | 17.93518 | 198° | 9km/h | 23421m | 5.2m/s | -52.3°C | 3.2% | 0hPa | 2.7V | 00:00:00 | 01:36:29 | 00:00:00 | |
| S52SK | 2026-09-03 12:30:13 | 49.14572 | 17.93530 | 225° | 7km/h | 23401m | 5.7m/s | -52.4°C | 0.6% | 0hPa | 2.7V | 00:00:00 | 00:00:00 | 00:00:00 | |
| PETON7-10 | 2026-09-03 12:30:11 | 49.14575 | 17.93533 | 236° | 9km/h | 23385m | 4.7m/s | -52.4°C | 3.2% | 0hPa | 2.7V | 00:00:00 | 01:36:22 | 00:00:00 | |
| OE3OSB-13 | 2026-09-03 12:30:10 | 49.14575 | 17.93534 | 292° | 2km/h | 23379m | 6.2m/s | -52.4°C | 0.5% | -1.0hPa | 2.7V | 00:00:00 | 00:00:00 | 00:00:00 | |
| OE5MMP-10 | 2026-09-03 12:30:08 | 49.14574 | 17.93536 | 313° | 9km/h | 23369m | 4.4m/s | -52.3°C | 3.1% | 0hPa | 2.7V | 00:00:00 | 01:36:19 | 00:00:00 | |
| PG1ADW-2 | 2026-09-03 12:30:05 | 49.14575 | 17.93534 | 137° | 13km/h | 23352m | 4.4m/s | -52.2°C | 3.1% | 0hPa | 2.7V | 00:00:00 | 00:00:00 | 00:00:00 | |
| OE5MMP-10 | 2026-09-03 12:29:58 | 49.14593 | 17.93540 | 193° | 15km/h | 23316m | 5.2m/s | -52.3°C | 3.1% | 0hPa | 2.7V | 00:00:00 | 01:36:09 | 00:00:00 | |
| OE5WHR-10 | 2026-09-03 12:29:56 | 49.14600 | 17.93544 | 206° | 16km/h | 23306m | 5.4m/s | 0°C | 0% | 0hPa | 2.7V | 00:00:00 | 01:36:07 | 00:00:00 | |
| OE5MMP-10 | 2026-09-03 12:29:48 | 49.14625 | 17.93549 | 148° | 18km/h | 23261m | 5.8m/s | -52.6°C | 3.2% | 0hPa | 2.7V | 00:00:00 | 01:35:59 | 00:00:00 | |
| PG1ADW-2 | 2026-09-03 12:29:45 | 49.14636 | 17.93543 | 168° | 16km/h | 23247m | 5.8m/s | -52.7°C | 3.2% | 0hPa | 2.7V | 00:00:00 | 01:35:56 | 00:00:00 | |
| OE5DRO-10 | 2026-09-03 12:29:44 | 49.14641 | 17.93542 | 177° | 16km/h | 23242m | 5.5m/s | -52.7°C | 3.3% | 0hPa | 2.7V | 00:00:00 | 00:00:00 | 00:00:00 | |
| PETON7-10 | 2026-09-03 12:29:41 | 49.14658 | 17.93546 | 204° | 16km/h | 23225m | 6.3m/s | -52.6°C | 3.2% | 0hPa | 2.7V | 00:00:00 | 00:00:00 | 00:00:00 | |
| OE3OSB-13 | 2026-09-03 12:29:39 | 49.14666 | 17.93552 | 204° | 16km/h | 23216m | 4.3m/s | -52.6°C | 0.5% | -1.0hPa | 2.7V | 00:00:00 | 00:00:00 | 00:00:00 | |
| OE5MMP-10 | 2026-09-03 12:29:38 | 49.14670 | 17.93554 | 193° | 16km/h | 23211m | 5.4m/s | -52.6°C | 3.2% | 0hPa | 2.7V | 00:00:00 | 01:35:49 | 00:00:00 | |
| OE5WHR-10 | 2026-09-03 12:29:35 | 49.14684 | 17.93551 | 162° | 15km/h | 23195m | 4.3m/s | 0°C | 0% | 0hPa | 2.6V | 00:00:00 | 00:00:00 | 00:00:00 | |
| OE5MMP-10 | 2026-09-03 12:29:28 | 49.14711 | 17.93545 | 185° | 11km/h | 23158m | 4.8m/s | -52.4°C | 3.1% | 0hPa | 2.6V | 00:00:00 | 01:35:39 | 00:00:00 | |
| PETON7-10 | 2026-09-03 12:29:26 | 49.14717 | 17.93547 | 211° | 11km/h | 23146m | 5.0m/s | -52.4°C | 3.1% | 0hPa | 2.6V | 00:00:00 | 01:35:37 | 00:00:00 | |
| PG1ADW-2 | 2026-09-03 12:29:25 | 49.14718 | 17.93549 | 206° | 11km/h | 23141m | 4.3m/s | -52.5°C | 3.2% | 0hPa | 2.6V | 00:00:00 | 00:00:00 | 00:00:00 | |
| HA6NAB-11 | 2026-09-03 12:29:23 | 49.14721 | 17.93550 | 191° | 9km/h | 23136m | 5.8m/s | -52.5°C | 0.6% | 0hPa | 2.6V | 00:00:00 | 00:00:00 | 00:00:00 | |
| OE5MMP-10 | 2026-09-03 12:29:18 | 49.14736 | 17.93542 | 132° | 11km/h | 23103m | 5.6m/s | -52.4°C | 3.2% | 0hPa | 2.6V | 00:00:00 | 01:35:29 | 00:00:00 | |
| HA6NAB-11 | 2026-09-03 12:29:13 | 49.14743 | 17.93522 | 112° | 11km/h | 23080m | 6.6m/s | -52.4°C | 0.6% | 0hPa | 2.6V | 00:00:00 | 00:00:00 | 00:00:00 | |
| PETON7-10 | 2026-09-03 12:29:11 | 49.14745 | 17.93514 | 122° | 11km/h | 23065m | 4.4m/s | -52.4°C | 3.1% | 0hPa | 2.6V | 00:00:00 | 00:00:00 | 00:00:00 | |
| OE3OSB-13 | 2026-09-03 12:29:08 | 49.14752 | 17.93505 | 148° | 16km/h | 23048m | 5.0m/s | -52.5°C | 0.5% | -1.0hPa | 2.7V | 00:00:00 | 00:00:00 | 00:00:00 | |
| OE5DRO-10 | 2026-09-03 12:29:06 | 49.14759 | 17.93500 | 169° | 15km/h | 23037m | 6.4m/s | -52.5°C | 3.1% | 0hPa | 2.7V | 00:00:00 | 00:00:00 | 00:00:00 | |
| PG1ADW-2 | 2026-09-03 12:29:05 | 49.14763 | 17.93499 | 180° | 15km/h | 23031m | 4.9m/s | -52.5°C | 3.2% | 0hPa | 2.7V | 00:00:00 | 00:00:00 | 00:00:00 | |
| HA6NAB-11 | 2026-09-03 12:29:02 | 49.14769 | 17.93499 | 170° | 11km/h | 23021m | 6.3m/s | -52.5°C | 0.6% | 0hPa | 2.7V | 00:00:00 | 00:00:00 | 00:00:00 | |
| PETON7-10 | 2026-09-03 12:28:56 | 49.14782 | 17.93480 | 127° | 16km/h | 22982m | 6.4m/s | -52.5°C | 3.2% | 0hPa | 2.7V | 00:00:00 | 00:00:00 | 00:00:00 | |
| NBG1-10 | 2026-09-03 12:28:54 | 49.14788 | 17.93468 | 130° | 11km/h | 22971m | 4.0m/s | 0°C | 0% | 0hPa | 2.7V | 00:00:00 | 01:35:05 | 00:00:00 | |
| OE5DRO-10 | 2026-09-03 12:28:47 | 49.14812 | 17.93438 | 121° | 18km/h | 22933m | 5.7m/s | -52.4°C | 3.2% | 0hPa | 2.7V | 00:00:00 | 00:00:00 | 00:00:00 | |
| OE5MMP-10 | 2026-09-03 12:28:46 | 49.14813 | 17.93434 | 112° | 18km/h | 22926m | 6.2m/s | -52.4°C | 3.1% | 0hPa | 2.7V | 00:00:00 | 01:34:57 | 00:00:00 | |
| PG1ADW-2 | 2026-09-03 12:28:45 | 49.14813 | 17.93431 | 101° | 20km/h | 22921m | 4.3m/s | -52.4°C | 3.1% | 0hPa | 2.7V | 00:00:00 | 00:00:00 | 00:00:00 | |
| S52SK | 2026-09-03 12:28:43 | 49.14815 | 17.93421 | 104° | 18km/h | 22912m | 6.4m/s | -52.6°C | 0.6% | 0hPa | 2.7V | 00:00:00 | 00:00:00 | 00:00:00 | |
| OE3OSB-13 | 2026-09-03 12:28:37 | 49.14833 | 17.93378 | 133° | 16km/h | 22880m | 4.9m/s | -52.5°C | 0.5% | -1.0hPa | 2.7V | 00:00:00 | 00:00:00 | 00:00:00 | |
| OE5MMP-10 | 2026-09-03 12:28:36 | 49.14836 | 17.93372 | 129° | 22km/h | 22875m | 5.4m/s | -52.4°C | 3.1% | 0hPa | 2.7V | 00:00:00 | 01:34:47 | 00:00:00 | |
| OE5DRO-10 | 2026-09-03 12:28:28 | 49.14854 | 17.93313 | 100° | 16km/h | 22829m | 6.0m/s | -52.7°C | 3.3% | 0hPa | 2.6V | 00:00:00 | 00:00:00 | 08:30:00 | |
| OE5MMP-10 | 2026-09-03 12:28:26 | 49.14855 | 17.93295 | 93° | 15km/h | 22819m | 4.8m/s | -52.7°C | 3.3% | 0hPa | 2.7V | 00:00:00 | 01:34:37 | 00:00:00 | |
| PG1ADW-2 | 2026-09-03 12:28:25 | 49.14855 | 17.93288 | 93° | 15km/h | 22814m | 6.6m/s | -52.8°C | 3.3% | 0hPa | 2.7V | 00:00:00 | 01:34:36 | 00:00:00 | |
| DO3MHA-11 | 2026-09-03 12:28:16 | 49.14862 | 17.93242 | 122° | 16km/h | 22765m | 4.4m/s | -52.6°C | 3.2% | 0hPa | 2.6V | 00:00:00 | 01:34:27 | 00:00:00 | |
| PETON7-10 | 2026-09-03 12:28:11 | 49.14867 | 17.93208 | 96° | 15km/h | 22738m | 5.4m/s | -52.2°C | 3.1% | 0hPa | 2.6V | 00:00:00 | 00:00:00 | 00:00:00 | |
| OE5DRO-10 | 2026-09-03 12:28:09 | 49.14868 | 17.93196 | 97° | 13km/h | 22727m | 4.3m/s | -52.3°C | 3.1% | 0hPa | 2.6V | 00:00:00 | 00:00:00 | 00:00:00 | |
| DO3MHA-11 | 2026-09-03 12:28:06 | 49.14867 | 17.93182 | 74° | 15km/h | 22711m | 5.4m/s | -52.1°C | 3.1% | 0hPa | 2.6V | 00:00:00 | 01:34:17 | 00:00:00 | |
| PG1ADW-2 | 2026-09-03 12:28:05 | 49.14866 | 17.93176 | 73° | 11km/h | 22706m | 5.3m/s | -52.1°C | 3.1% | 0hPa | 2.6V | 00:00:00 | 00:00:00 | 00:00:00 | |
| OE5MMP-10 | 2026-09-03 12:27:56 | 49.14869 | 17.93126 | 104° | 9km/h | 22657m | 6.1m/s | -52.6°C | 3.2% | 0hPa | 2.6V | 00:00:00 | 01:34:07 | 00:00:00 | |
| OE5MMP-10 | 2026-09-03 12:27:46 | 49.14864 | 17.93098 | 44° | 11km/h | 22605m | 5.5m/s | -52.3°C | 3.2% | 0hPa | 2.6V | 00:00:00 | 01:33:57 | 00:00:00 | |
| PG1ADW-2 | 2026-09-03 12:27:45 | 49.14863 | 17.93094 | 58° | 9km/h | 22599m | 5.6m/s | -52.3°C | 3.1% | 0hPa | 2.6V | 00:00:00 | 00:00:00 | 00:00:00 | |
| PETON7-10 | 2026-09-03 12:27:41 | 49.14855 | 17.93075 | 49° | 7km/h | 22578m | 4.9m/s | -52.3°C | 3.2% | 0hPa | 2.6V | 00:00:00 | 00:00:00 | 00:00:00 | |
| DO3MHA-11 | 2026-09-03 12:27:36 | 49.14855 | 17.93060 | 133° | 7km/h | 22551m | 5.8m/s | -52.3°C | 3.2% | 0hPa | 2.7V | 00:00:00 | 01:33:47 | 00:00:00 | |
| OE3OSB-13 | 2026-09-03 12:27:35 | 49.14856 | 17.93059 | 146° | 4km/h | 22544m | 6.2m/s | -52.4°C | 0.5% | -1.0hPa | 2.7V | 00:00:00 | 00:00:00 | 00:00:00 | |
| OE5DRO-10 | 2026-09-03 12:27:31 | 49.14858 | 17.93052 | 89° | 9km/h | 22523m | 4.8m/s | -52.5°C | 3.3% | 0hPa | 2.7V | 00:00:00 | 00:00:00 | 00:00:00 | |
| GYPAP8-17 | 2026-09-03 12:27:27 | 49.14854 | 17.93044 | 30° | 9km/h | 22508m | 5.7m/s | 0°C | 0% | 0hPa | 2.7V | 00:00:00 | 00:00:00 | 00:00:00 | |
| DO3MHA-11 | 2026-09-03 12:27:26 | 49.14850 | 17.93040 | 27° | 7km/h | 22498m | 4.8m/s | -52.3°C | 3.1% | 0hPa | 2.7V | 00:00:00 | 01:33:37 | 00:00:00 | |
| PG1ADW-2 | 2026-09-03 12:27:25 | 49.14848 | 17.93038 | 42° | 9km/h | 22493m | 6.0m/s | -52.3°C | 3.1% | 0hPa | 2.7V | 00:00:00 | 00:00:00 | 08:30:00 | |
| OE5MMP-10 | 2026-09-03 12:27:16 | 49.14856 | 17.93047 | 241° | 11km/h | 22445m | 4.4m/s | -52.3°C | 3.2% | 0hPa | 2.6V | 00:00:00 | 01:33:27 | 00:00:00 | |
| OE5DXL-15 | 2026-09-03 12:27:11 | 49.14845 | 17.93054 | 11° | 7km/h | 22417m | 5.9m/s | -52.4°C | 3.1% | 0hPa | 2.6V | 00:00:00 | 00:00:00 | 00:00:00 | |
| S52SK | 2026-09-03 12:27:10 | 49.14845 | 17.93054 | 12° | 15km/h | 22417m | 6.0m/s | -52.5°C | 0.6% | 0hPa | 2.6V | 00:00:00 | 00:00:00 | 00:00:00 | |
| HA6NAB-11 | 2026-09-03 12:27:08 | 49.14839 | 17.93051 | 18° | 13km/h | 22406m | 5.6m/s | -52.4°C | 0.6% | 0hPa | 2.6V | 00:00:00 | 00:00:00 | 00:00:00 | |
| OE5MMP-10 | 2026-09-03 12:27:06 | 49.14833 | 17.93051 | 319° | 9km/h | 22390m | 4.9m/s | -52.1°C | 3.2% | 0hPa | 2.6V | 00:00:00 | 01:33:17 | 00:00:00 | |
| PG1ADW-2 | 2026-09-03 12:27:05 | 49.14833 | 17.93051 | 188° | 7km/h | 22385m | 6.2m/s | -52.1°C | 3.2% | 0hPa | 2.7V | 00:00:00 | 01:33:16 | 00:00:00 | |
| OE3OSB-13 | 2026-09-03 12:27:04 | 49.14834 | 17.93051 | 176° | 2km/h | 22379m | 4.5m/s | -52.1°C | 0.5% | -1.0hPa | 2.7V | 00:00:00 | 00:00:00 | 00:00:00 | |
| HA6NAB-11 | 2026-09-03 12:27:03 | 49.14834 | 17.93051 | 178° | 4km/h | 22379m | 4.5m/s | -52.1°C | 0.6% | 0hPa | 2.7V | 00:00:00 | 00:00:00 | 00:00:00 | |
| NBG1-10 | 2026-09-03 12:27:02 | 49.14834 | 17.93053 | 295° | 11km/h | 22370m | 5.3m/s | 0°C | 0% | 0hPa | 2.7V | 00:00:00 | 01:33:13 | 00:00:00 | |
| S52SK | 2026-09-03 12:27:00 | 49.14833 | 17.93055 | 310° | 11km/h | 22365m | 6.1m/s | -52.2°C | 0.6% | 0hPa | 2.7V | 00:00:00 | 00:00:00 | 00:00:00 | |
| HA6NAB-11 | 2026-09-03 12:26:57 | 49.14825 | 17.93068 | 321° | 15km/h | 22348m | 6.3m/s | -52.4°C | 0.6% | 0hPa | 2.7V | 00:00:00 | 00:00:00 | 00:00:00 | |
| PETON7-10 | 2026-09-03 12:26:56 | 49.14820 | 17.93073 | 332° | 5km/h | 22337m | 4.6m/s | -52.2°C | 3.1% | 0hPa | 2.7V | 00:00:00 | 00:00:00 | 00:00:00 | |
| OE5DRO-10 | 2026-09-03 12:26:53 | 49.14814 | 17.93077 | 340° | 5km/h | 22321m | 5.7m/s | -52.2°C | 3.1% | 0hPa | 2.6V | 00:00:00 | 00:00:00 | 00:00:00 | |
| HA6NAB-11 | 2026-09-03 12:26:52 | 49.14812 | 17.93077 | 343° | 9km/h | 22316m | 5.1m/s | -52.3°C | 0.6% | 0hPa | 2.6V | 00:00:00 | 00:00:00 | 00:00:00 | |
| OE5MMP-10 | 2026-09-03 12:26:46 | 49.14804 | 17.93083 | 322° | 5km/h | 22284m | 4.5m/s | -52.4°C | 3.1% | 0hPa | 2.6V | 00:00:00 | 01:32:57 | 00:00:00 | |
| PG1ADW-2 | 2026-09-03 12:26:45 | 49.14803 | 17.93085 | 317° | 5km/h | 22279m | 3.9m/s | -52.4°C | 3.1% | 0hPa | 2.6V | 00:00:00 | 00:00:00 | 00:00:00 | |
| PETON7-10 | 2026-09-03 12:26:41 | 49.14801 | 17.93086 | 66° | 5km/h | 22258m | 5.4m/s | -52.6°C | 3.2% | 0hPa | 2.6V | 00:00:00 | 00:00:00 | 00:00:00 | |
| HA6NAB-11 | 2026-09-03 12:26:40 | 49.14801 | 17.93086 | 67° | 4km/h | 22258m | 5.5m/s | -52.7°C | 0.6% | 0hPa | 2.6V | 00:00:00 | 00:00:00 | 00:00:00 | |
| OE5MMP-10 | 2026-09-03 12:26:36 | 49.14796 | 17.93087 | 271° | 5km/h | 22232m | 4.7m/s | -52.8°C | 3.3% | 0hPa | 2.6V | 00:00:00 | 01:32:47 | 00:00:00 | |
| HA6NAB-11 | 2026-09-03 12:26:35 | 49.14796 | 17.93088 | 240° | 2km/h | 22228m | 4.0m/s | -52.9°C | 0.7% | 0hPa | 2.6V | 00:00:00 | 00:00:00 | 00:00:00 | |
| PETON7-10 | 2026-09-03 12:26:26 | 49.14802 | 17.93088 | 159° | 13km/h | 22182m | 6.2m/s | -52.7°C | 3.2% | 0hPa | 2.6V | 00:00:00 | 01:32:37 | 00:00:00 | |
| PG1ADW-2 | 2026-09-03 12:26:25 | 49.14806 | 17.93085 | 148° | 15km/h | 22176m | 5.7m/s | -52.7°C | 3.3% | 0hPa | 2.6V | 00:00:00 | 00:00:00 | 00:00:00 | |
| HA6NAB-11 | 2026-09-03 12:26:23 | 49.14810 | 17.93081 | 145° | 20km/h | 22171m | 4.0m/s | -52.7°C | 0.7% | 0hPa | 2.7V | 00:00:00 | 00:00:00 | 00:00:00 | |
| HA6NAB-11 | 2026-09-03 12:26:17 | 49.14826 | 17.93077 | 207° | 5km/h | 22142m | 6.3m/s | -52.6°C | 0.6% | 0hPa | 2.7V | 00:00:00 | 00:00:00 | 00:00:00 | |
| OE5MMP-10 | 2026-09-03 12:26:16 | 49.14829 | 17.93078 | 179° | 16km/h | 22131m | 4.7m/s | -52.5°C | 3.3% | 0hPa | 2.7V | 00:00:00 | 01:32:27 | 00:00:00 | |
| OE5DRO-10 | 2026-09-03 12:26:15 | 49.14831 | 17.93078 | 177° | 15km/h | 22126m | 5.9m/s | -52.5°C | 3.2% | 0hPa | 2.7V | 00:00:00 | 00:00:00 | 00:00:00 | |
| PETON7-10 | 2026-09-03 12:26:11 | 49.14845 | 17.93066 | 140° | 15km/h | 22104m | 5.3m/s | -52.6°C | 3.3% | 0hPa | 2.7V | 00:00:00 | 00:00:00 | 08:30:00 | |
| OE5MMP-10 | 2026-09-03 12:26:06 | 49.14867 | 17.93050 | 197° | 11km/h | 22080m | 4.7m/s | -52.4°C | 3.2% | 0hPa | 2.6V | 00:00:00 | 01:32:17 | 08:30:00 | |
| PG1ADW-2 | 2026-09-03 12:26:05 | 49.14869 | 17.93052 | 206° | 15km/h | 22075m | 6.0m/s | -52.3°C | 3.1% | 0hPa | 2.7V | 00:00:00 | 00:00:00 | 00:00:00 | |
| OE3OSB-13 | 2026-09-03 12:26:02 | 49.14873 | 17.93052 | 157° | 5km/h | 22060m | 4.5m/s | -52.3°C | 0.5% | -1.0hPa | 2.7V | 00:00:00 | 00:00:00 | 00:00:00 | |
| HA6NAB-11 | 2026-09-03 12:26:00 | 49.14874 | 17.93051 | 158° | 9km/h | 22055m | 5.8m/s | -52.2°C | 0.6% | 0hPa | 2.7V | 00:00:00 | 00:00:00 | 00:00:00 | |
| OE5MMP-10 | 2026-09-03 12:25:56 | 49.14890 | 17.93026 | 124° | 18km/h | 22030m | 5.0m/s | -52.0°C | 3.2% | 0hPa | 2.7V | 00:00:00 | 01:32:07 | 00:00:00 | |
| HA6NAB-11 | 2026-09-03 12:25:54 | 49.14894 | 17.93019 | 129° | 24km/h | 22025m | 4.5m/s | -52.0°C | 0.6% | 0hPa | 2.7V | 00:00:00 | 00:00:00 | 00:00:00 | |
| HA6NAB-11 | 2026-09-03 12:25:49 | 49.14913 | 17.93000 | 149° | 11km/h | 22000m | 5.9m/s | -52.2°C | 0.6% | 0hPa | 2.7V | 00:00:00 | 00:00:00 | 00:00:00 | |
| OE5MMP-10 | 2026-09-03 12:25:46 | 49.14923 | 17.92984 | 138° | 24km/h | 21979m | 5.6m/s | -52.3°C | 3.2% | 0hPa | 2.7V | 00:00:00 | 01:31:57 | 00:00:00 | |
| PG1ADW-2 | 2026-09-03 12:25:45 | 49.14927 | 17.92979 | 137° | 20km/h | 21974m | 4.9m/s | -52.2°C | 3.1% | 0hPa | 2.7V | 00:00:00 | 01:31:56 | 00:00:00 | |
| HA6NAB-11 | 2026-09-03 12:25:43 | 49.14931 | 17.92973 | 134° | 24km/h | 21968m | 6.2m/s | -52.2°C | 0.6% | 0hPa | 2.7V | 00:00:00 | 00:00:00 | 00:00:00 | |
| PETON7-10 | 2026-09-03 12:25:41 | 49.14943 | 17.92950 | 133° | 20km/h | 21952m | 5.8m/s | -52.3°C | 3.2% | 0hPa | 2.7V | 00:00:00 | 01:31:52 | 00:00:00 | |
| OE5MMP-10 | 2026-09-03 12:25:35 | 49.14963 | 17.92907 | 92° | 16km/h | 21922m | 4.5m/s | -52.2°C | 3.2% | 0hPa | 2.7V | 00:00:00 | 01:31:46 | 00:00:00 | |
| OE3OSB-13 | 2026-09-03 12:25:31 | 49.14968 | 17.92879 | 117° | 15km/h | 21896m | 5.5m/s | -52.2°C | 0.5% | -1.0hPa | 2.6V | 00:00:00 | 00:00:00 | 00:00:00 | |
| PETON7-10 | 2026-09-03 12:25:26 | 49.14975 | 17.92854 | 122° | 18km/h | 21874m | 5.9m/s | -52.3°C | 3.2% | 0hPa | 2.6V | 00:00:00 | 00:00:00 | 00:00:00 | |
| OE5MMP-10 | 2026-09-03 12:25:25 | 49.14978 | 17.92848 | 121° | 18km/h | 21869m | 4.5m/s | -52.3°C | 3.2% | 0hPa | 2.6V | 00:00:00 | 01:31:36 | 00:00:00 | |
| OE5DRO-10 | 2026-09-03 12:25:18 | 49.14981 | 17.92800 | 94° | 15km/h | 21833m | 4.7m/s | -52.0°C | 3.1% | 0hPa | 2.6V | 00:00:00 | 00:00:00 | 00:00:00 | |
| OE5MMP-10 | 2026-09-03 12:25:15 | 49.14980 | 17.92779 | 83° | 16km/h | 21816m | 5.0m/s | -52.0°C | 3.1% | 0hPa | 2.6V | 00:00:00 | 01:31:26 | 00:00:00 | |
| PETON7-10 | 2026-09-03 12:25:11 | 49.14981 | 17.92755 | 93° | 13km/h | 21796m | 3.3m/s | -51.9°C | 3.1% | 0hPa | 2.6V | 00:00:00 | 00:00:00 | 00:00:00 | |
| OE3OSB-13 | 2026-09-03 12:25:00 | 49.14978 | 17.92694 | 125° | 9km/h | 21732m | 6.4m/s | -51.9°C | 0.5% | -1.0hPa | 2.6V | 00:00:00 | 00:00:00 | 00:00:00 | |
| OE5DRO-10 | 2026-09-03 12:24:59 | 49.14978 | 17.92694 | 126° | 13km/h | 21732m | 6.3m/s | -51.8°C | 3.0% | 0hPa | 2.6V | 00:00:00 | 00:00:00 | 00:00:00 | |
| PETON7-10 | 2026-09-03 12:24:56 | 49.14982 | 17.92683 | 90° | 13km/h | 21717m | 6.0m/s | -52.0°C | 3.0% | 0hPa | 2.6V | 00:00:00 | 01:31:07 | 00:00:00 | |
| OE5MMP-10 | 2026-09-03 12:24:55 | 49.14981 | 17.92679 | 68° | 15km/h | 21711m | 5.5m/s | -52.1°C | 3.0% | 0hPa | 2.6V | 00:00:00 | 01:31:06 | 00:00:00 | |
| DO3MHA-11 | 2026-09-03 12:24:46 | 49.14977 | 17.92632 | 101° | 15km/h | 21664m | 5.5m/s | -52.2°C | 3.2% | 0hPa | 2.6V | 00:00:00 | 01:30:57 | 00:00:00 | |
| PG1ADW-2 | 2026-09-03 12:24:45 | 49.14978 | 17.92627 | 115° | 16km/h | 21658m | 6.1m/s | -52.2°C | 3.2% | 0hPa | 2.6V | 00:00:00 | 00:00:00 | 00:00:00 | |
| OE5DXL-15 | 2026-09-03 12:24:41 | 49.14979 | 17.92615 | 52° | 16km/h | 21636m | 4.9m/s | -52.2°C | 3.2% | 0hPa | 2.6V | 00:00:00 | 00:00:00 | 00:00:00 | |
| OE5DRO-10 | 2026-09-03 12:24:40 | 49.14977 | 17.92611 | 54° | 18km/h | 21631m | 4.7m/s | -52.3°C | 3.1% | 0hPa | 2.6V | 00:00:00 | 00:00:00 | 00:00:00 | |
| OE5MMP-10 | 2026-09-03 12:24:35 | 49.14971 | 17.92579 | 77° | 20km/h | 21603m | 5.3m/s | -52.6°C | 3.2% | 0hPa | 2.6V | 00:00:00 | 01:30:46 | 08:30:00 | |
| OE3OSB-13 | 2026-09-03 12:24:28 | 49.14969 | 17.92522 | 65° | 16km/h | 21565m | 4.9m/s | -52.6°C | 0.6% | -1.0hPa | 2.7V | 00:00:00 | 00:00:00 | 00:00:00 | |
| PETON7-10 | 2026-09-03 12:24:26 | 49.14965 | 17.92511 | 64° | 16km/h | 21554m | 6.4m/s | -52.5°C | 3.3% | 0hPa | 2.7V | 00:00:00 | 00:00:00 | 00:00:00 | |
| PG1ADW-2 | 2026-09-03 12:24:25 | 49.14963 | 17.92506 | 64° | 15km/h | 21548m | 4.9m/s | -52.5°C | 3.2% | 0hPa | 2.7V | 00:00:00 | 01:30:36 | 08:30:00 | |
| OE5DRO-10 | 2026-09-03 12:24:21 | 49.14954 | 17.92482 | 65° | 13km/h | 21527m | 4.8m/s | -52.6°C | 3.2% | 0hPa | 2.7V | 00:00:00 | 00:00:00 | 00:00:00 | |
| OE5MMP-10 | 2026-09-03 12:24:15 | 49.14949 | 17.92442 | 65° | 9km/h | 21494m | 4.6m/s | -52.4°C | 3.2% | 0hPa | 2.7V | 00:00:00 | 01:30:26 | 00:00:00 | |
| DO3MHA-11 | 2026-09-03 12:24:12 | 49.14945 | 17.92432 | 45° | 9km/h | 21478m | 5.2m/s | -52.3°C | 3.2% | 0hPa | 2.7V | 00:00:00 | 01:30:23 | 00:00:00 | |
| PETON7-10 | 2026-09-03 12:24:11 | 49.14943 | 17.92431 | 32° | 11km/h | 21473m | 4.6m/s | -52.2°C | 3.1% | 0hPa | 2.7V | 00:00:00 | 01:30:22 | 00:00:00 | |
| HA6NAB-11 | 2026-09-03 12:24:06 | 49.14934 | 17.92423 | 35° | 9km/h | 21452m | 5.9m/s | -52.2°C | 0.7% | 0hPa | 2.7V | 00:00:00 | 00:00:00 | 00:00:00 | |
| PG1ADW-2 | 2026-09-03 12:24:05 | 49.14932 | 17.92419 | 75° | 9km/h | 21441m | 4.3m/s | -52.2°C | 3.2% | 0hPa | 2.7V | 00:00:00 | 00:00:00 | 00:00:00 | |
| OE3OSB-13 | 2026-09-03 12:23:58 | 49.14926 | 17.92381 | 37° | 5km/h | 21387m | 4.9m/s | -52.6°C | 0.6% | -1.0hPa | 2.7V | 00:00:00 | 00:00:00 | 00:00:00 | |
| PETON7-10 | 2026-09-03 12:23:56 | 49.14927 | 17.92383 | 69° | 9km/h | 21393m | 6.4m/s | -52.5°C | 3.2% | 0hPa | 2.7V | 00:00:00 | 00:00:00 | 08:30:00 | |
| OE5MMP-10 | 2026-09-03 12:23:55 | 49.14926 | 17.92381 | 38° | 9km/h | 21387m | 4.8m/s | -52.5°C | 3.3% | 0hPa | 2.7V | 00:00:00 | 01:30:06 | 00:00:00 | |
| S52SK | 2026-09-03 12:23:53 | 49.14925 | 17.92380 | 20° | 5km/h | 21383m | 4.4m/s | -52.5°C | 0.7% | 0hPa | 2.7V | 00:00:00 | 00:00:00 | 00:00:00 | |
| DO3MHA-11 | 2026-09-03 12:23:51 | 49.14925 | 17.92377 | 132° | 11km/h | 21366m | 4.9m/s | -52.4°C | 3.2% | 0hPa | 2.7V | 00:00:00 | 01:30:02 | 08:30:00 | |
| HA6NAB-11 | 2026-09-03 12:23:48 | 49.14928 | 17.92371 | 116° | 11km/h | 21356m | 5.4m/s | -52.4°C | 0.7% | 0hPa | 2.7V | 00:00:00 | 00:00:00 | 00:00:00 | |
| PG1ADW-2 | 2026-09-03 12:23:45 | 49.14930 | 17.92352 | 107° | 18km/h | 21336m | 6.0m/s | -52.4°C | 3.2% | 0hPa | 2.7V | 00:00:00 | 00:00:00 | 00:00:00 | |
| HA6NAB-11 | 2026-09-03 12:23:43 | 49.14932 | 17.92345 | 124° | 9km/h | 21325m | 4.2m/s | -52.4°C | 0.7% | 0hPa | 2.7V | 00:00:00 | 00:00:00 | 00:00:00 | |
| PETON7-10 | 2026-09-03 12:23:41 | 49.14934 | 17.92339 | 113° | 18km/h | 21314m | 5.3m/s | -52.4°C | 3.2% | 0hPa | 2.7V | 00:00:00 | 00:00:00 | 00:00:00 | |
| HA6NAB-11 | 2026-09-03 12:23:37 | 49.14940 | 17.92326 | 134° | 20km/h | 21299m | 6.0m/s | -52.6°C | 0.7% | 0hPa | 2.7V | 00:00:00 | 00:00:00 | 00:00:00 | |
| OE5MMP-10 | 2026-09-03 12:23:35 | 49.14952 | 17.92308 | 134° | 22km/h | 21283m | 6.0m/s | -52.6°C | 3.2% | 0hPa | 2.7V | 00:00:00 | 01:29:46 | 00:00:00 | |
| HA6NAB-11 | 2026-09-03 12:23:32 | 49.14960 | 17.92291 | 127° | 18km/h | 21268m | 5.8m/s | -52.7°C | 0.7% | 0hPa | 2.6V | 00:00:00 | 00:00:00 | 00:00:00 | |
| DO3MHA-11 | 2026-09-03 12:23:31 | 49.14963 | 17.92285 | 125° | 24km/h | 21262m | 5.6m/s | -52.6°C | 3.2% | 0hPa | 2.6V | 00:00:00 | 01:29:42 | 00:00:00 | |
| PETON7-10 | 2026-09-03 12:23:26 | 49.14972 | 17.92244 | 106° | 22km/h | 21235m | 4.3m/s | -52.6°C | 3.2% | 0hPa | 2.6V | 00:00:00 | 01:29:37 | 00:00:00 | |
| OE5MMP-10 | 2026-09-03 12:23:25 | 49.14975 | 17.92234 | 112° | 24km/h | 21230m | 6.1m/s | -52.6°C | 3.2% | 0hPa | 2.6V | 00:00:00 | 01:29:36 | 00:00:00 | |
| OE5DRO-10 | 2026-09-03 12:23:24 | 49.14977 | 17.92225 | 120° | 22km/h | 21224m | 5.0m/s | -52.6°C | 3.2% | 0hPa | 2.6V | 00:00:00 | 00:00:00 | 00:00:00 | |
| DO3MHA-11 | 2026-09-03 12:23:21 | 49.14988 | 17.92199 | 119° | 20km/h | 21210m | 5.5m/s | -52.6°C | 3.3% | 0hPa | 2.6V | 00:00:00 | 01:29:32 | 00:00:00 | |
| OE5MMP-10 | 2026-09-03 12:23:15 | 49.15003 | 17.92159 | 120° | 20km/h | 21179m | 4.3m/s | -52.6°C | 3.3% | 0hPa | 2.7V | 00:00:00 | 01:29:26 | 00:00:00 | |
| PETON7-10 | 2026-09-03 12:23:11 | 49.15010 | 17.92131 | 113° | 22km/h | 21158m | 6.2m/s | -52.7°C | 3.2% | 0hPa | 2.7V | 00:00:00 | 00:00:00 | 00:00:00 | |
| PG1ADW-2 | 2026-09-03 12:23:05 | 49.15021 | 17.92086 | 113° | 20km/h | 21125m | 6.3m/s | -52.6°C | 3.2% | 0hPa | 2.6V | 00:00:00 | 01:29:16 | 00:00:00 | |
| DO3MHA-11 | 2026-09-03 12:23:01 | 49.15031 | 17.92051 | 101° | 20km/h | 21104m | 5.6m/s | -52.7°C | 3.3% | 0hPa | 2.6V | 00:00:00 | 01:29:12 | 00:00:00 | |
| PETON7-10 | 2026-09-03 12:22:56 | 49.15034 | 17.92010 | 103° | 22km/h | 21078m | 4.5m/s | -52.7°C | 3.1% | 0hPa | 2.6V | 00:00:00 | 00:00:00 | 00:00:00 | |
| OE5MMP-10 | 2026-09-03 12:22:55 | 49.15035 | 17.92003 | 101° | 18km/h | 21073m | 5.0m/s | -52.7°C | 3.1% | 0hPa | 2.6V | 00:00:00 | 01:29:06 | 00:00:00 | |
| DO3MHA-11 | 2026-09-03 12:22:51 | 49.15037 | 17.91978 | 111° | 24km/h | 21050m | 6.3m/s | -52.9°C | 3.2% | 0hPa | 2.6V | 00:00:00 | 01:29:02 | 00:00:00 | |
| OE5DRO-10 | 2026-09-03 12:22:46 | 49.15042 | 17.91940 | 92° | 27km/h | 21025m | 4.4m/s | -53.2°C | 3.3% | 0hPa | 2.7V | 00:00:00 | 00:00:00 | 08:30:00 | |
| PG1ADW-2 | 2026-09-03 12:22:45 | 49.15042 | 17.91929 | 96° | 26km/h | 21020m | 5.6m/s | -53.3°C | 3.3% | 0hPa | 2.7V | 00:00:00 | 00:00:00 | 00:00:00 | |
| OE5DXL-15 | 2026-09-03 12:22:41 | 49.15047 | 17.91886 | 96° | 27km/h | 20998m | 6.4m/s | -53.5°C | 3.3% | 0hPa | 2.7V | 00:00:00 | 00:00:00 | 00:00:00 | |
| OE5MMP-10 | 2026-09-03 12:22:35 | 49.15052 | 17.91834 | 98° | 27km/h | 20964m | 6.3m/s | -53.6°C | 3.3% | 0hPa | 2.7V | 00:00:00 | 01:28:46 | 00:00:00 | |
| DO3MHA-11 | 2026-09-03 12:22:31 | 49.15056 | 17.91789 | 102° | 24km/h | 20942m | 4.9m/s | -53.7°C | 3.4% | 0hPa | 2.7V | 00:00:00 | 01:28:42 | 00:00:00 | |
| OE5DRO-10 | 2026-09-03 12:22:27 | 49.15055 | 17.91747 | 69° | 27km/h | 20922m | 4.4m/s | -54.0°C | 3.5% | 0hPa | 2.7V | 00:00:00 | 00:00:00 | 00:00:00 | |
| PETON7-10 | 2026-09-03 12:22:26 | 49.15053 | 17.91739 | 69° | 29km/h | 20917m | 4.8m/s | -54.1°C | 3.5% | 0hPa | 2.7V | 00:00:00 | 00:00:00 | 00:00:00 | |
| PG1ADW-2 | 2026-09-03 12:22:25 | 49.15051 | 17.91732 | 73° | 27km/h | 20912m | 6.1m/s | -54.0°C | 3.5% | 0hPa | 2.7V | 00:00:00 | 00:00:00 | 00:00:00 | |
| OE3OSB-13 | 2026-09-03 12:22:24 | 49.15050 | 17.91724 | 84° | 18km/h | 20906m | 5.3m/s | -54.1°C | 0.7% | -1.0hPa | 2.6V | 00:00:00 | 00:00:00 | 00:00:00 | |
| S52SK | 2026-09-03 12:22:22 | 49.15050 | 17.91716 | 93° | 22km/h | 20901m | 4.7m/s | -54.0°C | 0.8% | 0hPa | 2.6V | 00:00:00 | 00:00:00 | 00:00:00 | |
| DO3MHA-11 | 2026-09-03 12:22:21 | 49.15050 | 17.91697 | 89° | 35km/h | 20890m | 5.9m/s | -54.0°C | 3.5% | 0hPa | 2.6V | 00:00:00 | 01:28:32 | 08:30:00 | |
| HA6NAB-11 | 2026-09-03 12:22:16 | 49.15046 | 17.91640 | 84° | 40km/h | 20868m | 5.9m/s | -54.0°C | 0.8% | 0hPa | 2.7V | 00:00:00 | 00:00:00 | 00:00:00 | |
| OE5MMP-10 | 2026-09-03 12:22:15 | 49.15043 | 17.91612 | 75° | 24km/h | 20858m | 4.4m/s | -54.0°C | 3.4% | 0hPa | 2.7V | 00:00:00 | 01:28:26 | 00:00:00 | |
| PETON7-10 | 2026-09-03 12:22:11 | 49.15029 | 17.91574 | 48° | 27km/h | 20837m | 6.2m/s | -54.0°C | 3.5% | 0hPa | 2.7V | 00:00:00 | 00:00:00 | 00:00:00 | |
| HA6NAB-11 | 2026-09-03 12:22:10 | 49.15030 | 17.91574 | 49° | 18km/h | 20837m | 6.2m/s | -54.1°C | 0.8% | 0hPa | 2.7V | 00:00:00 | 00:00:00 | 00:00:00 | |
| OE5DRO-10 | 2026-09-03 12:22:08 | 49.15023 | 17.91561 | 66° | 26km/h | 20821m | 4.8m/s | -54.0°C | 3.6% | 0hPa | 2.7V | 00:00:00 | 00:00:00 | 00:00:00 | |
| PG1ADW-2 | 2026-09-03 12:22:05 | 49.15018 | 17.91534 | 77° | 27km/h | 20806m | 4.5m/s | -53.9°C | 3.5% | 0hPa | 2.7V | 00:00:00 | 00:00:00 | 00:00:00 | |
| HA6NAB-11 | 2026-09-03 12:22:04 | 49.15018 | 17.91534 | 78° | 33km/h | 20806m | 4.6m/s | -54.0°C | 0.8% | 0hPa | 2.7V | 00:00:00 | 00:00:00 | 00:00:00 | |
| OE3OSB-13 | 2026-09-03 12:21:53 | 49.14980 | 17.91426 | 26° | 13km/h | 20744m | 4.6m/s | -53.5°C | 0.6% | -1.0hPa | 2.7V | 00:00:00 | 00:00:00 | 00:00:00 | |
| HA6NAB-11 | 2026-09-03 12:21:52 | 49.14980 | 17.91426 | 28° | 13km/h | 20744m | 4.6m/s | -53.5°C | 0.8% | 0hPa | 2.7V | 00:00:00 | 00:00:00 | 00:00:00 | |
| DO3MHA-11 | 2026-09-03 12:21:51 | 49.14974 | 17.91417 | 61° | 24km/h | 20735m | 5.1m/s | -53.4°C | 3.5% | 0hPa | 2.7V | 00:00:00 | 01:28:02 | 00:00:00 | |
| OE5DRO-10 | 2026-09-03 12:21:49 | 49.14970 | 17.91399 | 78° | 20km/h | 20724m | 4.7m/s | -53.4°C | 3.5% | 0hPa | 2.6V | 00:00:00 | 00:00:00 | 00:00:00 | |
| HA6NAB-11 | 2026-09-03 12:21:46 | 49.14965 | 17.91375 | 71° | 33km/h | 20714m | 5.9m/s | -53.4°C | 0.7% | 0hPa | 2.7V | 00:00:00 | 00:00:00 | 00:00:00 | |
| PG1ADW-2 | 2026-09-03 12:21:45 | 49.14959 | 17.91355 | 56° | 16km/h | 20704m | 3.9m/s | -53.3°C | 3.4% | 0hPa | 2.7V | 00:00:00 | 01:27:56 | 00:00:00 | |
| DO3MHA-11 | 2026-09-03 12:21:41 | 49.14947 | 17.91337 | 23° | 16km/h | 20683m | 6.0m/s | -53.0°C | 3.3% | 0hPa | 2.7V | 00:00:00 | 01:27:52 | 00:00:00 | |
| PETON7-10 | 2026-09-03 12:21:40 | 49.14943 | 17.91335 | 20° | 16km/h | 20677m | 5.7m/s | -52.9°C | 3.3% | 0hPa | 2.7V | 00:00:00 | 00:00:00 | 08:30:00 | |
| OE5MMP-10 | 2026-09-03 12:21:35 | 49.14930 | 17.91319 | 53° | 16km/h | 20651m | 6.3m/s | 0°C | 0% | 0hPa | 2.6V | 00:00:00 | 01:27:46 | 08:30:00 | |
| DO3MHA-11 | 2026-09-03 12:21:31 | 49.14918 | 17.91292 | 69° | 15km/h | 20630m | 6.0m/s | -52.5°C | 3.4% | 0hPa | 2.6V | 00:00:00 | 01:27:42 | 00:00:00 | |
| OE5DRO-10 | 2026-09-03 12:21:30 | 49.14917 | 17.91286 | 74° | 11km/h | 20625m | 4.9m/s | -52.5°C | 3.3% | 0hPa | 2.6V | 00:00:00 | 00:00:00 | 00:00:00 | |
| HA6NAB-11 | 2026-09-03 12:21:28 | 49.14915 | 17.91280 | 71° | 13km/h | 20620m | 4.5m/s | -52.6°C | 0.7% | 0hPa | 2.6V | 00:00:00 | 00:00:00 | 00:00:00 | |
| PETON7-10 | 2026-09-03 12:21:25 | 49.14907 | 17.91265 | 49° | 11km/h | 20600m | 4.5m/s | -52.7°C | 3.3% | 0hPa | 2.6V | 00:00:00 | 00:00:00 | 00:00:00 | |
| OE3OSB-13 | 2026-09-03 12:21:22 | 49.14902 | 17.91249 | 71° | 15km/h | 20584m | 4.0m/s | -52.7°C | 0.6% | -1.0hPa | 2.6V | 00:00:00 | 00:00:00 | 00:00:00 | |
| DO3MHA-11 | 2026-09-03 12:21:21 | 49.14901 | 17.91243 | 68° | 13km/h | 20580m | 4.6m/s | -52.7°C | 3.2% | 0hPa | 2.6V | 00:00:00 | 01:27:32 | 00:00:00 | |
| HA6NAB-11 | 2026-09-03 12:21:16 | 49.14893 | 17.91224 | 69° | 11km/h | 20560m | 6.4m/s | -52.5°C | 0.7% | 0hPa | 2.7V | 00:00:00 | 00:00:00 | 00:00:00 | |
| OE5MMP-10 | 2026-09-03 12:21:15 | 49.14892 | 17.91218 | 93° | 9km/h | 20549m | 4.9m/s | 0°C | 0% | 0hPa | 2.7V | 00:00:00 | 01:27:26 | 00:00:00 | |
| OE5DRO-10 | 2026-09-03 12:21:12 | 49.14892 | 17.91212 | 103° | 11km/h | 20529m | 5.6m/s | -52.3°C | 3.3% | 0hPa | 2.7V | 00:00:00 | 00:00:00 | 00:00:00 | |
| OE5DXL-15 | 2026-09-03 12:21:11 | 49.14892 | 17.91212 | 103° | 11km/h | 20529m | 5.6m/s | -52.3°C | 3.3% | 0hPa | 2.7V | 00:00:00 | 00:00:00 | 00:00:00 | |
| PETON7-10 | 2026-09-03 12:21:10 | 49.14892 | 17.91209 | 109° | 11km/h | 20524m | 5.2m/s | -52.4°C | 3.3% | 0hPa | 2.7V | 00:00:00 | 01:27:21 | 00:00:00 | |
| DO3MHA-11 | 2026-09-03 12:21:09 | 49.14893 | 17.91205 | 101° | 15km/h | 20519m | 4.4m/s | -52.3°C | 3.3% | 0hPa | 2.7V | 00:00:00 | 01:27:20 | 00:00:00 | |
| PG1ADW-2 | 2026-09-03 12:21:05 | 49.14891 | 17.91182 | 72° | 11km/h | 20500m | 4.3m/s | -52.3°C | 3.2% | 0hPa | 2.7V | 00:00:00 | 00:00:00 | 00:00:00 | |
| HA6NAB-11 | 2026-09-03 12:21:04 | 49.14891 | 17.91182 | 73° | 15km/h | 20500m | 4.3m/s | -52.3°C | 0.7% | 0hPa | 2.7V | 00:00:00 | 00:00:00 | 00:00:00 | |
| HA6NAB-11 | 2026-09-03 12:20:58 | 49.14892 | 17.91170 | 231° | 7km/h | 20469m | 4.4m/s | -52.0°C | 0.7% | 0hPa | 2.7V | 00:00:00 | 00:00:00 | 00:00:00 | |
| PETON7-10 | 2026-09-03 12:20:55 | 49.14903 | 17.91170 | 151° | 13km/h | 20449m | 4.1m/s | -51.9°C | 3.1% | 0hPa | 2.7V | 00:00:00 | 00:00:00 | 00:00:00 | |
| HA6NAB-11 | 2026-09-03 12:20:53 | 49.14907 | 17.91167 | 141° | 16km/h | 20444m | 5.4m/s | -51.9°C | 0.7% | 0hPa | 2.6V | 00:00:00 | 00:00:00 | 00:00:00 | |
| OE5DRO-10 | 2026-09-03 12:20:52 | 49.14912 | 17.91158 | 116° | 15km/h | 20433m | 5.2m/s | -51.7°C | 3.1% | 0hPa | 2.6V | 00:00:00 | 00:00:00 | 00:00:00 | |
| DO3MHA-11 | 2026-09-03 12:20:51 | 49.14913 | 17.91153 | 110° | 13km/h | 20428m | 4.8m/s | -51.8°C | 3.0% | 0hPa | 2.6V | 00:00:00 | 01:27:02 | 00:00:00 | |
| HA6NAB-11 | 2026-09-03 12:20:48 | 49.14917 | 17.91141 | 127° | 11km/h | 20412m | 4.8m/s | -51.8°C | 0.7% | 0hPa | 2.6V | 00:00:00 | 00:00:00 | 00:00:00 | |
| S52SK | 2026-09-03 12:20:47 | 49.14917 | 17.91141 | 127° | 11km/h | 20412m | 4.8m/s | -51.8°C | 0.7% | 0hPa | 2.6V | 00:00:00 | 00:00:00 | 00:00:00 | |
| PG1ADW-2 | 2026-09-03 12:20:45 | 49.14922 | 17.91135 | 165° | 20km/h | 20397m | 4.4m/s | -51.7°C | 3.0% | 0hPa | 2.6V | 00:00:00 | 00:00:00 | 00:00:00 | |
| OE5DXL-15 | 2026-09-03 12:20:41 | 49.14935 | 17.91129 | 158° | 24km/h | 20376m | 4.6m/s | -51.9°C | 3.1% | 0hPa | 2.6V | 00:00:00 | 00:00:00 | 00:00:00 | |
| PETON7-10 | 2026-09-03 12:20:40 | 49.14939 | 17.91127 | 155° | 22km/h | 20371m | 5.0m/s | -52.0°C | 3.1% | 0hPa | 2.6V | 00:00:00 | 00:00:00 | 00:00:00 | |
| DO3MHA-11 | 2026-09-03 12:20:36 | 49.14951 | 17.91113 | 137° | 24km/h | 20350m | 6.1m/s | -52.2°C | 3.1% | 0hPa | 2.6V | 00:00:00 | 01:26:47 | 08:30:00 | |
| OE5DRO-10 | 2026-09-03 12:20:33 | 49.14963 | 17.91099 | 149° | 26km/h | 20334m | 5.3m/s | -52.4°C | 3.1% | 0hPa | 2.7V | 00:00:00 | 00:00:00 | 00:00:00 | |
| OE3OSB-13 | 2026-09-03 12:20:20 | 49.15026 | 17.91019 | 118° | 24km/h | 20272m | 5.1m/s | -53.3°C | 0.6% | -1.0hPa | 2.7V | 00:00:00 | 00:00:00 | 00:00:00 | |
| DO3MHA-11 | 2026-09-03 12:20:14 | 49.15045 | 17.90960 | 110° | 27km/h | 20242m | 4.5m/s | -53.0°C | 3.4% | 0hPa | 2.7V | 00:00:00 | 01:26:25 | 00:00:00 | |
| OE5DXL-15 | 2026-09-03 12:20:11 | 49.15049 | 17.90929 | 98° | 26km/h | 20227m | 4.9m/s | -52.9°C | 3.4% | 0hPa | 2.7V | 00:00:00 | 00:00:00 | 00:00:00 | |
| PETON7-10 | 2026-09-03 12:20:10 | 49.15050 | 17.90918 | 94° | 26km/h | 20222m | 4.5m/s | -52.7°C | 3.3% | 0hPa | 2.6V | 00:00:00 | 00:00:00 | 00:00:00 | |
| PG1ADW-2 | 2026-09-03 12:20:05 | 49.15056 | 17.90866 | 111° | 26km/h | 20196m | 4.9m/s | -52.6°C | 3.2% | 0hPa | 2.6V | 00:00:00 | 00:00:00 | 00:00:00 | |
| DO3MHA-11 | 2026-09-03 12:20:04 | 49.15058 | 17.90856 | 117° | 24km/h | 20191m | 4.3m/s | -52.5°C | 3.3% | 0hPa | 2.6V | 00:00:00 | 01:26:15 | 00:00:00 | |
| OE3OSB-13 | 2026-09-03 12:19:49 | 49.15081 | 17.90716 | 107° | 24km/h | 20114m | 5.5m/s | -52.9°C | 0.6% | -1.0hPa | 2.7V | 00:00:00 | 00:00:00 | 00:00:00 | |
| PG1ADW-2 | 2026-09-03 12:19:45 | 49.15093 | 17.90682 | 127° | 22km/h | 20094m | 4.7m/s | -52.8°C | 3.3% | 0hPa | 2.7V | 00:00:00 | 00:00:00 | 00:00:00 | |
| DO3MHA-11 | 2026-09-03 12:19:44 | 49.15097 | 17.90674 | 131° | 26km/h | 20089m | 5.1m/s | -52.9°C | 3.4% | 0hPa | 2.7V | 00:00:00 | 01:25:55 | 00:00:00 | |
| OE5DXL-15 | 2026-09-03 12:19:41 | 49.15110 | 17.90653 | 133° | 24km/h | 20074m | 4.7m/s | -52.8°C | 3.3% | 0hPa | 2.7V | 00:00:00 | 00:00:00 | 00:00:00 | |
| PETON7-10 | 2026-09-03 12:19:40 | 49.15114 | 17.90646 | 130° | 22km/h | 20069m | 5.9m/s | -52.8°C | 3.3% | 0hPa | 2.7V | 00:00:00 | 01:25:51 | 00:00:00 | |
| OE5DRO-10 | 2026-09-03 12:19:37 | 49.15130 | 17.90610 | 119° | 24km/h | 20050m | 5.7m/s | -52.7°C | 3.3% | 0hPa | 2.7V | 00:00:00 | 00:00:00 | 00:00:00 | |
| DO3MHA-11 | 2026-09-03 12:19:33 | 49.15138 | 17.90591 | 132° | 22km/h | 20033m | 6.2m/s | -52.6°C | 3.3% | 0hPa | 2.7V | 00:00:00 | 01:25:44 | 00:00:00 | |
| PG1ADW-2 | 2026-09-03 12:19:25 | 49.15159 | 17.90541 | 102° | 26km/h | 19993m | 4.8m/s | -52.8°C | 3.3% | 0hPa | 2.6V | 00:00:00 | 00:00:00 | 00:00:00 | |
| DO3MHA-11 | 2026-09-03 12:19:22 | 49.15161 | 17.90509 | 95° | 26km/h | 19976m | 4.9m/s | -52.6°C | 3.3% | 0hPa | 2.6V | 00:00:00 | 01:25:33 | 00:00:00 | |
| OE3OSB-13 | 2026-09-03 12:19:18 | 49.15166 | 17.90467 | 100° | 22km/h | 19955m | 5.5m/s | -52.6°C | 0.6% | -1.0hPa | 2.6V | 00:00:00 | 00:00:00 | 00:00:00 | |
| OE5DRO-10 | 2026-09-03 12:19:17 | 49.15167 | 17.90458 | 105° | 20km/h | 19950m | 4.5m/s | -52.5°C | 3.2% | 0hPa | 2.6V | 00:00:00 | 00:00:00 | 00:00:00 | |
| S52SK | 2026-09-03 12:19:14 | 49.15171 | 17.90442 | 116° | 22km/h | 19940m | 5.2m/s | -52.4°C | 0.7% | 0hPa | 2.6V | 00:00:00 | 00:00:00 | 00:00:00 | |
| DO3MHA-11 | 2026-09-03 12:19:12 | 49.15176 | 17.90419 | 98° | 22km/h | 19924m | 5.7m/s | -52.3°C | 3.2% | 0hPa | 2.6V | 00:00:00 | 01:25:23 | 00:00:00 | |
| OE5DXL-15 | 2026-09-03 12:19:11 | 49.15177 | 17.90411 | 89° | 20km/h | 19919m | 4.7m/s | -52.3°C | 3.3% | 0hPa | 2.6V | 00:00:00 | 00:00:00 | 00:00:00 | |
| PETON7-10 | 2026-09-03 12:19:10 | 49.15177 | 17.90402 | 88° | 20km/h | 19914m | 5.5m/s | -52.2°C | 3.3% | 0hPa | 2.6V | 00:00:00 | 00:00:00 | 00:00:00 | |
| S52SK | 2026-09-03 12:19:08 | 49.15176 | 17.90393 | 91° | 26km/h | 19908m | 5.7m/s | -52.3°C | 0.7% | 0hPa | 2.6V | 00:00:00 | 00:00:00 | 00:00:00 | |
| PG1ADW-2 | 2026-09-03 12:19:05 | 49.15176 | 17.90356 | 90° | 18km/h | 19889m | 4.8m/s | -52.0°C | 3.2% | 0hPa | 2.6V | 00:00:00 | 01:25:16 | 00:00:00 | |
| OE3OSB-13 | 2026-09-03 12:18:47 | 49.15185 | 17.90226 | 106° | 13km/h | 19798m | 6.2m/s | -51.8°C | 0.6% | -1.0hPa | 2.6V | 00:00:00 | 00:00:00 | 00:00:00 | |
| PG1ADW-2 | 2026-09-03 12:18:45 | 49.15188 | 17.90217 | 119° | 15km/h | 19788m | 4.5m/s | -51.8°C | 3.2% | 0hPa | 2.6V | 00:00:00 | 00:00:00 | 00:00:00 | |
| DO3MHA-11 | 2026-09-03 12:18:42 | 49.15194 | 17.90201 | 117° | 15km/h | 19773m | 4.9m/s | -51.8°C | 3.2% | 0hPa | 2.6V | 00:00:00 | 01:24:53 | 00:00:00 | |
| OE5DXL-15 | 2026-09-03 12:18:41 | 49.15195 | 17.90196 | 109° | 15km/h | 19767m | 5.8m/s | -51.8°C | 3.2% | 0hPa | 2.6V | 00:00:00 | 00:00:00 | 00:00:00 | |
| PETON7-10 | 2026-09-03 12:18:39 | 49.15196 | 17.90185 | 92° | 13km/h | 19758m | 4.5m/s | -51.8°C | 3.2% | 0hPa | 2.7V | 00:00:00 | 00:00:00 | 00:00:00 | |
| DO3MHA-11 | 2026-09-03 12:18:32 | 49.15195 | 17.90148 | 105° | 15km/h | 19722m | 5.6m/s | -51.8°C | 3.2% | 0hPa | 2.7V | 00:00:00 | 01:24:43 | 00:00:00 | |
| PG1ADW-2 | 2026-09-03 12:18:25 | 49.15213 | 17.90131 | 130° | 16km/h | 19688m | 5.3m/s | -51.5°C | 3.1% | 0hPa | 2.6V | 00:00:00 | 00:00:00 | 08:30:00 | |
| PETON7-10 | 2026-09-03 12:18:24 | 49.15215 | 17.90125 | 110° | 16km/h | 19683m | 4.1m/s | -51.4°C | 3.1% | 0hPa | 2.6V | 00:00:00 | 00:00:00 | 00:00:00 | |
| DO3MHA-11 | 2026-09-03 12:18:22 | 49.15217 | 17.90112 | 90° | 16km/h | 19675m | 5.1m/s | -51.6°C | 3.1% | 0hPa | 2.6V | 00:00:00 | 01:24:33 | 00:00:00 | |
| OE5DRO-10 | 2026-09-03 12:18:20 | 49.15216 | 17.90101 | 89° | 18km/h | 19666m | 4.3m/s | -51.5°C | 3.0% | 0hPa | 2.6V | 00:00:00 | 00:00:00 | 00:00:00 | |
| OE3OSB-13 | 2026-09-03 12:18:17 | 49.15228 | 17.90080 | 143° | 18km/h | 19642m | 5.7m/s | -51.8°C | 0.6% | -1.0hPa | 2.6V | 00:00:00 | 00:00:00 | 00:00:00 | |
| DO3MHA-11 | 2026-09-03 12:18:12 | 49.15241 | 17.90068 | 151° | 20km/h | 19627m | 5.4m/s | -51.9°C | 3.2% | 0hPa | 2.6V | 00:00:00 | 01:24:23 | 00:00:00 | |
| OE5DXL-15 | 2026-09-03 12:18:11 | 49.15245 | 17.90064 | 151° | 26km/h | 19622m | 4.1m/s | -51.9°C | 3.2% | 0hPa | 2.6V | 00:00:00 | 00:00:00 | 00:00:00 | |
| PETON7-10 | 2026-09-03 12:18:09 | 49.15252 | 17.90057 | 136° | 22km/h | 19613m | 5.2m/s | -52.0°C | 3.2% | 0hPa | 2.6V | 00:00:00 | 01:24:20 | 00:00:00 | |
| PG1ADW-2 | 2026-09-03 12:18:05 | 49.15262 | 17.90036 | 132° | 27km/h | 19596m | 4.6m/s | -52.0°C | 3.2% | 0hPa | 2.6V | 00:00:00 | 00:00:00 | 00:00:00 | |
| DO3MHA-11 | 2026-09-03 12:18:02 | 49.15275 | 17.90014 | 132° | 24km/h | 19582m | 4.6m/s | -52.1°C | 3.2% | 0hPa | 2.6V | 00:00:00 | 01:24:13 | 00:00:00 | |
| OE5DRO-10 | 2026-09-03 12:18:01 | 49.15280 | 17.90006 | 135° | 27km/h | 19578m | 3.9m/s | -52.1°C | 3.2% | 0hPa | 2.6V | 00:00:00 | 00:00:00 | 00:00:00 | |
| PETON7-10 | 2026-09-03 12:17:54 | 49.15306 | 17.89959 | 120° | 29km/h | 19546m | 5.3m/s | -52.0°C | 3.2% | 0hPa | 2.7V | 00:00:00 | 00:00:00 | 00:00:00 | |
| DO3MHA-11 | 2026-09-03 12:17:52 | 49.15314 | 17.89942 | 123° | 31km/h | 19537m | 4.4m/s | -52.0°C | 3.2% | 0hPa | 2.7V | 00:00:00 | 01:24:03 | 00:00:00 | |
| OE3OSB-13 | 2026-09-03 12:17:45 | 49.15353 | 17.89867 | 110° | 29km/h | 19504m | 4.5m/s | -52.1°C | 0.6% | -1.0hPa | 2.7V | 00:00:00 | 00:00:00 | 00:00:00 | |
| S52SK | 2026-09-03 12:17:43 | 49.15353 | 17.89867 | 111° | 31km/h | 19504m | 4.5m/s | -52.1°C | 0.7% | 0hPa | 2.7V | 00:00:00 | 00:00:00 | 00:00:00 | |
| OE5DRO-10 | 2026-09-03 12:17:42 | 49.15357 | 17.89845 | 105° | 29km/h | 19496m | 4.8m/s | -52.1°C | 3.2% | 0hPa | 2.7V | 00:00:00 | 00:00:00 | 00:00:00 | |
| OE5DXL-15 | 2026-09-03 12:17:41 | 49.15359 | 17.89834 | 108° | 26km/h | 19491m | 4.4m/s | -52.1°C | 3.2% | 0hPa | 2.7V | 00:00:00 | 00:00:00 | 00:00:00 | |
| PETON7-10 | 2026-09-03 12:17:39 | 49.15364 | 17.89815 | 117° | 29km/h | 19483m | 4.1m/s | -52.1°C | 3.2% | 0hPa | 2.7V | 00:00:00 | 00:00:00 | 00:00:00 | |
| DO3MHA-11 | 2026-09-03 12:17:32 | 49.15394 | 17.89746 | 124° | 29km/h | 19452m | 4.0m/s | -52.4°C | 3.3% | 0hPa | 2.7V | 00:00:00 | 01:23:43 | 08:30:00 | |
| PG1ADW-2 | 2026-09-03 12:17:25 | 49.15408 | 17.89674 | 107° | 20km/h | 19421m | 4.1m/s | -52.4°C | 3.2% | 0hPa | 2.6V | 00:00:00 | 00:00:00 | 00:00:00 | |
| PETON7-10 | 2026-09-03 12:17:24 | 49.15410 | 17.89663 | 111° | 22km/h | 19416m | 5.4m/s | -52.4°C | 3.3% | 0hPa | 2.7V | 00:00:00 | 01:23:35 | 00:00:00 | |
| OE5DRO-10 | 2026-09-03 12:17:23 | 49.15412 | 17.89653 | 111° | 18km/h | 19411m | 4.0m/s | -52.3°C | 3.2% | 0hPa | 2.7V | 00:00:00 | 00:00:00 | 00:00:00 | |
| DO3MHA-11 | 2026-09-03 12:17:22 | 49.15415 | 17.89642 | 113° | 20km/h | 19407m | 3.6m/s | -52.4°C | 3.3% | 0hPa | 2.7V | 00:00:00 | 01:23:33 | 00:00:00 | |
| OE3OSB-13 | 2026-09-03 12:17:14 | 49.15424 | 17.89574 | 83° | 20km/h | 19364m | 4.1m/s | -52.2°C | 0.6% | -1.0hPa | 2.7V | 00:00:00 | 00:00:00 | 00:00:00 | |
| DO3MHA-11 | 2026-09-03 12:17:12 | 49.15423 | 17.89566 | 90° | 15km/h | 19360m | 4.9m/s | -52.1°C | 3.3% | 0hPa | 2.7V | 00:00:00 | 01:23:23 | 00:00:00 | |
| OE5DXL-15 | 2026-09-03 12:17:11 | 49.15424 | 17.89558 | 99° | 13km/h | 19355m | 4.8m/s | -52.1°C | 3.2% | 0hPa | 2.7V | 00:00:00 | 00:00:00 | 08:30:00 | |
| PETON7-10 | 2026-09-03 12:17:09 | 49.15426 | 17.89544 | 109° | 13km/h | 19345m | 5.6m/s | -52.2°C | 3.3% | 0hPa | 2.7V | 00:00:00 | 00:00:00 | 08:30:00 | |
| PG1ADW-2 | 2026-09-03 12:17:05 | 49.15430 | 17.89525 | 104° | 11km/h | 19323m | 4.5m/s | -52.0°C | 3.3% | 0hPa | 2.7V | 00:00:00 | 00:00:00 | 00:00:00 | |
| OE5DRO-10 | 2026-09-03 12:17:04 | 49.15430 | 17.89521 | 90° | 11km/h | 19320m | 2.5m/s | -52.0°C | 3.3% | 0hPa | 2.7V | 00:00:00 | 00:00:00 | 08:30:00 | |
| DO3MHA-11 | 2026-09-03 12:17:02 | 49.15429 | 17.89513 | 55° | 11km/h | 19311m | 6.2m/s | -52.1°C | 3.2% | 0hPa | 2.6V | 00:00:00 | 01:23:13 | 00:00:00 | |
| PETON7-10 | 2026-09-03 12:16:54 | 49.15420 | 17.89482 | 68° | 13km/h | 19270m | 4.2m/s | -51.6°C | 3.2% | 0hPa | 2.7V | 00:00:00 | 00:00:00 | 00:00:00 | |
| DO3MHA-11 | 2026-09-03 12:16:52 | 49.15418 | 17.89473 | 75° | 11km/h | 19259m | 4.5m/s | -51.5°C | 3.2% | 0hPa | 2.7V | 00:00:00 | 01:23:03 | 00:00:00 | |
| PG1ADW-2 | 2026-09-03 12:16:45 | 49.15405 | 17.89458 | 57° | 15km/h | 19225m | 4.3m/s | -51.5°C | 3.1% | 0hPa | 2.7V | 00:00:00 | 00:00:00 | 00:00:00 | |
| OE5DXL-15 | 2026-09-03 12:16:41 | 49.15396 | 17.89432 | 72° | 18km/h | 19206m | 5.5m/s | -51.4°C | 3.1% | 0hPa | 2.7V | 00:00:00 | 00:00:00 | 00:00:00 | |
| PETON7-10 | 2026-09-03 12:16:39 | 49.15396 | 17.89424 | 139° | 15km/h | 19196m | 4.2m/s | -51.4°C | 3.1% | 0hPa | 2.7V | 00:00:00 | 01:22:50 | 00:00:00 | |
| DO3MHA-11 | 2026-09-03 12:16:32 | 49.15408 | 17.89393 | 96° | 16km/h | 19160m | 5.8m/s | -51.3°C | 3.1% | 0hPa | 2.7V | 00:00:00 | 01:22:43 | 00:00:00 | |
| OE5MMP-10 | 2026-09-03 12:16:29 | 49.15408 | 17.89377 | 82° | 18km/h | 19144m | 4.7m/s | 0°C | 0% | 0hPa | 2.7V | 00:00:00 | 01:22:40 | 00:00:00 | |
| OE5DRO-10 | 2026-09-03 12:16:26 | 49.15406 | 17.89361 | 83° | 24km/h | 19127m | 4.8m/s | -51.1°C | 3.0% | 0hPa | 2.7V | 00:00:00 | 00:00:00 | 00:00:00 | |
| PG1ADW-2 | 2026-09-03 12:16:25 | 49.15406 | 17.89355 | 102° | 26km/h | 19121m | 5.9m/s | -51.2°C | 3.0% | 0hPa | 2.7V | 00:00:00 | 01:22:36 | 00:00:00 | |
| PETON7-10 | 2026-09-03 12:16:24 | 49.15407 | 17.89350 | 123° | 24km/h | 19116m | 5.7m/s | -51.2°C | 3.0% | 0hPa | 2.6V | 00:00:00 | 00:00:00 | 00:00:00 | |
| DO3MHA-11 | 2026-09-03 12:16:22 | 49.15414 | 17.89337 | 134° | 24km/h | 19104m | 7.2m/s | -51.3°C | 3.0% | 0hPa | 2.6V | 00:00:00 | 01:22:33 | 00:00:00 | |
| OE3OSB-13 | 2026-09-03 12:16:12 | 49.15450 | 17.89253 | 111° | 27km/h | 19045m | 5.4m/s | -52.0°C | 0.6% | -1.0hPa | 2.6V | 00:00:00 | 00:00:00 | 00:00:00 | |
| OE5DXL-15 | 2026-09-03 12:16:11 | 49.15450 | 17.89253 | 112° | 33km/h | 19045m | 5.3m/s | -51.9°C | 3.1% | 0hPa | 2.6V | 00:00:00 | 00:00:00 | 00:00:00 | |
| PETON7-10 | 2026-09-03 12:16:09 | 49.15457 | 17.89232 | 122° | 35km/h | 19036m | 4.1m/s | -51.9°C | 3.1% | 0hPa | 2.6V | 00:00:00 | 00:00:00 | 00:00:00 | |
| OE5DRO-10 | 2026-09-03 12:16:07 | 49.15466 | 17.89209 | 119° | 35km/h | 19026m | 5.8m/s | -52.0°C | 3.1% | 0hPa | 2.6V | 00:00:00 | 00:00:00 | 00:00:00 | |
| PG1ADW-2 | 2026-09-03 12:16:05 | 49.15475 | 17.89183 | 119° | 33km/h | 19016m | 4.2m/s | -52.0°C | 3.1% | 0hPa | 2.6V | 00:00:00 | 00:00:00 | 00:00:00 | |
| DO3MHA-11 | 2026-09-03 12:16:02 | 49.15487 | 17.89147 | 115° | 35km/h | 19002m | 4.1m/s | -52.0°C | 3.1% | 0hPa | 2.6V | 00:00:00 | 01:22:13 | 08:30:00 | |
| S52SK | 2026-09-03 12:16:00 | 49.15493 | 17.89122 | 107° | 37km/h | 18992m | 5.8m/s | -52.2°C | 0.8% | 0hPa | 2.6V | 00:00:00 | 00:00:00 | 00:00:00 | |
| PETON7-10 | 2026-09-03 12:15:54 | 49.15506 | 17.89044 | 113° | 35km/h | 18963m | 5.5m/s | -52.6°C | 3.2% | 0hPa | 2.6V | 00:00:00 | 01:22:05 | 00:00:00 | |
| DO3MHA-11 | 2026-09-03 12:15:52 | 49.15513 | 17.89022 | 124° | 31km/h | 18952m | 5.3m/s | -52.5°C | 3.2% | 0hPa | 2.6V | 00:00:00 | 01:22:03 | 00:00:00 | |
| OE5DRO-10 | 2026-09-03 12:15:48 | 49.15532 | 17.88985 | 126° | 37km/h | 18932m | 5.5m/s | -52.9°C | 3.4% | 0hPa | 2.6V | 00:00:00 | 00:00:00 | 00:00:00 | |
| PG1ADW-2 | 2026-09-03 12:15:45 | 49.15543 | 17.88954 | 115° | 38km/h | 18916m | 4.6m/s | -52.9°C | 3.3% | 0hPa | 2.6V | 00:00:00 | 00:00:00 | 00:00:00 | |
| DO3MHA-11 | 2026-09-03 12:15:42 | 49.15554 | 17.88916 | 112° | 40km/h | 18901m | 5.1m/s | -53.0°C | 3.3% | 0hPa | 2.6V | 00:00:00 | 01:21:53 | 00:00:00 | |
| OE5DXL-15 | 2026-09-03 12:15:41 | 49.15558 | 17.88900 | 111° | 40km/h | 18896m | 4.9m/s | -53.1°C | 3.3% | 0hPa | 2.6V | 00:00:00 | 00:00:00 | 00:00:00 | |
| OE3OSB-13 | 2026-09-03 12:15:40 | 49.15562 | 17.88885 | 110° | 42km/h | 18890m | 6.6m/s | -53.1°C | 0.7% | -1.0hPa | 2.7V | 00:00:00 | 00:00:00 | 00:00:00 | |
| PETON7-10 | 2026-09-03 12:15:39 | 49.15566 | 17.88869 | 111° | 38km/h | 18884m | 5.2m/s | -53.1°C | 3.3% | 0hPa | 2.7V | 00:00:00 | 00:00:00 | 00:00:00 | |
| OE5MMP-10 | 2026-09-03 12:15:36 | 49.15577 | 17.88823 | 112° | 40km/h | 18869m | 4.1m/s | 0°C | 0% | 0hPa | 2.7V | 00:00:00 | 01:21:47 | 00:00:00 | |
| DO3MHA-11 | 2026-09-03 12:15:32 | 49.15590 | 17.88772 | 111° | 37km/h | 18850m | 3.6m/s | -53.1°C | 3.4% | 0hPa | 2.7V | 00:00:00 | 01:21:43 | 00:00:00 | |
| OE5DRO-10 | 2026-09-03 12:15:29 | 49.15598 | 17.88736 | 109° | 40km/h | 18835m | 4.4m/s | -53.1°C | 3.4% | 0hPa | 2.7V | 00:00:00 | 00:00:00 | 00:00:00 | |
| PG1ADW-2 | 2026-09-03 12:15:25 | 49.15612 | 17.88679 | 112° | 42km/h | 18816m | 4.2m/s | -53.1°C | 3.4% | 0hPa | 2.7V | 00:00:00 | 00:00:00 | 08:30:00 | |
| PETON7-10 | 2026-09-03 12:15:24 | 49.15616 | 17.88665 | 110° | 42km/h | 18811m | 5.7m/s | -53.1°C | 3.4% | 0hPa | 2.7V | 00:00:00 | 00:00:00 | 00:00:00 | |
| DO3MHA-11 | 2026-09-03 12:15:22 | 49.15622 | 17.88634 | 107° | 40km/h | 18802m | 3.6m/s | -53.2°C | 3.4% | 0hPa | 2.7V | 00:00:00 | 01:21:33 | 00:00:00 | |
| DO3MHA-11 | 2026-09-03 12:15:12 | 49.15657 | 17.88486 | 103° | 40km/h | 18753m | 5.5m/s | -53.0°C | 3.3% | 0hPa | 2.7V | 00:00:00 | 01:21:23 | 00:00:00 | |
| OE5DXL-15 | 2026-09-03 12:15:11 | 49.15659 | 17.88468 | 100° | 40km/h | 18749m | 4.4m/s | -53.0°C | 3.3% | 0hPa | 2.7V | 00:00:00 | 00:00:00 | 00:00:00 | |
| OE5DRO-10 | 2026-09-03 12:15:10 | 49.15661 | 17.88450 | 96° | 40km/h | 18744m | 4.5m/s | -53.1°C | 3.3% | 0hPa | 2.7V | 00:00:00 | 00:00:00 | 00:00:00 | |
| PETON7-10 | 2026-09-03 12:15:09 | 49.15662 | 17.88432 | 94° | 40km/h | 18739m | 5.7m/s | -53.1°C | 3.4% | 0hPa | 2.6V | 00:00:00 | 01:21:20 | 00:00:00 | |
| HA6NAB-11 | 2026-09-03 12:15:06 | 49.15662 | 17.88401 | 93° | 40km/h | 18730m | 4.3m/s | -53.4°C | 0.9% | 0hPa | 2.6V | 00:00:00 | 00:00:00 | 00:00:00 | |
| PG1ADW-2 | 2026-09-03 12:15:05 | 49.15664 | 17.88371 | 97° | 40km/h | 18721m | 3.5m/s | -53.3°C | 3.4% | 0hPa | 2.6V | 00:00:00 | 01:21:16 | 00:00:00 | |
| HA6NAB-11 | 2026-09-03 12:15:00 | 49.15671 | 17.88320 | 110° | 35km/h | 18703m | 5.5m/s | -53.4°C | 0.9% | 0hPa | 2.6V | 00:00:00 | 00:00:00 | 00:00:00 | |
| HA6NAB-11 | 2026-09-03 12:14:55 | 49.15692 | 17.88248 | 116° | 44km/h | 18679m | 3.4m/s | -53.4°C | 0.9% | 0hPa | 2.6V | 00:00:00 | 00:00:00 | 00:00:00 | |
| PETON7-10 | 2026-09-03 12:14:54 | 49.15700 | 17.88216 | 104° | 42km/h | 18670m | 5.3m/s | -53.4°C | 3.4% | 0hPa | 2.6V | 00:00:00 | 00:00:00 | 08:30:00 | |
| DO3MHA-11 | 2026-09-03 12:14:52 | 49.15702 | 17.88182 | 88° | 42km/h | 18660m | 4.1m/s | -53.4°C | 3.4% | 0hPa | 2.6V | 00:00:00 | 01:21:03 | 00:00:00 | |
| OE5DRO-10 | 2026-09-03 12:14:51 | 49.15701 | 17.88167 | 86° | 42km/h | 18656m | 4.8m/s | -53.5°C | 3.4% | 0hPa | 2.6V | 00:00:00 | 00:00:00 | 00:00:00 | |
| HA6NAB-11 | 2026-09-03 12:14:49 | 49.15701 | 17.88153 | 87° | 37km/h | 18651m | 5.2m/s | -53.5°C | 0.9% | 0hPa | 2.6V | 00:00:00 | 00:00:00 | 00:00:00 | |
| PG1ADW-2 | 2026-09-03 12:14:45 | 49.15703 | 17.88077 | 96° | 44km/h | 18629m | 4.6m/s | -53.4°C | 3.4% | 0hPa | 2.6V | 00:00:00 | 00:00:00 | 00:00:00 | |
| HA6NAB-11 | 2026-09-03 12:14:44 | 49.15703 | 17.88077 | 96° | 46km/h | 18629m | 4.7m/s | -53.4°C | 0.9% | 0hPa | 2.6V | 00:00:00 | 00:00:00 | 00:00:00 | |
| DO3MHA-11 | 2026-09-03 12:14:42 | 49.15707 | 17.88024 | 98° | 44km/h | 18615m | 5.5m/s | -53.3°C | 3.4% | 0hPa | 2.6V | 00:00:00 | 01:20:53 | 00:00:00 | |
| OE5DXL-15 | 2026-09-03 12:14:41 | 49.15708 | 17.88008 | 98° | 46km/h | 18610m | 4.5m/s | -53.3°C | 3.4% | 0hPa | 2.6V | 00:00:00 | 00:00:00 | 00:00:00 | |
| PETON7-10 | 2026-09-03 12:14:39 | 49.15710 | 17.87975 | 94° | 46km/h | 18601m | 5.4m/s | -53.4°C | 3.4% | 0hPa | 2.6V | 00:00:00 | 00:00:00 | 00:00:00 | |
| OE3OSB-13 | 2026-09-03 12:14:38 | 49.15711 | 17.87958 | 90° | 44km/h | 18596m | 4.6m/s | -53.5°C | 0.7% | -1.0hPa | 2.6V | 00:00:00 | 00:00:00 | 00:00:00 | |
| HA6NAB-11 | 2026-09-03 12:14:33 | 49.15710 | 17.87874 | 89° | 46km/h | 18572m | 5.9m/s | -53.9°C | 0.9% | 0hPa | 2.6V | 00:00:00 | 00:00:00 | 00:00:00 | |
| DO3MHA-11 | 2026-09-03 12:14:32 | 49.15710 | 17.87856 | 88° | 46km/h | 18567m | 4.4m/s | -53.9°C | 3.5% | 0hPa | 2.6V | 00:00:00 | 01:20:43 | 08:30:00 | |
| S52SK | 2026-09-03 12:14:29 | 49.15709 | 17.87821 | 91° | 46km/h | 18558m | 5.4m/s | -54.0°C | 0.9% | 0hPa | 2.7V | 00:00:00 | 00:00:00 | 00:00:00 | |
| PG1ADW-2 | 2026-09-03 12:14:25 | 49.15710 | 17.87734 | 89° | 46km/h | 18536m | 4.2m/s | -53.9°C | 3.5% | 0hPa | 2.7V | 00:00:00 | 00:00:00 | 00:00:00 | |
| PETON7-10 | 2026-09-03 12:14:24 | 49.15710 | 17.87715 | 90° | 46km/h | 18532m | 3.6m/s | -54.0°C | 3.5% | 0hPa | 2.7V | 00:00:00 | 01:20:35 | 00:00:00 | |
| S52SK | 2026-09-03 12:14:23 | 49.15710 | 17.87715 | 90° | 49km/h | 18532m | 3.6m/s | -54.0°C | 0.9% | 0hPa | 2.7V | 00:00:00 | 00:00:00 | 00:00:00 | |
| DO3MHA-11 | 2026-09-03 12:14:22 | 49.15710 | 17.87679 | 94° | 47km/h | 18522m | 4.8m/s | -54.0°C | 3.5% | 0hPa | 2.7V | 00:00:00 | 01:20:33 | 00:00:00 | |
| OE5DRO-10 | 2026-09-03 12:14:13 | 49.15708 | 17.87514 | 82° | 38km/h | 18481m | 5.6m/s | -53.9°C | 3.6% | 0hPa | 2.7V | 00:00:00 | 00:00:00 | 08:30:00 | |
| DO3MHA-11 | 2026-09-03 12:14:12 | 49.15706 | 17.87497 | 79° | 40km/h | 18476m | 4.2m/s | -53.9°C | 3.6% | 0hPa | 2.6V | 00:00:00 | 01:20:23 | 00:00:00 | |
| OE5DXL-15 | 2026-09-03 12:14:11 | 49.15704 | 17.87481 | 79° | 37km/h | 18472m | 4.0m/s | -53.9°C | 3.6% | 0hPa | 2.6V | 00:00:00 | 00:00:00 | 00:00:00 | |
| PETON7-10 | 2026-09-03 12:14:09 | 49.15701 | 17.87451 | 85° | 38km/h | 18462m | 4.7m/s | -53.8°C | 3.6% | 0hPa | 2.7V | 00:00:00 | 00:00:00 | 00:00:00 | |
| OE3OSB-13 | 2026-09-03 12:14:07 | 49.15699 | 17.87422 | 84° | 38km/h | 18453m | 4.7m/s | -53.8°C | 0.8% | -1.0hPa | 2.7V | 00:00:00 | 00:00:00 | 00:00:00 | |
| PG1ADW-2 | 2026-09-03 12:14:05 | 49.15697 | 17.87390 | 80° | 37km/h | 18444m | 3.8m/s | -53.7°C | 3.5% | 0hPa | 2.7V | 00:00:00 | 00:00:00 | 00:00:00 | |
| DO3MHA-11 | 2026-09-03 12:14:02 | 49.15691 | 17.87344 | 81° | 37km/h | 18429m | 4.7m/s | -53.5°C | 3.4% | 0hPa | 2.7V | 00:00:00 | 01:20:13 | 00:00:00 | |
| PETON7-10 | 2026-09-03 12:13:54 | 49.15688 | 17.87231 | 90° | 35km/h | 18391m | 5.7m/s | -53.2°C | 3.4% | 0hPa | 2.7V | 00:00:00 | 00:00:00 | 00:00:00 | |
| DO3MHA-11 | 2026-09-03 12:13:52 | 49.15686 | 17.87202 | 79° | 35km/h | 18382m | 3.8m/s | -53.3°C | 3.4% | 0hPa | 2.7V | 00:00:00 | 01:20:03 | 00:00:00 | |
| PG1ADW-2 | 2026-09-03 12:13:45 | 49.15674 | 17.87110 | 93° | 31km/h | 18349m | 5.5m/s | -53.3°C | 3.4% | 0hPa | 2.7V | 00:00:00 | 01:19:56 | 00:00:00 | |
| DO3MHA-11 | 2026-09-03 12:13:42 | 49.15677 | 17.87071 | 100° | 31km/h | 18333m | 5.1m/s | -53.2°C | 3.4% | 0hPa | 2.7V | 00:00:00 | 01:19:53 | 00:00:00 | |
| OE5DXL-15 | 2026-09-03 12:13:41 | 49.15679 | 17.87058 | 96° | 29km/h | 18328m | 5.7m/s | -53.2°C | 3.4% | 0hPa | 2.7V | 00:00:00 | 00:00:00 | 00:00:00 | |
| PETON7-10 | 2026-09-03 12:13:39 | 49.15679 | 17.87032 | 88° | 29km/h | 18318m | 5.2m/s | -53.2°C | 3.4% | 0hPa | 2.7V | 00:00:00 | 01:19:50 | 00:00:00 | |
| OE3OSB-13 | 2026-09-03 12:13:36 | 49.15676 | 17.86998 | 77° | 29km/h | 18300m | 6.1m/s | -53.3°C | 0.7% | -1.0hPa | 2.7V | 00:00:00 | 00:00:00 | 00:00:00 | |
| OE5DRO-10 | 2026-09-03 12:13:35 | 49.15675 | 17.86986 | 77° | 27km/h | 18295m | 5.9m/s | -53.1°C | 3.4% | 0hPa | 2.7V | 00:00:00 | 00:00:00 | 00:00:00 | |
| DO3MHA-11 | 2026-09-03 12:13:32 | 49.15671 | 17.86953 | 92° | 27km/h | 18279m | 5.1m/s | -53.0°C | 3.4% | 0hPa | 2.7V | 00:00:00 | 01:19:43 | 00:00:00 | |
| PG1ADW-2 | 2026-09-03 12:13:25 | 49.15676 | 17.86873 | 90° | 27km/h | 18244m | 4.7m/s | -52.8°C | 3.4% | 0hPa | 2.7V | 00:00:00 | 00:00:00 | 00:00:00 | |
| PETON7-10 | 2026-09-03 12:13:24 | 49.15675 | 17.86865 | 85° | 27km/h | 18239m | 3.7m/s | -52.7°C | 3.4% | 0hPa | 2.6V | 00:00:00 | 00:00:00 | 00:00:00 | |
| DO3MHA-11 | 2026-09-03 12:13:22 | 49.15674 | 17.86847 | 82° | 27km/h | 18229m | 5.0m/s | -52.7°C | 3.4% | 0hPa | 2.6V | 00:00:00 | 01:19:33 | 00:00:00 | |
| HA6NAB-11 | 2026-09-03 12:13:18 | 49.15672 | 17.86818 | 91° | 26km/h | 18216m | 5.5m/s | -52.8°C | 0.9% | 0hPa | 2.6V | 00:00:00 | 00:00:00 | 00:00:00 | |
| OE5DRO-10 | 2026-09-03 12:13:16 | 49.15673 | 17.86788 | 93° | 29km/h | 18201m | 5.3m/s | -52.8°C | 3.3% | 0hPa | 2.6V | 00:00:00 | 00:00:00 | 00:00:00 | |
| DO3MHA-11 | 2026-09-03 12:13:12 | 49.15672 | 17.86742 | 89° | 29km/h | 18180m | 5.0m/s | -52.7°C | 3.3% | 0hPa | 2.6V | 00:00:00 | 01:19:23 | 00:00:00 | |
| OE5DXL-15 | 2026-09-03 12:13:11 | 49.15672 | 17.86731 | 90° | 29km/h | 18176m | 3.6m/s | -52.7°C | 3.3% | 0hPa | 2.6V | 00:00:00 | 00:00:00 | 00:00:00 | |
| PETON7-10 | 2026-09-03 12:13:09 | 49.15672 | 17.86707 | 94° | 29km/h | 18166m | 5.2m/s | -52.7°C | 3.3% | 0hPa | 2.6V | 00:00:00 | 00:00:00 | 00:00:00 | |
| HA6NAB-11 | 2026-09-03 12:13:07 | 49.15674 | 17.86683 | 99° | 29km/h | 18156m | 6.0m/s | -52.9°C | 0.9% | 0hPa | 2.6V | 00:00:00 | 00:00:00 | 00:00:00 | |
| PG1ADW-2 | 2026-09-03 12:13:05 | 49.15677 | 17.86662 | 104° | 29km/h | 18146m | 4.3m/s | -52.8°C | 3.4% | 0hPa | 2.6V | 00:00:00 | 00:00:00 | 00:00:00 | |
| DO3MHA-11 | 2026-09-03 12:13:02 | 49.15683 | 17.86630 | 110° | 29km/h | 18130m | 4.8m/s | -52.7°C | 3.3% | 0hPa | 2.6V | 00:00:00 | 01:19:13 | 08:30:00 | |
| S52SK | 2026-09-03 12:12:57 | 49.15697 | 17.86577 | 107° | 33km/h | 18104m | 4.1m/s | -52.6°C | 0.9% | 0hPa | 2.6V | 00:00:00 | 00:00:00 | 00:00:00 | |
| PETON7-10 | 2026-09-03 12:12:54 | 49.15701 | 17.86543 | 91° | 27km/h | 18089m | 5.0m/s | -52.4°C | 3.2% | 0hPa | 2.6V | 00:00:00 | 01:19:05 | 00:00:00 | |
| DO3MHA-11 | 2026-09-03 12:12:52 | 49.15700 | 17.86522 | 87° | 27km/h | 18079m | 5.8m/s | -52.4°C | 3.2% | 0hPa | 2.6V | 00:00:00 | 01:19:03 | 00:00:00 | |
| PG1ADW-2 | 2026-09-03 12:12:45 | 49.15706 | 17.86449 | 112° | 27km/h | 18043m | 4.7m/s | -52.4°C | 3.2% | 0hPa | 2.6V | 00:00:00 | 00:00:00 | 00:00:00 | |
| DO3MHA-11 | 2026-09-03 12:12:42 | 49.15715 | 17.86418 | 110° | 26km/h | 18028m | 5.2m/s | -52.8°C | 3.3% | 0hPa | 2.6V | 00:00:00 | 01:18:53 | 00:00:00 | |
| OE5DXL-15 | 2026-09-03 12:12:41 | 49.15717 | 17.86409 | 105° | 29km/h | 18023m | 4.7m/s | -52.9°C | 3.3% | 0hPa | 2.6V | 00:00:00 | 00:00:00 | 08:30:00 | |
| PETON7-10 | 2026-09-03 12:12:39 | 49.15718 | 17.86390 | 93° | 26km/h | 18012m | 4.4m/s | -53.1°C | 3.3% | 0hPa | 2.6V | 00:00:00 | 00:00:00 | 08:30:00 | |
| OE5DRO-10 | 2026-09-03 12:12:38 | 49.15719 | 17.86380 | 91° | 27km/h | 18007m | 4.5m/s | -53.1°C | 3.4% | 0hPa | 2.7V | 00:00:00 | 00:00:00 | 00:00:00 | |
| OE3OSB-13 | 2026-09-03 12:12:34 | 49.15721 | 17.86344 | 103° | 26km/h | 17986m | 5.9m/s | -53.1°C | 0.8% | -1.0hPa | 2.7V | 00:00:00 | 00:00:00 | 00:00:00 | |
| DO3MHA-11 | 2026-09-03 12:12:32 | 49.15725 | 17.86323 | 113° | 27km/h | 17976m | 4.3m/s | -53.0°C | 3.4% | 0hPa | 2.7V | 00:00:00 | 01:18:43 | 00:00:00 | |
| PG1ADW-2 | 2026-09-03 12:12:25 | 49.15745 | 17.86255 | 120° | 33km/h | 17941m | 5.7m/s | -53.2°C | 3.4% | 0hPa | 2.6V | 00:00:00 | 01:18:36 | 08:30:00 | |
| PETON7-10 | 2026-09-03 12:12:24 | 49.15747 | 17.86248 | 122° | 33km/h | 17936m | 4.8m/s | -53.2°C | 3.4% | 0hPa | 2.7V | 00:00:00 | 00:00:00 | 00:00:00 | |
| DO3MHA-11 | 2026-09-03 12:12:22 | 49.15754 | 17.86231 | 120° | 35km/h | 17924m | 5.3m/s | -53.2°C | 3.4% | 0hPa | 2.7V | 00:00:00 | 01:18:33 | 00:00:00 | |
| OE5DRO-10 | 2026-09-03 12:12:19 | 49.15767 | 17.86202 | 128° | 38km/h | 17908m | 5.0m/s | -53.3°C | 3.4% | 0hPa | 2.7V | 00:00:00 | 00:00:00 | 00:00:00 | |
| DO3MHA-11 | 2026-09-03 12:12:12 | 49.15802 | 17.86122 | 128° | 37km/h | 17873m | 3.9m/s | -53.4°C | 3.4% | 0hPa | 2.7V | 00:00:00 | 01:18:23 | 00:00:00 | |
| OE5DXL-15 | 2026-09-03 12:12:11 | 49.15807 | 17.86112 | 127° | 40km/h | 17868m | 5.8m/s | -53.4°C | 3.4% | 0hPa | 2.7V | 00:00:00 | 00:00:00 | 00:00:00 | |
| PETON7-10 | 2026-09-03 12:12:09 | 49.15818 | 17.86092 | 133° | 40km/h | 17858m | 4.5m/s | -53.3°C | 3.5% | 0hPa | 2.7V | 00:00:00 | 01:18:20 | 00:00:00 | |
| PG1ADW-2 | 2026-09-03 12:12:05 | 49.15846 | 17.86053 | 137° | 42km/h | 17838m | 5.7m/s | -53.3°C | 3.5% | 0hPa | 2.7V | 00:00:00 | 00:00:00 | 00:00:00 | |
| OE3OSB-13 | 2026-09-03 12:12:03 | 49.15869 | 17.86016 | 133° | 46km/h | 17821m | 6.1m/s | -53.4°C | 0.8% | -1.0hPa | 2.7V | 00:00:00 | 00:00:00 | 00:00:00 | |
| DO3MHA-11 | 2026-09-03 12:12:02 | 49.15869 | 17.86016 | 134° | 40km/h | 17822m | 6.0m/s | -53.3°C | 3.4% | 0hPa | 2.7V | 00:00:00 | 01:18:13 | 00:00:00 | |
| OE5DRO-10 | 2026-09-03 12:12:00 | 49.15885 | 17.85990 | 134° | 42km/h | 17812m | 4.2m/s | -53.3°C | 3.5% | 0hPa | 2.7V | 00:00:00 | 00:00:00 | 00:00:00 | |
| PETON7-10 | 2026-09-03 12:11:54 | 49.15926 | 17.85923 | 137° | 42km/h | 17781m | 4.4m/s | -53.2°C | 3.4% | 0hPa | 2.7V | 00:00:00 | 00:00:00 | 00:00:00 | |
| DO3MHA-11 | 2026-09-03 12:11:50 | 49.15953 | 17.85880 | 134° | 37km/h | 17761m | 5.8m/s | -53.1°C | 3.4% | 0hPa | 2.7V | 00:00:00 | 01:18:01 | 00:00:00 | |
| HA6NAB-11 | 2026-09-03 12:11:48 | 49.15960 | 17.85868 | 133° | 42km/h | 17756m | 4.3m/s | -53.2°C | 0.9% | 0hPa | 2.7V | 00:00:00 | 00:00:00 | 00:00:00 | |
| PG1ADW-2 | 2026-09-03 12:11:45 | 49.15988 | 17.85815 | 129° | 38km/h | 17735m | 5.7m/s | -53.1°C | 3.4% | 0hPa | 2.7V | 00:00:00 | 00:00:00 | 00:00:00 | |
| HA6NAB-11 | 2026-09-03 12:11:41 | 49.16015 | 17.85765 | 123° | 38km/h | 17714m | 5.2m/s | -53.1°C | 0.9% | 0hPa | 2.7V | 00:00:00 | 00:00:00 | 00:00:00 | |
| PETON7-10 | 2026-09-03 12:11:39 | 49.16025 | 17.85740 | 125° | 37km/h | 17704m | 5.7m/s | -53.1°C | 3.5% | 0hPa | 2.7V | 00:00:00 | 00:00:00 | 00:00:00 | |
| HA6NAB-11 | 2026-09-03 12:11:35 | 49.16042 | 17.85704 | 127° | 38km/h | 17689m | 5.5m/s | -53.2°C | 0.9% | 0hPa | 2.7V | 00:00:00 | 00:00:00 | 00:00:00 | |
| OE3OSB-13 | 2026-09-03 12:11:32 | 49.16071 | 17.85640 | 127° | 38km/h | 17664m | 4.6m/s | -53.2°C | 0.8% | -1.0hPa | 2.7V | 00:00:00 | 00:00:00 | 00:00:00 | |
| S52SK | 2026-09-03 12:11:30 | 49.16071 | 17.85640 | 128° | 38km/h | 17664m | 4.6m/s | -53.2°C | 0.9% | 0hPa | 2.7V | 00:00:00 | 00:00:00 | 00:00:00 | |
| HA6NAB-11 | 2026-09-03 12:11:28 | 49.16082 | 17.85617 | 122° | 35km/h | 17653m | 5.6m/s | -53.1°C | 0.9% | 0hPa | 2.7V | 00:00:00 | 00:00:00 | 00:00:00 | |
| PG1ADW-2 | 2026-09-03 12:11:25 | 49.16098 | 17.85573 | 117° | 31km/h | 17633m | 3.9m/s | -53.0°C | 3.5% | 0hPa | 2.7V | 00:00:00 | 00:00:00 | 00:00:00 | |
| PETON7-10 | 2026-09-03 12:11:24 | 49.16101 | 17.85562 | 112° | 31km/h | 17628m | 5.5m/s | -53.0°C | 3.5% | 0hPa | 2.6V | 00:00:00 | 01:17:35 | 00:00:00 | |
| OE5DRO-10 | 2026-09-03 12:11:22 | 49.16106 | 17.85540 | 110° | 31km/h | 17619m | 4.2m/s | -52.9°C | 3.5% | 0hPa | 2.6V | 00:00:00 | 00:00:00 | 08:30:00 | |
| HA6NAB-11 | 2026-09-03 12:11:17 | 49.16121 | 17.85492 | 115° | 35km/h | 17599m | 5.7m/s | -52.9°C | 0.9% | 0hPa | 2.7V | 00:00:00 | 00:00:00 | 00:00:00 | |
| HA6NAB-11 | 2026-09-03 12:11:12 | 49.16142 | 17.85432 | 127° | 26km/h | 17568m | 5.7m/s | -52.9°C | 0.9% | 0hPa | 2.7V | 00:00:00 | 00:00:00 | 00:00:00 | |
| OE5DXL-15 | 2026-09-03 12:11:11 | 49.16145 | 17.85424 | 121° | 31km/h | 17563m | 5.0m/s | -52.8°C | 3.3% | 0hPa | 2.7V | 00:00:00 | 00:00:00 | 00:00:00 | |
| PETON7-10 | 2026-09-03 12:11:09 | 49.16152 | 17.85407 | 124° | 29km/h | 17555m | 4.4m/s | -52.9°C | 3.3% | 0hPa | 2.7V | 00:00:00 | 00:00:00 | 00:00:00 | |
| PG1ADW-2 | 2026-09-03 12:11:05 | 49.16168 | 17.85366 | 113° | 31km/h | 17535m | 5.0m/s | -53.1°C | 3.5% | 0hPa | 2.7V | 00:00:00 | 01:17:16 | 00:00:00 | |
| OE5DRO-10 | 2026-09-03 12:11:03 | 49.16174 | 17.85342 | 113° | 31km/h | 17525m | 4.1m/s | -53.1°C | 3.5% | 0hPa | 2.7V | 00:00:00 | 00:00:00 | 00:00:00 | |
| OE3OSB-13 | 2026-09-03 12:11:01 | 49.16186 | 17.85310 | 124° | 31km/h | 17511m | 4.2m/s | -53.2°C | 0.9% | -1.0hPa | 2.7V | 00:00:00 | 00:00:00 | 00:00:00 | |
| HA6NAB-11 | 2026-09-03 12:11:00 | 49.16181 | 17.85321 | 124° | 31km/h | 17516m | 4.3m/s | -53.1°C | 1.0% | 0hPa | 2.7V | 00:00:00 | 00:00:00 | 00:00:00 | |
| PETON7-10 | 2026-09-03 12:10:54 | 49.16207 | 17.85256 | 119° | 33km/h | 17484m | 3.6m/s | -53.1°C | 3.4% | 0hPa | 2.7V | 00:00:00 | 00:00:00 | 00:00:00 | |
| DO3MHA-11 | 2026-09-03 12:10:51 | 49.16216 | 17.85227 | 115° | 37km/h | 17469m | 4.4m/s | -53.0°C | 3.4% | 0hPa | 2.7V | 00:00:00 | 01:17:02 | 00:00:00 | |
| HA6NAB-11 | 2026-09-03 12:10:49 | 49.16219 | 17.85216 | 119° | 35km/h | 17464m | 4.9m/s | -53.1°C | 1.0% | 0hPa | 2.7V | 00:00:00 | 00:00:00 | 00:00:00 | |
| PG1ADW-2 | 2026-09-03 12:10:45 | 49.16244 | 17.85165 | 124° | 38km/h | 17439m | 5.8m/s | -53.0°C | 3.3% | 0hPa | 2.7V | 00:00:00 | 00:00:00 | 00:00:00 | |
| OE5DRO-10 | 2026-09-03 12:10:44 | 49.16249 | 17.85153 | 120° | 38km/h | 17433m | 4.5m/s | -53.0°C | 3.3% | 0hPa | 2.7V | 00:00:00 | 00:00:00 | 00:00:00 | |
| HA6NAB-11 | 2026-09-03 12:10:43 | 49.16249 | 17.85153 | 121° | 37km/h | 17433m | 4.5m/s | -53.1°C | 1.0% | 0hPa | 2.7V | 00:00:00 | 00:00:00 | 00:00:00 | |
| OE5DXL-15 | 2026-09-03 12:10:41 | 49.16263 | 17.85117 | 123° | 42km/h | 17418m | 3.7m/s | -53.2°C | 3.4% | 0hPa | 2.7V | 00:00:00 | 00:00:00 | 00:00:00 | |
| PETON7-10 | 2026-09-03 12:10:39 | 49.16273 | 17.85090 | 121° | 38km/h | 17409m | 5.1m/s | -53.2°C | 3.4% | 0hPa | 2.7V | 00:00:00 | 01:16:50 | 00:00:00 | |
| DO3MHA-11 | 2026-09-03 12:10:38 | 49.16279 | 17.85076 | 122° | 37km/h | 17404m | 3.9m/s | -53.3°C | 3.4% | 0hPa | 2.7V | 00:00:00 | 01:16:49 | 08:30:00 | |
| OE3OSB-13 | 2026-09-03 12:10:29 | 49.16327 | 17.84971 | 123° | 35km/h | 17363m | 3.3m/s | -53.8°C | 0.9% | -1.0hPa | 2.7V | 00:00:00 | 00:00:00 | 00:00:00 | |
| DO3MHA-11 | 2026-09-03 12:10:28 | 49.16332 | 17.84959 | 123° | 46km/h | 17359m | 5.5m/s | -53.8°C | 3.6% | 0hPa | 2.7V | 00:00:00 | 01:16:39 | 00:00:00 | |
| PG1ADW-2 | 2026-09-03 12:10:25 | 49.16349 | 17.84915 | 120° | 42km/h | 17344m | 5.2m/s | -53.9°C | 3.6% | 0hPa | 2.7V | 00:00:00 | 00:00:00 | 00:00:00 | |
| PETON7-10 | 2026-09-03 12:10:24 | 49.16355 | 17.84901 | 121° | 42km/h | 17339m | 4.7m/s | -54.0°C | 3.6% | 0hPa | 2.6V | 00:00:00 | 00:00:00 | 08:30:00 | |
| DO3MHA-11 | 2026-09-03 12:10:18 | 49.16386 | 17.84807 | 119° | 40km/h | 17312m | 4.9m/s | -54.3°C | 3.7% | 0hPa | 2.7V | 00:00:00 | 01:16:29 | 00:00:00 | |
| S52SK | 2026-09-03 12:10:15 | 49.16402 | 17.84764 | 118° | 42km/h | 17297m | 5.0m/s | -54.3°C | 1.1% | 0hPa | 2.7V | 00:00:00 | 00:00:00 | 00:00:00 | |
| OE5DXL-15 | 2026-09-03 12:10:11 | 49.16420 | 17.84709 | 115° | 42km/h | 17279m | 3.9m/s | -54.2°C | 3.7% | 0hPa | 2.7V | 00:00:00 | 00:00:00 | 00:00:00 | |
| PETON7-10 | 2026-09-03 12:10:09 | 49.16427 | 17.84680 | 113° | 40km/h | 17269m | 3.9m/s | -54.1°C | 3.7% | 0hPa | 2.7V | 00:00:00 | 00:00:00 | 00:00:00 | |
| S52SK | 2026-09-03 12:10:08 | 49.16427 | 17.84680 | 114° | 42km/h | 17269m | 4.0m/s | -54.1°C | 1.1% | 0hPa | 2.7V | 00:00:00 | 00:00:00 | 00:00:00 | |
| OE5DRO-10 | 2026-09-03 12:10:06 | 49.16440 | 17.84639 | 119° | 40km/h | 17255m | 3.8m/s | -54.0°C | 3.7% | 0hPa | 2.7V | 00:00:00 | 00:00:00 | 00:00:00 | |
| PG1ADW-2 | 2026-09-03 12:10:05 | 49.16445 | 17.84626 | 120° | 42km/h | 17251m | 4.4m/s | -54.1°C | 3.7% | 0hPa | 2.7V | 00:00:00 | 00:00:00 | 00:00:00 | |
| OE3OSB-13 | 2026-09-03 12:09:59 | 49.16482 | 17.84537 | 123° | 38km/h | 17219m | 5.1m/s | -54.1°C | 0.9% | -1.0hPa | 2.7V | 00:00:00 | 00:00:00 | 00:00:00 | |
| DO3MHA-11 | 2026-09-03 12:09:55 | 49.16499 | 17.84498 | 127° | 44km/h | 17206m | 4.7m/s | -54.0°C | 3.7% | 0hPa | 2.7V | 00:00:00 | 01:16:06 | 00:00:00 | |
| PETON7-10 | 2026-09-03 12:09:54 | 49.16506 | 17.84486 | 133° | 44km/h | 17201m | 4.1m/s | -54.0°C | 3.7% | 0hPa | 2.7V | 00:00:00 | 01:16:05 | 00:00:00 | |
| OE5DRO-10 | 2026-09-03 12:09:48 | 49.16556 | 17.84399 | 127° | 44km/h | 17171m | 3.8m/s | -53.8°C | 3.6% | 0hPa | 2.7V | 00:00:00 | 00:00:00 | 00:00:00 | |
| PG1ADW-2 | 2026-09-03 12:09:45 | 49.16569 | 17.84369 | 122° | 46km/h | 17161m | 5.0m/s | -53.8°C | 3.6% | 0hPa | 2.7V | 00:00:00 | 01:15:56 | 00:00:00 | |
| OE5DXL-15 | 2026-09-03 12:09:41 | 49.16592 | 17.84308 | 121° | 49km/h | 17142m | 3.9m/s | -53.8°C | 3.5% | 0hPa | 2.7V | 00:00:00 | 00:00:00 | 00:00:00 | |
| PETON7-10 | 2026-09-03 12:09:39 | 49.16603 | 17.84278 | 119° | 46km/h | 17133m | 3.7m/s | -53.9°C | 3.5% | 0hPa | 2.7V | 00:00:00 | 00:00:00 | 00:00:00 | |
| DO3MHA-11 | 2026-09-03 12:09:35 | 49.16627 | 17.84224 | 128° | 47km/h | 17116m | 3.7m/s | -54.0°C | 3.6% | 0hPa | 2.7V | 00:00:00 | 01:15:46 | 00:00:00 | |
| HA6NAB-11 | 2026-09-03 12:09:34 | 49.16627 | 17.84224 | 128° | 38km/h | 17116m | 3.7m/s | -54.1°C | 1.0% | 0hPa | 2.7V | 00:00:00 | 00:00:00 | 00:00:00 | |
| OE5DRO-10 | 2026-09-03 12:09:28 | 49.16676 | 17.84131 | 132° | 55km/h | 17084m | 5.2m/s | -54.3°C | 3.7% | 0hPa | 2.7V | 00:00:00 | 00:00:00 | 00:00:00 | |
| OE3OSB-13 | 2026-09-03 12:09:27 | 49.16685 | 17.84116 | 130° | 55km/h | 17079m | 5.1m/s | -54.3°C | 1.0% | -1.0hPa | 2.7V | 00:00:00 | 00:00:00 | 00:00:00 | |
| PG1ADW-2 | 2026-09-03 12:09:25 | 49.16703 | 17.84082 | 131° | 53km/h | 17070m | 5.7m/s | -54.4°C | 3.7% | 0hPa | 2.7V | 00:00:00 | 00:00:00 | 08:30:00 | |
| PETON7-10 | 2026-09-03 12:09:24 | 49.16712 | 17.84066 | 132° | 53km/h | 17065m | 4.0m/s | -54.4°C | 3.7% | 0hPa | 2.7V | 00:00:00 | 00:00:00 | 00:00:00 | |
| HA6NAB-11 | 2026-09-03 12:09:22 | 49.16721 | 17.84050 | 133° | 55km/h | 17061m | 3.2m/s | -54.5°C | 1.1% | 0hPa | 2.7V | 00:00:00 | 00:00:00 | 00:00:00 | |
| HA6NAB-11 | 2026-09-03 12:09:17 | 49.16772 | 17.83959 | 129° | 49km/h | 17033m | 4.7m/s | -54.6°C | 1.1% | 0hPa | 2.7V | 00:00:00 | 00:00:00 | 00:00:00 | |
| DO3MHA-11 | 2026-09-03 12:09:15 | 49.16786 | 17.83927 | 122° | 55km/h | 17023m | 3.6m/s | -54.6°C | 3.8% | 0hPa | 2.7V | 00:00:00 | 01:15:26 | 00:00:00 | |
| HA6NAB-11 | 2026-09-03 12:09:11 | 49.16817 | 17.83854 | 125° | 57km/h | 17006m | 4.1m/s | -54.7°C | 1.2% | 0hPa | 2.7V | 00:00:00 | 00:00:00 | 00:00:00 | |
| PETON7-10 | 2026-09-03 12:09:09 | 49.16832 | 17.83817 | 118° | 53km/h | 16996m | 4.7m/s | -54.7°C | 3.8% | 0hPa | 2.7V | 00:00:00 | 01:15:20 | 00:00:00 | |
| HA6NAB-11 | 2026-09-03 12:09:06 | 49.16849 | 17.83764 | 120° | 47km/h | 16983m | 4.8m/s | -54.7°C | 1.1% | 0hPa | 2.7V | 00:00:00 | 00:00:00 | 00:00:00 | |
| DO3MHA-11 | 2026-09-03 12:09:05 | 49.16855 | 17.83748 | 120° | 53km/h | 16979m | 3.5m/s | -54.7°C | 3.8% | 0hPa | 2.7V | 00:00:00 | 01:15:16 | 00:00:00 | |
| OE3OSB-13 | 2026-09-03 12:08:56 | 49.16912 | 17.83585 | 115° | 53km/h | 16936m | 4.0m/s | -54.4°C | 1.0% | -1.0hPa | 2.7V | 00:00:00 | 00:00:00 | 00:00:00 | |
| DO3MHA-11 | 2026-09-03 12:08:55 | 49.16918 | 17.83567 | 116° | 53km/h | 16931m | 5.4m/s | -54.4°C | 3.7% | 0hPa | 2.7V | 00:00:00 | 01:15:06 | 08:30:00 | |
| HA6NAB-11 | 2026-09-03 12:08:54 | 49.16923 | 17.83549 | 117° | 49km/h | 16926m | 4.5m/s | -54.4°C | 1.1% | 0hPa | 2.7V | 00:00:00 | 00:00:00 | 00:00:00 | |
| OE5DRO-10 | 2026-09-03 12:08:50 | 49.16943 | 17.83475 | 110° | 55km/h | 16907m | 4.6m/s | -54.3°C | 3.8% | 0hPa | 2.7V | 00:00:00 | 00:00:00 | 00:00:00 | |
| HA6NAB-11 | 2026-09-03 12:08:48 | 49.16948 | 17.83456 | 112° | 53km/h | 16901m | 5.6m/s | -54.3°C | 1.1% | 0hPa | 2.7V | 00:00:00 | 00:00:00 | 00:00:00 | |
| S52SK | 2026-09-03 12:08:47 | 49.16953 | 17.83437 | 111° | 53km/h | 16896m | 4.5m/s | -54.3°C | 1.1% | 0hPa | 2.7V | 00:00:00 | 00:00:00 | 00:00:00 | |
| PG1ADW-2 | 2026-09-03 12:08:45 | 49.16966 | 17.83378 | 110° | 53km/h | 16881m | 4.1m/s | -54.5°C | 3.8% | 0hPa | 2.7V | 00:00:00 | 00:00:00 | 00:00:00 | |
| HA6NAB-11 | 2026-09-03 12:08:42 | 49.16976 | 17.83341 | 116° | 49km/h | 16872m | 5.6m/s | -54.6°C | 1.1% | 0hPa | 2.7V | 00:00:00 | 00:00:00 | 00:00:00 | |
| OE5DXL-15 | 2026-09-03 12:08:41 | 49.16987 | 17.83306 | 118° | 53km/h | 16864m | 3.9m/s | -54.5°C | 3.7% | 0hPa | 2.7V | 00:00:00 | 00:00:00 | 00:00:00 | |
| PETON7-10 | 2026-09-03 12:08:39 | 49.16998 | 17.83268 | 111° | 53km/h | 16854m | 5.1m/s | -54.5°C | 3.7% | 0hPa | 2.7V | 00:00:00 | 00:00:00 | 00:00:00 | |
| HA6NAB-11 | 2026-09-03 12:08:37 | 49.17003 | 17.83246 | 108° | 60km/h | 16848m | 4.7m/s | -54.5°C | 1.1% | 0hPa | 2.7V | 00:00:00 | 00:00:00 | 00:00:00 | |
| DO3MHA-11 | 2026-09-03 12:08:35 | 49.17014 | 17.83180 | 105° | 51km/h | 16834m | 4.8m/s | -54.4°C | 3.7% | 0hPa | 2.7V | 00:00:00 | 01:14:46 | 00:00:00 | |
| OE5DRO-10 | 2026-09-03 12:08:31 | 49.17027 | 17.83097 | 103° | 51km/h | 16814m | 4.9m/s | -54.4°C | 3.8% | 0hPa | 2.7V | 00:00:00 | 00:00:00 | 08:30:00 | |
| HA6NAB-11 | 2026-09-03 12:08:27 | 49.17035 | 17.83043 | 101° | 47km/h | 16799m | 5.4m/s | -54.3°C | 1.1% | 0hPa | 2.7V | 00:00:00 | 00:00:00 | 00:00:00 | |
| PG1ADW-2 | 2026-09-03 12:08:25 | 49.17042 | 17.82988 | 103° | 51km/h | 16785m | 5.6m/s | -54.2°C | 3.7% | 0hPa | 2.7V | 00:00:00 | 01:14:36 | 00:00:00 | |
| PETON7-10 | 2026-09-03 12:08:24 | 49.17045 | 17.82968 | 104° | 51km/h | 16780m | 4.5m/s | -54.1°C | 3.7% | 0hPa | 2.7V | 00:00:00 | 01:14:35 | 00:00:00 | |
| HA6NAB-11 | 2026-09-03 12:08:21 | 49.17051 | 17.82926 | 102° | 60km/h | 16769m | 5.0m/s | -54.2°C | 1.1% | 0hPa | 2.7V | 00:00:00 | 00:00:00 | 00:00:00 | |
| HA6NAB-11 | 2026-09-03 12:08:16 | 49.17064 | 17.82819 | 99° | 51km/h | 16746m | 4.8m/s | -54.0°C | 1.1% | 0hPa | 2.7V | 00:00:00 | 00:00:00 | 00:00:00 | |
| DO3MHA-11 | 2026-09-03 12:08:15 | 49.17068 | 17.82781 | 98° | 49km/h | 16737m | 4.2m/s | -53.9°C | 3.7% | 0hPa | 2.7V | 00:00:00 | 01:14:26 | 00:00:00 | |
| OE5DRO-10 | 2026-09-03 12:08:12 | 49.17073 | 17.82729 | 99° | 47km/h | 16722m | 3.8m/s | -53.8°C | 3.6% | 0hPa | 2.7V | 00:00:00 | 00:00:00 | 00:00:00 | |
| HA6NAB-11 | 2026-09-03 12:08:11 | 49.17074 | 17.82712 | 98° | 47km/h | 16717m | 5.2m/s | -53.8°C | 1.1% | 0hPa | 2.7V | 00:00:00 | 00:00:00 | 00:00:00 | |
| PETON7-10 | 2026-09-03 12:08:09 | 49.17077 | 17.82673 | 100° | 47km/h | 16708m | 4.0m/s | -53.7°C | 3.6% | 0hPa | 2.7V | 00:00:00 | 00:00:00 | 08:30:00 | |
| PG1ADW-2 | 2026-09-03 12:08:05 | 49.17089 | 17.82594 | 103° | 46km/h | 16690m | 3.8m/s | -53.7°C | 3.6% | 0hPa | 2.7V | 00:00:00 | 00:00:00 | 00:00:00 | |
| HA6NAB-11 | 2026-09-03 12:07:59 | 49.17092 | 17.82492 | 96° | 42km/h | 16661m | 4.0m/s | -53.7°C | 1.1% | 0hPa | 2.7V | 00:00:00 | 00:00:00 | 00:00:00 | |
| DO3MHA-11 | 2026-09-03 12:07:55 | 49.17102 | 17.82419 | 109° | 46km/h | 16642m | 4.9m/s | -53.6°C | 3.6% | 0hPa | 2.7V | 00:00:00 | 01:14:06 | 00:00:00 | |
| PETON7-10 | 2026-09-03 12:07:54 | 49.17107 | 17.82401 | 112° | 44km/h | 16637m | 4.9m/s | -53.6°C | 3.6% | 0hPa | 2.7V | 00:00:00 | 00:00:00 | 00:00:00 | |
| OE5DRO-10 | 2026-09-03 12:07:53 | 49.17111 | 17.82383 | 111° | 44km/h | 16632m | 4.9m/s | -53.6°C | 3.6% | 0hPa | 2.7V | 00:00:00 | 00:00:00 | 00:00:00 | |
| PG1ADW-2 | 2026-09-03 12:07:45 | 49.17128 | 17.82251 | 94° | 42km/h | 16595m | 5.6m/s | -53.4°C | 3.6% | 0hPa | 2.7V | 00:00:00 | 00:00:00 | 00:00:00 | |
| OE5DXL-15 | 2026-09-03 12:07:41 | 49.17132 | 17.82188 | 103° | 44km/h | 16576m | 4.8m/s | -53.3°C | 3.6% | 0hPa | 2.7V | 00:00:00 | 00:00:00 | 00:00:00 | |
| PETON7-10 | 2026-09-03 12:07:39 | 49.17136 | 17.82155 | 103° | 44km/h | 16566m | 5.4m/s | -53.4°C | 3.5% | 0hPa | 2.7V | 00:00:00 | 01:13:50 | 00:00:00 | |
| DO3MHA-11 | 2026-09-03 12:07:35 | 49.17147 | 17.82088 | 106° | 42km/h | 16546m | 4.7m/s | -53.5°C | 3.6% | 0hPa | 2.7V | 00:00:00 | 01:13:46 | 00:00:00 | |
| OE5DRO-10 | 2026-09-03 12:07:34 | 49.17149 | 17.82072 | 105° | 44km/h | 16542m | 3.7m/s | -53.5°C | 3.6% | 0hPa | 2.7V | 00:00:00 | 00:00:00 | 00:00:00 | |
| PG1ADW-2 | 2026-09-03 12:07:25 | 49.17179 | 17.81930 | 104° | 46km/h | 16499m | 4.8m/s | -53.5°C | 3.6% | 0hPa | 2.7V | 00:00:00 | 00:00:00 | 00:00:00 | |
| PETON7-10 | 2026-09-03 12:07:24 | 49.17181 | 17.81913 | 105° | 46km/h | 16494m | 5.1m/s | -53.5°C | 3.6% | 0hPa | 2.7V | 00:00:00 | 00:00:00 | 00:00:00 | |
| S52SK | 2026-09-03 12:07:20 | 49.17189 | 17.81864 | 104° | 46km/h | 16478m | 4.9m/s | -53.5°C | 1.1% | 0hPa | 2.7V | 00:00:00 | 00:00:00 | 00:00:00 | |
| DO3MHA-11 | 2026-09-03 12:07:15 | 49.17213 | 17.81767 | 111° | 46km/h | 16451m | 5.1m/s | -53.3°C | 3.5% | 0hPa | 2.7V | 00:00:00 | 01:13:26 | 00:00:00 | |
| OE5DXL-15 | 2026-09-03 12:07:11 | 49.17228 | 17.81698 | 107° | 42km/h | 16432m | 3.9m/s | -53.2°C | 3.5% | 0hPa | 2.7V | 00:00:00 | 00:00:00 | 00:00:00 | |
| PETON7-10 | 2026-09-03 12:07:09 | 49.17234 | 17.81663 | 104° | 42km/h | 16422m | 4.2m/s | -53.3°C | 3.5% | 0hPa | 2.7V | 00:00:00 | 00:00:00 | 00:00:00 | |
| PG1ADW-2 | 2026-09-03 12:07:05 | 49.17245 | 17.81601 | 109° | 40km/h | 16406m | 3.4m/s | -53.4°C | 3.6% | 0hPa | 2.7V | 00:00:00 | 01:13:16 | 00:00:00 | |
| OE3OSB-13 | 2026-09-03 12:06:52 | 49.17277 | 17.81381 | 101° | 38km/h | 16342m | 5.3m/s | -53.4°C | 1.0% | -1.0hPa | 2.7V | 00:00:00 | 00:00:00 | 00:00:00 | |
| PG1ADW-2 | 2026-09-03 12:06:45 | 49.17288 | 17.81294 | 102° | 42km/h | 16315m | 5.3m/s | -53.5°C | 3.6% | 0hPa | 2.7V | 00:00:00 | 00:00:00 | 00:00:00 | |
| OE5DXL-15 | 2026-09-03 12:06:41 | 49.17300 | 17.81227 | 110° | 44km/h | 16298m | 4.7m/s | -53.5°C | 3.6% | 0hPa | 2.7V | 00:00:00 | 00:00:00 | 00:00:00 | |
| PETON7-10 | 2026-09-03 12:06:39 | 49.17308 | 17.81196 | 112° | 42km/h | 16289m | 3.5m/s | -53.5°C | 3.6% | 0hPa | 2.7V | 00:00:00 | 00:00:00 | 00:00:00 | |
| OE3JTB-15 | 2026-09-03 12:06:37 | 49.17336 | 17.81112 | 123° | 53km/h | 16263m | 2.2m/s | -53.4°C | 3.5% | 0hPa | 2.7V | 00:00:00 | 01:12:44 | 00:00:00 | |
| HA6NAB-11 | 2026-09-03 12:06:29 | 49.17354 | 17.81069 | 122° | 46km/h | 16250m | 4.0m/s | -53.7°C | 1.1% | 0hPa | 2.7V | 00:00:00 | 00:00:00 | 00:00:00 | |
| PG1ADW-2 | 2026-09-03 12:06:25 | 49.17384 | 17.81001 | 129° | 49km/h | 16227m | 6.0m/s | -53.8°C | 3.7% | 0hPa | 2.7V | 00:00:00 | 00:00:00 | 08:30:00 | |
| PETON7-10 | 2026-09-03 12:06:24 | 49.17391 | 17.80989 | 133° | 47km/h | 16222m | 4.3m/s | -53.7°C | 3.7% | 0hPa | 2.7V | 00:00:00 | 00:00:00 | 00:00:00 | |
| HA6NAB-11 | 2026-09-03 12:06:23 | 49.17391 | 17.80989 | 133° | 42km/h | 16222m | 4.4m/s | -53.8°C | 1.2% | 0hPa | 2.7V | 00:00:00 | 00:00:00 | 00:00:00 | |
| OE3OSB-13 | 2026-09-03 12:06:22 | 49.17423 | 17.80941 | 137° | 49km/h | 16203m | 5.5m/s | -53.7°C | 1.0% | -1.0hPa | 2.7V | 00:00:00 | 00:00:00 | 00:00:00 | |
| HA6NAB-11 | 2026-09-03 12:06:18 | 49.17442 | 17.80913 | 135° | 51km/h | 16194m | 3.0m/s | -53.6°C | 1.2% | 0hPa | 2.7V | 00:00:00 | 00:00:00 | 00:00:00 | |
| DO3MHA-11 | 2026-09-03 12:06:15 | 49.17467 | 17.80871 | 129° | 51km/h | 16181m | 4.0m/s | -53.6°C | 3.6% | 0hPa | 2.7V | 00:00:00 | 01:12:26 | 00:00:00 | |
| HA6NAB-11 | 2026-09-03 12:06:12 | 49.17481 | 17.80844 | 129° | 47km/h | 16172m | 5.3m/s | -53.6°C | 1.1% | 0hPa | 2.7V | 00:00:00 | 00:00:00 | 00:00:00 | |
| OE5DXL-15 | 2026-09-03 12:06:11 | 49.17497 | 17.80815 | 131° | 57km/h | 16163m | 4.9m/s | -53.6°C | 3.5% | 0hPa | 2.7V | 00:00:00 | 00:00:00 | 00:00:00 | |
| PETON7-10 | 2026-09-03 12:06:09 | 49.17514 | 17.80786 | 134° | 55km/h | 16153m | 3.9m/s | -53.6°C | 3.6% | 0hPa | 2.7V | 00:00:00 | 01:12:20 | 00:00:00 | |
| HA6NAB-11 | 2026-09-03 12:06:06 | 49.17533 | 17.80756 | 137° | 58km/h | 16143m | 4.8m/s | -53.6°C | 1.2% | 0hPa | 2.7V | 00:00:00 | 00:00:00 | 00:00:00 | |
| PG1ADW-2 | 2026-09-03 12:06:05 | 49.17554 | 17.80725 | 137° | 57km/h | 16133m | 5.8m/s | -53.6°C | 3.7% | 0hPa | 2.7V | 00:00:00 | 00:00:00 | 00:00:00 | |
| OE3OSB-13 | 2026-09-03 12:05:50 | 49.17702 | 17.80467 | 131° | 60km/h | 16059m | 2.0m/s | -54.3°C | 1.1% | -1.0hPa | 2.7V | 00:00:00 | 00:00:00 | 00:00:00 | |
| S52SK | 2026-09-03 12:05:49 | 49.17690 | 17.80484 | 138° | 62km/h | 16063m | 5.9m/s | -54.3°C | 1.3% | 0hPa | 2.7V | 00:00:00 | 00:00:00 | 00:00:00 | |
| PG1ADW-2 | 2026-09-03 12:05:45 | 49.17736 | 17.80390 | 119° | 58km/h | 16039m | 5.0m/s | -54.2°C | 3.7% | 0hPa | 2.7V | 00:00:00 | 01:11:56 | 00:00:00 | |
| HA6NAB-11 | 2026-09-03 12:05:44 | 49.17744 | 17.80370 | 121° | 62km/h | 16035m | 4.9m/s | -54.3°C | 1.2% | 0hPa | 2.7V | 00:00:00 | 00:00:00 | 00:00:00 | |
| OE5DXL-15 | 2026-09-03 12:05:41 | 49.17765 | 17.80312 | 118° | 62km/h | 16016m | 4.3m/s | -54.5°C | 3.9% | 0hPa | 2.7V | 00:00:00 | 00:00:00 | 00:00:00 | |
| OE5DRO-10 | 2026-09-03 12:05:40 | 49.17772 | 17.80294 | 120° | 58km/h | 16011m | 7.3m/s | -54.5°C | 3.9% | 0hPa | 2.7V | 00:00:00 | 00:00:00 | 08:30:00 | |
| PETON7-10 | 2026-09-03 12:05:39 | 49.17779 | 17.80276 | 122° | 58km/h | 16005m | 3.9m/s | -54.5°C | 3.9% | 0hPa | 2.7V | 00:00:00 | 00:00:00 | 00:00:00 | |
| OE5MMP-10 | 2026-09-03 12:05:29 | 49.17863 | 17.80089 | 125° | 58km/h | 15954m | 7.4m/s | 0°C | 0% | 0hPa | 2.7V | 00:00:00 | 01:11:40 | 00:00:00 | |
| PG1ADW-2 | 2026-09-03 12:05:25 | 49.17898 | 17.80016 | 127° | 66km/h | 15931m | 4.4m/s | -54.4°C | 3.9% | 0hPa | 2.7V | 00:00:00 | 00:00:00 | 00:00:00 | |
| PETON7-10 | 2026-09-03 12:05:24 | 49.17906 | 17.79998 | 129° | 66km/h | 15925m | 6.6m/s | -54.5°C | 3.9% | 0hPa | 2.7V | 00:00:00 | 01:11:35 | 00:00:00 | |
| OE5DRO-10 | 2026-09-03 12:05:21 | 49.17936 | 17.79944 | 129° | 68km/h | 15909m | 7.6m/s | -54.5°C | 4.0% | 0hPa | 2.7V | 00:00:00 | 00:00:00 | 00:00:00 | |
| OE3OSB-13 | 2026-09-03 12:05:19 | 49.17965 | 17.79882 | 125° | 69km/h | 15891m | 4.3m/s | -54.5°C | 1.2% | -1.0hPa | 2.7V | 00:00:00 | 00:00:00 | 00:00:00 | |
| OE5DXL-15 | 2026-09-03 12:05:11 | 49.18029 | 17.79720 | 121° | 68km/h | 15852m | 6.4m/s | -54.3°C | 3.8% | 0hPa | 2.7V | 00:00:00 | 00:00:00 | 00:00:00 | |
| PETON7-10 | 2026-09-03 12:05:09 | 49.18046 | 17.79677 | 124° | 68km/h | 15841m | 6.4m/s | -54.3°C | 3.9% | 0hPa | 2.7V | 00:00:00 | 00:00:00 | 00:00:00 | |
| PG1ADW-2 | 2026-09-03 12:05:05 | 49.18081 | 17.79596 | 121° | 68km/h | 15819m | 5.4m/s | -54.3°C | 3.8% | 0hPa | 2.7V | 00:00:00 | 00:00:00 | 00:00:00 | |
| OE3OSB-13 | 2026-09-03 12:04:48 | 49.18217 | 17.79176 | 111° | 75km/h | 15720m | 6.1m/s | -55.3°C | 1.3% | -1.0hPa | 2.7V | 00:00:00 | 00:00:00 | 00:00:00 | |
| PG1ADW-2 | 2026-09-03 12:04:45 | 49.18230 | 17.79121 | 109° | 64km/h | 15707m | 4.3m/s | -55.3°C | 4.2% | 0hPa | 2.7V | 00:00:00 | 00:00:00 | 00:00:00 | |
| OE5DRO-10 | 2026-09-03 12:04:43 | 49.18243 | 17.79067 | 112° | 62km/h | 15696m | 3.3m/s | -55.3°C | 4.2% | 0hPa | 2.7V | 00:00:00 | 00:00:00 | 00:00:00 | |
| OE5DXL-15 | 2026-09-03 12:04:41 | 49.18256 | 17.79017 | 113° | 58km/h | 15685m | 7.2m/s | -55.4°C | 4.2% | 0hPa | 2.7V | 00:00:00 | 00:00:00 | 00:00:00 | |
| PETON7-10 | 2026-09-03 12:04:38 | 49.18274 | 17.78947 | 112° | 60km/h | 15669m | 3.3m/s | -55.3°C | 4.2% | 0hPa | 2.7V | 00:00:00 | 01:10:49 | 00:00:00 | |
| S52SK | 2026-09-03 12:04:30 | 49.18308 | 17.78757 | 105° | 58km/h | 15624m | 4.5m/s | -55.2°C | 1.5% | 0hPa | 2.7V | 00:00:00 | 00:00:00 | 00:00:00 | |
| OE3JTB-15 | 2026-09-03 12:04:28 | 49.18333 | 17.78656 | 113° | 51km/h | 15598m | 7.7m/s | -55.1°C | 4.2% | 0hPa | 2.7V | 00:00:00 | 00:00:00 | 00:00:00 | |
| PG1ADW-2 | 2026-09-03 12:04:25 | 49.18333 | 17.78656 | 113° | 51km/h | 15598m | 7.7m/s | -55.1°C | 4.2% | 0hPa | 2.7V | 00:00:00 | 01:10:36 | 00:00:00 | |
| OE5DRO-10 | 2026-09-03 12:04:24 | 49.18338 | 17.78636 | 111° | 51km/h | 15592m | 3.9m/s | -55.1°C | 4.2% | 0hPa | 2.7V | 00:00:00 | 00:00:00 | 00:00:00 | |
| PETON7-10 | 2026-09-03 12:04:23 | 49.18343 | 17.78618 | 111° | 51km/h | 15587m | 6.2m/s | -55.0°C | 4.2% | 0hPa | 2.7V | 00:00:00 | 00:00:00 | 00:00:00 | |
| S52SK | 2026-09-03 12:04:18 | 49.18361 | 17.78543 | 107° | 49km/h | 15564m | 4.5m/s | -54.9°C | 1.5% | 0hPa | 2.7V | 00:00:00 | 00:00:00 | 00:00:00 | |
| OE3OSB-13 | 2026-09-03 12:04:17 | 49.18372 | 17.78487 | 108° | 51km/h | 15551m | 3.9m/s | -54.8°C | 1.3% | -1.0hPa | 2.7V | 00:00:00 | 00:00:00 | 00:00:00 | |
| OE5DXL-15 | 2026-09-03 12:04:11 | 49.18399 | 17.78393 | 121° | 47km/h | 15519m | 7.6m/s | -54.6°C | 4.1% | 0hPa | 2.7V | 00:00:00 | 00:00:00 | 00:00:00 | |
| PETON7-10 | 2026-09-03 12:04:08 | 49.18421 | 17.78345 | 126° | 49km/h | 15502m | 7.3m/s | -54.4°C | 4.2% | 0hPa | 2.7V | 00:00:00 | 00:00:00 | 00:00:00 | |
| OE5DRO-10 | 2026-09-03 12:04:05 | 49.18440 | 17.78299 | 118° | 49km/h | 15485m | 5.0m/s | -54.2°C | 4.0% | 0hPa | 2.7V | 00:00:00 | 00:00:00 | 00:00:00 | |
| OE3JTB-15 | 2026-09-03 12:03:55 | 49.18510 | 17.78098 | 131° | 53km/h | 15413m | 5.1m/s | -53.9°C | 4.0% | 0hPa | 2.7V | 00:00:00 | 01:10:04 | 00:00:00 | |
| PETON7-10 | 2026-09-03 12:03:53 | 49.18510 | 17.78098 | 131° | 47km/h | 15413m | 5.1m/s | -53.9°C | 4.0% | 0hPa | 2.7V | 00:00:00 | 01:10:04 | 00:00:00 | |
| OE5DRO-10 | 2026-09-03 12:03:46 | 49.18558 | 17.77995 | 118° | 53km/h | 15371m | 5.8m/s | -53.9°C | 3.9% | 0hPa | 2.7V | 00:00:00 | 00:00:00 | 00:00:00 | |
| PG1ADW-2 | 2026-09-03 12:03:45 | 49.18564 | 17.77977 | 119° | 55km/h | 15363m | 9.1m/s | -53.8°C | 3.8% | 0hPa | 2.7V | 00:00:00 | 00:00:00 | 00:00:00 | |
| OE5DXL-15 | 2026-09-03 12:03:41 | 49.18591 | 17.77923 | 136° | 58km/h | 15339m | 6.8m/s | -53.7°C | 3.8% | 0hPa | 2.7V | 00:00:00 | 00:00:00 | 08:30:00 | |
| PETON7-10 | 2026-09-03 12:03:38 | 49.18622 | 17.77880 | 139° | 57km/h | 15320m | 5.3m/s | -53.7°C | 3.9% | 0hPa | 2.7V | 00:00:00 | 00:00:00 | 08:30:00 | |
| OE5DRO-10 | 2026-09-03 12:03:27 | 49.18730 | 17.77704 | 134° | 62km/h | 15257m | 6.9m/s | -54.1°C | 4.1% | 0hPa | 2.7V | 00:00:00 | 00:00:00 | 00:00:00 | |
| PG1ADW-2 | 2026-09-03 12:03:25 | 49.18749 | 17.77672 | 131° | 62km/h | 15248m | 3.7m/s | -54.1°C | 4.0% | 0hPa | 2.7V | 00:00:00 | 00:00:00 | 08:30:00 | |
| OE3JTB-15 | 2026-09-03 12:03:24 | 49.18779 | 17.77620 | 130° | 66km/h | 15229m | 8.0m/s | -54.2°C | 4.1% | 0hPa | 2.7V | 00:00:00 | 00:00:00 | 00:00:00 | |
| OE3OSB-13 | 2026-09-03 12:03:14 | 49.18853 | 17.77462 | 122° | 62km/h | 15181m | 4.0m/s | -54.3°C | 1.4% | -1.0hPa | 2.7V | 00:00:00 | 00:00:00 | 00:00:00 | |
| OE5DXL-15 | 2026-09-03 12:03:11 | 49.18878 | 17.77401 | 120° | 66km/h | 15163m | 4.5m/s | -54.2°C | 4.2% | 0hPa | 2.7V | 00:00:00 | 00:00:00 | 00:00:00 | |
| PETON7-10 | 2026-09-03 12:03:08 | 49.18902 | 17.77337 | 121° | 66km/h | 15146m | 6.9m/s | -54.3°C | 4.2% | 0hPa | 2.7V | 00:00:00 | 01:09:19 | 00:00:00 | |
| PG1ADW-2 | 2026-09-03 12:03:05 | 49.18926 | 17.77271 | 118° | 66km/h | 15128m | 3.7m/s | -54.2°C | 4.2% | 0hPa | 2.7V | 00:00:00 | 01:09:16 | 00:00:00 | |
| S52SK | 2026-09-03 12:02:56 | 49.18983 | 17.77076 | 114° | 64km/h | 15082m | 8.9m/s | -54.1°C | 1.6% | 0hPa | 2.7V | 00:00:00 | 00:00:00 | 00:00:00 | |
| PETON7-10 | 2026-09-03 12:02:53 | 49.19009 | 17.76990 | 118° | 62km/h | 15060m | 5.1m/s | -53.9°C | 4.1% | 0hPa | 2.7V | 00:00:00 | 00:00:00 | 00:00:00 | |
| HA6NAB-11 | 2026-09-03 12:02:51 | 49.19017 | 17.76968 | 117° | 64km/h | 15054m | 7.8m/s | -54.0°C | 1.6% | 0hPa | 2.7V | 00:00:00 | 00:00:00 | 00:00:00 | |
| S52SK | 2026-09-03 12:02:50 | 49.19023 | 17.76945 | 114° | 66km/h | 15048m | 4.0m/s | -53.9°C | 1.6% | 0hPa | 2.7V | 00:00:00 | 00:00:00 | 00:00:00 | |
| OE5DRO-10 | 2026-09-03 12:02:49 | 49.19036 | 17.76898 | 114° | 58km/h | 15038m | 3.0m/s | -53.8°C | 4.1% | 0hPa | 2.7V | 00:00:00 | 00:00:00 | 08:30:00 | |
| HA6NAB-11 | 2026-09-03 12:02:46 | 49.19055 | 17.76827 | 110° | 64km/h | 15020m | 5.1m/s | -53.8°C | 1.6% | 0hPa | 2.7V | 00:00:00 | 00:00:00 | 00:00:00 | |
| PG1ADW-2 | 2026-09-03 12:02:45 | 49.19060 | 17.76804 | 111° | 58km/h | 15015m | 4.4m/s | -53.7°C | 4.1% | 0hPa | 2.7V | 00:00:00 | 00:00:00 | 00:00:00 | |
| OE3OSB-13 | 2026-09-03 12:02:43 | 49.19071 | 17.76761 | 110° | 57km/h | 15003m | 7.6m/s | -53.7°C | 1.4% | -1.0hPa | 2.7V | 00:00:00 | 00:00:00 | 00:00:00 | |
| OE5DXL-15 | 2026-09-03 12:02:41 | 49.19080 | 17.76719 | 111° | 55km/h | 14993m | 5.8m/s | -53.6°C | 4.1% | 0hPa | 2.7V | 00:00:00 | 00:00:00 | 00:00:00 | |
| HA6NAB-11 | 2026-09-03 12:02:40 | 49.19081 | 17.76719 | 112° | 58km/h | 14993m | 5.8m/s | -53.7°C | 1.6% | 0hPa | 2.7V | 00:00:00 | 00:00:00 | 00:00:00 | |
| PETON7-10 | 2026-09-03 12:02:38 | 49.19098 | 17.76657 | 113° | 57km/h | 14976m | 8.0m/s | -53.7°C | 4.1% | 0hPa | 2.7V | 00:00:00 | 00:00:00 | 00:00:00 | |
| HA6NAB-11 | 2026-09-03 12:02:35 | 49.19109 | 17.76614 | 112° | 58km/h | 14965m | 6.6m/s | -53.8°C | 1.6% | 0hPa | 2.7V | 00:00:00 | 00:00:00 | 00:00:00 | |
| OE5DRO-10 | 2026-09-03 12:02:30 | 49.19138 | 17.76497 | 113° | 55km/h | 14932m | 3.2m/s | -53.7°C | 4.0% | 0hPa | 2.7V | 00:00:00 | 00:00:00 | 00:00:00 | |
| DO3MHA-11 | 2026-09-03 12:02:29 | 49.19143 | 17.76477 | 116° | 53km/h | 14928m | 5.7m/s | -53.7°C | 4.0% | 0hPa | 2.7V | 00:00:00 | 01:08:40 | 00:00:00 | |
| HA6NAB-11 | 2026-09-03 12:02:25 | 49.19171 | 17.76392 | 119° | 60km/h | 14904m | 3.0m/s | -53.7°C | 1.6% | 0hPa | 2.7V | 00:00:00 | 00:00:00 | 00:00:00 | |
| PETON7-10 | 2026-09-03 12:02:23 | 49.19184 | 17.76353 | 116° | 53km/h | 14893m | 7.0m/s | -53.7°C | 4.1% | 0hPa | 2.7V | 00:00:00 | 01:08:34 | 00:00:00 | |
| HA6NAB-11 | 2026-09-03 12:02:19 | 49.19203 | 17.76277 | 109° | 49km/h | 14871m | 4.6m/s | -53.6°C | 1.6% | 0hPa | 2.7V | 00:00:00 | 00:00:00 | 00:00:00 | |
| OE3OSB-13 | 2026-09-03 12:02:12 | 49.19237 | 17.76147 | 115° | 55km/h | 14833m | 3.4m/s | -53.3°C | 1.5% | -1.0hPa | 2.7V | 00:00:00 | 00:00:00 | 00:00:00 | |
| DO3MHA-11 | 2026-09-03 12:02:11 | 49.19243 | 17.76128 | 117° | 49km/h | 14829m | 5.8m/s | -53.3°C | 4.1% | 0hPa | 2.7V | 00:00:00 | 01:08:22 | 00:00:00 | |
| PETON7-10 | 2026-09-03 12:02:08 | 49.19260 | 17.76074 | 114° | 49km/h | 14813m | 7.4m/s | -53.3°C | 4.1% | 0hPa | 2.7V | 00:00:00 | 00:00:00 | 00:00:00 | |
| PG1ADW-2 | 2026-09-03 12:02:05 | 49.19273 | 17.76022 | 110° | 51km/h | 14798m | 3.4m/s | -53.2°C | 3.9% | 0hPa | 2.7V | 00:00:00 | 00:00:00 | 00:00:00 | |
| DO3MHA-11 | 2026-09-03 12:02:01 | 49.19291 | 17.75953 | 116° | 51km/h | 14776m | 7.2m/s | 0°C | 0% | 0hPa | 2.7V | 00:00:00 | 01:08:12 | 00:00:00 | |
| PETON7-10 | 2026-09-03 12:01:53 | 49.19334 | 17.75815 | 119° | 53km/h | 14727m | 5.7m/s | -53.1°C | 4.0% | 0hPa | 2.7V | 00:00:00 | 00:00:00 | 00:00:00 | |
| OE5DRO-10 | 2026-09-03 12:01:52 | 49.19340 | 17.75797 | 119° | 57km/h | 14722m | 4.6m/s | -53.0°C | 4.0% | 0hPa | 2.7V | 00:00:00 | 00:00:00 | 00:00:00 | |
| DO3MHA-11 | 2026-09-03 12:01:51 | 49.19347 | 17.75779 | 120° | 55km/h | 14716m | 7.0m/s | 0°C | 0% | 0hPa | 2.7V | 00:00:00 | 01:08:02 | 00:00:00 | |
| PG1ADW-2 | 2026-09-03 12:01:45 | 49.19390 | 17.75669 | 123° | 58km/h | 14684m | 5.7m/s | -52.9°C | 4.1% | 0hPa | 2.7V | 00:00:00 | 01:07:56 | 00:00:00 | |
| OE5DXL-15 | 2026-09-03 12:01:41 | 49.19420 | 17.75603 | 128° | 64km/h | 14662m | 4.4m/s | -52.9°C | 4.0% | 0hPa | 2.7V | 00:00:00 | 00:00:00 | 00:00:00 | |
| PETON7-10 | 2026-09-03 12:01:38 | 49.19444 | 17.75554 | 126° | 62km/h | 14647m | 5.7m/s | -53.1°C | 4.0% | 0hPa | 2.7V | 00:00:00 | 01:07:49 | 00:00:00 | |
| OE5DRO-10 | 2026-09-03 12:01:33 | 49.19485 | 17.75451 | 120° | 66km/h | 14616m | 8.5m/s | -53.0°C | 4.1% | 0hPa | 2.7V | 00:00:00 | 00:00:00 | 00:00:00 | |
| DO3MHA-11 | 2026-09-03 12:01:31 | 49.19502 | 17.75412 | 127° | 64km/h | 14604m | 6.5m/s | 0°C | 0% | 0hPa | 2.7V | 00:00:00 | 01:07:42 | 00:00:00 | |
| S52SK | 2026-09-03 12:01:30 | 49.19502 | 17.75412 | 127° | 58km/h | 14604m | 6.6m/s | -53.0°C | 1.7% | 0hPa | 2.7V | 00:00:00 | 00:00:00 | 00:00:00 | |
| PG1ADW-2 | 2026-09-03 12:01:25 | 49.19566 | 17.75303 | 130° | 71km/h | 14570m | 4.2m/s | -52.7°C | 4.0% | 0hPa | 2.7V | 00:00:00 | 00:00:00 | 00:00:00 | |
| S52SK | 2026-09-03 12:01:24 | 49.19566 | 17.75303 | 130° | 68km/h | 14570m | 4.3m/s | -52.7°C | 1.6% | 0hPa | 2.7V | 00:00:00 | 00:00:00 | 00:00:00 | |
| PETON7-10 | 2026-09-03 12:01:23 | 49.19587 | 17.75261 | 127° | 69km/h | 14560m | 6.5m/s | -52.7°C | 3.9% | 0hPa | 2.7V | 00:00:00 | 00:00:00 | 08:30:00 | |
| DO3MHA-11 | 2026-09-03 12:01:21 | 49.19608 | 17.75220 | 129° | 69km/h | 14547m | 7.1m/s | 0°C | 0% | 0hPa | 2.7V | 00:00:00 | 01:07:32 | 00:00:00 | |
| OE5DRO-10 | 2026-09-03 12:01:14 | 49.19687 | 17.75077 | 135° | 75km/h | 14510m | 6.6m/s | -52.3°C | 3.8% | 0hPa | 2.7V | 00:00:00 | 00:00:00 | 00:00:00 | |
| OE5DXL-15 | 2026-09-03 12:01:11 | 49.19724 | 17.75021 | 137° | 80km/h | 14491m | 6.3m/s | -52.4°C | 3.9% | 0hPa | 2.7V | 00:00:00 | 00:00:00 | 00:00:00 | |
| OE3OSB-13 | 2026-09-03 12:01:10 | 49.19737 | 17.75002 | 136° | 73km/h | 14486m | 3.8m/s | -52.5°C | 1.5% | -1.0hPa | 2.7V | 00:00:00 | 00:00:00 | 00:00:00 | |
| PETON7-10 | 2026-09-03 12:01:08 | 49.19764 | 17.74962 | 135° | 78km/h | 14475m | 7.3m/s | -52.6°C | 4.1% | 0hPa | 2.7V | 00:00:00 | 00:00:00 | 00:00:00 | |
| PG1ADW-2 | 2026-09-03 12:01:05 | 49.19803 | 17.74897 | 132° | 80km/h | 14459m | 3.1m/s | -52.7°C | 4.1% | 0hPa | 2.7V | 00:00:00 | 00:00:00 | 00:00:00 | |
| OE5DRO-10 | 2026-09-03 12:00:55 | 49.19934 | 17.74675 | 132° | 84km/h | 14403m | 5.7m/s | -53.1°C | 4.1% | 0hPa | 2.7V | 00:00:00 | 00:00:00 | 00:00:00 | |
| PETON7-10 | 2026-09-03 12:00:53 | 49.19960 | 17.74625 | 128° | 84km/h | 14391m | 5.6m/s | -53.1°C | 4.2% | 0hPa | 2.7V | 00:00:00 | 01:07:04 | 00:00:00 | |
| PG1ADW-2 | 2026-09-03 12:00:45 | 49.20053 | 17.74409 | 123° | 82km/h | 14352m | 4.9m/s | -53.1°C | 4.2% | 0hPa | 2.7V | 00:00:00 | 00:00:00 | 00:00:00 | |
| OE5DXL-15 | 2026-09-03 12:00:41 | 49.20099 | 17.74299 | 124° | 80km/h | 14331m | 2.6m/s | -53.0°C | 4.2% | 0hPa | 2.7V | 00:00:00 | 00:00:00 | 00:00:00 | |
| OE3OSB-13 | 2026-09-03 12:00:39 | 49.20123 | 17.74246 | 122° | 82km/h | 14321m | 7.6m/s | -53.0°C | 1.6% | -1.0hPa | 2.7V | 00:00:00 | 00:00:00 | 00:00:00 | |
| PETON7-10 | 2026-09-03 12:00:38 | 49.20134 | 17.74219 | 122° | 82km/h | 14316m | 3.7m/s | -53.0°C | 4.2% | 0hPa | 2.7V | 00:00:00 | 00:00:00 | 00:00:00 | |
| OE5DRO-10 | 2026-09-03 12:00:36 | 49.20156 | 17.74164 | 122° | 82km/h | 14306m | 4.1m/s | -53.1°C | 4.2% | 0hPa | 2.7V | 00:00:00 | 00:00:00 | 00:00:00 | |
| HA6NAB-11 | 2026-09-03 12:00:34 | 49.20167 | 17.74136 | 121° | 84km/h | 14301m | 6.1m/s | -53.2°C | 1.8% | 0hPa | 2.7V | 00:00:00 | 00:00:00 | 00:00:00 | |
| HA6NAB-11 | 2026-09-03 12:00:29 | 49.20219 | 17.73999 | 123° | 78km/h | 14276m | 6.2m/s | -53.2°C | 1.8% | 0hPa | 2.7V | 00:00:00 | 00:00:00 | 00:00:00 | |
| PG1ADW-2 | 2026-09-03 12:00:25 | 49.20272 | 17.73871 | 121° | 78km/h | 14252m | 7.2m/s | -53.2°C | 4.3% | 0hPa | 2.7V | 00:00:00 | 01:06:36 | 08:30:00 | |
| PETON7-10 | 2026-09-03 12:00:23 | 49.20292 | 17.73815 | 118° | 78km/h | 14242m | 5.3m/s | -53.1°C | 4.3% | 0hPa | 2.7V | 00:00:00 | 00:00:00 | 00:00:00 | |
| OE5DRO-10 | 2026-09-03 12:00:17 | 49.20345 | 17.73645 | 119° | 75km/h | 14211m | 3.8m/s | -53.0°C | 4.2% | 0hPa | 2.7V | 00:00:00 | 00:00:00 | 00:00:00 | |
| OE5DXL-15 | 2026-09-03 12:00:11 | 49.20399 | 17.73491 | 118° | 71km/h | 14178m | 6.1m/s | -53.1°C | 4.4% | 0hPa | 2.7V | 00:00:00 | 00:00:00 | 00:00:00 | |
| PETON7-10 | 2026-09-03 12:00:08 | 49.20424 | 17.73414 | 117° | 73km/h | 14164m | 3.4m/s | -52.9°C | 4.3% | 0hPa | 2.7V | 00:00:00 | 01:06:19 | 00:00:00 | |
| S52SK | 2026-09-03 12:00:07 | 49.20424 | 17.73414 | 117° | 73km/h | 14164m | 3.5m/s | -53.0°C | 1.9% | 0hPa | 2.7V | 00:00:00 | 00:00:00 | 00:00:00 | |
| PG1ADW-2 | 2026-09-03 12:00:05 | 49.20449 | 17.73337 | 116° | 73km/h | 14149m | 7.1m/s | -52.9°C | 4.3% | 0hPa | 2.7V | 00:00:00 | 00:00:00 | 00:00:00 | |
| S52SK | 2026-09-03 12:00:01 | 49.20474 | 17.73258 | 117° | 73km/h | 14134m | 3.8m/s | -52.9°C | 1.8% | 0hPa | 2.7V | 00:00:00 | 00:00:00 | 00:00:00 | |
| OE5DRO-10 | 2026-09-03 11:59:58 | 49.20504 | 17.73156 | 115° | 69km/h | 14110m | 6.9m/s | -52.9°C | 4.4% | 0hPa | 2.7V | 00:00:00 | 00:00:00 | 08:30:00 | |
| PETON7-10 | 2026-09-03 11:59:53 | 49.20545 | 17.73040 | 122° | 68km/h | 14084m | 2.6m/s | -52.8°C | 4.3% | 0hPa | 2.7V | 00:00:00 | 00:00:00 | 00:00:00 | |
| PG1ADW-2 | 2026-09-03 11:59:45 | 49.20608 | 17.72836 | 111° | 66km/h | 14038m | 6.7m/s | -52.9°C | 4.3% | 0hPa | 2.7V | 00:00:00 | 00:00:00 | 00:00:00 | |
| OE5DXL-15 | 2026-09-03 11:59:41 | 49.20635 | 17.72749 | 120° | 64km/h | 14019m | 5.9m/s | -52.8°C | 4.2% | 0hPa | 2.7V | 00:00:00 | 00:00:00 | 00:00:00 | |
| HA6NAB-11 | 2026-09-03 11:59:40 | 49.20636 | 17.72749 | 121° | 60km/h | 14019m | 6.0m/s | -52.9°C | 1.8% | 0hPa | 2.7V | 00:00:00 | 00:00:00 | 00:00:00 | |
| OE5DRO-10 | 2026-09-03 11:59:39 | 49.20650 | 17.72707 | 116° | 66km/h | 14004m | 5.5m/s | -52.6°C | 4.2% | 0hPa | 2.7V | 00:00:00 | 00:00:00 | 00:00:00 | |
| PETON7-10 | 2026-09-03 11:59:38 | 49.20657 | 17.72684 | 114° | 66km/h | 13997m | 10.3m/s | -52.5°C | 4.2% | 0hPa | 2.7V | 00:00:00 | 00:00:00 | 00:00:00 | |
| OE3OSB-13 | 2026-09-03 11:59:37 | 49.20664 | 17.72660 | 113° | 66km/h | 13988m | 5.8m/s | -52.5°C | 1.7% | -1.0hPa | 2.7V | 00:00:00 | 00:00:00 | 00:00:00 | |
| HA6NAB-11 | 2026-09-03 11:59:35 | 49.20679 | 17.72612 | 119° | 69km/h | 13975m | 3.5m/s | -52.4°C | 1.8% | 0hPa | 2.7V | 00:00:00 | 00:00:00 | 00:00:00 | |
| HA6NAB-11 | 2026-09-03 11:59:29 | 49.20721 | 17.72501 | 123° | 64km/h | 13946m | 6.8m/s | -52.4°C | 1.8% | 0hPa | 2.7V | 00:00:00 | 00:00:00 | 00:00:00 | |
| PG1ADW-2 | 2026-09-03 11:59:25 | 49.20763 | 17.72397 | 123° | 64km/h | 13918m | 3.9m/s | -52.3°C | 4.1% | 0hPa | 2.7V | 00:00:00 | 00:00:00 | 00:00:00 | |
| HA6NAB-11 | 2026-09-03 11:59:24 | 49.20763 | 17.72397 | 124° | 66km/h | 13918m | 3.9m/s | -52.3°C | 1.8% | 0hPa | 2.7V | 00:00:00 | 00:00:00 | 00:00:00 | |
| PETON7-10 | 2026-09-03 11:59:23 | 49.20781 | 17.72353 | 124° | 62km/h | 13908m | 6.7m/s | -52.4°C | 4.2% | 0hPa | 2.7V | 00:00:00 | 01:05:34 | 00:00:00 | |
| OE5DRO-10 | 2026-09-03 11:59:20 | 49.20810 | 17.72294 | 128° | 62km/h | 13887m | 6.8m/s | -52.5°C | 4.3% | 0hPa | 2.7V | 00:00:00 | 00:00:00 | 00:00:00 | |
| HA6NAB-11 | 2026-09-03 11:59:19 | 49.20810 | 17.72294 | 128° | 62km/h | 13887m | 6.9m/s | 0°C | 0% | 0hPa | 2.7V | 00:00:00 | 00:00:00 | 00:00:00 | |
| HA6NAB-11 | 2026-09-03 11:59:13 | 49.20865 | 17.72190 | 130° | 58km/h | 13857m | 3.0m/s | 0°C | 0% | 0hPa | 2.7V | 00:00:00 | 00:00:00 | 00:00:00 | |
| OE5DXL-15 | 2026-09-03 11:59:11 | 49.20893 | 17.72134 | 129° | 66km/h | 13839m | 8.8m/s | -52.3°C | 4.2% | 0hPa | 2.7V | 00:00:00 | 00:00:00 | 08:30:00 | |
| PETON7-10 | 2026-09-03 11:59:08 | 49.20926 | 17.72071 | 128° | 66km/h | 13818m | 5.2m/s | -52.1°C | 4.1% | 0hPa | 2.7V | 00:00:00 | 00:00:00 | 08:30:00 | |
| HA6NAB-11 | 2026-09-03 11:59:07 | 49.20926 | 17.72071 | 128° | 73km/h | 13818m | 5.3m/s | 0°C | 0% | 0hPa | 2.7V | 00:00:00 | 00:00:00 | 00:00:00 | |
| OE3OSB-13 | 2026-09-03 11:59:06 | 49.20949 | 17.72029 | 131° | 69km/h | 13805m | 4.3m/s | -52.0°C | 1.7% | -1.0hPa | 2.7V | 00:00:00 | 00:00:00 | 00:00:00 | |
| PG1ADW-2 | 2026-09-03 11:59:05 | 49.20960 | 17.72009 | 132° | 66km/h | 13800m | 7.1m/s | -52.0°C | 4.1% | 0hPa | 2.7V | 00:00:00 | 01:05:16 | 00:00:00 | |
| OE5DRO-10 | 2026-09-03 11:59:01 | 49.21004 | 17.71941 | 136° | 66km/h | 13780m | 4.5m/s | -51.7°C | 4.1% | 0hPa | 2.7V | 00:00:00 | 00:00:00 | 00:00:00 | |
| PETON7-10 | 2026-09-03 11:58:53 | 49.21084 | 17.71784 | 135° | 68km/h | 13740m | 5.7m/s | -51.4°C | 4.1% | 0hPa | 2.7V | 00:00:00 | 00:00:00 | 00:00:00 | |
| PG1ADW-2 | 2026-09-03 11:58:45 | 49.21184 | 17.71646 | 135° | 71km/h | 13700m | 4.4m/s | -51.2°C | 4.1% | 0hPa | 2.7V | 00:00:00 | 00:00:00 | 00:00:00 | |
| OE5DRO-10 | 2026-09-03 11:58:42 | 49.21217 | 17.71591 | 133° | 71km/h | 13684m | 5.5m/s | -51.0°C | 4.1% | 0hPa | 2.7V | 00:00:00 | 00:00:00 | 00:00:00 | |
| OE3JTB-15 | 2026-09-03 11:58:41 | 49.21266 | 17.71514 | 137° | 73km/h | 13657m | 7.9m/s | -50.8°C | 4.0% | 0hPa | 2.7V | 00:00:00 | 01:04:49 | 00:00:00 | |
| PETON7-10 | 2026-09-03 11:58:37 | 49.21277 | 17.71498 | 136° | 73km/h | 13651m | 5.1m/s | -50.8°C | 4.0% | 0hPa | 2.7V | 00:00:00 | 01:04:48 | 00:00:00 | |
| OE3OSB-13 | 2026-09-03 11:58:35 | 49.21313 | 17.71442 | 136° | 73km/h | 13634m | 4.9m/s | -50.7°C | 1.6% | -1.0hPa | 2.7V | 00:00:00 | 00:00:00 | 00:00:00 | |
| PG1ADW-2 | 2026-09-03 11:58:25 | 49.21436 | 17.71257 | 135° | 75km/h | 13579m | 6.2m/s | -50.3°C | 3.8% | 0hPa | 2.7V | 00:00:00 | 00:00:00 | 00:00:00 | |
| OE5DRO-10 | 2026-09-03 11:58:23 | 49.21462 | 17.71218 | 138° | 75km/h | 13569m | 5.9m/s | -50.3°C | 3.8% | 0hPa | 2.7V | 00:00:00 | 00:00:00 | 00:00:00 | |
| PETON7-10 | 2026-09-03 11:58:22 | 49.21477 | 17.71199 | 138° | 75km/h | 13561m | 8.2m/s | -50.3°C | 3.8% | 0hPa | 2.7V | 00:00:00 | 00:00:00 | 00:00:00 | |
| OE5DXL-15 | 2026-09-03 11:58:11 | 49.21632 | 17.70980 | 132° | 86km/h | 13494m | 5.7m/s | -50.2°C | 3.9% | 0hPa | 2.7V | 00:00:00 | 00:00:00 | 00:00:00 | |
| HA6NAB-11 | 2026-09-03 11:58:10 | 49.21644 | 17.70960 | 135° | 71km/h | 13487m | 7.4m/s | 0°C | 0% | 0hPa | 2.7V | 00:00:00 | 00:00:00 | 00:00:00 | |
| PETON7-10 | 2026-09-03 11:58:07 | 49.21684 | 17.70909 | 147° | 86km/h | 13469m | 5.7m/s | -50.3°C | 3.9% | 0hPa | 2.7V | 00:00:00 | 00:00:00 | 00:00:00 | |
| PG1ADW-2 | 2026-09-03 11:58:05 | 49.21717 | 17.70875 | 146° | 89km/h | 13457m | 7.5m/s | -50.3°C | 4.0% | 0hPa | 2.7V | 00:00:00 | 00:00:00 | 00:00:00 | |
| OE5DRO-10 | 2026-09-03 11:58:04 | 49.21735 | 17.70855 | 142° | 89km/h | 13450m | 6.3m/s | -50.4°C | 4.0% | 0hPa | 2.7V | 00:00:00 | 00:00:00 | 00:00:00 | |
| HA6NAB-11 | 2026-09-03 11:58:03 | 49.21734 | 17.70855 | 143° | 89km/h | 13450m | 6.4m/s | 0°C | 0% | 0hPa | 2.7V | 00:00:00 | 00:00:00 | 00:00:00 | |
| HA6NAB-11 | 2026-09-03 11:57:57 | 49.21830 | 17.70718 | 135° | 80km/h | 13411m | 4.2m/s | 0°C | 0% | 0hPa | 2.7V | 00:00:00 | 00:00:00 | 00:00:00 | |
| PETON7-10 | 2026-09-03 11:57:52 | 49.21923 | 17.70570 | 134° | 93km/h | 13374m | 6.6m/s | -50.3°C | 4.1% | 0hPa | 2.7V | 00:00:00 | 01:04:03 | 00:00:00 | |
| HA6NAB-11 | 2026-09-03 11:57:46 | 49.21997 | 17.70436 | 129° | 95km/h | 13348m | 4.4m/s | 0°C | 0% | 0hPa | 2.7V | 00:00:00 | 00:00:00 | 00:00:00 | |
| PG1ADW-2 | 2026-09-03 11:57:45 | 49.22026 | 17.70380 | 130° | 97km/h | 13338m | 4.5m/s | -50.2°C | 4.0% | 0hPa | 2.7V | 00:00:00 | 01:03:56 | 00:00:00 | |
| OE5DXL-15 | 2026-09-03 11:57:41 | 49.22087 | 17.70271 | 130° | 102km/h | 13319m | 4.3m/s | -50.2°C | 4.1% | 0hPa | 2.7V | 00:00:00 | 00:00:00 | 00:00:00 | |
| PETON7-10 | 2026-09-03 11:57:37 | 49.22151 | 17.70159 | 133° | 100km/h | 13301m | 3.7m/s | -50.2°C | 4.1% | 0hPa | 2.7V | 00:00:00 | 00:00:00 | 00:00:00 | |
| OE3OSB-13 | 2026-09-03 11:57:33 | 49.22228 | 17.70018 | 129° | 99km/h | 13278m | 5.0m/s | -50.3°C | 1.9% | -1.0hPa | 2.7V | 00:00:00 | 00:00:00 | 00:00:00 | |
| S52SK | 2026-09-03 11:57:27 | 49.22293 | 17.69896 | 130° | 104km/h | 13261m | 4.0m/s | -50.2°C | 2.0% | 0hPa | 2.7V | 00:00:00 | 00:00:00 | 00:00:00 | |
| OE5DRO-10 | 2026-09-03 11:57:26 | 49.22327 | 17.69834 | 131° | 106km/h | 13252m | 4.3m/s | -50.1°C | 4.1% | 0hPa | 2.7V | 00:00:00 | 00:00:00 | 00:00:00 | |
| PG1ADW-2 | 2026-09-03 11:57:25 | 49.22345 | 17.69803 | 131° | 104km/h | 13248m | 4.2m/s | -50.1°C | 4.1% | 0hPa | 2.7V | 00:00:00 | 00:00:00 | 08:30:00 | |
| PETON7-10 | 2026-09-03 11:57:22 | 49.22395 | 17.69706 | 128° | 104km/h | 13234m | 3.8m/s | -50.0°C | 4.1% | 0hPa | 2.7V | 00:00:00 | 00:00:00 | 00:00:00 | |
| S52SK | 2026-09-03 11:57:16 | 49.22475 | 17.69536 | 124° | 106km/h | 13213m | 3.5m/s | -50.0°C | 2.1% | 0hPa | 2.7V | 00:00:00 | 00:00:00 | 00:00:00 | |
| OE3JTB-15 | 2026-09-03 11:57:11 | 49.22598 | 17.69282 | 129° | 102km/h | 13178m | 3.4m/s | -49.9°C | 4.2% | 0hPa | 2.7V | 00:00:00 | 01:03:20 | 00:00:00 | |
| PETON7-10 | 2026-09-03 11:57:07 | 49.22630 | 17.69219 | 128° | 102km/h | 13169m | 4.4m/s | -50.0°C | 4.2% | 0hPa | 2.7V | 00:00:00 | 01:03:18 | 00:00:00 | |
| PG1ADW-2 | 2026-09-03 11:57:05 | 49.22662 | 17.69156 | 129° | 100km/h | 13160m | 5.4m/s | -50.3°C | 4.3% | 0hPa | 2.7V | 00:00:00 | 00:00:00 | 00:00:00 | |
| OE3OSB-13 | 2026-09-03 11:57:02 | 49.22722 | 17.69032 | 124° | 97km/h | 13143m | 3.6m/s | -50.7°C | 2.1% | -1.0hPa | 2.7V | 00:00:00 | 00:00:00 | 00:00:00 | |
| PETON7-10 | 2026-09-03 11:56:52 | 49.22851 | 17.68732 | 123° | 102km/h | 13103m | 2.9m/s | -50.6°C | 4.7% | 0hPa | 2.7V | 00:00:00 | 00:00:00 | 08:30:00 | |
| OE5DRO-10 | 2026-09-03 11:56:48 | 49.22902 | 17.68601 | 121° | 100km/h | 13084m | 5.4m/s | -50.8°C | 4.7% | 0hPa | 2.7V | 00:00:00 | 00:00:00 | 00:00:00 | |
| PG1ADW-2 | 2026-09-03 11:56:45 | 49.22941 | 17.68502 | 121° | 102km/h | 13073m | 5.5m/s | -50.9°C | 4.7% | 0hPa | 2.7V | 00:00:00 | 00:00:00 | 00:00:00 | |
| OE3JTB-15 | 2026-09-03 11:56:43 | 49.22981 | 17.68397 | 121° | 99km/h | 13061m | 5.5m/s | -51.1°C | 4.7% | 0hPa | 2.7V | 00:00:00 | 00:00:00 | 08:30:00 | |
| OE5DXL-15 | 2026-09-03 11:56:41 | 49.22995 | 17.68362 | 122° | 99km/h | 13055m | 4.7m/s | -51.2°C | 4.8% | 0hPa | 2.7V | 00:00:00 | 00:00:00 | 00:00:00 | |
| PETON7-10 | 2026-09-03 11:56:37 | 49.23045 | 17.68227 | 116° | 100km/h | 13039m | 4.5m/s | -51.3°C | 5.0% | 0hPa | 2.7V | 00:00:00 | 00:00:00 | 00:00:00 | |
| OE3OSB-13 | 2026-09-03 11:56:31 | 49.23115 | 17.67978 | 111° | 100km/h | 13006m | 4.6m/s | -51.8°C | 3.0% | -1.0hPa | 2.7V | 00:00:00 | 00:00:00 | 00:00:00 | |
| OE5DRO-10 | 2026-09-03 11:56:29 | 49.23125 | 17.67942 | 113° | 97km/h | 13002m | 3.4m/s | -51.8°C | 5.6% | 0hPa | 2.7V | 00:00:00 | 00:00:00 | 00:00:00 | |
| PG1ADW-2 | 2026-09-03 11:56:25 | 49.23164 | 17.67800 | 113° | 95km/h | 12986m | 4.6m/s | -52.1°C | 5.9% | 0hPa | 2.7V | 00:00:00 | 01:02:36 | 00:00:00 | |
| PETON7-10 | 2026-09-03 11:56:22 | 49.23191 | 17.67694 | 112° | 95km/h | 12974m | 4.8m/s | -52.1°C | 6.1% | 0hPa | 2.7V | 00:00:00 | 01:02:33 | 00:00:00 | |
| OE3JTB-15 | 2026-09-03 11:56:13 | 49.23274 | 17.67383 | 116° | 89km/h | 12935m | 2.6m/s | -52.3°C | 6.5% | 0hPa | 2.7V | 00:00:00 | 00:00:00 | 00:00:00 | |
| OE5DXL-15 | 2026-09-03 11:56:11 | 49.23294 | 17.67317 | 115° | 88km/h | 12927m | 4.1m/s | -52.3°C | 6.6% | 0hPa | 2.7V | 00:00:00 | 00:00:00 | 00:00:00 | |
| OE5DRO-10 | 2026-09-03 11:56:10 | 49.23304 | 17.67284 | 114° | 89km/h | 12923m | 4.3m/s | -52.3°C | 6.6% | 0hPa | 2.7V | 00:00:00 | 00:00:00 | 00:00:00 | |
| PETON7-10 | 2026-09-03 11:56:07 | 49.23330 | 17.67184 | 111° | 89km/h | 12910m | 4.9m/s | -52.2°C | 6.5% | 0hPa | 2.7V | 00:00:00 | 00:00:00 | 00:00:00 | |
| PG1ADW-2 | 2026-09-03 11:56:05 | 49.23345 | 17.67120 | 111° | 88km/h | 12902m | 4.2m/s | -52.2°C | 6.4% | 0hPa | 2.7V | 00:00:00 | 00:00:00 | 00:00:00 | |
| OE3OSB-13 | 2026-09-03 11:56:00 | 49.23395 | 17.66932 | 113° | 89km/h | 12875m | 4.5m/s | -52.7°C | 3.8% | -1.0hPa | 2.7V | 00:00:00 | 00:00:00 | 00:00:00 | |
| PETON7-10 | 2026-09-03 11:55:52 | 49.23462 | 17.66712 | 117° | 86km/h | 12845m | 4.6m/s | -53.4°C | 6.9% | 0hPa | 2.7V | 00:00:00 | 00:00:00 | 00:00:00 | |
| OE5DRO-10 | 2026-09-03 11:55:51 | 49.23472 | 17.66682 | 118° | 84km/h | 12841m | 4.0m/s | -53.4°C | 6.9% | 0hPa | 2.7V | 00:00:00 | 00:00:00 | 00:00:00 | |
| S52SK | 2026-09-03 11:55:46 | 49.23513 | 17.66563 | 118° | 86km/h | 12825m | 3.7m/s | -53.5°C | 4.2% | 0hPa | 2.7V | 00:00:00 | 00:00:00 | 00:00:00 | |
| OE3JTB-15 | 2026-09-03 11:55:44 | 49.23543 | 17.66476 | 118° | 82km/h | 12813m | 5.2m/s | -53.5°C | 6.9% | 0hPa | 2.7V | 00:00:00 | 01:01:55 | 00:00:00 | |
| OE5DXL-15 | 2026-09-03 11:55:41 | 49.23572 | 17.66391 | 119° | 84km/h | 12799m | 4.2m/s | -53.4°C | 7.0% | 0hPa | 2.7V | 00:00:00 | 00:00:00 | 00:00:00 | |
| S52SK | 2026-09-03 11:55:40 | 49.23573 | 17.66391 | 119° | 82km/h | 12799m | 4.2m/s | -53.4°C | 0% | 0hPa | 2.7V | 00:00:00 | 00:00:00 | 00:00:00 | |
| PETON7-10 | 2026-09-03 11:55:37 | 49.23615 | 17.66279 | 122° | 84km/h | 12783m | 4.5m/s | -53.3°C | 7.2% | 0hPa | 2.7V | 00:00:00 | 01:01:48 | 00:00:00 | |
| OE5DRO-10 | 2026-09-03 11:55:32 | 49.23673 | 17.66142 | 123° | 82km/h | 12762m | 4.1m/s | -53.4°C | 7.3% | 0hPa | 2.7V | 00:00:00 | 00:00:00 | 00:00:00 | |
| OE3OSB-13 | 2026-09-03 11:55:28 | 49.23718 | 17.66032 | 122° | 84km/h | 12744m | 4.4m/s | -53.8°C | 4.7% | -1.0hPa | 2.7V | 00:00:00 | 00:00:00 | 00:00:00 | |
| PG1ADW-2 | 2026-09-03 11:55:25 | 49.23752 | 17.65951 | 123° | 84km/h | 12731m | 3.4m/s | -53.7°C | 7.9% | 0hPa | 2.7V | 00:00:00 | 00:00:00 | 00:00:00 | |
| PETON7-10 | 2026-09-03 11:55:22 | 49.23788 | 17.65873 | 128° | 84km/h | 12719m | 3.3m/s | -53.6°C | 8.0% | 0hPa | 2.7V | 00:00:00 | 00:00:00 | 00:00:00 | |
| OE3JTB-15 | 2026-09-03 11:55:15 | 49.23869 | 17.65695 | 124° | 88km/h | 12689m | 3.8m/s | -53.4°C | 7.9% | 0hPa | 2.7V | 00:00:00 | 00:00:00 | 00:00:00 | |
| OE5DRO-10 | 2026-09-03 11:55:13 | 49.23896 | 17.65640 | 130° | 86km/h | 12680m | 4.4m/s | -53.3°C | 7.9% | 0hPa | 2.7V | 00:00:00 | 00:00:00 | 00:00:00 | |
| OE5DXL-15 | 2026-09-03 11:55:11 | 49.23925 | 17.65587 | 132° | 89km/h | 12671m | 4.6m/s | -53.2°C | 7.8% | 0hPa | 2.7V | 00:00:00 | 00:00:00 | 00:00:00 | |
| PETON7-10 | 2026-09-03 11:55:07 | 49.23978 | 17.65480 | 122° | 84km/h | 12652m | 4.9m/s | -53.1°C | 7.8% | 0hPa | 2.7V | 00:00:00 | 00:00:00 | 00:00:00 | |
| PG1ADW-2 | 2026-09-03 11:55:05 | 49.24000 | 17.65429 | 126° | 88km/h | 12642m | 5.5m/s | -53.0°C | 8.1% | 0hPa | 2.7V | 00:00:00 | 01:01:16 | 00:00:00 | |
| OE3OSB-13 | 2026-09-03 11:54:57 | 49.24118 | 17.65229 | 126° | 75km/h | 12597m | 5.5m/s | -53.0°C | 4.8% | -1.0hPa | 2.7V | 00:00:00 | 00:00:00 | 00:00:00 | |
| OE5DRO-10 | 2026-09-03 11:54:54 | 49.24151 | 17.65157 | 127° | 99km/h | 12584m | 4.6m/s | -53.0°C | 7.9% | 0hPa | 2.7V | 00:00:00 | 00:00:00 | 00:00:00 | |
| PETON7-10 | 2026-09-03 11:54:52 | 49.24179 | 17.65105 | 132° | 99km/h | 12575m | 6.8m/s | -53.1°C | 8.1% | 0hPa | 2.7V | 00:00:00 | 01:01:03 | 00:00:00 | |
| OE3JTB-15 | 2026-09-03 11:54:46 | 49.24281 | 17.64944 | 131° | 106km/h | 12539m | 2.8m/s | -53.5°C | 8.4% | 0hPa | 2.7V | 00:00:00 | 00:00:00 | 00:00:00 | |
| PG1ADW-2 | 2026-09-03 11:54:45 | 49.24297 | 17.64916 | 130° | 106km/h | 12534m | 6.0m/s | -53.6°C | 8.4% | 0hPa | 2.7V | 00:00:00 | 00:00:00 | 00:00:00 | |
| OE5DXL-15 | 2026-09-03 11:54:41 | 49.24362 | 17.64799 | 130° | 108km/h | 12512m | 4.0m/s | -53.9°C | 9.1% | 0hPa | 2.7V | 00:00:00 | 00:00:00 | 08:30:00 | |
| PETON7-10 | 2026-09-03 11:54:37 | 49.24430 | 17.64677 | 131° | 108km/h | 12491m | 4.8m/s | -54.2°C | 9.4% | 0hPa | 2.7V | 00:00:00 | 00:00:00 | 08:30:00 | |
| OE5DRO-10 | 2026-09-03 11:54:35 | 49.24463 | 17.64615 | 128° | 110km/h | 12481m | 6.0m/s | -54.3°C | 9.6% | 0hPa | 2.7V | 00:00:00 | 00:00:00 | 00:00:00 | |
| S52SK | 2026-09-03 11:54:27 | 49.24590 | 17.64343 | 121° | 113km/h | 12440m | 3.7m/s | -54.7°C | 0% | 0hPa | 2.7V | 00:00:00 | 00:00:00 | 00:00:00 | |
| OE3OSB-13 | 2026-09-03 11:54:26 | 49.24604 | 17.64306 | 120° | 111km/h | 12436m | 6.2m/s | -54.7°C | 7.3% | -1.0hPa | 2.7V | 00:00:00 | 00:00:00 | 00:00:00 | |
| PG1ADW-2 | 2026-09-03 11:54:25 | 49.24619 | 17.64269 | 124° | 106km/h | 12430m | 4.5m/s | -54.7°C | 11.1% | 0hPa | 2.7V | 00:00:00 | 00:00:00 | 08:30:00 | |
| PETON7-10 | 2026-09-03 11:54:22 | 49.24668 | 17.64165 | 127° | 106km/h | 12417m | 4.9m/s | -54.9°C | 11.7% | 0hPa | 2.7V | 00:00:00 | 00:00:00 | 00:00:00 | |
| S52SK | 2026-09-03 11:54:20 | 49.24684 | 17.64130 | 126° | 113km/h | 12411m | 5.1m/s | -55.0°C | 0% | 0hPa | 2.7V | 00:00:00 | 00:00:00 | 00:00:00 | |
| OE3JTB-15 | 2026-09-03 11:54:17 | 49.24745 | 17.63988 | 121° | 104km/h | 12394m | 3.5m/s | -55.1°C | 12.1% | 0hPa | 2.7V | 00:00:00 | 01:00:28 | 00:00:00 | |
| OE5DRO-10 | 2026-09-03 11:54:16 | 49.24758 | 17.63953 | 119° | 102km/h | 12390m | 4.3m/s | -55.2°C | 12.0% | 0hPa | 2.7V | 00:00:00 | 00:00:00 | 08:30:00 | |
| OE5DXL-15 | 2026-09-03 11:54:11 | 49.24826 | 17.63775 | 125° | 106km/h | 12366m | 7.3m/s | -55.2°C | 12.5% | 0hPa | 2.9V | 00:00:00 | 00:00:00 | 00:00:00 | |
| PETON7-10 | 2026-09-03 11:54:07 | 49.24884 | 17.63645 | 125° | 102km/h | 12337m | 7.4m/s | -55.0°C | 13.6% | 0hPa | 2.9V | 00:00:00 | 01:00:18 | 00:00:00 | |
| PG1ADW-2 | 2026-09-03 11:54:05 | 49.24914 | 17.63584 | 130° | 106km/h | 12325m | 5.8m/s | -54.9°C | 13.8% | 0hPa | 2.9V | 00:00:00 | 00:00:00 | 00:00:00 | |
| OE3OSB-13 | 2026-09-03 11:53:55 | 49.25078 | 17.63285 | 135° | 106km/h | 12266m | 6.6m/s | -55.7°C | 12.5% | -1.0hPa | 2.9V | 00:00:00 | 00:00:00 | 00:00:00 | |
| PETON7-10 | 2026-09-03 11:53:52 | 49.25134 | 17.63193 | 131° | 113km/h | 12246m | 5.5m/s | -55.7°C | 17.6% | 0hPa | 2.9V | 00:00:00 | 00:00:00 | 00:00:00 | |
| OE3JTB-15 | 2026-09-03 11:53:48 | 49.25207 | 17.63061 | 132° | 126km/h | 12224m | 4.1m/s | -55.9°C | 19.6% | 0hPa | 2.7V | 00:00:00 | 00:00:00 | 00:00:00 | |
| PG1ADW-2 | 2026-09-03 11:53:45 | 49.25265 | 17.62963 | 135° | 124km/h | 12209m | 5.2m/s | -56.1°C | 21.1% | 0hPa | 2.7V | 00:00:00 | 00:59:56 | 00:00:00 | |
| OE5DXL-15 | 2026-09-03 11:53:41 | 49.25345 | 17.62840 | 133° | 131km/h | 12188m | 8.4m/s | -56.3°C | 22.6% | 0hPa | 2.7V | 00:00:00 | 00:00:00 | 00:00:00 | |
| OE5DRO-10 | 2026-09-03 11:53:38 | 49.25401 | 17.62737 | 130° | 131km/h | 12168m | 7.7m/s | -56.4°C | 25.5% | 0hPa | 2.7V | 00:00:00 | 00:00:00 | 00:00:00 | |
| PETON7-10 | 2026-09-03 11:53:37 | 49.25421 | 17.62701 | 132° | 131km/h | 12161m | 6.2m/s | -56.6°C | 26.6% | 0hPa | 2.7V | 00:00:00 | 00:00:00 | 00:00:00 | |
| PG1ADW-2 | 2026-09-03 11:53:25 | 49.25690 | 17.62249 | 131° | 139km/h | 12087m | 6.4m/s | -58.3°C | 36.7% | 0hPa | 2.7V | 00:00:00 | 00:00:00 | 00:00:00 | |
| OE3OSB-13 | 2026-09-03 11:53:24 | 49.25712 | 17.62210 | 130° | 131km/h | 12081m | 4.6m/s | -58.5°C | 30.6% | -1.0hPa | 2.7V | 00:00:00 | 00:00:00 | 00:00:00 | |
| PETON7-10 | 2026-09-03 11:53:22 | 49.25755 | 17.62133 | 132° | 139km/h | 12069m | 8.6m/s | -58.7°C | 39.1% | 0hPa | 2.7V | 00:00:00 | 00:59:33 | 00:00:00 | |
| OE5DXL-15 | 2026-09-03 11:53:11 | 49.26008 | 17.61688 | 129° | 142km/h | 11998m | 6.5m/s | -59.2°C | 48.3% | 0hPa | 2.7V | 00:00:00 | 00:00:00 | 00:00:00 | |
| PETON7-10 | 2026-09-03 11:53:07 | 49.26093 | 17.61515 | 129° | 141km/h | 11974m | 5.7m/s | -59.1°C | 48.9% | 0hPa | 2.7V | 00:00:00 | 00:00:00 | 00:00:00 | |
| PG1ADW-2 | 2026-09-03 11:53:05 | 49.26139 | 17.61431 | 132° | 141km/h | 11962m | 7.1m/s | -59.3°C | 50.6% | 0hPa | 2.7V | 00:00:00 | 00:00:00 | 00:00:00 | |
| S52SK | 2026-09-03 11:53:04 | 49.26139 | 17.61431 | 133° | 142km/h | 11962m | 7.1m/s | -59.4°C | 0% | 0hPa | 2.7V | 00:00:00 | 00:00:00 | 00:00:00 | |
| OE3OSB-13 | 2026-09-03 11:52:53 | 49.26427 | 17.60949 | 129° | 135km/h | 11893m | 7.1m/s | -58.9°C | 45.8% | -1.0hPa | 2.7V | 00:00:00 | 00:00:00 | 00:00:00 | |
| PETON7-10 | 2026-09-03 11:52:52 | 49.26449 | 17.60908 | 129° | 144km/h | 11887m | 5.8m/s | -58.9°C | 54.4% | 0hPa | 2.7V | 00:00:00 | 00:00:00 | 00:00:00 | |
| OE3JTB-15 | 2026-09-03 11:52:50 | 49.26492 | 17.60824 | 129° | 148km/h | 11876m | 5.6m/s | -58.9°C | 55.6% | 0hPa | 2.7V | 00:00:00 | 00:59:01 | 00:00:00 | |
| PG1ADW-2 | 2026-09-03 11:52:45 | 49.26615 | 17.60613 | 132° | 148km/h | 11851m | 5.3m/s | -58.8°C | 56.6% | 0hPa | 2.7V | 00:00:00 | 00:00:00 | 00:00:00 | |
| OE5DXL-15 | 2026-09-03 11:52:41 | 49.26710 | 17.60438 | 129° | 150km/h | 11831m | 6.1m/s | -59.0°C | 57.4% | 0hPa | 2.7V | 00:00:00 | 00:00:00 | 00:00:00 | |
| PETON7-10 | 2026-09-03 11:52:37 | 49.26802 | 17.60265 | 132° | 148km/h | 11812m | 4.0m/s | -58.9°C | 59.6% | 0hPa | 2.7V | 00:00:00 | 00:58:48 | 00:00:00 | |
| HA6NAB-11 | 2026-09-03 11:52:36 | 49.26827 | 17.60222 | 132° | 148km/h | 11808m | 4.1m/s | 0°C | 0% | 0hPa | 2.7V | 00:00:00 | 00:00:00 | 00:00:00 | |
| HA6NAB-11 | 2026-09-03 11:52:30 | 49.26947 | 17.60000 | 130° | 151km/h | 11785m | 4.6m/s | 0°C | 0% | 0hPa | 2.7V | 00:00:00 | 00:00:00 | 00:00:00 | |
| HA6NAB-11 | 2026-09-03 11:52:25 | 49.27086 | 17.59727 | 130° | 148km/h | 11757m | 4.4m/s | 0°C | 0% | 0hPa | 2.7V | 00:00:00 | 00:00:00 | 00:00:00 | |
| PETON7-10 | 2026-09-03 11:52:22 | 49.27158 | 17.59597 | 131° | 151km/h | 11744m | 4.5m/s | -58.5°C | 59.4% | 0hPa | 2.7V | 00:00:00 | 00:00:00 | 08:30:00 | |
| OE3JTB-15 | 2026-09-03 11:52:21 | 49.27182 | 17.59554 | 131° | 151km/h | 11740m | 3.9m/s | -58.5°C | 60.4% | 0hPa | 2.7V | 00:00:00 | 00:00:00 | 08:30:00 | |
| HA6NAB-11 | 2026-09-03 11:52:19 | 49.27206 | 17.59509 | 131° | 151km/h | 11736m | 4.2m/s | 0°C | 0% | 0hPa | 2.9V | 00:00:00 | 00:00:00 | 00:00:00 | |
| HA6NAB-11 | 2026-09-03 11:52:13 | 49.27356 | 17.59242 | 131° | 155km/h | 11711m | 4.2m/s | 0°C | 0% | 0hPa | 2.9V | 00:00:00 | 00:00:00 | 00:00:00 | |
| OE5DXL-15 | 2026-09-03 11:52:11 | 49.27430 | 17.59101 | 129° | 151km/h | 11698m | 4.0m/s | -58.4°C | 62.7% | 0hPa | 2.9V | 00:00:00 | 00:00:00 | 00:00:00 | |
| PETON7-10 | 2026-09-03 11:52:07 | 49.27524 | 17.58915 | 128° | 151km/h | 11680m | 3.6m/s | -58.4°C | 64.8% | 0hPa | 2.9V | 00:00:00 | 00:00:00 | 00:00:00 | |
| HA6NAB-11 | 2026-09-03 11:52:06 | 49.27524 | 17.58915 | 128° | 150km/h | 11680m | 3.6m/s | 0°C | 0% | 0hPa | 2.9V | 00:00:00 | 00:00:00 | 00:00:00 | |
| PG1ADW-2 | 2026-09-03 11:52:05 | 49.27571 | 17.58824 | 131° | 151km/h | 11670m | 5.2m/s | -58.4°C | 65.4% | 0hPa | 2.9V | 00:00:00 | 00:00:00 | 00:00:00 | |
| OE5DRO-10 | 2026-09-03 11:52:03 | 49.27622 | 17.58736 | 132° | 151km/h | 11662m | 4.0m/s | -58.3°C | 66.5% | 0hPa | 2.9V | 00:00:00 | 00:00:00 | 00:00:00 | |
| OE3OSB-13 | 2026-09-03 11:51:51 | 49.27939 | 17.58154 | 131° | 151km/h | 11604m | 5.4m/s | -58.2°C | 60.8% | -1.0hPa | 2.9V | 00:00:00 | 00:00:00 | 00:00:00 | |
| HA6NAB-11 | 2026-09-03 11:51:49 | 49.27939 | 17.58154 | 132° | 153km/h | 11604m | 5.4m/s | 0°C | 0% | 0hPa | 2.9V | 00:00:00 | 00:00:00 | 00:00:00 | |
| S52SK | 2026-09-03 11:51:47 | 49.27988 | 17.58063 | 130° | 153km/h | 11596m | 2.6m/s | -58.1°C | 0% | 0hPa | 2.9V | 00:00:00 | 00:00:00 | 00:00:00 | |
| PG1ADW-2 | 2026-09-03 11:51:45 | 49.28061 | 17.57923 | 129° | 151km/h | 11585m | 3.0m/s | -58.0°C | 71.2% | 0hPa | 2.9V | 00:00:00 | 00:00:00 | 00:00:00 | |
| OE5DRO-10 | 2026-09-03 11:51:44 | 49.28085 | 17.57877 | 130° | 151km/h | 11581m | 4.7m/s | -58.0°C | 71.6% | 0hPa | 2.9V | 00:00:00 | 00:00:00 | 00:00:00 | |
| OE5DXL-15 | 2026-09-03 11:51:41 | 49.28159 | 17.57742 | 130° | 148km/h | 11569m | 3.8m/s | -57.9°C | 71.7% | 0hPa | 2.9V | 00:00:00 | 00:00:00 | 00:00:00 | |
| PETON7-10 | 2026-09-03 11:51:37 | 49.28256 | 17.57564 | 130° | 150km/h | 11554m | 3.3m/s | -57.8°C | 69.3% | 0hPa | 2.7V | 00:00:00 | 00:00:00 | 00:00:00 | |
| PG1ADW-2 | 2026-09-03 11:51:25 | 49.28536 | 17.57012 | 129° | 144km/h | 11506m | 5.0m/s | -57.7°C | 71.4% | 0hPa | 2.9V | 00:00:00 | 00:00:00 | 08:30:00 | |
| OE3JTB-15 | 2026-09-03 11:51:23 | 49.28582 | 17.56924 | 129° | 142km/h | 11498m | 4.1m/s | -57.6°C | 71.5% | 0hPa | 2.7V | 00:00:00 | 00:57:34 | 00:00:00 | |
| PETON7-10 | 2026-09-03 11:51:22 | 49.28605 | 17.56880 | 130° | 142km/h | 11494m | 4.1m/s | -57.6°C | 72.2% | 0hPa | 2.7V | 00:00:00 | 00:00:00 | 00:00:00 | |
| OE3OSB-13 | 2026-09-03 11:51:20 | 49.28651 | 17.56793 | 128° | 144km/h | 11486m | 4.5m/s | -57.7°C | 63.0% | -1.0hPa | 2.7V | 00:00:00 | 00:00:00 | 00:00:00 | |
| OE5DXL-15 | 2026-09-03 11:51:11 | 49.28851 | 17.56405 | 128° | 144km/h | 11450m | 4.8m/s | -57.4°C | 72.4% | 0hPa | 2.7V | 00:00:00 | 00:00:00 | 00:00:00 | |
| PETON7-10 | 2026-09-03 11:51:07 | 49.28940 | 17.56229 | 128° | 144km/h | 11434m | 3.5m/s | -57.2°C | 72.4% | 0hPa | 2.7V | 00:00:00 | 00:57:18 | 00:00:00 | |
| OE5DRO-10 | 2026-09-03 11:51:06 | 49.28963 | 17.56184 | 128° | 142km/h | 11429m | 4.8m/s | -57.2°C | 72.8% | 0hPa | 2.7V | 00:00:00 | 00:00:00 | 00:00:00 | |
| PG1ADW-2 | 2026-09-03 11:51:05 | 49.28986 | 17.56139 | 129° | 142km/h | 11425m | 3.8m/s | -57.2°C | 73.8% | 0hPa | 2.7V | 00:00:00 | 00:57:16 | 00:00:00 | |
| OE3OSB-13 | 2026-09-03 11:50:49 | 49.29360 | 17.55397 | 129° | 141km/h | 11360m | 3.9m/s | -57.0°C | 65.5% | -1.0hPa | 2.7V | 00:00:00 | 00:00:00 | 00:00:00 | |
| PG1ADW-2 | 2026-09-03 11:50:45 | 49.29429 | 17.55269 | 130° | 141km/h | 11347m | 4.7m/s | -56.9°C | 72.6% | 0hPa | 2.7V | 00:00:00 | 00:00:00 | 00:00:00 | |
| HA6NAB-11 | 2026-09-03 11:50:44 | 49.29429 | 17.55269 | 130° | 146km/h | 11347m | 4.8m/s | 0°C | 0% | 0hPa | 2.7V | 00:00:00 | 00:00:00 | 00:00:00 | |
| OE5DXL-15 | 2026-09-03 11:50:41 | 49.29522 | 17.55094 | 130° | 133km/h | 11331m | 3.6m/s | -56.8°C | 74.8% | 0hPa | 2.7V | 00:00:00 | 00:00:00 | 00:00:00 | |
| HA6NAB-11 | 2026-09-03 11:50:38 | 49.29567 | 17.55010 | 130° | 137km/h | 11322m | 3.9m/s | 0°C | 0% | 0hPa | 2.7V | 00:00:00 | 00:00:00 | 00:00:00 | |
| PETON7-10 | 2026-09-03 11:50:37 | 49.29611 | 17.54930 | 132° | 137km/h | 11314m | 5.0m/s | -56.7°C | 76.1% | 0hPa | 2.7V | 00:00:00 | 00:00:00 | 00:00:00 | |
| HA6NAB-11 | 2026-09-03 11:50:30 | 49.29745 | 17.54688 | 129° | 142km/h | 11287m | 4.3m/s | 0°C | 0% | 0hPa | 2.7V | 00:00:00 | 00:00:00 | 00:00:00 | |
| S52SK | 2026-09-03 11:50:29 | 49.29767 | 17.54644 | 127° | 144km/h | 11284m | 2.5m/s | -56.7°C | 0% | 0hPa | 2.7V | 00:00:00 | 00:00:00 | 00:00:00 | |
| OE5DRO-10 | 2026-09-03 11:50:28 | 49.29810 | 17.54555 | 127° | 131km/h | 11276m | 3.1m/s | -56.5°C | 79.2% | 0hPa | 2.7V | 00:00:00 | 00:00:00 | 00:00:00 | |
| S52SK | 2026-09-03 11:50:25 | 49.29874 | 17.54435 | 134° | 128km/h | 11263m | 5.0m/s | -56.5°C | 0% | 0hPa | 2.7V | 00:00:00 | 00:00:00 | 00:00:00 | |
| HA6NAB-11 | 2026-09-03 11:50:18 | 49.30042 | 17.54194 | 136° | 124km/h | 11221m | 5.0m/s | 0°C | 0% | 0hPa | 2.7V | 00:00:00 | 00:00:00 | 00:00:00 | |
| OE5DXL-15 | 2026-09-03 11:50:11 | 49.30170 | 17.53913 | 124° | 126km/h | 11180m | 3.5m/s | -55.9°C | 64.9% | 0hPa | 2.7V | 00:00:00 | 00:00:00 | 08:30:00 | |
| HA6NAB-11 | 2026-09-03 11:50:10 | 49.30170 | 17.53913 | 125° | 144km/h | 11180m | 3.5m/s | 0°C | 0% | 0hPa | 2.9V | 00:00:00 | 00:00:00 | 00:00:00 | |
| OE5DRO-10 | 2026-09-03 11:50:09 | 49.30213 | 17.53820 | 128° | 130km/h | 11172m | 4.9m/s | -55.9°C | 62.9% | 0hPa | 2.9V | 00:00:00 | 00:00:00 | 00:00:00 | |
| PETON7-10 | 2026-09-03 11:50:07 | 49.30261 | 17.53731 | 132° | 126km/h | 11162m | 5.4m/s | -55.8°C | 63.3% | 0hPa | 2.9V | 00:00:00 | 00:00:00 | 08:30:00 | |
| PG1ADW-2 | 2026-09-03 11:50:05 | 49.30308 | 17.53656 | 136° | 122km/h | 11149m | 7.7m/s | -55.9°C | 63.9% | 0hPa | 2.7V | 00:00:00 | 00:00:00 | 00:00:00 | |
| HA6NAB-11 | 2026-09-03 11:49:59 | 49.30411 | 17.53506 | 134° | 115km/h | 11121m | 4.6m/s | 0°C | 0% | 0hPa | 2.7V | 00:00:00 | 00:00:00 | 00:00:00 | |
| OE3JTB-15 | 2026-09-03 11:49:55 | 49.30516 | 17.53312 | 127° | 117km/h | 11088m | 6.2m/s | -55.4°C | 63.9% | 0hPa | 2.7V | 00:00:00 | 00:56:06 | 00:00:00 | |
| HA6NAB-11 | 2026-09-03 11:49:53 | 49.30557 | 17.53226 | 126° | 137km/h | 11079m | 2.8m/s | 0°C | 0% | 0hPa | 2.7V | 00:00:00 | 00:00:00 | 00:00:00 | |
| PETON7-10 | 2026-09-03 11:49:52 | 49.30577 | 17.53183 | 125° | 119km/h | 11076m | 3.4m/s | -55.2°C | 64.7% | 0hPa | 2.7V | 00:00:00 | 00:00:00 | 00:00:00 | |
| OE5DRO-10 | 2026-09-03 11:49:50 | 49.30614 | 17.53099 | 124° | 119km/h | 11068m | 5.2m/s | -55.2°C | 64.9% | 0hPa | 2.7V | 00:00:00 | 00:00:00 | 00:00:00 | |
| HA6NAB-11 | 2026-09-03 11:49:47 | 49.30662 | 17.52990 | 126° | 102km/h | 11050m | 5.4m/s | 0°C | 0% | 0hPa | 2.7V | 00:00:00 | 00:00:00 | 00:00:00 | |
| PG1ADW-2 | 2026-09-03 11:49:45 | 49.30694 | 17.52926 | 129° | 117km/h | 11038m | 5.3m/s | -55.0°C | 66.5% | 0hPa | 2.7V | 00:00:00 | 00:55:56 | 00:00:00 | |
| OE5DXL-15 | 2026-09-03 11:49:41 | 49.30776 | 17.52794 | 137° | 117km/h | 11019m | 6.2m/s | -54.8°C | 62.7% | 0hPa | 2.7V | 00:00:00 | 00:00:00 | 00:00:00 | |
| PETON7-10 | 2026-09-03 11:49:37 | 49.30871 | 17.52663 | 138° | 117km/h | 11001m | 4.4m/s | -54.6°C | 62.4% | 0hPa | 2.7V | 00:00:00 | 00:55:48 | 00:00:00 | |
| HA6NAB-11 | 2026-09-03 11:49:36 | 49.30871 | 17.52663 | 138° | 124km/h | 11001m | 4.4m/s | 0°C | 0% | 0hPa | 2.7V | 00:00:00 | 00:00:00 | 00:00:00 | |
| HA6NAB-11 | 2026-09-03 11:49:31 | 49.30997 | 17.52457 | 127° | 110km/h | 10965m | 4.9m/s | 0°C | 0% | 0hPa | 2.7V | 00:00:00 | 00:00:00 | 00:00:00 | |
| OE3JTB-15 | 2026-09-03 11:49:26 | 49.31066 | 17.52279 | 119° | 115km/h | 10944m | 3.9m/s | -54.1°C | 65.4% | 0hPa | 2.7V | 00:00:00 | 00:00:00 | 00:00:00 | |
| PG1ADW-2 | 2026-09-03 11:49:25 | 49.31080 | 17.52240 | 122° | 111km/h | 10940m | 4.2m/s | -54.0°C | 65.2% | 0hPa | 2.9V | 00:00:00 | 00:00:00 | 00:00:00 | |
| PETON7-10 | 2026-09-03 11:49:22 | 49.31138 | 17.52125 | 133° | 110km/h | 10924m | 7.8m/s | -53.9°C | 62.8% | 0hPa | 2.7V | 00:00:00 | 00:00:00 | 00:00:00 | |
| OE3OSB-13 | 2026-09-03 11:49:16 | 49.31292 | 17.51907 | 132° | 102km/h | 10888m | 7.7m/s | -53.7°C | 61.1% | -1.0hPa | 2.9V | 00:00:00 | 00:00:00 | 00:00:00 | |
| OE5DRO-10 | 2026-09-03 11:49:12 | 49.31337 | 17.51815 | 124° | 110km/h | 10869m | 6.3m/s | -53.5°C | 68.1% | 0hPa | 2.9V | 00:00:00 | 00:00:00 | 00:00:00 | |
| OE5DXL-15 | 2026-09-03 11:49:11 | 49.31351 | 17.51785 | 127° | 113km/h | 10864m | 4.8m/s | -53.4°C | 68.4% | 0hPa | 2.9V | 00:00:00 | 00:00:00 | 00:00:00 | |
| PETON7-10 | 2026-09-03 11:49:07 | 49.31424 | 17.51672 | 138° | 113km/h | 10839m | 7.0m/s | -53.2°C | 68.8% | 0hPa | 2.9V | 00:00:00 | 00:00:00 | 00:00:00 | |
| S52SK | 2026-09-03 11:49:06 | 49.31424 | 17.51672 | 139° | 115km/h | 10839m | 7.0m/s | 0°C | 0% | 0hPa | 2.9V | 00:00:00 | 00:00:00 | 00:00:00 | |
| PG1ADW-2 | 2026-09-03 11:49:05 | 49.31468 | 17.51608 | 134° | 113km/h | 10828m | 4.5m/s | -53.1°C | 70.0% | 0hPa | 2.9V | 00:00:00 | 00:00:00 | 00:00:00 | |
| OE3JTB-15 | 2026-09-03 11:48:57 | 49.31602 | 17.51295 | 117° | 110km/h | 10780m | 6.2m/s | -52.7°C | 67.3% | 0hPa | 2.9V | 00:00:00 | 00:00:00 | 00:00:00 | |
| OE5DRO-10 | 2026-09-03 11:48:53 | 49.31651 | 17.51172 | 126° | 117km/h | 10752m | 9.2m/s | -52.4°C | 68.3% | 0hPa | 2.9V | 00:00:00 | 00:00:00 | 00:00:00 | |
| PETON7-10 | 2026-09-03 11:48:52 | 49.31666 | 17.51141 | 128° | 119km/h | 10743m | 7.5m/s | -52.3°C | 68.5% | 0hPa | 2.9V | 00:00:00 | 00:55:03 | 00:00:00 | |
| OE3OSB-13 | 2026-09-03 11:48:45 | 49.31819 | 17.50862 | 131° | 113km/h | 10690m | 5.3m/s | -51.8°C | 61.1% | -1.0hPa | 2.9V | 00:00:00 | 00:00:00 | 00:00:00 | |
| PETON7-10 | 2026-09-03 11:48:37 | 49.31945 | 17.50593 | 125° | 108km/h | 10646m | 6.4m/s | -51.4°C | 68.9% | 0hPa | 2.9V | 00:00:00 | 00:00:00 | 00:00:00 | |
| OE5DRO-10 | 2026-09-03 11:48:34 | 49.31992 | 17.50490 | 124° | 110km/h | 10627m | 7.5m/s | -51.2°C | 65.1% | 0hPa | 2.9V | 00:00:00 | 00:00:00 | 08:30:00 | |
| OE3JTB-15 | 2026-09-03 11:48:28 | 49.32073 | 17.50297 | 126° | 113km/h | 10584m | 5.9m/s | -50.8°C | 69.9% | 0hPa | 2.9V | 00:00:00 | 00:54:39 | 00:00:00 | |
| PG1ADW-2 | 2026-09-03 11:48:25 | 49.32119 | 17.50186 | 119° | 113km/h | 10563m | 7.3m/s | -50.6°C | 69.3% | 0hPa | 2.9V | 00:00:00 | 00:54:36 | 08:30:00 | |
| PETON7-10 | 2026-09-03 11:48:22 | 49.32161 | 17.50065 | 119° | 113km/h | 10546m | 3.6m/s | -50.4°C | 69.9% | 0hPa | 2.7V | 00:00:00 | 00:00:00 | 00:00:00 | |
| OE5DRO-10 | 2026-09-03 11:48:15 | 49.32260 | 17.49791 | 122° | 111km/h | 10504m | 6.8m/s | -50.1°C | 72.4% | 0hPa | 2.7V | 00:00:00 | 00:00:00 | 00:00:00 | |
| OE3OSB-13 | 2026-09-03 11:48:14 | 49.32294 | 17.49717 | 126° | 113km/h | 10491m | 5.9m/s | -50.0°C | 64.8% | -1.0hPa | 2.7V | 00:00:00 | 00:00:00 | 00:00:00 | |
| OE5DXL-15 | 2026-09-03 11:48:11 | 49.32329 | 17.49651 | 131° | 115km/h | 10481m | 4.3m/s | -49.8°C | 70.6% | 0hPa | 2.7V | 00:00:00 | 00:00:00 | 00:00:00 | |
| PETON7-10 | 2026-09-03 11:48:07 | 49.32398 | 17.49528 | 130° | 113km/h | 10462m | 6.2m/s | -49.7°C | 68.8% | 0hPa | 2.7V | 00:00:00 | 00:54:18 | 00:00:00 | |
| PG1ADW-2 | 2026-09-03 11:48:05 | 49.32430 | 17.49464 | 126° | 117km/h | 10447m | 7.9m/s | -49.6°C | 67.8% | 0hPa | 2.7V | 00:00:00 | 00:00:00 | 00:00:00 | |
| OE3JTB-15 | 2026-09-03 11:47:59 | 49.32514 | 17.49228 | 120° | 113km/h | 10410m | 4.4m/s | -49.2°C | 71.2% | 0hPa | 2.7V | 00:00:00 | 00:00:00 | 08:30:00 | |
| OE5DRO-10 | 2026-09-03 11:47:54 | 49.32589 | 17.49041 | 119° | 115km/h | 10380m | 7.5m/s | -48.9°C | 70.6% | 0hPa | 2.9V | 00:00:00 | 00:00:00 | 00:00:00 | |
| PETON7-10 | 2026-09-03 11:47:52 | 49.32618 | 17.48956 | 117° | 115km/h | 10368m | 3.8m/s | -48.8°C | 72.3% | 0hPa | 2.9V | 00:00:00 | 00:00:00 | 08:30:00 | |
| PG1ADW-2 | 2026-09-03 11:47:45 | 49.32714 | 17.48676 | 122° | 110km/h | 10328m | 7.6m/s | -48.5°C | 71.8% | 0hPa | 2.7V | 00:00:00 | 00:00:00 | 00:00:00 | |
| S52SK | 2026-09-03 11:47:43 | 49.32727 | 17.48643 | 125° | 100km/h | 10321m | 6.3m/s | 0°C | 0% | 0hPa | 2.7V | 00:00:00 | 00:00:00 | 00:00:00 | |
| OE3OSB-13 | 2026-09-03 11:47:42 | 49.32759 | 17.48575 | 126° | 113km/h | 10310m | 4.4m/s | -48.3°C | 66.6% | -1.0hPa | 2.7V | 00:00:00 | 00:00:00 | 00:00:00 | |
| PETON7-10 | 2026-09-03 11:47:37 | 49.32837 | 17.48382 | 118° | 110km/h | 10277m | 4.5m/s | -48.0°C | 75.9% | 0hPa | 2.7V | 00:00:00 | 00:00:00 | 00:00:00 | |
| OE5DRO-10 | 2026-09-03 11:47:35 | 49.32862 | 17.48310 | 120° | 110km/h | 10266m | 5.7m/s | -47.9°C | 74.9% | 0hPa | 2.7V | 00:00:00 | 00:00:00 | 00:00:00 | |
| OE5DXL-15 | 2026-09-03 11:47:34 | 49.32875 | 17.48275 | 122° | 113km/h | 10261m | 4.1m/s | -47.9°C | 75.1% | 0hPa | 2.9V | 00:00:00 | 00:00:00 | 00:00:00 | |
| OE3JTB-15 | 2026-09-03 11:47:30 | 49.32934 | 17.48137 | 124° | 117km/h | 10241m | 5.8m/s | -47.7°C | 72.9% | 0hPa | 2.9V | 00:00:00 | 00:00:00 | 00:00:00 | |
| PETON7-10 | 2026-09-03 11:47:22 | 49.33047 | 17.47839 | 116° | 120km/h | 10193m | 4.4m/s | -47.2°C | 75.3% | 0hPa | 2.9V | 00:00:00 | 00:53:33 | 00:00:00 | |
| OE5DRO-10 | 2026-09-03 11:47:16 | 49.33138 | 17.47602 | 123° | 113km/h | 10158m | 5.0m/s | -47.0°C | 73.2% | 0hPa | 2.9V | 00:00:00 | 00:00:00 | 00:00:00 | |
| OE3OSB-13 | 2026-09-03 11:47:11 | 49.33217 | 17.47381 | 117° | 124km/h | 10129m | 6.9m/s | -46.8°C | 69.1% | -1.0hPa | 2.9V | 00:00:00 | 00:00:00 | 00:00:00 | |
| PETON7-10 | 2026-09-03 11:47:07 | 49.33268 | 17.47228 | 117° | 108km/h | 10103m | 5.9m/s | -46.5°C | 74.7% | 0hPa | 2.9V | 00:00:00 | 00:00:00 | 00:00:00 | |
| PG1ADW-2 | 2026-09-03 11:47:05 | 49.33289 | 17.47160 | 116° | 113km/h | 10092m | 5.5m/s | -46.3°C | 76.7% | 0hPa | 2.7V | 00:00:00 | 00:53:16 | 00:00:00 | |
| OE5DXL-15 | 2026-09-03 11:47:04 | 49.33301 | 17.47123 | 118° | 110km/h | 10087m | 4.5m/s | -46.3°C | 78.1% | 0hPa | 2.7V | 00:00:00 | 00:00:00 | 00:00:00 | |
| OE3JTB-15 | 2026-09-03 11:47:01 | 49.33343 | 17.47008 | 121° | 108km/h | 10068m | 6.9m/s | -46.2°C | 80.9% | 0hPa | 2.9V | 00:00:00 | 00:53:12 | 00:00:00 | |
| OE5DRO-10 | 2026-09-03 11:46:55 | 49.33432 | 17.46787 | 128° | 110km/h | 10033m | 2.6m/s | -45.8°C | 83.1% | 0hPa | 2.9V | 00:00:00 | 00:00:00 | 00:00:00 | |
| PETON7-10 | 2026-09-03 11:46:52 | 49.33478 | 17.46692 | 124° | 110km/h | 10022m | 3.7m/s | -45.7°C | 83.9% | 0hPa | 2.9V | 00:00:00 | 00:00:00 | 00:00:00 | |
| HA6NAB-11 | 2026-09-03 11:46:46 | 49.33552 | 17.46486 | 114° | 119km/h | 9989m | 7.7m/s | 0°C | 0% | 0hPa | 2.9V | 00:00:00 | 00:00:00 | 00:00:00 | |
| PG1ADW-2 | 2026-09-03 11:46:45 | 49.33574 | 17.46407 | 113° | 102km/h | 9976m | 7.2m/s | -45.4°C | 81.2% | 0hPa | 2.9V | 00:00:00 | 00:00:00 | 00:00:00 | |
| OE3OSB-13 | 2026-09-03 11:46:40 | 49.33638 | 17.46245 | 128° | 99km/h | 9947m | 4.6m/s | -45.1°C | 73.1% | -1.0hPa | 2.9V | 00:00:00 | 00:00:00 | 00:00:00 | |
| PETON7-10 | 2026-09-03 11:46:37 | 49.33687 | 17.46150 | 129° | 108km/h | 9934m | 6.3m/s | -44.9°C | 79.9% | 0hPa | 2.9V | 00:00:00 | 00:52:48 | 00:00:00 | |
| OE5DRO-10 | 2026-09-03 11:46:35 | 49.33719 | 17.46079 | 121° | 108km/h | 9922m | 5.1m/s | -44.8°C | 79.9% | 0hPa | 2.9V | 00:00:00 | 00:00:00 | 00:00:00 | |
| OE5DXL-15 | 2026-09-03 11:46:34 | 49.33733 | 17.46040 | 118° | 106km/h | 9916m | 7.5m/s | -44.8°C | 78.9% | 0hPa | 2.9V | 00:00:00 | 00:00:00 | 00:00:00 | |
| OE3JTB-15 | 2026-09-03 11:46:26 | 49.33817 | 17.45754 | 119° | 108km/h | 9869m | 7.0m/s | -44.3°C | 77.5% | 0hPa | 2.9V | 00:00:00 | 00:00:00 | 00:00:00 | |
| PG1ADW-2 | 2026-09-03 11:46:25 | 49.33830 | 17.45718 | 120° | 108km/h | 9863m | 6.2m/s | -44.3°C | 76.5% | 0hPa | 2.7V | 00:00:00 | 00:00:00 | 00:00:00 | |
| PETON7-10 | 2026-09-03 11:46:22 | 49.33875 | 17.45598 | 120° | 106km/h | 9841m | 8.4m/s | -44.1°C | 75.5% | 0hPa | 2.9V | 00:00:00 | 00:00:00 | 00:00:00 | |
| OE5DRO-10 | 2026-09-03 11:46:16 | 49.33947 | 17.45366 | 113° | 106km/h | 9803m | 6.0m/s | -43.7°C | 79.8% | 0hPa | 2.9V | 00:00:00 | 00:00:00 | 00:00:00 | |
| S52SK | 2026-09-03 11:46:11 | 49.33994 | 17.45227 | 121° | 100km/h | 9783m | 7.5m/s | 0°C | 0% | 0hPa | 2.9V | 00:00:00 | 00:00:00 | 00:00:00 | |
| OE3OSB-13 | 2026-09-03 11:46:09 | 49.34029 | 17.45125 | 114° | 100km/h | 9759m | 7.6m/s | -43.4°C | 72.3% | -1.0hPa | 2.9V | 00:00:00 | 00:00:00 | 00:00:00 | |
| PETON7-10 | 2026-09-03 11:46:07 | 49.34051 | 17.45051 | 115° | 108km/h | 9746m | 6.7m/s | -43.1°C | 78.6% | 0hPa | 2.9V | 00:00:00 | 00:00:00 | 00:00:00 | |
| PG1ADW-2 | 2026-09-03 11:46:05 | 49.34075 | 17.44974 | 118° | 108km/h | 9734m | 6.3m/s | -43.0°C | 78.9% | 0hPa | 2.9V | 00:00:00 | 00:00:00 | 00:00:00 | |
| OE5DXL-15 | 2026-09-03 11:46:04 | 49.34088 | 17.44937 | 119° | 106km/h | 9728m | 4.8m/s | 0°C | 0% | 0hPa | 2.9V | 00:00:00 | 00:52:15 | 00:00:00 | |
| OE5DRO-10 | 2026-09-03 11:45:57 | 49.34180 | 17.44680 | 120° | 106km/h | 9694m | 4.7m/s | -42.7°C | 78.3% | 0hPa | 2.9V | 00:00:00 | 00:00:00 | 00:00:00 | |
| PETON7-10 | 2026-09-03 11:45:52 | 49.34245 | 17.44500 | 121° | 104km/h | 9669m | 5.2m/s | -42.5°C | 77.0% | 0hPa | 2.9V | 00:00:00 | 00:52:03 | 00:00:00 | |
| PG1ADW-2 | 2026-09-03 11:45:45 | 49.34334 | 17.44245 | 119° | 100km/h | 9633m | 4.3m/s | -42.1°C | 76.6% | 0hPa | 2.9V | 00:00:00 | 00:51:56 | 00:00:00 | |
| OE5DRO-10 | 2026-09-03 11:45:38 | 49.34406 | 17.43991 | 115° | 102km/h | 9596m | 6.9m/s | -41.9°C | 76.5% | 0hPa | 2.9V | 00:00:00 | 00:00:00 | 08:30:00 | |
| PETON7-10 | 2026-09-03 11:45:37 | 49.34418 | 17.43954 | 120° | 102km/h | 9589m | 5.3m/s | -41.8°C | 76.1% | 0hPa | 2.7V | 00:00:00 | 00:00:00 | 08:30:00 | |
| OE5DXL-15 | 2026-09-03 11:45:34 | 49.34463 | 17.43846 | 125° | 106km/h | 9572m | 6.0m/s | 0°C | 0% | 0hPa | 2.9V | 00:00:00 | 00:00:00 | 00:00:00 | |
| PG1ADW-2 | 2026-09-03 11:45:25 | 49.34579 | 17.43557 | 119° | 100km/h | 9517m | 5.2m/s | -41.2°C | 73.5% | 0hPa | 2.9V | 00:00:00 | 00:00:00 | 08:30:00 | |
| PETON7-10 | 2026-09-03 11:45:22 | 49.34614 | 17.43449 | 114° | 102km/h | 9499m | 7.1m/s | -41.1°C | 72.3% | 0hPa | 2.9V | 00:00:00 | 00:00:00 | 00:00:00 | |
| OE5DRO-10 | 2026-09-03 11:45:19 | 49.34644 | 17.43343 | 115° | 99km/h | 9481m | 5.6m/s | -40.9°C | 72.8% | 0hPa | 2.9V | 00:00:00 | 00:00:00 | 00:00:00 | |
| OE3JTB-15 | 2026-09-03 11:45:12 | 49.34733 | 17.43093 | 118° | 95km/h | 9443m | 5.6m/s | -40.6°C | 72.7% | 0hPa | 2.9V | 00:00:00 | 00:51:23 | 00:00:00 | |
| PETON7-10 | 2026-09-03 11:45:07 | 49.34797 | 17.42931 | 125° | 97km/h | 9411m | 7.8m/s | -40.4°C | 73.6% | 0hPa | 2.9V | 00:00:00 | 00:51:18 | 00:00:00 | |
| PG1ADW-2 | 2026-09-03 11:45:05 | 49.34822 | 17.42873 | 121° | 99km/h | 9396m | 6.5m/s | -40.3°C | 75.2% | 0hPa | 2.9V | 00:00:00 | 00:00:00 | 00:00:00 | |
| OE5DRO-10 | 2026-09-03 11:45:00 | 49.34863 | 17.42700 | 104° | 99km/h | 9359m | 6.9m/s | -40.0°C | 73.3% | 0hPa | 2.9V | 00:00:00 | 00:00:00 | 00:00:00 | |
| S52SK | 2026-09-03 11:44:55 | 49.34893 | 17.42554 | 115° | 100km/h | 9334m | 5.1m/s | 0°C | 0% | 0hPa | 2.9V | 00:00:00 | 00:00:00 | 00:00:00 | |
| PETON7-10 | 2026-09-03 11:44:52 | 49.34940 | 17.42411 | 115° | 95km/h | 9311m | 4.6m/s | -39.5°C | 75.8% | 0hPa | 2.9V | 00:00:00 | 00:00:00 | 00:00:00 | |
| S52SK | 2026-09-03 11:44:50 | 49.34958 | 17.42340 | 107° | 97km/h | 9302m | 5.3m/s | 0°C | 0% | 0hPa | 2.9V | 00:00:00 | 00:00:00 | 00:00:00 | |
| S52SK | 2026-09-03 11:44:45 | 49.34988 | 17.42163 | 110° | 95km/h | 9273m | 5.4m/s | 0°C | 0% | 0hPa | 2.9V | 00:00:00 | 00:00:00 | 00:00:00 | |
| OE5DRO-10 | 2026-09-03 11:44:41 | 49.35024 | 17.42025 | 113° | 88km/h | 9246m | 5.2m/s | -39.1°C | 78.3% | 0hPa | 2.9V | 00:00:00 | 00:00:00 | 00:00:00 | |
| PETON7-10 | 2026-09-03 11:44:37 | 49.35056 | 17.41896 | 112° | 86km/h | 9225m | 5.9m/s | -39.0°C | 80.0% | 0hPa | 2.9V | 00:00:00 | 00:00:00 | 00:00:00 | |
| OE3OSB-13 | 2026-09-03 11:44:36 | 49.35065 | 17.41865 | 113° | 86km/h | 9219m | 5.4m/s | -39.0°C | 75.0% | -1.0hPa | 2.9V | 00:00:00 | 00:00:00 | 00:00:00 | |
| OE3JTB-15 | 2026-09-03 11:44:26 | 49.35153 | 17.41543 | 116° | 80km/h | 9166m | 6.7m/s | -38.9°C | 82.5% | 0hPa | 2.9V | 00:00:00 | 00:00:00 | 00:00:00 | |
| PG1ADW-2 | 2026-09-03 11:44:25 | 49.35162 | 17.41516 | 120° | 82km/h | 9160m | 6.1m/s | -38.9°C | 83.1% | 0hPa | 2.9V | 00:00:00 | 00:50:36 | 00:00:00 | |
| PETON7-10 | 2026-09-03 11:44:22 | 49.35191 | 17.41442 | 119° | 84km/h | 9147m | 3.4m/s | -38.8°C | 87.3% | 0hPa | 2.9V | 00:00:00 | 00:50:33 | 00:00:00 | |
| PETON7-10 | 2026-09-03 11:44:07 | 49.35319 | 17.40993 | 111° | 84km/h | 9047m | 8.2m/s | -38.2°C | 86.9% | 0hPa | 2.9V | 00:00:00 | 00:00:00 | 00:00:00 | |
| PG1ADW-2 | 2026-09-03 11:44:05 | 49.35331 | 17.40932 | 106° | 82km/h | 9032m | 6.9m/s | -38.1°C | 86.8% | 0hPa | 2.9V | 00:00:00 | 00:00:00 | 00:00:00 | |
| OE5DRO-10 | 2026-09-03 11:44:03 | 49.35341 | 17.40875 | 104° | 82km/h | 9020m | 7.5m/s | -38.0°C | 86.8% | 0hPa | 2.9V | 00:00:00 | 00:00:00 | 00:00:00 | |
| PETON7-10 | 2026-09-03 11:43:52 | 49.35416 | 17.40530 | 111° | 84km/h | 8943m | 5.0m/s | -37.5°C | 82.9% | 0hPa | 2.9V | 00:00:00 | 00:00:00 | 00:00:00 | |
| PG1ADW-2 | 2026-09-03 11:43:45 | 49.35474 | 17.40330 | 114° | 84km/h | 8904m | 5.7m/s | 0°C | 0% | 0hPa | 2.9V | 00:00:00 | 00:00:00 | 00:00:00 | |
| OE5DRO-10 | 2026-09-03 11:43:44 | 49.35482 | 17.40301 | 112° | 84km/h | 8900m | 3.8m/s | -37.1°C | 83.5% | 0hPa | 2.9V | 00:00:00 | 00:00:00 | 00:00:00 | |
| S52SK | 2026-09-03 11:43:42 | 49.35488 | 17.40270 | 107° | 84km/h | 8895m | 5.7m/s | 0°C | 0% | 0hPa | 2.7V | 00:00:00 | 00:00:00 | 00:00:00 | |
| PETON7-10 | 2026-09-03 11:43:37 | 49.35519 | 17.40070 | 110° | 84km/h | 8868m | 5.9m/s | -36.9°C | 82.4% | 0hPa | 2.7V | 00:00:00 | 00:49:48 | 00:00:00 | |
| OE3OSB-13 | 2026-09-03 11:43:34 | 49.35553 | 17.39964 | 117° | 73km/h | 8840m | 8.0m/s | -36.7°C | 75.8% | -1.0hPa | 2.7V | 00:00:00 | 00:00:00 | 00:00:00 | |
| S52SK | 2026-09-03 11:43:32 | 49.35553 | 17.39964 | 118° | 75km/h | 8840m | 8.0m/s | 0°C | 0% | 0hPa | 2.7V | 00:00:00 | 00:00:00 | 00:00:00 | |
| S52SK | 2026-09-03 11:43:26 | 49.35592 | 17.39778 | 109° | 91km/h | 8800m | 6.0m/s | 0°C | 0% | 0hPa | 2.7V | 00:00:00 | 00:00:00 | 00:00:00 | |
| PG1ADW-2 | 2026-09-03 11:43:25 | 49.35608 | 17.39711 | 112° | 82km/h | 8790m | 5.1m/s | 0°C | 0% | 0hPa | 2.7V | 00:00:00 | 00:00:00 | 00:00:00 | |
| PETON7-10 | 2026-09-03 11:43:22 | 49.35636 | 17.39618 | 118° | 82km/h | 8771m | 6.2m/s | -36.1°C | 78.9% | 0hPa | 2.7V | 00:00:00 | 00:00:00 | 08:30:00 | |
| PETON7-10 | 2026-09-03 11:43:07 | 49.35739 | 17.39177 | 101° | 75km/h | 8673m | 6.7m/s | -35.3°C | 78.7% | 0hPa | 2.9V | 00:00:00 | 00:00:00 | 00:00:00 | |
| OE5DRO-10 | 2026-09-03 11:43:06 | 49.35742 | 17.39147 | 102° | 77km/h | 8666m | 6.8m/s | 0°C | 0% | 0hPa | 2.9V | 00:00:00 | 00:00:00 | 00:00:00 | |
| PG1ADW-2 | 2026-09-03 11:43:05 | 49.35747 | 17.39117 | 103° | 77km/h | 8660m | 6.3m/s | 0°C | 0% | 0hPa | 2.9V | 00:00:00 | 00:49:16 | 00:00:00 | |
| OE3OSB-13 | 2026-09-03 11:43:03 | 49.35764 | 17.39024 | 108° | 80km/h | 8641m | 6.0m/s | -35.2°C | 72.9% | -1.0hPa | 2.9V | 00:00:00 | 00:00:00 | 00:00:00 | |
| PETON7-10 | 2026-09-03 11:42:51 | 49.35827 | 17.38725 | 97° | 71km/h | 8581m | 3.1m/s | -34.8°C | 80.2% | 0hPa | 2.9V | 00:00:00 | 00:49:02 | 00:00:00 | |
| OE5DRO-10 | 2026-09-03 11:42:47 | 49.35845 | 17.38610 | 111° | 69km/h | 8562m | 7.5m/s | 0°C | 0% | 0hPa | 2.9V | 00:00:00 | 00:00:00 | 00:00:00 | |
| PG1ADW-2 | 2026-09-03 11:42:45 | 49.35859 | 17.38559 | 115° | 69km/h | 8546m | 7.8m/s | 0°C | 0% | 0hPa | 2.9V | 00:00:00 | 00:00:00 | 00:00:00 | |
| PETON7-10 | 2026-09-03 11:42:36 | 49.35903 | 17.38329 | 108° | 71km/h | 8492m | 3.7m/s | -34.3°C | 81.8% | 0hPa | 2.9V | 00:00:00 | 00:00:00 | 00:00:00 | |
| OE3OSB-13 | 2026-09-03 11:42:32 | 49.35944 | 17.38209 | 121° | 60km/h | 8463m | 5.3m/s | -34.3°C | 76.5% | -1.0hPa | 2.7V | 00:00:00 | 00:00:00 | 00:00:00 | |
| PG1ADW-2 | 2026-09-03 11:42:25 | 49.35979 | 17.38055 | 109° | 77km/h | 8424m | 6.5m/s | 0°C | 0% | 0hPa | 2.7V | 00:00:00 | 00:00:00 | 00:00:00 | |
| PETON7-10 | 2026-09-03 11:42:21 | 49.36006 | 17.37947 | 115° | 64km/h | 8396m | 7.6m/s | -33.9°C | 80.8% | 0hPa | 2.7V | 00:00:00 | 00:00:00 | 00:00:00 | |
| PETON7-10 | 2026-09-03 11:42:06 | 49.36125 | 17.37625 | 110° | 68km/h | 8303m | 4.2m/s | -33.3°C | 80.1% | 0hPa | 2.7V | 00:00:00 | 00:48:17 | 00:00:00 | |
| OE3OSB-13 | 2026-09-03 11:42:01 | 49.36149 | 17.37485 | 99° | 57km/h | 8266m | 5.7m/s | -33.1°C | 71.8% | -1.0hPa | 2.7V | 00:00:00 | 00:00:00 | 00:00:00 | |
| PETON7-10 | 2026-09-03 11:41:51 | 49.36209 | 17.37255 | 114° | 69km/h | 8213m | 6.3m/s | -32.5°C | 73.6% | 0hPa | 2.7V | 00:00:00 | 00:00:00 | 00:00:00 | |
| PETON7-10 | 2026-09-03 11:41:36 | 49.36315 | 17.36885 | 110° | 69km/h | 8127m | 6.5m/s | -31.8°C | 69.9% | 0hPa | 2.9V | 00:00:00 | 00:00:00 | 00:00:00 | |
| OE3OSB-13 | 2026-09-03 11:41:31 | 49.36354 | 17.36731 | 117° | 62km/h | 8086m | 5.0m/s | -31.5°C | 65.5% | -1.0hPa | 2.9V | 00:00:00 | 00:00:00 | 00:00:00 | |
| PETON7-10 | 2026-09-03 11:41:21 | 49.36417 | 17.36520 | 118° | 69km/h | 8045m | 6.4m/s | -31.1°C | 66.1% | 0hPa | 2.9V | 00:00:00 | 00:47:32 | 00:00:00 | |
| PETON7-10 | 2026-09-03 11:41:06 | 49.36524 | 17.36160 | 109° | 68km/h | 7960m | 4.8m/s | -30.3°C | 53.4% | 0hPa | 2.9V | 00:00:00 | 00:00:00 | 08:30:00 | |
| OE3OSB-13 | 2026-09-03 11:40:58 | 49.36560 | 17.35958 | 114° | 78km/h | 7898m | 7.4m/s | -29.9°C | 42.4% | -1.0hPa | 2.9V | 00:00:00 | 00:00:00 | 00:00:00 | |
| PETON7-10 | 2026-09-03 11:40:51 | 49.36619 | 17.35797 | 115° | 66km/h | 7853m | 5.9m/s | -29.4°C | 45.0% | 0hPa | 2.9V | 00:00:00 | 00:00:00 | 00:00:00 | |
| PETON7-10 | 2026-09-03 11:40:36 | 49.36732 | 17.35450 | 108° | 64km/h | 7779m | 3.9m/s | -28.7°C | 45.2% | 0hPa | 2.9V | 00:00:00 | 00:46:47 | 00:00:00 | |
| PETON7-10 | 2026-09-03 11:40:21 | 49.36835 | 17.35114 | 124° | 68km/h | 7689m | 7.5m/s | -27.9°C | 41.7% | 0hPa | 2.9V | 00:00:00 | 00:00:00 | 00:00:00 | |
| PETON7-10 | 2026-09-03 11:40:06 | 49.36942 | 17.34757 | 121° | 66km/h | 7601m | 5.7m/s | -27.1°C | 39.5% | 0hPa | 2.9V | 00:00:00 | 00:00:00 | 00:00:00 | |
| OE3OSB-13 | 2026-09-03 11:39:56 | 49.37032 | 17.34550 | 112° | 55km/h | 7546m | 6.9m/s | -26.7°C | 36.1% | -1.0hPa | 2.9V | 00:00:00 | 00:00:00 | 00:00:00 | |
| PETON7-10 | 2026-09-03 11:39:50 | 49.37084 | 17.34410 | 128° | 64km/h | 7506m | 4.6m/s | -26.3°C | 36.7% | 0hPa | 2.9V | 00:00:00 | 00:46:01 | 00:00:00 | |
| PETON7-10 | 2026-09-03 11:39:35 | 49.37218 | 17.34098 | 119° | 71km/h | 7425m | 4.1m/s | -25.5°C | 33.4% | 0hPa | 2.9V | 00:00:00 | 00:00:00 | 00:00:00 | |
| OE3JTB-15 | 2026-09-03 11:39:34 | 49.37227 | 17.34073 | 119° | 73km/h | 7421m | 3.9m/s | -25.5°C | 32.8% | 0hPa | 2.9V | 00:00:00 | 00:00:00 | 00:00:00 | |
| OE3OSB-13 | 2026-09-03 11:39:26 | 49.37308 | 17.33855 | 115° | 62km/h | 7376m | 8.0m/s | -25.2°C | 33.2% | -1.0hPa | 2.9V | 00:00:00 | 00:00:00 | 00:00:00 | |
| PETON7-10 | 2026-09-03 11:39:20 | 49.37342 | 17.33734 | 107° | 68km/h | 7346m | 5.1m/s | -24.9°C | 35.1% | 0hPa | 2.9V | 00:00:00 | 00:00:00 | 00:00:00 | |
| PETON7-10 | 2026-09-03 11:39:05 | 49.37440 | 17.33376 | 122° | 68km/h | 7268m | 4.3m/s | -24.5°C | 31.4% | 0hPa | 2.9V | 00:00:00 | 00:45:16 | 00:00:00 | |
| OE3OSB-13 | 2026-09-03 11:38:54 | 49.37532 | 17.33135 | 114° | 60km/h | 7202m | 3.7m/s | -24.0°C | 48.5% | -1.0hPa | 2.9V | 00:00:00 | 00:00:00 | 00:00:00 | |
| PETON7-10 | 2026-09-03 11:38:50 | 49.37565 | 17.33036 | 119° | 75km/h | 7182m | 8.3m/s | -23.9°C | 53.4% | 0hPa | 2.9V | 00:00:00 | 00:00:00 | 08:30:00 | |
| PETON7-10 | 2026-09-03 11:38:35 | 49.37730 | 17.32691 | 128° | 77km/h | 7104m | 4.0m/s | -23.1°C | 55.0% | 0hPa | 2.9V | 00:00:00 | 00:00:00 | 00:00:00 | |
| OE3OSB-13 | 2026-09-03 11:38:23 | 49.37880 | 17.32401 | 131° | 64km/h | 7055m | 7.2m/s | -22.8°C | 49.5% | -1.0hPa | 2.9V | 00:00:00 | 00:00:00 | 00:00:00 | |
| PETON7-10 | 2026-09-03 11:38:20 | 49.37909 | 17.32348 | 129° | 73km/h | 7036m | 4.6m/s | -22.6°C | 46.7% | 0hPa | 2.9V | 00:00:00 | 00:44:31 | 00:00:00 | |
| PETON7-10 | 2026-09-03 11:38:05 | 49.38070 | 17.32013 | 136° | 66km/h | 6956m | 4.8m/s | -21.9°C | 22.1% | 0hPa | 2.9V | 00:00:00 | 00:00:00 | 00:00:00 | |
| OE3OSB-13 | 2026-09-03 11:37:52 | 49.38201 | 17.31757 | 132° | 68km/h | 6900m | 6.6m/s | -21.7°C | 16.6% | -1.0hPa | 2.9V | 00:00:00 | 00:00:00 | 00:00:00 | |
| PETON7-10 | 2026-09-03 11:37:50 | 49.38225 | 17.31713 | 128° | 69km/h | 6889m | 3.6m/s | -21.5°C | 17.7% | 0hPa | 2.9V | 00:00:00 | 00:00:00 | 00:00:00 | |
| PETON7-10 | 2026-09-03 11:37:35 | 49.38381 | 17.31392 | 127° | 66km/h | 6817m | 6.7m/s | -20.9°C | 15.9% | 0hPa | 2.9V | 00:00:00 | 00:43:46 | 00:00:00 | |
| OE3OSB-13 | 2026-09-03 11:37:21 | 49.38526 | 17.31080 | 121° | 71km/h | 6736m | 3.7m/s | -20.4°C | 9.0% | -1.0hPa | 2.9V | 00:00:00 | 00:00:00 | 00:00:00 | |
| PETON7-10 | 2026-09-03 11:37:20 | 49.38526 | 17.31080 | 122° | 77km/h | 6736m | 3.6m/s | -20.3°C | 9.8% | 0hPa | 2.9V | 00:00:00 | 00:00:00 | 00:00:00 | |
| PETON7-10 | 2026-09-03 11:37:05 | 49.38712 | 17.30741 | 140° | 75km/h | 6684m | 3.5m/s | -19.9°C | 9.2% | 0hPa | 2.9V | 00:00:00 | 00:00:00 | 00:00:00 | |
| PETON7-10 | 2026-09-03 11:36:50 | 49.38893 | 17.30414 | 120° | 75km/h | 6621m | 2.0m/s | -19.5°C | 8.7% | 0hPa | 2.9V | 00:00:00 | 00:43:01 | 00:00:00 | |
| PETON7-10 | 2026-09-03 11:36:35 | 49.39088 | 17.30106 | 139° | 73km/h | 6548m | 5.9m/s | -19.0°C | 8.6% | 0hPa | 2.9V | 00:00:00 | 00:00:00 | 08:30:00 | |
| OM5KV | 2026-09-03 11:36:31 | 49.39126 | 17.30056 | 142° | 66km/h | 6536m | 5.2m/s | -19.0°C | 8.2% | 0hPa | 3.0V | 00:00:00 | 00:00:00 | 00:00:00 | |
| PETON7-10 | 2026-09-03 11:36:20 | 49.39296 | 17.29826 | 132° | 68km/h | 6497m | 2.6m/s | -18.7°C | 9.4% | 0hPa | 3.0V | 00:00:00 | 00:00:00 | 00:00:00 | |
| OE3OSB-13 | 2026-09-03 11:36:19 | 49.39321 | 17.29781 | 128° | 71km/h | 6489m | 5.2m/s | -18.7°C | 8.9% | -1.0hPa | 3.0V | 00:00:00 | 00:00:00 | 00:00:00 | |
| OM5KV | 2026-09-03 11:36:12 | 49.39371 | 17.29688 | 138° | 60km/h | 6458m | 5.5m/s | -18.6°C | 9.0% | 0hPa | 3.0V | 00:00:00 | 00:00:00 | 00:00:00 | |
| OM5KV | 2026-09-03 11:36:11 | 49.39383 | 17.29673 | 143° | 62km/h | 6454m | 4.5m/s | -18.5°C | 9.0% | 0hPa | 3.0V | 00:00:00 | 00:00:00 | 00:00:00 | |
| PETON7-10 | 2026-09-03 11:36:05 | 49.39479 | 17.29566 | 139° | 66km/h | 6425m | 5.3m/s | -18.3°C | 7.9% | 0hPa | 3.0V | 00:00:00 | 00:42:16 | 00:00:00 | |
| OE3JTB-15 | 2026-09-03 11:36:03 | 49.39503 | 17.29527 | 127° | 57km/h | 6412m | 6.8m/s | -18.3°C | 6.4% | 0hPa | 3.0V | 00:00:00 | 00:00:00 | 00:00:00 | |
| OE3OSB-13 | 2026-09-03 11:35:48 | 49.39639 | 17.29196 | 121° | 49km/h | 6341m | 4.8m/s | -18.3°C | 33.8% | -1.0hPa | 3.0V | 00:00:00 | 00:00:00 | 00:00:00 | |
| OM5KV | 2026-09-03 11:35:47 | 49.39632 | 17.29214 | 122° | 55km/h | 6345m | 2.7m/s | -18.3°C | 35.1% | 0hPa | 3.0V | 00:00:00 | 00:00:00 | 00:00:00 | |
| OM5KV | 2026-09-03 11:35:42 | 49.39687 | 17.29115 | 140° | 60km/h | 6322m | 3.0m/s | -18.2°C | 33.9% | 0hPa | 3.0V | 00:00:00 | 00:00:00 | 00:00:00 | |
| OM5KV | 2026-09-03 11:35:37 | 49.39728 | 17.29058 | 132° | 47km/h | 6310m | 4.9m/s | -18.1°C | 32.2% | 0hPa | 3.0V | 00:00:00 | 00:00:00 | 00:00:00 | |
| OM5KV | 2026-09-03 11:35:36 | 49.39735 | 17.29043 | 125° | 51km/h | 6305m | 5.0m/s | -18.0°C | 31.5% | 0hPa | 3.0V | 00:00:00 | 00:00:00 | 00:00:00 | |
| PETON7-10 | 2026-09-03 11:35:35 | 49.39749 | 17.29008 | 123° | 58km/h | 6296m | 4.1m/s | -17.9°C | 33.7% | 0hPa | 3.0V | 00:00:00 | 00:00:00 | 00:00:00 | |
| OM5KV | 2026-09-03 11:35:30 | 49.39781 | 17.28939 | 123° | 53km/h | 6273m | 6.1m/s | -17.7°C | 32.4% | 0hPa | 3.0V | 00:00:00 | 00:00:00 | 00:00:00 | |
| OE3JTB-15 | 2026-09-03 11:35:29 | 49.39793 | 17.28903 | 116° | 58km/h | 6263m | 3.9m/s | -17.6°C | 34.5% | 0hPa | 3.0V | 00:00:00 | 00:41:40 | 00:00:00 | |
| OM5KV | 2026-09-03 11:35:26 | 49.39807 | 17.28862 | 120° | 64km/h | 6255m | 3.3m/s | -17.5°C | 29.9% | 0hPa | 3.0V | 00:00:00 | 00:00:00 | 00:00:00 | |
| PETON7-10 | 2026-09-03 11:35:20 | 49.39864 | 17.28720 | 135° | 55km/h | 6226m | 5.8m/s | -17.3°C | 8.0% | 0hPa | 3.0V | 00:00:00 | 00:41:31 | 00:00:00 | |
| OE3OSB-13 | 2026-09-03 11:35:16 | 49.39909 | 17.28659 | 134° | 62km/h | 6203m | 3.3m/s | -17.1°C | 4.9% | -1.0hPa | 3.0V | 00:00:00 | 00:00:00 | 00:00:00 | |
| PETON7-10 | 2026-09-03 11:35:05 | 49.40009 | 17.28490 | 126° | 51km/h | 6149m | 2.9m/s | -17.1°C | 4.4% | 0hPa | 3.0V | 00:00:00 | 00:00:00 | 00:00:00 | |
| OE3OSB-13 | 2026-09-03 11:34:46 | 49.40143 | 17.28155 | 110° | 55km/h | 6056m | 2.7m/s | -16.9°C | 51.8% | -1.0hPa | 3.0V | 00:00:00 | 00:00:00 | 00:00:00 | |
| OM5KV | 2026-09-03 11:34:42 | 49.40154 | 17.28113 | 113° | 58km/h | 6051m | 3.5m/s | -16.8°C | 51.7% | 0hPa | 3.0V | 00:00:00 | 00:00:00 | 00:00:00 | |
| OM5KV | 2026-09-03 11:34:40 | 49.40166 | 17.28072 | 116° | 57km/h | 6044m | 4.4m/s | -16.7°C | 52.0% | 0hPa | 3.0V | 00:00:00 | 00:00:00 | 00:00:00 | |
| OM5KV | 2026-09-03 11:34:37 | 49.40197 | 17.28006 | 140° | 51km/h | 6018m | 7.8m/s | -16.6°C | 53.4% | 0hPa | 3.0V | 00:00:00 | 00:00:00 | 00:00:00 | |
| PETON7-10 | 2026-09-03 11:34:35 | 49.40217 | 17.27981 | 140° | 42km/h | 6005m | 5.2m/s | -16.4°C | 55.3% | 0hPa | 3.0V | 00:00:00 | 00:40:46 | 00:00:00 | |
| OE3JTB-15 | 2026-09-03 11:34:31 | 49.40247 | 17.27936 | 129° | 40km/h | 5987m | 6.0m/s | -16.2°C | 54.4% | 0hPa | 3.0V | 00:00:00 | 00:00:00 | 00:00:00 | |
| OM5KV | 2026-09-03 11:34:30 | 49.40251 | 17.27927 | 125° | 27km/h | 5982m | 4.5m/s | -16.2°C | 52.2% | 0hPa | 3.0V | 00:00:00 | 00:00:00 | 00:00:00 | |
| OM5KV | 2026-09-03 11:34:28 | 49.40255 | 17.27919 | 125° | 26km/h | 5978m | 4.0m/s | -16.2°C | 52.3% | 0hPa | 3.0V | 00:00:00 | 00:00:00 | 00:00:00 | |
| OM5KV | 2026-09-03 11:34:26 | 49.40268 | 17.27887 | 123° | 38km/h | 5966m | 5.8m/s | -16.1°C | 52.8% | 0hPa | 3.0V | 00:00:00 | 00:00:00 | 00:00:00 | |
| OM5KV | 2026-09-03 11:34:24 | 49.40280 | 17.27857 | 123° | 51km/h | 5955m | 5.3m/s | -16.0°C | 52.6% | 0hPa | 3.0V | 00:00:00 | 00:00:00 | 00:00:00 | |
| PETON7-10 | 2026-09-03 11:34:20 | 49.40317 | 17.27795 | 141° | 40km/h | 5938m | 3.3m/s | -15.7°C | 55.1% | 0hPa | 3.0V | 00:00:00 | 00:00:00 | 08:30:00 | |
| OM5KV | 2026-09-03 11:34:16 | 49.40344 | 17.27758 | 137° | 46km/h | 5924m | 6.2m/s | -15.7°C | 0% | 0hPa | 3.0V | 00:00:00 | 00:00:00 | 00:00:00 | |
| OE3OSB-13 | 2026-09-03 11:34:14 | 49.40367 | 17.27717 | 122° | 49km/h | 5900m | 7.6m/s | -15.5°C | 52.4% | -1.0hPa | 3.0V | 00:00:00 | 00:00:00 | 00:00:00 | |
| OM5KV | 2026-09-03 11:34:11 | 49.40382 | 17.27673 | 115° | 33km/h | 5884m | 3.8m/s | -15.3°C | 0% | 0hPa | 3.0V | 00:00:00 | 00:00:00 | 00:00:00 | |
| OM5KV | 2026-09-03 11:34:09 | 49.40385 | 17.27662 | 113° | 29km/h | 5880m | 4.4m/s | -15.3°C | 56.1% | 0hPa | 3.0V | 00:00:00 | 00:00:00 | 00:00:00 | |
| PETON7-10 | 2026-09-03 11:34:05 | 49.40408 | 17.27614 | 145° | 42km/h | 5859m | 5.7m/s | -15.1°C | 53.5% | 0hPa | 3.0V | 00:00:00 | 00:00:00 | 00:00:00 | |
| OM5KV | 2026-09-03 11:34:03 | 49.40417 | 17.27606 | 154° | 42km/h | 5852m | 6.0m/s | -15.1°C | 51.4% | 0hPa | 3.0V | 00:00:00 | 00:00:00 | 00:00:00 | |
| OE3JTB-15 | 2026-09-03 11:34:02 | 49.40436 | 17.27592 | 155° | 42km/h | 5842m | 5.1m/s | -14.9°C | 52.6% | 0hPa | 3.0V | 00:00:00 | 00:40:13 | 00:00:00 | |
| OM5KV | 2026-09-03 11:33:59 | 49.40452 | 17.27575 | 137° | 40km/h | 5834m | 4.9m/s | -14.9°C | 50.6% | 0hPa | 3.0V | 00:00:00 | 00:00:00 | 00:00:00 | |
| OM5KV | 2026-09-03 11:33:52 | 49.40501 | 17.27483 | 144° | 37km/h | 5799m | 4.7m/s | -14.6°C | 46.4% | 0hPa | 3.0V | 00:00:00 | 00:00:00 | 00:00:00 | |
| OM5KV | 2026-09-03 11:33:50 | 49.40525 | 17.27458 | 144° | 38km/h | 5780m | 5.4m/s | -14.5°C | 0% | 0hPa | 3.0V | 00:00:00 | 00:00:00 | 00:00:00 | |
| OM5KV | 2026-09-03 11:33:47 | 49.40540 | 17.27437 | 135° | 38km/h | 5772m | 5.0m/s | -14.5°C | 37.2% | 0hPa | 3.0V | 00:00:00 | 00:00:00 | 00:00:00 | |
| OM5KV | 2026-09-03 11:33:44 | 49.40558 | 17.27410 | 145° | 29km/h | 5756m | 6.3m/s | -14.4°C | 32.7% | 0hPa | 3.0V | 00:00:00 | 00:00:00 | 00:00:00 | |
| OE3OSB-13 | 2026-09-03 11:33:43 | 49.40573 | 17.27397 | 153° | 38km/h | 5746m | 5.1m/s | -14.3°C | 31.4% | -1.0hPa | 3.0V | 00:00:00 | 00:00:00 | 00:00:00 | |
| OM5KV | 2026-09-03 11:33:38 | 49.40610 | 17.27360 | 142° | 49km/h | 5729m | 5.3m/s | -14.1°C | 28.5% | 0hPa | 3.0V | 00:00:00 | 00:00:00 | 00:00:00 | |
| PETON7-10 | 2026-09-03 11:33:35 | 49.40644 | 17.27312 | 130° | 38km/h | 5703m | 6.1m/s | -13.9°C | 23.2% | 0hPa | 3.0V | 00:00:00 | 00:00:00 | 00:00:00 | |
| OM5KV | 2026-09-03 11:33:33 | 49.40653 | 17.27289 | 119° | 31km/h | 5693m | 4.6m/s | -13.8°C | 0% | 0hPa | 3.0V | 00:00:00 | 00:00:00 | 00:00:00 | |
| OM5KV | 2026-09-03 11:33:29 | 49.40664 | 17.27255 | 122° | 35km/h | 5678m | 4.1m/s | -13.7°C | 0% | 0hPa | 3.0V | 00:00:00 | 00:00:00 | 00:00:00 | |
| OM5KV | 2026-09-03 11:33:27 | 49.40676 | 17.27231 | 130° | 42km/h | 5669m | 5.5m/s | -13.6°C | 0% | 0hPa | 3.0V | 00:00:00 | 00:00:00 | 00:00:00 | |
| OM5KV | 2026-09-03 11:33:25 | 49.40689 | 17.27206 | 130° | 40km/h | 5655m | 6.8m/s | -13.6°C | 0% | 0hPa | 3.0V | 00:00:00 | 00:00:00 | 00:00:00 | |
| OM5KV | 2026-09-03 11:33:23 | 49.40701 | 17.27182 | 127° | 40km/h | 5645m | 4.6m/s | -13.5°C | 0% | 0hPa | 3.0V | 00:00:00 | 00:00:00 | 00:00:00 | |
| OM5KV | 2026-09-03 11:33:22 | 49.40707 | 17.27169 | 128° | 42km/h | 5640m | 5.7m/s | -13.4°C | 0% | 0hPa | 3.0V | 00:00:00 | 00:00:00 | 00:00:00 | |
| PETON7-10 | 2026-09-03 11:33:20 | 49.40725 | 17.27132 | 127° | 46km/h | 5626m | 5.0m/s | -13.3°C | 15.6% | 0hPa | 3.0V | 00:00:00 | 00:00:00 | 00:00:00 | |
| OM5KV | 2026-09-03 11:33:14 | 49.40749 | 17.27081 | 129° | 40km/h | 5607m | 5.1m/s | -13.3°C | 0% | 0hPa | 3.0V | 00:00:00 | 00:00:00 | 00:00:00 | |
| OE3OSB-13 | 2026-09-03 11:33:12 | 49.40774 | 17.27033 | 126° | 58km/h | 5591m | 5.0m/s | -13.2°C | 15.0% | -1.0hPa | 3.0V | 00:00:00 | 00:00:00 | 00:00:00 | |
| OM5KV | 2026-09-03 11:33:09 | 49.40792 | 17.26995 | 127° | 60km/h | 5583m | 2.8m/s | -13.2°C | 0% | 0hPa | 3.0V | 00:00:00 | 00:00:00 | 00:00:00 | |
| PETON7-10 | 2026-09-03 11:33:05 | 49.40834 | 17.26925 | 141° | 47km/h | 5553m | 8.6m/s | -13.0°C | 17.1% | 0hPa | 3.0V | 00:00:00 | 00:39:16 | 00:00:00 | |
| OE3JTB-15 | 2026-09-03 11:33:04 | 49.40841 | 17.26915 | 141° | 49km/h | 5545m | 7.9m/s | -13.0°C | 17.2% | 0hPa | 3.0V | 00:00:00 | 00:00:00 | 00:00:00 | |
| OM5KV | 2026-09-03 11:33:00 | 49.40871 | 17.26864 | 125° | 49km/h | 5518m | 4.6m/s | 0°C | 0% | 0hPa | 3.0V | 00:00:00 | 00:00:00 | 00:00:00 | |
| OM5KV | 2026-09-03 11:32:58 | 49.40878 | 17.26849 | 125° | 49km/h | 5512m | 6.5m/s | 0°C | 0% | 0hPa | 3.0V | 00:00:00 | 00:00:00 | 00:00:00 | |
| OM5KV | 2026-09-03 11:32:57 | 49.40885 | 17.26833 | 125° | 47km/h | 5506m | 5.2m/s | 0°C | 0% | 0hPa | 3.0V | 00:00:00 | 00:00:00 | 00:00:00 | |
| OM5KV | 2026-09-03 11:32:51 | 49.40934 | 17.26752 | 132° | 57km/h | 5476m | 4.3m/s | 0°C | 0% | 0hPa | 3.0V | 00:00:00 | 00:00:00 | 00:00:00 | |
| PETON7-10 | 2026-09-03 11:32:50 | 49.40952 | 17.26718 | 128° | 49km/h | 5467m | 4.5m/s | -12.5°C | 15.3% | 0hPa | 3.0V | 00:00:00 | 00:00:00 | 00:00:00 | |
| OM5KV | 2026-09-03 11:32:47 | 49.40971 | 17.26685 | 136° | 51km/h | 5452m | 7.9m/s | 0°C | 0% | 0hPa | 2.9V | 00:00:00 | 00:00:00 | 00:00:00 | |
| OE3OSB-13 | 2026-09-03 11:32:41 | 49.41026 | 17.26579 | 117° | 58km/h | 5406m | 4.1m/s | -12.1°C | 12.5% | -1.0hPa | 2.9V | 00:00:00 | 00:00:00 | 00:00:00 | |
| OM5KV | 2026-09-03 11:32:39 | 49.41033 | 17.26559 | 119° | 57km/h | 5402m | 5.0m/s | 0°C | 0% | 0hPa | 2.9V | 00:00:00 | 00:00:00 | 00:00:00 | |
| PETON7-10 | 2026-09-03 11:32:35 | 49.41064 | 17.26492 | 137° | 51km/h | 5377m | 4.8m/s | -11.9°C | 11.9% | 0hPa | 2.9V | 00:00:00 | 00:00:00 | 00:00:00 | |
| PETON7-10 | 2026-09-03 11:32:20 | 49.41199 | 17.26284 | 127° | 47km/h | 5278m | 6.6m/s | -11.6°C | 27.6% | 0hPa | 2.9V | 00:00:00 | 00:38:31 | 00:00:00 | |
| OE3OSB-13 | 2026-09-03 11:32:10 | 49.41275 | 17.26131 | 136° | 37km/h | 5220m | 5.9m/s | -11.9°C | 53.8% | -1.0hPa | 2.9V | 00:00:00 | 00:00:00 | 00:00:00 | |
| OE3JTB-15 | 2026-09-03 11:32:06 | 49.41299 | 17.26075 | 114° | 44km/h | 5197m | 6.6m/s | -12.0°C | 72.4% | 0hPa | 2.9V | 00:00:00 | 00:00:00 | 08:30:00 | |
| PETON7-10 | 2026-09-03 11:32:05 | 49.41303 | 17.26059 | 111° | 40km/h | 5191m | 5.8m/s | -11.9°C | 75.6% | 0hPa | 3.0V | 00:00:00 | 00:00:00 | 08:30:00 | |
| PETON7-10 | 2026-09-03 11:31:50 | 49.41406 | 17.25895 | 113° | 46km/h | 5105m | 4.7m/s | -11.7°C | 90.8% | 0hPa | 3.0V | 00:00:00 | 00:00:00 | 00:00:00 | |
| OE3OSB-13 | 2026-09-03 11:31:39 | 49.41468 | 17.25736 | 136° | 55km/h | 5044m | 5.1m/s | -11.3°C | 88.3% | -1.0hPa | 3.0V | 00:00:00 | 00:00:00 | 00:00:00 | |
| OE3JTB-15 | 2026-09-03 11:31:37 | 49.41487 | 17.25709 | 140° | 40km/h | 5035m | 3.8m/s | -11.2°C | 90.4% | 0hPa | 3.0V | 00:00:00 | 00:00:00 | 00:00:00 | |
| PETON7-10 | 2026-09-03 11:31:35 | 49.41505 | 17.25686 | 136° | 38km/h | 5025m | 5.4m/s | -11.1°C | 90.0% | 0hPa | 3.0V | 00:00:00 | 00:37:46 | 00:00:00 | |
| PETON7-10 | 2026-09-03 11:31:20 | 49.41566 | 17.25484 | 114° | 44km/h | 4943m | 5.9m/s | -10.4°C | 87.8% | 0hPa | 3.0V | 00:00:00 | 00:00:00 | 00:00:00 | |
| OE3JTB-15 | 2026-09-03 11:31:08 | 49.41632 | 17.25312 | 124° | 49km/h | 4873m | 4.6m/s | -9.7°C | 86.8% | 0hPa | 3.0V | 00:00:00 | 00:37:19 | 00:00:00 | |
| PETON7-10 | 2026-09-03 11:31:05 | 49.41650 | 17.25261 | 120° | 46km/h | 4854m | 9.0m/s | -9.6°C | 87.7% | 0hPa | 3.0V | 00:00:00 | 00:00:00 | 00:00:00 | |
| PETON7-10 | 2026-09-03 11:30:50 | 49.41738 | 17.25037 | 118° | 53km/h | 4759m | 3.3m/s | -9.2°C | 84.7% | 0hPa | 3.0V | 00:00:00 | 00:37:01 | 00:00:00 | |
| OE3OSB-13 | 2026-09-03 11:30:37 | 49.41830 | 17.24812 | 113° | 58km/h | 4697m | 4.6m/s | -8.7°C | 82.6% | -1.0hPa | 3.0V | 00:00:00 | 00:00:00 | 00:00:00 | |
| PETON7-10 | 2026-09-03 11:30:35 | 49.41842 | 17.24775 | 123° | 55km/h | 4689m | 4.6m/s | -8.6°C | 85.0% | 0hPa | 3.0V | 00:00:00 | 00:00:00 | 00:00:00 | |
| PETON7-10 | 2026-09-03 11:30:20 | 49.41948 | 17.24505 | 137° | 58km/h | 4597m | 5.3m/s | -7.8°C | 78.9% | 0hPa | 3.0V | 00:00:00 | 00:00:00 | 00:00:00 | |
| OE3OSB-13 | 2026-09-03 11:30:06 | 49.42061 | 17.24236 | 131° | 49km/h | 4506m | 6.6m/s | -7.1°C | 77.7% | -1.0hPa | 3.0V | 00:00:00 | 00:00:00 | 00:00:00 | |
| PETON7-10 | 2026-09-03 11:30:04 | 49.42077 | 17.24210 | 135° | 55km/h | 4496m | 4.3m/s | -6.9°C | 79.0% | 0hPa | 3.0V | 00:00:00 | 00:36:15 | 00:00:00 | |
| OE3JTB-15 | 2026-09-03 11:30:03 | 49.42085 | 17.24198 | 132° | 51km/h | 4492m | 4.5m/s | -6.9°C | 79.1% | 0hPa | 3.0V | 00:00:00 | 00:00:00 | 00:00:00 | |
| PETON7-10 | 2026-09-03 11:29:49 | 49.42195 | 17.23952 | 131° | 58km/h | 4418m | 4.9m/s | -6.3°C | 76.7% | 0hPa | 3.0V | 00:00:00 | 00:00:00 | 08:30:00 | |
| OE3OSB-13 | 2026-09-03 11:29:35 | 49.42327 | 17.23686 | 135° | 64km/h | 4328m | 6.8m/s | -5.5°C | 69.6% | -1.0hPa | 3.0V | 00:00:00 | 00:00:00 | 00:00:00 | |
| PETON7-10 | 2026-09-03 11:29:34 | 49.42327 | 17.23686 | 136° | 55km/h | 4329m | 6.8m/s | -5.5°C | 71.1% | 0hPa | 3.0V | 00:00:00 | 00:00:00 | 00:00:00 | |
| OE3JTB-15 | 2026-09-03 11:29:25 | 49.42411 | 17.23562 | 119° | 40km/h | 4285m | 5.8m/s | -5.2°C | 68.9% | 0hPa | 3.0V | 00:00:00 | 00:35:36 | 00:00:00 | |
| PETON7-10 | 2026-09-03 11:29:19 | 49.42465 | 17.23450 | 135° | 46km/h | 4253m | 4.5m/s | -4.9°C | 70.5% | 0hPa | 3.0V | 00:00:00 | 00:35:30 | 00:00:00 | |
| OE3OSB-13 | 2026-09-03 11:29:04 | 49.42585 | 17.23244 | 145° | 42km/h | 4166m | 6.4m/s | -4.4°C | 71.0% | -1.0hPa | 3.0V | 00:00:00 | 00:00:00 | 00:00:00 | |
| OE3JTB-15 | 2026-09-03 11:28:56 | 49.42641 | 17.23184 | 144° | 47km/h | 4139m | 6.6m/s | -4.2°C | 74.0% | 0hPa | 3.0V | 00:00:00 | 00:00:00 | 00:00:00 | |
| PETON7-10 | 2026-09-03 11:28:49 | 49.42699 | 17.23115 | 134° | 46km/h | 4106m | 5.2m/s | -4.2°C | 76.3% | 0hPa | 3.0V | 00:00:00 | 00:00:00 | 00:00:00 | |
| PETON7-10 | 2026-09-03 11:28:34 | 49.42796 | 17.22899 | 124° | 47km/h | 4026m | 4.0m/s | -3.5°C | 73.8% | 0hPa | 3.0V | 00:00:00 | 00:34:45 | 00:00:00 | |
| OE3OSB-13 | 2026-09-03 11:28:32 | 49.42814 | 17.22863 | 128° | 62km/h | 4016m | 6.6m/s | -3.5°C | 72.7% | -1.0hPa | 3.0V | 00:00:00 | 00:00:00 | 00:00:00 | |
| OE3JTB-15 | 2026-09-03 11:28:27 | 49.42862 | 17.22774 | 133° | 46km/h | 3990m | 4.8m/s | -3.4°C | 77.6% | 0hPa | 3.0V | 00:00:00 | 00:00:00 | 00:00:00 | |
| PETON7-10 | 2026-09-03 11:28:19 | 49.42901 | 17.22677 | 117° | 49km/h | 3952m | 3.9m/s | -3.3°C | 79.4% | 0hPa | 3.0V | 00:00:00 | 00:00:00 | 00:00:00 | |
| PETON7-10 | 2026-09-03 11:28:04 | 49.43014 | 17.22454 | 131° | 49km/h | 3887m | 3.7m/s | -2.7°C | 77.8% | 0hPa | 3.0V | 00:00:00 | 00:00:00 | 00:00:00 | |
| OE3OSB-13 | 2026-09-03 11:28:02 | 49.43033 | 17.22418 | 132° | 38km/h | 3873m | 5.8m/s | -2.6°C | 75.6% | -1.0hPa | 3.0V | 00:00:00 | 00:00:00 | 00:00:00 | |
| OE3JTB-15 | 2026-09-03 11:27:58 | 49.43052 | 17.22383 | 128° | 55km/h | 3861m | 4.6m/s | -2.5°C | 77.7% | 0hPa | 3.0V | 00:00:00 | 00:34:09 | 00:00:00 | |
| PETON7-10 | 2026-09-03 11:27:49 | 49.43099 | 17.22208 | 109° | 53km/h | 3820m | 3.3m/s | -2.2°C | 78.7% | 0hPa | 3.0V | 00:00:00 | 00:34:00 | 00:00:00 | |
| PETON7-10 | 2026-09-03 11:27:34 | 49.43220 | 17.21962 | 127° | 55km/h | 3753m | 4.2m/s | -1.8°C | 78.2% | 0hPa | 3.0V | 00:00:00 | 00:00:00 | 08:30:00 | |
| OE3OSB-13 | 2026-09-03 11:27:30 | 49.43248 | 17.21897 | 123° | 49km/h | 3731m | 7.4m/s | -1.7°C | 74.9% | -1.0hPa | 3.0V | 00:00:00 | 00:00:00 | 00:00:00 | |
| OE3JTB-15 | 2026-09-03 11:27:28 | 49.43266 | 17.21864 | 135° | 55km/h | 3719m | 5.0m/s | -1.5°C | 75.1% | 0hPa | 3.0V | 00:00:00 | 00:00:00 | 08:30:00 | |
| PETON7-10 | 2026-09-03 11:27:19 | 49.43337 | 17.21704 | 112° | 49km/h | 3675m | 6.8m/s | -1.6°C | 74.0% | 0hPa | 3.0V | 00:00:00 | 00:00:00 | 00:00:00 | |
| PETON7-10 | 2026-09-03 11:27:04 | 49.43425 | 17.21451 | 128° | 58km/h | 3603m | 4.9m/s | -1.3°C | 83.0% | 0hPa | 3.0V | 00:00:00 | 00:33:15 | 00:00:00 | |
| OE3OSB-13 | 2026-09-03 11:26:59 | 49.43467 | 17.21365 | 118° | 60km/h | 3579m | 3.8m/s | -1.3°C | 84.6% | -1.0hPa | 3.0V | 00:00:00 | 00:00:00 | 00:00:00 | |
| OE3JTB-15 | 2026-09-03 11:26:58 | 49.43474 | 17.21343 | 117° | 57km/h | 3575m | 4.6m/s | -1.3°C | 86.0% | 0hPa | 3.0V | 00:00:00 | 00:00:00 | 00:00:00 | |
| PETON7-10 | 2026-09-03 11:26:49 | 49.43542 | 17.21161 | 122° | 57km/h | 3537m | 6.0m/s | -1.3°C | 88.6% | 0hPa | 3.0V | 00:00:00 | 00:00:00 | 00:00:00 | |
| PETON7-10 | 2026-09-03 11:26:34 | 49.43638 | 17.20873 | 115° | 57km/h | 3470m | 5.2m/s | -1.1°C | 89.9% | 0hPa | 3.0V | 00:00:00 | 00:00:00 | 00:00:00 | |
| OE3OSB-13 | 2026-09-03 11:26:28 | 49.43691 | 17.20742 | 124° | 64km/h | 3445m | 4.3m/s | -1.0°C | 87.5% | -1.0hPa | 3.0V | 00:00:00 | 00:00:00 | 00:00:00 | |
| PETON7-10 | 2026-09-03 11:26:19 | 49.43753 | 17.20598 | 108° | 49km/h | 3409m | 4.2m/s | -0.6°C | 87.6% | 0hPa | 3.0V | 00:00:00 | 00:32:30 | 00:00:00 | |
| PETON7-10 | 2026-09-03 11:26:04 | 49.43845 | 17.20342 | 127° | 53km/h | 3337m | 4.8m/s | -0.2°C | 86.4% | 0hPa | 3.0V | 00:00:00 | 00:00:00 | 00:00:00 | |
| OE3OSB-13 | 2026-09-03 11:25:57 | 49.43882 | 17.20203 | 110° | 51km/h | 3298m | 5.5m/s | -0.3°C | -1.0% | -1.0hPa | 3.0V | 00:00:00 | 00:00:00 | 00:00:00 | |
| OE3JTB-15 | 2026-09-03 11:25:50 | 49.43929 | 17.20087 | 116° | 49km/h | 3257m | 6.3m/s | -0.1°C | 89.4% | 0hPa | 3.0V | 00:00:00 | 00:00:00 | 00:00:00 | |
| PETON7-10 | 2026-09-03 11:25:49 | 49.43934 | 17.20071 | 114° | 49km/h | 3251m | 6.7m/s | -0.1°C | 90.3% | 0hPa | 3.0V | 00:00:00 | 00:00:00 | 00:00:00 | |
| PETON7-10 | 2026-09-03 11:25:34 | 49.44015 | 17.19808 | 102° | 47km/h | 3183m | 3.5m/s | 0.0°C | 93.1% | 0hPa | 3.0V | 00:00:00 | 00:31:45 | 00:00:00 | |
| OE3OSB-13 | 2026-09-03 11:25:26 | 49.44054 | 17.19656 | 127° | 42km/h | 3138m | 4.2m/s | -0.3°C | -1.0% | -1.0hPa | 3.0V | 00:00:00 | 00:00:00 | 00:00:00 | |
| OE3JTB-15 | 2026-09-03 11:25:21 | 49.44073 | 17.19593 | 96° | 47km/h | 3114m | 3.6m/s | -0.0°C | 97.0% | 0hPa | 3.0V | 00:00:00 | 00:00:00 | 00:00:00 | |
| PETON7-10 | 2026-09-03 11:25:19 | 49.44077 | 17.19557 | 103° | 47km/h | 3105m | 4.8m/s | 0.0°C | 96.3% | 0hPa | 3.0V | 00:00:00 | 00:00:00 | 08:30:00 | |
| PETON7-10 | 2026-09-03 11:25:04 | 49.44135 | 17.19295 | 108° | 49km/h | 3039m | 3.9m/s | 0.4°C | 95.3% | 0hPa | 3.0V | 00:00:00 | 00:00:00 | 00:00:00 | |
| OE3JTB-15 | 2026-09-03 11:24:52 | 49.44177 | 17.19078 | 109° | 49km/h | 2994m | 3.7m/s | 0.7°C | 93.7% | 0hPa | 3.0V | 00:00:00 | 00:31:03 | 00:00:00 | |
| PETON7-10 | 2026-09-03 11:24:49 | 49.44194 | 17.19025 | 125° | 51km/h | 2983m | 3.8m/s | 0.8°C | 93.2% | 0hPa | 3.0V | 00:00:00 | 00:31:00 | 00:00:00 | |
| PETON7-10 | 2026-09-03 11:24:34 | 49.44228 | 17.18739 | 96° | 49km/h | 2914m | 4.8m/s | 0°C | 0% | 0hPa | 3.0V | 00:00:00 | 00:00:00 | 00:00:00 | |
| OE3JTB-15 | 2026-09-03 11:24:23 | 49.44259 | 17.18545 | 99° | 46km/h | 2865m | 4.5m/s | 1.3°C | 88.9% | 0hPa | 3.0V | 00:00:00 | 00:00:00 | 00:00:00 | |
| PETON7-10 | 2026-09-03 11:24:19 | 49.44274 | 17.18468 | 118° | 44km/h | 2847m | 2.9m/s | 0°C | 0% | 0hPa | 3.0V | 00:00:00 | 00:00:00 | 00:00:00 | |
| PETON7-10 | 2026-09-03 11:24:04 | 49.44319 | 17.18224 | 110° | 46km/h | 2784m | 4.0m/s | 0°C | 0% | 0hPa | 3.0V | 00:00:00 | 00:30:15 | 00:00:00 | |
| OE3JTB-15 | 2026-09-03 11:23:54 | 49.44340 | 17.18061 | 114° | 42km/h | 2740m | 3.5m/s | 2.3°C | 87.3% | 0hPa | 3.0V | 00:00:00 | 00:00:00 | 00:00:00 | |
| PETON7-10 | 2026-09-03 11:23:49 | 49.44349 | 17.17969 | 90° | 40km/h | 2716m | 5.1m/s | 0°C | 0% | 0hPa | 3.0V | 00:00:00 | 00:00:00 | 00:00:00 | |
| PETON7-10 | 2026-09-03 11:23:30 | 49.44405 | 17.17688 | 111° | 42km/h | 2615m | 4.2m/s | 0°C | 0% | 0hPa | 3.0V | 00:00:00 | 00:00:00 | 00:00:00 | |
| OE3JTB-15 | 2026-09-03 11:23:25 | 49.44410 | 17.17615 | 99° | 38km/h | 2590m | 4.4m/s | 3.4°C | 87.5% | 0hPa | 3.0V | 00:00:00 | 00:29:36 | 00:00:00 | |
| PETON7-10 | 2026-09-03 11:23:15 | 49.44455 | 17.17479 | 97° | 27km/h | 2546m | 3.3m/s | 0°C | 0% | 0hPa | 3.0V | 00:00:00 | 00:29:26 | 00:00:00 | |
| PETON7-10 | 2026-09-03 11:23:00 | 49.44491 | 17.17275 | 84° | 40km/h | 2476m | 4.5m/s | 0°C | 0% | 0hPa | 3.0V | 00:00:00 | 00:00:00 | 00:00:00 | |
| OE3JTB-15 | 2026-09-03 11:22:56 | 49.44493 | 17.17211 | 108° | 38km/h | 2457m | 3.7m/s | 4.0°C | 85.5% | 0hPa | 3.0V | 00:00:00 | 00:00:00 | 08:30:00 | |
| OE3JTB-15 | 2026-09-03 11:22:27 | 49.44556 | 17.16796 | 106° | 37km/h | 2314m | 6.8m/s | 4.6°C | 87.3% | 0hPa | 3.0V | 00:00:00 | 00:00:00 | 00:00:00 | |
| OE3JTB-15 | 2026-09-03 11:21:58 | 49.44635 | 17.16401 | 120° | 31km/h | 2156m | 5.4m/s | 5.9°C | 81.6% | 0hPa | 3.0V | 00:00:00 | 00:28:09 | 00:00:00 | |
| OE3JTB-15 | 2026-09-03 11:21:29 | 49.44733 | 17.16091 | 116° | 33km/h | 2019m | 6.8m/s | 7.0°C | 81.7% | 0hPa | 3.0V | 00:00:00 | 00:00:00 | 00:00:00 | |
| OE3JTB-15 | 2026-09-03 11:21:00 | 49.44790 | 17.15737 | 89° | 33km/h | 1857m | 6.3m/s | 8.1°C | 86.5% | 0hPa | 3.0V | 00:00:00 | 00:00:00 | 00:00:00 | |
| OE3JTB-15 | 2026-09-03 11:20:31 | 49.44802 | 17.15379 | 98° | 33km/h | 1700m | 6.4m/s | 9.6°C | 80.0% | 0hPa | 3.0V | 00:00:00 | 00:26:42 | 00:00:00 | |
| OE3JTB-15 | 2026-09-03 11:20:02 | 49.44832 | 17.15015 | 77° | 29km/h | 1551m | 5.7m/s | 10.9°C | 74.6% | 0hPa | 3.0V | 00:00:00 | 00:00:00 | 00:00:00 | |
| OE3JTB-15 | 2026-09-03 11:19:33 | 49.44856 | 17.14699 | 112° | 27km/h | 1406m | 5.4m/s | 12.2°C | 70.1% | 0hPa | 0V | 00:00:00 | 00:00:00 | 00:00:00 | |
| OE3JTB-15 | 2026-09-03 11:19:04 | 49.44887 | 17.14401 | 116° | 26km/h | 1267m | 7.1m/s | 0°C | 0% | 0hPa | 0V | 00:00:00 | 00:25:15 | 00:00:00 | |
| OE3JTB-15 | 2026-09-03 11:18:35 | 49.44903 | 17.14127 | 121° | 20km/h | 1132m | 4.3m/s | 0°C | 0% | 0hPa | 0V | 00:00:00 | 00:00:00 | 00:00:00 |